<?xml version="1.0" encoding="UTF-8" standalone="no" ?>
<gpx xmlns="http://www.topografix.com/GPX/1/1" xmlns:xsi="http://www.w3.org/2001/XMLSchema-instance" xsi:schemaLocation="http://www.topografix.com/GPX/1/1 http://www.topografix.com/GPX/1/1/gpx.xsd" version="1.1" creator="VisuGPX - https://www.visugpx.com">
  <metadata>
    <name>lundi 2015 04 20</name>
    <desc><![CDATA[rando du lundi]]></desc>
  </metadata>
  <trk>
    <name><![CDATA[85 Quai de la Mégisserie]]></name>
    <desc><![CDATA[]]></desc>
    <trkseg>
      <trkpt lat="48.85743" lon="2.34724">
        <ele>95.8</ele>
        <time>2015-04-20T18:20:29.682Z</time>
      </trkpt>
      <trkpt lat="48.8574" lon="2.34712">
        <ele>95.4</ele>
        <time>2015-04-20T18:20:39.146Z</time>
      </trkpt>
      <trkpt lat="48.8574" lon="2.34711">
        <ele>95.5</ele>
        <time>2015-04-20T18:20:40.045Z</time>
      </trkpt>
      <trkpt lat="48.85741" lon="2.34711">
        <ele>95.5</ele>
        <time>2015-04-20T18:20:47.098Z</time>
      </trkpt>
      <trkpt lat="48.85741" lon="2.3471">
        <ele>95.9</ele>
        <time>2015-04-20T18:20:48.124Z</time>
      </trkpt>
      <trkpt lat="48.85737" lon="2.34701">
        <ele>95.8</ele>
        <time>2015-04-20T18:20:53.034Z</time>
      </trkpt>
      <trkpt lat="48.85734" lon="2.347">
        <ele>95.6</ele>
        <time>2015-04-20T18:20:54.069Z</time>
      </trkpt>
      <trkpt lat="48.85727" lon="2.34699">
        <ele>95.2</ele>
        <time>2015-04-20T18:20:57.109Z</time>
      </trkpt>
      <trkpt lat="48.85725" lon="2.34698">
        <ele>95.2</ele>
        <time>2015-04-20T18:20:58.201Z</time>
      </trkpt>
      <trkpt lat="48.85716" lon="2.34694">
        <ele>95.4</ele>
        <time>2015-04-20T18:21:02.063Z</time>
      </trkpt>
      <trkpt lat="48.85714" lon="2.34693">
        <ele>95.4</ele>
        <time>2015-04-20T18:21:03.454Z</time>
      </trkpt>
      <trkpt lat="48.85707" lon="2.3469">
        <ele>95.3</ele>
        <time>2015-04-20T18:21:06.049Z</time>
      </trkpt>
      <trkpt lat="48.85705" lon="2.34689">
        <ele>95.3</ele>
        <time>2015-04-20T18:21:07.054Z</time>
      </trkpt>
      <trkpt lat="48.85697" lon="2.34685">
        <ele>94.3</ele>
        <time>2015-04-20T18:21:11.100Z</time>
      </trkpt>
      <trkpt lat="48.85695" lon="2.34685">
        <ele>94.1</ele>
        <time>2015-04-20T18:21:12.044Z</time>
      </trkpt>
      <trkpt lat="48.85687" lon="2.34682">
        <ele>93.7</ele>
        <time>2015-04-20T18:21:16.037Z</time>
      </trkpt>
      <trkpt lat="48.85685" lon="2.34681">
        <ele>93.6</ele>
        <time>2015-04-20T18:21:17.062Z</time>
      </trkpt>
      <trkpt lat="48.85678" lon="2.34677">
        <ele>93.8</ele>
        <time>2015-04-20T18:21:20.073Z</time>
      </trkpt>
      <trkpt lat="48.85676" lon="2.34676">
        <ele>93.9</ele>
        <time>2015-04-20T18:21:21.135Z</time>
      </trkpt>
      <trkpt lat="48.8567" lon="2.34671">
        <ele>94.3</ele>
        <time>2015-04-20T18:21:24.341Z</time>
      </trkpt>
      <trkpt lat="48.85668" lon="2.34669">
        <ele>94.4</ele>
        <time>2015-04-20T18:21:25.059Z</time>
      </trkpt>
      <trkpt lat="48.85661" lon="2.34664">
        <ele>94.6</ele>
        <time>2015-04-20T18:21:28.063Z</time>
      </trkpt>
      <trkpt lat="48.85658" lon="2.34663">
        <ele>94.5</ele>
        <time>2015-04-20T18:21:29.089Z</time>
      </trkpt>
      <trkpt lat="48.8565" lon="2.34658">
        <ele>94.8</ele>
        <time>2015-04-20T18:21:32.104Z</time>
      </trkpt>
      <trkpt lat="48.85647" lon="2.34656">
        <ele>94.9</ele>
        <time>2015-04-20T18:21:33.148Z</time>
      </trkpt>
      <trkpt lat="48.85642" lon="2.34653">
        <ele>95.2</ele>
        <time>2015-04-20T18:21:35.072Z</time>
      </trkpt>
      <trkpt lat="48.85638" lon="2.34652">
        <ele>95.2</ele>
        <time>2015-04-20T18:21:36.161Z</time>
      </trkpt>
      <trkpt lat="48.85631" lon="2.34645">
        <ele>95.3</ele>
        <time>2015-04-20T18:21:39.222Z</time>
      </trkpt>
      <trkpt lat="48.85628" lon="2.34644">
        <ele>95.3</ele>
        <time>2015-04-20T18:21:40.078Z</time>
      </trkpt>
      <trkpt lat="48.8562" lon="2.34639">
        <ele>94.9</ele>
        <time>2015-04-20T18:21:43.109Z</time>
      </trkpt>
      <trkpt lat="48.85617" lon="2.34638">
        <ele>94.9</ele>
        <time>2015-04-20T18:21:44.120Z</time>
      </trkpt>
      <trkpt lat="48.85611" lon="2.34634">
        <ele>95</ele>
        <time>2015-04-20T18:21:47.078Z</time>
      </trkpt>
      <trkpt lat="48.85608" lon="2.34632">
        <ele>95.1</ele>
        <time>2015-04-20T18:21:48.080Z</time>
      </trkpt>
      <trkpt lat="48.85602" lon="2.34628">
        <ele>95.4</ele>
        <time>2015-04-20T18:21:50.119Z</time>
      </trkpt>
      <trkpt lat="48.85598" lon="2.34626">
        <ele>95.5</ele>
        <time>2015-04-20T18:21:51.162Z</time>
      </trkpt>
      <trkpt lat="48.85591" lon="2.34622">
        <ele>95.5</ele>
        <time>2015-04-20T18:21:53.145Z</time>
      </trkpt>
      <trkpt lat="48.85587" lon="2.34618">
        <ele>95.4</ele>
        <time>2015-04-20T18:21:54.048Z</time>
      </trkpt>
      <trkpt lat="48.85583" lon="2.34614">
        <ele>95.2</ele>
        <time>2015-04-20T18:21:55.131Z</time>
      </trkpt>
      <trkpt lat="48.85574" lon="2.34608">
        <ele>95.1</ele>
        <time>2015-04-20T18:21:57.162Z</time>
      </trkpt>
      <trkpt lat="48.85569" lon="2.34604">
        <ele>95</ele>
        <time>2015-04-20T18:21:58.078Z</time>
      </trkpt>
      <trkpt lat="48.85565" lon="2.34599">
        <ele>95</ele>
        <time>2015-04-20T18:21:59.086Z</time>
      </trkpt>
      <trkpt lat="48.85561" lon="2.34595">
        <ele>95</ele>
        <time>2015-04-20T18:22:00.120Z</time>
      </trkpt>
      <trkpt lat="48.85553" lon="2.34587">
        <ele>94.9</ele>
        <time>2015-04-20T18:22:02.146Z</time>
      </trkpt>
      <trkpt lat="48.85546" lon="2.34578">
        <ele>95</ele>
        <time>2015-04-20T18:22:04.118Z</time>
      </trkpt>
      <trkpt lat="48.85542" lon="2.34574">
        <ele>95</ele>
        <time>2015-04-20T18:22:05.029Z</time>
      </trkpt>
      <trkpt lat="48.85462" lon="2.34507">
        <ele>94.8</ele>
        <time>2015-04-20T18:22:23.294Z</time>
      </trkpt>
      <trkpt lat="48.85457" lon="2.34503">
        <ele>94.8</ele>
        <time>2015-04-20T18:22:24.026Z</time>
      </trkpt>
      <trkpt lat="48.85451" lon="2.34496">
        <ele>94.7</ele>
        <time>2015-04-20T18:22:25.049Z</time>
      </trkpt>
      <trkpt lat="48.85445" lon="2.34489">
        <ele>94.7</ele>
        <time>2015-04-20T18:22:26.070Z</time>
      </trkpt>
      <trkpt lat="48.85439" lon="2.34483">
        <ele>95</ele>
        <time>2015-04-20T18:22:27.143Z</time>
      </trkpt>
      <trkpt lat="48.85434" lon="2.34479">
        <ele>95.2</ele>
        <time>2015-04-20T18:22:28.029Z</time>
      </trkpt>
      <trkpt lat="48.85428" lon="2.34473">
        <ele>95.5</ele>
        <time>2015-04-20T18:22:29.061Z</time>
      </trkpt>
      <trkpt lat="48.85422" lon="2.34468">
        <ele>95.7</ele>
        <time>2015-04-20T18:22:30.086Z</time>
      </trkpt>
      <trkpt lat="48.85418" lon="2.34464">
        <ele>96.2</ele>
        <time>2015-04-20T18:22:31.103Z</time>
      </trkpt>
      <trkpt lat="48.85413" lon="2.3446">
        <ele>96.9</ele>
        <time>2015-04-20T18:22:32.125Z</time>
      </trkpt>
      <trkpt lat="48.85408" lon="2.34456">
        <ele>97.5</ele>
        <time>2015-04-20T18:22:33.197Z</time>
      </trkpt>
      <trkpt lat="48.85401" lon="2.34452">
        <ele>98.2</ele>
        <time>2015-04-20T18:22:35.077Z</time>
      </trkpt>
      <trkpt lat="48.85398" lon="2.34449">
        <ele>98.5</ele>
        <time>2015-04-20T18:22:36.130Z</time>
      </trkpt>
      <trkpt lat="48.8539" lon="2.34444">
        <ele>99.2</ele>
        <time>2015-04-20T18:22:40.129Z</time>
      </trkpt>
      <trkpt lat="48.85389" lon="2.34444">
        <ele>99.3</ele>
        <time>2015-04-20T18:22:41.139Z</time>
      </trkpt>
      <trkpt lat="48.85381" lon="2.34439">
        <ele>99.9</ele>
        <time>2015-04-20T18:22:47.094Z</time>
      </trkpt>
      <trkpt lat="48.8538" lon="2.34436">
        <ele>99.8</ele>
        <time>2015-04-20T18:22:48.060Z</time>
      </trkpt>
      <trkpt lat="48.85373" lon="2.34428">
        <ele>100.1</ele>
        <time>2015-04-20T18:22:53.172Z</time>
      </trkpt>
      <trkpt lat="48.8537" lon="2.34424">
        <ele>100.2</ele>
        <time>2015-04-20T18:22:54.163Z</time>
      </trkpt>
      <trkpt lat="48.85364" lon="2.34415">
        <ele>100.5</ele>
        <time>2015-04-20T18:22:56.130Z</time>
      </trkpt>
      <trkpt lat="48.8536" lon="2.34409">
        <ele>100.6</ele>
        <time>2015-04-20T18:22:57.127Z</time>
      </trkpt>
      <trkpt lat="48.85356" lon="2.34405">
        <ele>101.1</ele>
        <time>2015-04-20T18:22:58.125Z</time>
      </trkpt>
      <trkpt lat="48.85352" lon="2.344">
        <ele>101.8</ele>
        <time>2015-04-20T18:22:59.492Z</time>
      </trkpt>
      <trkpt lat="48.85349" lon="2.34394">
        <ele>102.2</ele>
        <time>2015-04-20T18:23:00.054Z</time>
      </trkpt>
      <trkpt lat="48.85346" lon="2.34389">
        <ele>102.6</ele>
        <time>2015-04-20T18:23:01.082Z</time>
      </trkpt>
      <trkpt lat="48.8534" lon="2.34378">
        <ele>103.1</ele>
        <time>2015-04-20T18:23:03.171Z</time>
      </trkpt>
      <trkpt lat="48.85338" lon="2.34373">
        <ele>103.3</ele>
        <time>2015-04-20T18:23:04.133Z</time>
      </trkpt>
      <trkpt lat="48.85337" lon="2.34365">
        <ele>103.3</ele>
        <time>2015-04-20T18:23:05.138Z</time>
      </trkpt>
      <trkpt lat="48.85336" lon="2.34359">
        <ele>103.5</ele>
        <time>2015-04-20T18:23:06.109Z</time>
      </trkpt>
      <trkpt lat="48.85335" lon="2.34347">
        <ele>103.9</ele>
        <time>2015-04-20T18:23:08.119Z</time>
      </trkpt>
      <trkpt lat="48.85328" lon="2.34344">
        <ele>103.7</ele>
        <time>2015-04-20T18:23:09.101Z</time>
      </trkpt>
      <trkpt lat="48.85322" lon="2.34337">
        <ele>103.9</ele>
        <time>2015-04-20T18:23:11.118Z</time>
      </trkpt>
      <trkpt lat="48.85319" lon="2.34333">
        <ele>103.9</ele>
        <time>2015-04-20T18:23:12.131Z</time>
      </trkpt>
      <trkpt lat="48.85315" lon="2.3433">
        <ele>103.8</ele>
        <time>2015-04-20T18:23:13.040Z</time>
      </trkpt>
      <trkpt lat="48.85312" lon="2.34324">
        <ele>103.5</ele>
        <time>2015-04-20T18:23:14.043Z</time>
      </trkpt>
      <trkpt lat="48.85309" lon="2.34315">
        <ele>103.4</ele>
        <time>2015-04-20T18:23:16.067Z</time>
      </trkpt>
      <trkpt lat="48.85309" lon="2.34287">
        <ele>103.1</ele>
        <time>2015-04-20T18:23:21.137Z</time>
      </trkpt>
      <trkpt lat="48.85311" lon="2.34274">
        <ele>102.8</ele>
        <time>2015-04-20T18:23:23.050Z</time>
      </trkpt>
      <trkpt lat="48.85312" lon="2.3427">
        <ele>102.8</ele>
        <time>2015-04-20T18:23:24.063Z</time>
      </trkpt>
      <trkpt lat="48.8531" lon="2.34262">
        <ele>102.7</ele>
        <time>2015-04-20T18:23:26.106Z</time>
      </trkpt>
      <trkpt lat="48.85305" lon="2.34253">
        <ele>102.7</ele>
        <time>2015-04-20T18:23:28.096Z</time>
      </trkpt>
      <trkpt lat="48.85302" lon="2.34249">
        <ele>102.7</ele>
        <time>2015-04-20T18:23:29.052Z</time>
      </trkpt>
      <trkpt lat="48.85302" lon="2.3424">
        <ele>102.7</ele>
        <time>2015-04-20T18:23:30.076Z</time>
      </trkpt>
      <trkpt lat="48.85298" lon="2.34235">
        <ele>102.7</ele>
        <time>2015-04-20T18:23:31.088Z</time>
      </trkpt>
      <trkpt lat="48.85294" lon="2.3423">
        <ele>102.8</ele>
        <time>2015-04-20T18:23:32.099Z</time>
      </trkpt>
      <trkpt lat="48.85287" lon="2.34227">
        <ele>102.9</ele>
        <time>2015-04-20T18:23:33.131Z</time>
      </trkpt>
      <trkpt lat="48.85283" lon="2.34222">
        <ele>102.9</ele>
        <time>2015-04-20T18:23:34.060Z</time>
      </trkpt>
      <trkpt lat="48.85279" lon="2.34218">
        <ele>103</ele>
        <time>2015-04-20T18:23:35.057Z</time>
      </trkpt>
      <trkpt lat="48.85275" lon="2.34214">
        <ele>103.1</ele>
        <time>2015-04-20T18:23:36.065Z</time>
      </trkpt>
      <trkpt lat="48.85271" lon="2.34206">
        <ele>102.8</ele>
        <time>2015-04-20T18:23:37.094Z</time>
      </trkpt>
      <trkpt lat="48.85271" lon="2.342">
        <ele>102.9</ele>
        <time>2015-04-20T18:23:38.105Z</time>
      </trkpt>
      <trkpt lat="48.85273" lon="2.34192">
        <ele>102.8</ele>
        <time>2015-04-20T18:23:39.114Z</time>
      </trkpt>
      <trkpt lat="48.85274" lon="2.34184">
        <ele>102.7</ele>
        <time>2015-04-20T18:23:40.130Z</time>
      </trkpt>
      <trkpt lat="48.85274" lon="2.34147">
        <ele>102.7</ele>
        <time>2015-04-20T18:23:46.093Z</time>
      </trkpt>
      <trkpt lat="48.85268" lon="2.34109">
        <ele>101.8</ele>
        <time>2015-04-20T18:23:54.047Z</time>
      </trkpt>
      <trkpt lat="48.85234" lon="2.34046">
        <ele>97.4</ele>
        <time>2015-04-20T18:24:07.031Z</time>
      </trkpt>
      <trkpt lat="48.85234" lon="2.34035">
        <ele>97.5</ele>
        <time>2015-04-20T18:24:09.131Z</time>
      </trkpt>
      <trkpt lat="48.85234" lon="2.34029">
        <ele>97.5</ele>
        <time>2015-04-20T18:24:10.027Z</time>
      </trkpt>
      <trkpt lat="48.85232" lon="2.34019">
        <ele>97.7</ele>
        <time>2015-04-20T18:24:12.072Z</time>
      </trkpt>
      <trkpt lat="48.85226" lon="2.34013">
        <ele>97.9</ele>
        <time>2015-04-20T18:24:13.097Z</time>
      </trkpt>
      <trkpt lat="48.85222" lon="2.34008">
        <ele>98.2</ele>
        <time>2015-04-20T18:24:14.059Z</time>
      </trkpt>
      <trkpt lat="48.8522" lon="2.34003">
        <ele>98.5</ele>
        <time>2015-04-20T18:24:15.078Z</time>
      </trkpt>
      <trkpt lat="48.85219" lon="2.33991">
        <ele>99.1</ele>
        <time>2015-04-20T18:24:18.136Z</time>
      </trkpt>
      <trkpt lat="48.8522" lon="2.33988">
        <ele>99.3</ele>
        <time>2015-04-20T18:24:19.046Z</time>
      </trkpt>
      <trkpt lat="48.85222" lon="2.33976">
        <ele>99.8</ele>
        <time>2015-04-20T18:24:21.094Z</time>
      </trkpt>
      <trkpt lat="48.85225" lon="2.33967">
        <ele>100</ele>
        <time>2015-04-20T18:24:22.097Z</time>
      </trkpt>
      <trkpt lat="48.85227" lon="2.3396">
        <ele>100.2</ele>
        <time>2015-04-20T18:24:23.113Z</time>
      </trkpt>
      <trkpt lat="48.85229" lon="2.33954">
        <ele>100.4</ele>
        <time>2015-04-20T18:24:24.125Z</time>
      </trkpt>
      <trkpt lat="48.85232" lon="2.33946">
        <ele>100.6</ele>
        <time>2015-04-20T18:24:25.079Z</time>
      </trkpt>
      <trkpt lat="48.85236" lon="2.3394">
        <ele>100.7</ele>
        <time>2015-04-20T18:24:26.087Z</time>
      </trkpt>
      <trkpt lat="48.85238" lon="2.33934">
        <ele>100.8</ele>
        <time>2015-04-20T18:24:27.124Z</time>
      </trkpt>
      <trkpt lat="48.85242" lon="2.33924">
        <ele>100.8</ele>
        <time>2015-04-20T18:24:28.137Z</time>
      </trkpt>
      <trkpt lat="48.85244" lon="2.33916">
        <ele>100.8</ele>
        <time>2015-04-20T18:24:29.174Z</time>
      </trkpt>
      <trkpt lat="48.85246" lon="2.33909">
        <ele>100.7</ele>
        <time>2015-04-20T18:24:30.060Z</time>
      </trkpt>
      <trkpt lat="48.85249" lon="2.33903">
        <ele>100.7</ele>
        <time>2015-04-20T18:24:31.065Z</time>
      </trkpt>
      <trkpt lat="48.85234" lon="2.33894">
        <ele>100.3</ele>
        <time>2015-04-20T18:24:32.076Z</time>
      </trkpt>
      <trkpt lat="48.85221" lon="2.33892">
        <ele>99.9</ele>
        <time>2015-04-20T18:24:33.115Z</time>
      </trkpt>
      <trkpt lat="48.85214" lon="2.33892">
        <ele>99.8</ele>
        <time>2015-04-20T18:24:34.102Z</time>
      </trkpt>
      <trkpt lat="48.85208" lon="2.33892">
        <ele>99.9</ele>
        <time>2015-04-20T18:24:35.123Z</time>
      </trkpt>
      <trkpt lat="48.85203" lon="2.33891">
        <ele>100</ele>
        <time>2015-04-20T18:24:36.008Z</time>
      </trkpt>
      <trkpt lat="48.85198" lon="2.3389">
        <ele>100</ele>
        <time>2015-04-20T18:24:37.039Z</time>
      </trkpt>
      <trkpt lat="48.8519" lon="2.33884">
        <ele>100.4</ele>
        <time>2015-04-20T18:24:39.073Z</time>
      </trkpt>
      <trkpt lat="48.85188" lon="2.33882">
        <ele>100.5</ele>
        <time>2015-04-20T18:24:40.130Z</time>
      </trkpt>
      <trkpt lat="48.85181" lon="2.33874">
        <ele>100.8</ele>
        <time>2015-04-20T18:24:43.042Z</time>
      </trkpt>
      <trkpt lat="48.85178" lon="2.33868">
        <ele>100.7</ele>
        <time>2015-04-20T18:24:44.127Z</time>
      </trkpt>
      <trkpt lat="48.85174" lon="2.33859">
        <ele>100.6</ele>
        <time>2015-04-20T18:24:46.073Z</time>
      </trkpt>
      <trkpt lat="48.8517" lon="2.33856">
        <ele>100.6</ele>
        <time>2015-04-20T18:24:47.086Z</time>
      </trkpt>
      <trkpt lat="48.85164" lon="2.33848">
        <ele>100.5</ele>
        <time>2015-04-20T18:24:49.007Z</time>
      </trkpt>
      <trkpt lat="48.85162" lon="2.33842">
        <ele>100.4</ele>
        <time>2015-04-20T18:24:50.027Z</time>
      </trkpt>
      <trkpt lat="48.8516" lon="2.33838">
        <ele>100.4</ele>
        <time>2015-04-20T18:24:51.060Z</time>
      </trkpt>
      <trkpt lat="48.85058" lon="2.33264">
        <ele>100.3</ele>
        <time>2015-04-20T18:26:15.148Z</time>
      </trkpt>
      <trkpt lat="48.85052" lon="2.33263">
        <ele>100.4</ele>
        <time>2015-04-20T18:26:16.160Z</time>
      </trkpt>
      <trkpt lat="48.85047" lon="2.33262">
        <ele>100.3</ele>
        <time>2015-04-20T18:26:17.022Z</time>
      </trkpt>
      <trkpt lat="48.85043" lon="2.3326">
        <ele>100.4</ele>
        <time>2015-04-20T18:26:18.036Z</time>
      </trkpt>
      <trkpt lat="48.85038" lon="2.33259">
        <ele>100.5</ele>
        <time>2015-04-20T18:26:19.049Z</time>
      </trkpt>
      <trkpt lat="48.85033" lon="2.33258">
        <ele>100.5</ele>
        <time>2015-04-20T18:26:20.057Z</time>
      </trkpt>
      <trkpt lat="48.85027" lon="2.3326">
        <ele>100.6</ele>
        <time>2015-04-20T18:26:21.073Z</time>
      </trkpt>
      <trkpt lat="48.85022" lon="2.3326">
        <ele>100.6</ele>
        <time>2015-04-20T18:26:22.086Z</time>
      </trkpt>
      <trkpt lat="48.85017" lon="2.3326">
        <ele>100.8</ele>
        <time>2015-04-20T18:26:23.099Z</time>
      </trkpt>
      <trkpt lat="48.85011" lon="2.33259">
        <ele>100.8</ele>
        <time>2015-04-20T18:26:24.006Z</time>
      </trkpt>
      <trkpt lat="48.85006" lon="2.33259">
        <ele>101</ele>
        <time>2015-04-20T18:26:25.066Z</time>
      </trkpt>
      <trkpt lat="48.85001" lon="2.3326">
        <ele>101</ele>
        <time>2015-04-20T18:26:26.075Z</time>
      </trkpt>
      <trkpt lat="48.84996" lon="2.3326">
        <ele>101.1</ele>
        <time>2015-04-20T18:26:27.144Z</time>
      </trkpt>
      <trkpt lat="48.8499" lon="2.3326">
        <ele>101.2</ele>
        <time>2015-04-20T18:26:28.013Z</time>
      </trkpt>
      <trkpt lat="48.84878" lon="2.33258">
        <ele>100.5</ele>
        <time>2015-04-20T18:26:58.119Z</time>
      </trkpt>
      <trkpt lat="48.84879" lon="2.33259">
        <ele>100.6</ele>
        <time>2015-04-20T18:27:00.062Z</time>
      </trkpt>
      <trkpt lat="48.84879" lon="2.33259">
        <ele>100.6</ele>
        <time>2015-04-20T18:27:01.065Z</time>
      </trkpt>
      <trkpt lat="48.84878" lon="2.33259">
        <ele>100.6</ele>
        <time>2015-04-20T18:27:02.118Z</time>
      </trkpt>
      <trkpt lat="48.84878" lon="2.33259">
        <ele>100.5</ele>
        <time>2015-04-20T18:27:03.138Z</time>
      </trkpt>
      <trkpt lat="48.84879" lon="2.3326">
        <ele>100.4</ele>
        <time>2015-04-20T18:27:07.067Z</time>
      </trkpt>
      <trkpt lat="48.84878" lon="2.33263">
        <ele>100.5</ele>
        <time>2015-04-20T18:27:08.054Z</time>
      </trkpt>
      <trkpt lat="48.8487" lon="2.33268">
        <ele>100.7</ele>
        <time>2015-04-20T18:27:14.067Z</time>
      </trkpt>
      <trkpt lat="48.84868" lon="2.33266">
        <ele>100.8</ele>
        <time>2015-04-20T18:27:15.081Z</time>
      </trkpt>
      <trkpt lat="48.84864" lon="2.33256">
        <ele>101.2</ele>
        <time>2015-04-20T18:27:18.057Z</time>
      </trkpt>
      <trkpt lat="48.84862" lon="2.33251">
        <ele>101.3</ele>
        <time>2015-04-20T18:27:19.061Z</time>
      </trkpt>
      <trkpt lat="48.84862" lon="2.33238">
        <ele>101.5</ele>
        <time>2015-04-20T18:27:22.079Z</time>
      </trkpt>
      <trkpt lat="48.84862" lon="2.33212">
        <ele>101.6</ele>
        <time>2015-04-20T18:27:28.115Z</time>
      </trkpt>
      <trkpt lat="48.84861" lon="2.33208">
        <ele>101.5</ele>
        <time>2015-04-20T18:27:29.034Z</time>
      </trkpt>
      <trkpt lat="48.84584" lon="2.32898">
        <ele>101.5</ele>
        <time>2015-04-20T18:29:04.104Z</time>
      </trkpt>
      <trkpt lat="48.84582" lon="2.3289">
        <ele>101.6</ele>
        <time>2015-04-20T18:29:05.439Z</time>
      </trkpt>
      <trkpt lat="48.84575" lon="2.32887">
        <ele>101.7</ele>
        <time>2015-04-20T18:29:06.042Z</time>
      </trkpt>
      <trkpt lat="48.84571" lon="2.32881">
        <ele>101.7</ele>
        <time>2015-04-20T18:29:07.069Z</time>
      </trkpt>
      <trkpt lat="48.84568" lon="2.32875">
        <ele>101.8</ele>
        <time>2015-04-20T18:29:08.068Z</time>
      </trkpt>
      <trkpt lat="48.84565" lon="2.3287">
        <ele>101.9</ele>
        <time>2015-04-20T18:29:09.062Z</time>
      </trkpt>
      <trkpt lat="48.84555" lon="2.32864">
        <ele>101.9</ele>
        <time>2015-04-20T18:29:10.081Z</time>
      </trkpt>
      <trkpt lat="48.84549" lon="2.32853">
        <ele>101.9</ele>
        <time>2015-04-20T18:29:12.104Z</time>
      </trkpt>
      <trkpt lat="48.84546" lon="2.3285">
        <ele>101.9</ele>
        <time>2015-04-20T18:29:13.122Z</time>
      </trkpt>
      <trkpt lat="48.8454" lon="2.32844">
        <ele>102</ele>
        <time>2015-04-20T18:29:16.036Z</time>
      </trkpt>
      <trkpt lat="48.84538" lon="2.32843">
        <ele>102</ele>
        <time>2015-04-20T18:29:17.062Z</time>
      </trkpt>
      <trkpt lat="48.84531" lon="2.32836">
        <ele>102.3</ele>
        <time>2015-04-20T18:29:23.086Z</time>
      </trkpt>
      <trkpt lat="48.8453" lon="2.32835">
        <ele>102.5</ele>
        <time>2015-04-20T18:29:24.098Z</time>
      </trkpt>
      <trkpt lat="48.84527" lon="2.32834">
        <ele>102.9</ele>
        <time>2015-04-20T18:29:30.150Z</time>
      </trkpt>
      <trkpt lat="48.84527" lon="2.32833">
        <ele>103</ele>
        <time>2015-04-20T18:29:31.045Z</time>
      </trkpt>
      <trkpt lat="48.84526" lon="2.32833">
        <ele>103</ele>
        <time>2015-04-20T18:29:32.077Z</time>
      </trkpt>
      <trkpt lat="48.84522" lon="2.32821">
        <ele>103.5</ele>
        <time>2015-04-20T18:29:39.826Z</time>
      </trkpt>
      <trkpt lat="48.84522" lon="2.32819">
        <ele>103.6</ele>
        <time>2015-04-20T18:29:40.011Z</time>
      </trkpt>
      <trkpt lat="48.8452" lon="2.32808">
        <ele>103.6</ele>
        <time>2015-04-20T18:29:45.105Z</time>
      </trkpt>
      <trkpt lat="48.84386" lon="2.32713">
        <ele>102.4</ele>
        <time>2015-04-20T18:30:18.122Z</time>
      </trkpt>
      <trkpt lat="48.84381" lon="2.32708">
        <ele>102.4</ele>
        <time>2015-04-20T18:30:19.011Z</time>
      </trkpt>
      <trkpt lat="48.84375" lon="2.32703">
        <ele>102.4</ele>
        <time>2015-04-20T18:30:20.037Z</time>
      </trkpt>
      <trkpt lat="48.8437" lon="2.32699">
        <ele>102.5</ele>
        <time>2015-04-20T18:30:21.064Z</time>
      </trkpt>
      <trkpt lat="48.84365" lon="2.32694">
        <ele>102.5</ele>
        <time>2015-04-20T18:30:22.080Z</time>
      </trkpt>
      <trkpt lat="48.84361" lon="2.32689">
        <ele>102.6</ele>
        <time>2015-04-20T18:30:23.144Z</time>
      </trkpt>
      <trkpt lat="48.84357" lon="2.32685">
        <ele>102.7</ele>
        <time>2015-04-20T18:30:24.018Z</time>
      </trkpt>
      <trkpt lat="48.84354" lon="2.3268">
        <ele>102.8</ele>
        <time>2015-04-20T18:30:25.705Z</time>
      </trkpt>
      <trkpt lat="48.84352" lon="2.32672">
        <ele>103</ele>
        <time>2015-04-20T18:30:26.075Z</time>
      </trkpt>
      <trkpt lat="48.84348" lon="2.32668">
        <ele>103.2</ele>
        <time>2015-04-20T18:30:27.104Z</time>
      </trkpt>
      <trkpt lat="48.84343" lon="2.32666">
        <ele>103.4</ele>
        <time>2015-04-20T18:30:28.103Z</time>
      </trkpt>
      <trkpt lat="48.84339" lon="2.32662">
        <ele>103.7</ele>
        <time>2015-04-20T18:30:29.831Z</time>
      </trkpt>
      <trkpt lat="48.84335" lon="2.32659">
        <ele>103.9</ele>
        <time>2015-04-20T18:30:30.012Z</time>
      </trkpt>
      <trkpt lat="48.84332" lon="2.32657">
        <ele>104.5</ele>
        <time>2015-04-20T18:30:31.037Z</time>
      </trkpt>
      <trkpt lat="48.84331" lon="2.32658">
        <ele>104.7</ele>
        <time>2015-04-20T18:30:32.045Z</time>
      </trkpt>
      <trkpt lat="48.84328" lon="2.32659">
        <ele>104.8</ele>
        <time>2015-04-20T18:30:37.075Z</time>
      </trkpt>
      <trkpt lat="48.84328" lon="2.32659">
        <ele>104.9</ele>
        <time>2015-04-20T18:30:38.075Z</time>
      </trkpt>
      <trkpt lat="48.84328" lon="2.32659">
        <ele>104.8</ele>
        <time>2015-04-20T18:31:03.273Z</time>
      </trkpt>
      <trkpt lat="48.8432" lon="2.32651">
        <ele>106.2</ele>
        <time>2015-04-20T18:31:04.244Z</time>
      </trkpt>
      <trkpt lat="48.84313" lon="2.32644">
        <ele>106.1</ele>
        <time>2015-04-20T18:31:09.244Z</time>
      </trkpt>
      <trkpt lat="48.84311" lon="2.32642">
        <ele>106.1</ele>
        <time>2015-04-20T18:31:10.146Z</time>
      </trkpt>
      <trkpt lat="48.84306" lon="2.32638">
        <ele>106</ele>
        <time>2015-04-20T18:31:13.398Z</time>
      </trkpt>
      <trkpt lat="48.84302" lon="2.32635">
        <ele>106</ele>
        <time>2015-04-20T18:31:15.040Z</time>
      </trkpt>
      <trkpt lat="48.84298" lon="2.32624">
        <ele>105.8</ele>
        <time>2015-04-20T18:31:22.082Z</time>
      </trkpt>
      <trkpt lat="48.84296" lon="2.32622">
        <ele>105.7</ele>
        <time>2015-04-20T18:31:23.084Z</time>
      </trkpt>
      <trkpt lat="48.8429" lon="2.32616">
        <ele>105.4</ele>
        <time>2015-04-20T18:31:27.086Z</time>
      </trkpt>
      <trkpt lat="48.84288" lon="2.32614">
        <ele>105.3</ele>
        <time>2015-04-20T18:31:28.077Z</time>
      </trkpt>
      <trkpt lat="48.8428" lon="2.32609">
        <ele>104.9</ele>
        <time>2015-04-20T18:31:31.000Z</time>
      </trkpt>
      <trkpt lat="48.84276" lon="2.32607">
        <ele>104.8</ele>
        <time>2015-04-20T18:31:32.031Z</time>
      </trkpt>
      <trkpt lat="48.84269" lon="2.32603">
        <ele>104.8</ele>
        <time>2015-04-20T18:31:34.860Z</time>
      </trkpt>
      <trkpt lat="48.84266" lon="2.32602">
        <ele>104.8</ele>
        <time>2015-04-20T18:31:35.041Z</time>
      </trkpt>
      <trkpt lat="48.84192" lon="2.32542">
        <ele>104.7</ele>
        <time>2015-04-20T18:31:58.074Z</time>
      </trkpt>
      <trkpt lat="48.84183" lon="2.3254">
        <ele>104.7</ele>
        <time>2015-04-20T18:32:00.677Z</time>
      </trkpt>
      <trkpt lat="48.84162" lon="2.32531">
        <ele>104.5</ele>
        <time>2015-04-20T18:32:05.030Z</time>
      </trkpt>
      <trkpt lat="48.84155" lon="2.32525">
        <ele>104.6</ele>
        <time>2015-04-20T18:32:07.048Z</time>
      </trkpt>
      <trkpt lat="48.84152" lon="2.32522">
        <ele>104.7</ele>
        <time>2015-04-20T18:32:08.052Z</time>
      </trkpt>
      <trkpt lat="48.84147" lon="2.32515">
        <ele>104.9</ele>
        <time>2015-04-20T18:32:10.711Z</time>
      </trkpt>
      <trkpt lat="48.84144" lon="2.32512">
        <ele>104.9</ele>
        <time>2015-04-20T18:32:11.090Z</time>
      </trkpt>
      <trkpt lat="48.84139" lon="2.32504">
        <ele>105.1</ele>
        <time>2015-04-20T18:32:13.034Z</time>
      </trkpt>
      <trkpt lat="48.84136" lon="2.32502">
        <ele>105.2</ele>
        <time>2015-04-20T18:32:14.116Z</time>
      </trkpt>
      <trkpt lat="48.84131" lon="2.32495">
        <ele>105.3</ele>
        <time>2015-04-20T18:32:16.065Z</time>
      </trkpt>
      <trkpt lat="48.84129" lon="2.32492">
        <ele>105.4</ele>
        <time>2015-04-20T18:32:17.073Z</time>
      </trkpt>
      <trkpt lat="48.84123" lon="2.32484">
        <ele>105.5</ele>
        <time>2015-04-20T18:32:20.746Z</time>
      </trkpt>
      <trkpt lat="48.84122" lon="2.32482">
        <ele>105.5</ele>
        <time>2015-04-20T18:32:21.106Z</time>
      </trkpt>
      <trkpt lat="48.84115" lon="2.32474">
        <ele>105.9</ele>
        <time>2015-04-20T18:32:26.103Z</time>
      </trkpt>
      <trkpt lat="48.84113" lon="2.32471">
        <ele>106</ele>
        <time>2015-04-20T18:32:27.044Z</time>
      </trkpt>
      <trkpt lat="48.84108" lon="2.32463">
        <ele>106.1</ele>
        <time>2015-04-20T18:32:30.119Z</time>
      </trkpt>
      <trkpt lat="48.84105" lon="2.3246">
        <ele>106.1</ele>
        <time>2015-04-20T18:32:31.131Z</time>
      </trkpt>
      <trkpt lat="48.84095" lon="2.32452">
        <ele>106.2</ele>
        <time>2015-04-20T18:32:34.149Z</time>
      </trkpt>
      <trkpt lat="48.84091" lon="2.32449">
        <ele>106.2</ele>
        <time>2015-04-20T18:32:34.979Z</time>
      </trkpt>
      <trkpt lat="48.84086" lon="2.32446">
        <ele>106.3</ele>
        <time>2015-04-20T18:32:36.030Z</time>
      </trkpt>
      <trkpt lat="48.84081" lon="2.32444">
        <ele>106.3</ele>
        <time>2015-04-20T18:32:37.050Z</time>
      </trkpt>
      <trkpt lat="48.84077" lon="2.32441">
        <ele>106.3</ele>
        <time>2015-04-20T18:32:38.054Z</time>
      </trkpt>
      <trkpt lat="48.8407" lon="2.32436">
        <ele>106.2</ele>
        <time>2015-04-20T18:32:40.074Z</time>
      </trkpt>
      <trkpt lat="48.84067" lon="2.32434">
        <ele>106.2</ele>
        <time>2015-04-20T18:32:41.092Z</time>
      </trkpt>
      <trkpt lat="48.84061" lon="2.32428">
        <ele>106.2</ele>
        <time>2015-04-20T18:32:44.070Z</time>
      </trkpt>
      <trkpt lat="48.8406" lon="2.32426">
        <ele>106.2</ele>
        <time>2015-04-20T18:32:45.139Z</time>
      </trkpt>
      <trkpt lat="48.84052" lon="2.32419">
        <ele>106.4</ele>
        <time>2015-04-20T18:32:48.061Z</time>
      </trkpt>
      <trkpt lat="48.8405" lon="2.32417">
        <ele>106.5</ele>
        <time>2015-04-20T18:32:49.073Z</time>
      </trkpt>
      <trkpt lat="48.84044" lon="2.32413">
        <ele>106.7</ele>
        <time>2015-04-20T18:32:51.153Z</time>
      </trkpt>
      <trkpt lat="48.84041" lon="2.32411">
        <ele>106.8</ele>
        <time>2015-04-20T18:32:52.052Z</time>
      </trkpt>
      <trkpt lat="48.84036" lon="2.32405">
        <ele>107.1</ele>
        <time>2015-04-20T18:32:54.095Z</time>
      </trkpt>
      <trkpt lat="48.84033" lon="2.32403">
        <ele>107.2</ele>
        <time>2015-04-20T18:32:55.063Z</time>
      </trkpt>
      <trkpt lat="48.8403" lon="2.32401">
        <ele>107.4</ele>
        <time>2015-04-20T18:32:56.075Z</time>
      </trkpt>
      <trkpt lat="48.83922" lon="2.32307">
        <ele>106.2</ele>
        <time>2015-04-20T18:33:32.041Z</time>
      </trkpt>
      <trkpt lat="48.83916" lon="2.32301">
        <ele>106.4</ele>
        <time>2015-04-20T18:33:34.097Z</time>
      </trkpt>
      <trkpt lat="48.83914" lon="2.32298">
        <ele>106.4</ele>
        <time>2015-04-20T18:33:35.034Z</time>
      </trkpt>
      <trkpt lat="48.83908" lon="2.32291">
        <ele>106.4</ele>
        <time>2015-04-20T18:33:37.139Z</time>
      </trkpt>
      <trkpt lat="48.83906" lon="2.32288">
        <ele>106.5</ele>
        <time>2015-04-20T18:33:38.059Z</time>
      </trkpt>
      <trkpt lat="48.839" lon="2.32285">
        <ele>106.5</ele>
        <time>2015-04-20T18:33:40.360Z</time>
      </trkpt>
      <trkpt lat="48.83897" lon="2.32283">
        <ele>106.6</ele>
        <time>2015-04-20T18:33:41.142Z</time>
      </trkpt>
      <trkpt lat="48.83888" lon="2.32279">
        <ele>106.6</ele>
        <time>2015-04-20T18:33:43.032Z</time>
      </trkpt>
      <trkpt lat="48.83882" lon="2.32278">
        <ele>106.7</ele>
        <time>2015-04-20T18:33:44.082Z</time>
      </trkpt>
      <trkpt lat="48.83873" lon="2.32274">
        <ele>106.7</ele>
        <time>2015-04-20T18:33:46.133Z</time>
      </trkpt>
      <trkpt lat="48.83871" lon="2.32275">
        <ele>106.7</ele>
        <time>2015-04-20T18:33:47.055Z</time>
      </trkpt>
      <trkpt lat="48.83864" lon="2.32271">
        <ele>107.6</ele>
        <time>2015-04-20T18:33:50.106Z</time>
      </trkpt>
      <trkpt lat="48.83861" lon="2.32269">
        <ele>107.8</ele>
        <time>2015-04-20T18:33:51.124Z</time>
      </trkpt>
      <trkpt lat="48.83854" lon="2.32268">
        <ele>108.6</ele>
        <time>2015-04-20T18:33:54.068Z</time>
      </trkpt>
      <trkpt lat="48.83851" lon="2.32268">
        <ele>108.9</ele>
        <time>2015-04-20T18:33:55.063Z</time>
      </trkpt>
      <trkpt lat="48.83843" lon="2.32268">
        <ele>109.7</ele>
        <time>2015-04-20T18:33:57.077Z</time>
      </trkpt>
      <trkpt lat="48.8384" lon="2.32268">
        <ele>110.2</ele>
        <time>2015-04-20T18:33:58.018Z</time>
      </trkpt>
      <trkpt lat="48.83832" lon="2.32269">
        <ele>111.1</ele>
        <time>2015-04-20T18:34:00.827Z</time>
      </trkpt>
      <trkpt lat="48.83828" lon="2.3227">
        <ele>111.4</ele>
        <time>2015-04-20T18:34:01.076Z</time>
      </trkpt>
      <trkpt lat="48.83823" lon="2.32272">
        <ele>111.8</ele>
        <time>2015-04-20T18:34:02.127Z</time>
      </trkpt>
      <trkpt lat="48.83819" lon="2.32275">
        <ele>112.1</ele>
        <time>2015-04-20T18:34:03.099Z</time>
      </trkpt>
      <trkpt lat="48.83811" lon="2.32275">
        <ele>112.7</ele>
        <time>2015-04-20T18:34:05.833Z</time>
      </trkpt>
      <trkpt lat="48.83806" lon="2.32275">
        <ele>113</ele>
        <time>2015-04-20T18:34:06.052Z</time>
      </trkpt>
      <trkpt lat="48.83802" lon="2.32276">
        <ele>113.4</ele>
        <time>2015-04-20T18:34:07.067Z</time>
      </trkpt>
      <trkpt lat="48.83797" lon="2.32275">
        <ele>113.8</ele>
        <time>2015-04-20T18:34:08.067Z</time>
      </trkpt>
      <trkpt lat="48.83788" lon="2.32275">
        <ele>114.6</ele>
        <time>2015-04-20T18:34:10.894Z</time>
      </trkpt>
      <trkpt lat="48.83783" lon="2.32274">
        <ele>115.2</ele>
        <time>2015-04-20T18:34:11.091Z</time>
      </trkpt>
      <trkpt lat="48.83777" lon="2.32274">
        <ele>116.6</ele>
        <time>2015-04-20T18:34:13.007Z</time>
      </trkpt>
      <trkpt lat="48.83774" lon="2.32275">
        <ele>117.4</ele>
        <time>2015-04-20T18:34:14.027Z</time>
      </trkpt>
      <trkpt lat="48.83768" lon="2.32269">
        <ele>119.3</ele>
        <time>2015-04-20T18:34:17.105Z</time>
      </trkpt>
      <trkpt lat="48.83767" lon="2.32265">
        <ele>119.7</ele>
        <time>2015-04-20T18:34:18.136Z</time>
      </trkpt>
      <trkpt lat="48.83763" lon="2.32254">
        <ele>120.8</ele>
        <time>2015-04-20T18:34:21.081Z</time>
      </trkpt>
      <trkpt lat="48.8376" lon="2.32248">
        <ele>122.3</ele>
        <time>2015-04-20T18:34:22.023Z</time>
      </trkpt>
      <trkpt lat="48.83758" lon="2.32238">
        <ele>123.2</ele>
        <time>2015-04-20T18:34:24.020Z</time>
      </trkpt>
      <trkpt lat="48.83758" lon="2.32233">
        <ele>123.5</ele>
        <time>2015-04-20T18:34:25.039Z</time>
      </trkpt>
      <trkpt lat="48.83757" lon="2.32221">
        <ele>124.1</ele>
        <time>2015-04-20T18:34:27.081Z</time>
      </trkpt>
      <trkpt lat="48.83756" lon="2.32215">
        <ele>124.4</ele>
        <time>2015-04-20T18:34:28.016Z</time>
      </trkpt>
      <trkpt lat="48.83756" lon="2.32205">
        <ele>124.9</ele>
        <time>2015-04-20T18:34:30.056Z</time>
      </trkpt>
      <trkpt lat="48.83755" lon="2.322">
        <ele>125.1</ele>
        <time>2015-04-20T18:34:31.094Z</time>
      </trkpt>
      <trkpt lat="48.83756" lon="2.3219">
        <ele>125.6</ele>
        <time>2015-04-20T18:34:33.127Z</time>
      </trkpt>
      <trkpt lat="48.83755" lon="2.32184">
        <ele>125.9</ele>
        <time>2015-04-20T18:34:34.131Z</time>
      </trkpt>
      <trkpt lat="48.83755" lon="2.32172">
        <ele>126.3</ele>
        <time>2015-04-20T18:34:36.055Z</time>
      </trkpt>
      <trkpt lat="48.83754" lon="2.32165">
        <ele>126.5</ele>
        <time>2015-04-20T18:34:37.081Z</time>
      </trkpt>
      <trkpt lat="48.83754" lon="2.32152">
        <ele>126.6</ele>
        <time>2015-04-20T18:34:39.144Z</time>
      </trkpt>
      <trkpt lat="48.83753" lon="2.32145">
        <ele>126.7</ele>
        <time>2015-04-20T18:34:40.033Z</time>
      </trkpt>
      <trkpt lat="48.83753" lon="2.32138">
        <ele>126.7</ele>
        <time>2015-04-20T18:34:41.048Z</time>
      </trkpt>
      <trkpt lat="48.83752" lon="2.3213">
        <ele>126.8</ele>
        <time>2015-04-20T18:34:42.045Z</time>
      </trkpt>
      <trkpt lat="48.83752" lon="2.32122">
        <ele>126.9</ele>
        <time>2015-04-20T18:34:43.068Z</time>
      </trkpt>
      <trkpt lat="48.83752" lon="2.32115">
        <ele>127</ele>
        <time>2015-04-20T18:34:44.084Z</time>
      </trkpt>
      <trkpt lat="48.83752" lon="2.32109">
        <ele>127</ele>
        <time>2015-04-20T18:34:45.490Z</time>
      </trkpt>
      <trkpt lat="48.83755" lon="2.32101">
        <ele>127.2</ele>
        <time>2015-04-20T18:34:46.026Z</time>
      </trkpt>
      <trkpt lat="48.83755" lon="2.32088">
        <ele>127.4</ele>
        <time>2015-04-20T18:34:48.040Z</time>
      </trkpt>
      <trkpt lat="48.83755" lon="2.32084">
        <ele>127.5</ele>
        <time>2015-04-20T18:34:49.048Z</time>
      </trkpt>
      <trkpt lat="48.83755" lon="2.32081">
        <ele>127.6</ele>
        <time>2015-04-20T18:34:50.009Z</time>
      </trkpt>
      <trkpt lat="48.83743" lon="2.31906">
        <ele>114.5</ele>
        <time>2015-04-20T18:35:18.119Z</time>
      </trkpt>
      <trkpt lat="48.83747" lon="2.31894">
        <ele>114.6</ele>
        <time>2015-04-20T18:35:20.055Z</time>
      </trkpt>
      <trkpt lat="48.83749" lon="2.3189">
        <ele>114.6</ele>
        <time>2015-04-20T18:35:21.139Z</time>
      </trkpt>
      <trkpt lat="48.83753" lon="2.31882">
        <ele>114.6</ele>
        <time>2015-04-20T18:35:23.010Z</time>
      </trkpt>
      <trkpt lat="48.83755" lon="2.31877">
        <ele>114.5</ele>
        <time>2015-04-20T18:35:24.122Z</time>
      </trkpt>
      <trkpt lat="48.83758" lon="2.31867">
        <ele>114.6</ele>
        <time>2015-04-20T18:35:26.100Z</time>
      </trkpt>
      <trkpt lat="48.83758" lon="2.31858">
        <ele>116</ele>
        <time>2015-04-20T18:35:28.119Z</time>
      </trkpt>
      <trkpt lat="48.83754" lon="2.31848">
        <ele>117.2</ele>
        <time>2015-04-20T18:35:30.049Z</time>
      </trkpt>
      <trkpt lat="48.83752" lon="2.31842">
        <ele>117.2</ele>
        <time>2015-04-20T18:35:31.053Z</time>
      </trkpt>
      <trkpt lat="48.83749" lon="2.31835">
        <ele>116.9</ele>
        <time>2015-04-20T18:35:32.068Z</time>
      </trkpt>
      <trkpt lat="48.83744" lon="2.31828">
        <ele>116.6</ele>
        <time>2015-04-20T18:35:33.114Z</time>
      </trkpt>
      <trkpt lat="48.83739" lon="2.31821">
        <ele>116.5</ele>
        <time>2015-04-20T18:35:34.892Z</time>
      </trkpt>
      <trkpt lat="48.83732" lon="2.31815">
        <ele>116.1</ele>
        <time>2015-04-20T18:35:35.053Z</time>
      </trkpt>
      <trkpt lat="48.83725" lon="2.31812">
        <ele>115.9</ele>
        <time>2015-04-20T18:35:36.144Z</time>
      </trkpt>
      <trkpt lat="48.83719" lon="2.31813">
        <ele>116.1</ele>
        <time>2015-04-20T18:35:37.158Z</time>
      </trkpt>
      <trkpt lat="48.83714" lon="2.31815">
        <ele>116.1</ele>
        <time>2015-04-20T18:35:38.039Z</time>
      </trkpt>
      <trkpt lat="48.83709" lon="2.31818">
        <ele>116.3</ele>
        <time>2015-04-20T18:35:39.141Z</time>
      </trkpt>
      <trkpt lat="48.83705" lon="2.31825">
        <ele>117</ele>
        <time>2015-04-20T18:35:40.078Z</time>
      </trkpt>
      <trkpt lat="48.83702" lon="2.31832">
        <ele>117.7</ele>
        <time>2015-04-20T18:35:41.089Z</time>
      </trkpt>
      <trkpt lat="48.83699" lon="2.31838">
        <ele>118.2</ele>
        <time>2015-04-20T18:35:42.048Z</time>
      </trkpt>
      <trkpt lat="48.83698" lon="2.31845">
        <ele>118.5</ele>
        <time>2015-04-20T18:35:43.062Z</time>
      </trkpt>
      <trkpt lat="48.83698" lon="2.31856">
        <ele>119.5</ele>
        <time>2015-04-20T18:35:45.131Z</time>
      </trkpt>
      <trkpt lat="48.837" lon="2.3186">
        <ele>119.8</ele>
        <time>2015-04-20T18:35:46.293Z</time>
      </trkpt>
      <trkpt lat="48.83706" lon="2.31869">
        <ele>120</ele>
        <time>2015-04-20T18:35:48.077Z</time>
      </trkpt>
      <trkpt lat="48.8371" lon="2.31872">
        <ele>119.9</ele>
        <time>2015-04-20T18:35:49.197Z</time>
      </trkpt>
      <trkpt lat="48.83714" lon="2.31874">
        <ele>119.9</ele>
        <time>2015-04-20T18:35:50.068Z</time>
      </trkpt>
      <trkpt lat="48.83719" lon="2.31874">
        <ele>119.9</ele>
        <time>2015-04-20T18:35:51.141Z</time>
      </trkpt>
      <trkpt lat="48.83726" lon="2.31872">
        <ele>120.5</ele>
        <time>2015-04-20T18:35:53.061Z</time>
      </trkpt>
      <trkpt lat="48.83729" lon="2.3187">
        <ele>120.6</ele>
        <time>2015-04-20T18:35:54.068Z</time>
      </trkpt>
      <trkpt lat="48.83735" lon="2.31863">
        <ele>121</ele>
        <time>2015-04-20T18:35:56.049Z</time>
      </trkpt>
      <trkpt lat="48.83738" lon="2.31858">
        <ele>121.2</ele>
        <time>2015-04-20T18:35:57.109Z</time>
      </trkpt>
      <trkpt lat="48.83741" lon="2.31851">
        <ele>121</ele>
        <time>2015-04-20T18:35:58.233Z</time>
      </trkpt>
      <trkpt lat="48.83744" lon="2.31844">
        <ele>120.6</ele>
        <time>2015-04-20T18:35:59.038Z</time>
      </trkpt>
      <trkpt lat="48.83744" lon="2.31832">
        <ele>121.1</ele>
        <time>2015-04-20T18:36:01.083Z</time>
      </trkpt>
      <trkpt lat="48.83742" lon="2.31826">
        <ele>121.2</ele>
        <time>2015-04-20T18:36:02.137Z</time>
      </trkpt>
      <trkpt lat="48.83737" lon="2.31816">
        <ele>121.3</ele>
        <time>2015-04-20T18:36:04.061Z</time>
      </trkpt>
      <trkpt lat="48.83733" lon="2.31811">
        <ele>121.3</ele>
        <time>2015-04-20T18:36:05.070Z</time>
      </trkpt>
      <trkpt lat="48.83728" lon="2.31808">
        <ele>121.3</ele>
        <time>2015-04-20T18:36:06.085Z</time>
      </trkpt>
      <trkpt lat="48.83723" lon="2.31806">
        <ele>121.2</ele>
        <time>2015-04-20T18:36:07.146Z</time>
      </trkpt>
      <trkpt lat="48.83718" lon="2.31803">
        <ele>121.2</ele>
        <time>2015-04-20T18:36:08.049Z</time>
      </trkpt>
      <trkpt lat="48.83714" lon="2.31801">
        <ele>121.3</ele>
        <time>2015-04-20T18:36:09.090Z</time>
      </trkpt>
      <trkpt lat="48.83708" lon="2.31797">
        <ele>121.4</ele>
        <time>2015-04-20T18:36:11.057Z</time>
      </trkpt>
      <trkpt lat="48.83705" lon="2.31798">
        <ele>121.5</ele>
        <time>2015-04-20T18:36:12.097Z</time>
      </trkpt>
      <trkpt lat="48.83698" lon="2.31802">
        <ele>121.9</ele>
        <time>2015-04-20T18:36:14.046Z</time>
      </trkpt>
      <trkpt lat="48.83695" lon="2.31803">
        <ele>122</ele>
        <time>2015-04-20T18:36:15.280Z</time>
      </trkpt>
      <trkpt lat="48.83686" lon="2.318">
        <ele>122.6</ele>
        <time>2015-04-20T18:36:19.138Z</time>
      </trkpt>
      <trkpt lat="48.83669" lon="2.31775">
        <ele>121</ele>
        <time>2015-04-20T18:36:28.093Z</time>
      </trkpt>
      <trkpt lat="48.83665" lon="2.31767">
        <ele>120.9</ele>
        <time>2015-04-20T18:36:30.011Z</time>
      </trkpt>
      <trkpt lat="48.83663" lon="2.31764">
        <ele>120.9</ele>
        <time>2015-04-20T18:36:31.049Z</time>
      </trkpt>
      <trkpt lat="48.83654" lon="2.31746">
        <ele>120.6</ele>
        <time>2015-04-20T18:36:37.100Z</time>
      </trkpt>
      <trkpt lat="48.83651" lon="2.31735">
        <ele>120.6</ele>
        <time>2015-04-20T18:36:40.105Z</time>
      </trkpt>
      <trkpt lat="48.8365" lon="2.31731">
        <ele>120.6</ele>
        <time>2015-04-20T18:36:41.026Z</time>
      </trkpt>
      <trkpt lat="48.83646" lon="2.3172">
        <ele>120.6</ele>
        <time>2015-04-20T18:36:44.097Z</time>
      </trkpt>
      <trkpt lat="48.83644" lon="2.31716">
        <ele>120.6</ele>
        <time>2015-04-20T18:36:45.122Z</time>
      </trkpt>
      <trkpt lat="48.83642" lon="2.31707">
        <ele>120.7</ele>
        <time>2015-04-20T18:36:47.041Z</time>
      </trkpt>
      <trkpt lat="48.83636" lon="2.31689">
        <ele>120.8</ele>
        <time>2015-04-20T18:36:51.047Z</time>
      </trkpt>
      <trkpt lat="48.83631" lon="2.31682">
        <ele>120.8</ele>
        <time>2015-04-20T18:36:53.086Z</time>
      </trkpt>
      <trkpt lat="48.83629" lon="2.31678">
        <ele>120.6</ele>
        <time>2015-04-20T18:36:54.006Z</time>
      </trkpt>
      <trkpt lat="48.83625" lon="2.3167">
        <ele>120.5</ele>
        <time>2015-04-20T18:36:55.292Z</time>
      </trkpt>
      <trkpt lat="48.83623" lon="2.31665">
        <ele>120.3</ele>
        <time>2015-04-20T18:36:57.118Z</time>
      </trkpt>
      <trkpt lat="48.83618" lon="2.31657">
        <ele>120</ele>
        <time>2015-04-20T18:36:59.037Z</time>
      </trkpt>
      <trkpt lat="48.83615" lon="2.31654">
        <ele>120</ele>
        <time>2015-04-20T18:37:00.078Z</time>
      </trkpt>
      <trkpt lat="48.83611" lon="2.31646">
        <ele>120</ele>
        <time>2015-04-20T18:37:02.040Z</time>
      </trkpt>
      <trkpt lat="48.83609" lon="2.31643">
        <ele>120</ele>
        <time>2015-04-20T18:37:03.134Z</time>
      </trkpt>
      <trkpt lat="48.83606" lon="2.31635">
        <ele>120.1</ele>
        <time>2015-04-20T18:37:05.070Z</time>
      </trkpt>
      <trkpt lat="48.83603" lon="2.31632">
        <ele>120.1</ele>
        <time>2015-04-20T18:37:06.008Z</time>
      </trkpt>
      <trkpt lat="48.836" lon="2.31624">
        <ele>120.2</ele>
        <time>2015-04-20T18:37:08.045Z</time>
      </trkpt>
      <trkpt lat="48.83599" lon="2.31619">
        <ele>120.3</ele>
        <time>2015-04-20T18:37:09.052Z</time>
      </trkpt>
      <trkpt lat="48.83595" lon="2.31608">
        <ele>120.4</ele>
        <time>2015-04-20T18:37:12.005Z</time>
      </trkpt>
      <trkpt lat="48.83594" lon="2.31605">
        <ele>120.5</ele>
        <time>2015-04-20T18:37:13.006Z</time>
      </trkpt>
      <trkpt lat="48.83588" lon="2.31595">
        <ele>120.8</ele>
        <time>2015-04-20T18:37:16.249Z</time>
      </trkpt>
      <trkpt lat="48.83585" lon="2.31592">
        <ele>120.9</ele>
        <time>2015-04-20T18:37:17.095Z</time>
      </trkpt>
      <trkpt lat="48.83581" lon="2.31586">
        <ele>121.3</ele>
        <time>2015-04-20T18:37:19.178Z</time>
      </trkpt>
      <trkpt lat="48.83579" lon="2.31581">
        <ele>121.6</ele>
        <time>2015-04-20T18:37:20.049Z</time>
      </trkpt>
      <trkpt lat="48.83574" lon="2.3157">
        <ele>121.9</ele>
        <time>2015-04-20T18:37:22.103Z</time>
      </trkpt>
      <trkpt lat="48.83571" lon="2.31565">
        <ele>122.1</ele>
        <time>2015-04-20T18:37:23.109Z</time>
      </trkpt>
      <trkpt lat="48.83568" lon="2.31553">
        <ele>123.3</ele>
        <time>2015-04-20T18:37:26.442Z</time>
      </trkpt>
      <trkpt lat="48.83567" lon="2.3155">
        <ele>124.1</ele>
        <time>2015-04-20T18:37:27.088Z</time>
      </trkpt>
      <trkpt lat="48.83559" lon="2.31548">
        <ele>128.3</ele>
        <time>2015-04-20T18:37:36.114Z</time>
      </trkpt>
      <trkpt lat="48.83558" lon="2.31543">
        <ele>128.3</ele>
        <time>2015-04-20T18:37:37.110Z</time>
      </trkpt>
      <trkpt lat="48.83553" lon="2.31535">
        <ele>128.6</ele>
        <time>2015-04-20T18:37:39.889Z</time>
      </trkpt>
      <trkpt lat="48.83446" lon="2.31388">
        <ele>125.5</ele>
        <time>2015-04-20T18:38:06.036Z</time>
      </trkpt>
      <trkpt lat="48.83414" lon="2.31335">
        <ele>125.1</ele>
        <time>2015-04-20T18:38:14.071Z</time>
      </trkpt>
      <trkpt lat="48.83409" lon="2.31327">
        <ele>125</ele>
        <time>2015-04-20T18:38:16.100Z</time>
      </trkpt>
      <trkpt lat="48.83407" lon="2.31319">
        <ele>125</ele>
        <time>2015-04-20T18:38:17.063Z</time>
      </trkpt>
      <trkpt lat="48.83407" lon="2.31308">
        <ele>125</ele>
        <time>2015-04-20T18:38:18.060Z</time>
      </trkpt>
      <trkpt lat="48.83404" lon="2.31295">
        <ele>125.4</ele>
        <time>2015-04-20T18:38:19.075Z</time>
      </trkpt>
      <trkpt lat="48.83403" lon="2.3129">
        <ele>125.5</ele>
        <time>2015-04-20T18:38:20.089Z</time>
      </trkpt>
      <trkpt lat="48.83395" lon="2.3128">
        <ele>125.4</ele>
        <time>2015-04-20T18:38:22.113Z</time>
      </trkpt>
      <trkpt lat="48.83354" lon="2.31251">
        <ele>124.1</ele>
        <time>2015-04-20T18:38:28.055Z</time>
      </trkpt>
      <trkpt lat="48.83348" lon="2.31244">
        <ele>124</ele>
        <time>2015-04-20T18:38:29.051Z</time>
      </trkpt>
      <trkpt lat="48.83344" lon="2.31234">
        <ele>123.9</ele>
        <time>2015-04-20T18:38:30.068Z</time>
      </trkpt>
      <trkpt lat="48.83285" lon="2.31171">
        <ele>121</ele>
        <time>2015-04-20T18:38:42.109Z</time>
      </trkpt>
      <trkpt lat="48.83282" lon="2.31168">
        <ele>120.9</ele>
        <time>2015-04-20T18:38:45.055Z</time>
      </trkpt>
      <trkpt lat="48.83283" lon="2.3117">
        <ele>120.9</ele>
        <time>2015-04-20T18:38:46.056Z</time>
      </trkpt>
      <trkpt lat="48.83283" lon="2.31171">
        <ele>120.6</ele>
        <time>2015-04-20T18:38:47.068Z</time>
      </trkpt>
      <trkpt lat="48.83283" lon="2.31171">
        <ele>120.7</ele>
        <time>2015-04-20T18:38:48.083Z</time>
      </trkpt>
      <trkpt lat="48.83284" lon="2.3117">
        <ele>120.5</ele>
        <time>2015-04-20T18:38:49.138Z</time>
      </trkpt>
      <trkpt lat="48.83287" lon="2.31166">
        <ele>120.5</ele>
        <time>2015-04-20T18:38:54.004Z</time>
      </trkpt>
      <trkpt lat="48.83287" lon="2.31167">
        <ele>120.6</ele>
        <time>2015-04-20T18:38:55.020Z</time>
      </trkpt>
      <trkpt lat="48.83287" lon="2.31168">
        <ele>120.7</ele>
        <time>2015-04-20T18:38:56.036Z</time>
      </trkpt>
      <trkpt lat="48.83286" lon="2.3117">
        <ele>120.6</ele>
        <time>2015-04-20T18:39:00.007Z</time>
      </trkpt>
      <trkpt lat="48.83286" lon="2.3117">
        <ele>120.7</ele>
        <time>2015-04-20T18:39:01.029Z</time>
      </trkpt>
      <trkpt lat="48.83286" lon="2.3117">
        <ele>120.6</ele>
        <time>2015-04-20T18:39:02.037Z</time>
      </trkpt>
      <trkpt lat="48.83283" lon="2.31158">
        <ele>122.1</ele>
        <time>2015-04-20T18:39:24.064Z</time>
      </trkpt>
      <trkpt lat="48.83282" lon="2.31157">
        <ele>122.2</ele>
        <time>2015-04-20T18:39:25.087Z</time>
      </trkpt>
      <trkpt lat="48.8328" lon="2.31144">
        <ele>122.7</ele>
        <time>2015-04-20T18:39:30.074Z</time>
      </trkpt>
      <trkpt lat="48.83279" lon="2.31141">
        <ele>122.8</ele>
        <time>2015-04-20T18:39:31.095Z</time>
      </trkpt>
      <trkpt lat="48.83274" lon="2.31131">
        <ele>122.6</ele>
        <time>2015-04-20T18:39:35.060Z</time>
      </trkpt>
      <trkpt lat="48.83271" lon="2.31128">
        <ele>122.5</ele>
        <time>2015-04-20T18:39:36.078Z</time>
      </trkpt>
      <trkpt lat="48.83265" lon="2.31121">
        <ele>122.5</ele>
        <time>2015-04-20T18:39:38.134Z</time>
      </trkpt>
      <trkpt lat="48.83263" lon="2.31117">
        <ele>122.5</ele>
        <time>2015-04-20T18:39:39.148Z</time>
      </trkpt>
      <trkpt lat="48.83258" lon="2.31108">
        <ele>122.5</ele>
        <time>2015-04-20T18:39:41.061Z</time>
      </trkpt>
      <trkpt lat="48.83255" lon="2.31104">
        <ele>122.6</ele>
        <time>2015-04-20T18:39:42.068Z</time>
      </trkpt>
      <trkpt lat="48.8325" lon="2.31094">
        <ele>122.8</ele>
        <time>2015-04-20T18:39:44.125Z</time>
      </trkpt>
      <trkpt lat="48.83247" lon="2.31089">
        <ele>123</ele>
        <time>2015-04-20T18:39:45.182Z</time>
      </trkpt>
      <trkpt lat="48.83241" lon="2.31082">
        <ele>123.2</ele>
        <time>2015-04-20T18:39:47.111Z</time>
      </trkpt>
      <trkpt lat="48.83238" lon="2.31078">
        <ele>123.1</ele>
        <time>2015-04-20T18:39:48.131Z</time>
      </trkpt>
      <trkpt lat="48.83232" lon="2.3107">
        <ele>123.1</ele>
        <time>2015-04-20T18:39:50.122Z</time>
      </trkpt>
      <trkpt lat="48.8323" lon="2.31065">
        <ele>123.1</ele>
        <time>2015-04-20T18:39:51.107Z</time>
      </trkpt>
      <trkpt lat="48.83226" lon="2.31056">
        <ele>123.3</ele>
        <time>2015-04-20T18:39:53.178Z</time>
      </trkpt>
      <trkpt lat="48.83224" lon="2.31051">
        <ele>123.4</ele>
        <time>2015-04-20T18:39:54.048Z</time>
      </trkpt>
      <trkpt lat="48.83216" lon="2.31035">
        <ele>123.8</ele>
        <time>2015-04-20T18:39:58.107Z</time>
      </trkpt>
      <trkpt lat="48.83211" lon="2.31019">
        <ele>124.2</ele>
        <time>2015-04-20T18:40:01.135Z</time>
      </trkpt>
      <trkpt lat="48.83206" lon="2.31012">
        <ele>124.4</ele>
        <time>2015-04-20T18:40:03.131Z</time>
      </trkpt>
      <trkpt lat="48.83203" lon="2.31006">
        <ele>124.5</ele>
        <time>2015-04-20T18:40:04.040Z</time>
      </trkpt>
      <trkpt lat="48.83196" lon="2.31">
        <ele>124.1</ele>
        <time>2015-04-20T18:40:06.158Z</time>
      </trkpt>
      <trkpt lat="48.83193" lon="2.30995">
        <ele>123.9</ele>
        <time>2015-04-20T18:40:07.041Z</time>
      </trkpt>
      <trkpt lat="48.83188" lon="2.30986">
        <ele>123.7</ele>
        <time>2015-04-20T18:40:09.078Z</time>
      </trkpt>
      <trkpt lat="48.83185" lon="2.30981">
        <ele>123.3</ele>
        <time>2015-04-20T18:40:10.088Z</time>
      </trkpt>
      <trkpt lat="48.83181" lon="2.30975">
        <ele>123.1</ele>
        <time>2015-04-20T18:40:11.099Z</time>
      </trkpt>
      <trkpt lat="48.83176" lon="2.30968">
        <ele>123.5</ele>
        <time>2015-04-20T18:40:12.109Z</time>
      </trkpt>
      <trkpt lat="48.83172" lon="2.30962">
        <ele>123.5</ele>
        <time>2015-04-20T18:40:12.997Z</time>
      </trkpt>
      <trkpt lat="48.83168" lon="2.30956">
        <ele>123.4</ele>
        <time>2015-04-20T18:40:14.060Z</time>
      </trkpt>
      <trkpt lat="48.83165" lon="2.3095">
        <ele>123.4</ele>
        <time>2015-04-20T18:40:15.083Z</time>
      </trkpt>
      <trkpt lat="48.83163" lon="2.30944">
        <ele>123.7</ele>
        <time>2015-04-20T18:40:16.048Z</time>
      </trkpt>
      <trkpt lat="48.83158" lon="2.30934">
        <ele>124</ele>
        <time>2015-04-20T18:40:18.062Z</time>
      </trkpt>
      <trkpt lat="48.83156" lon="2.30927">
        <ele>124.2</ele>
        <time>2015-04-20T18:40:19.085Z</time>
      </trkpt>
      <trkpt lat="48.83154" lon="2.30922">
        <ele>124.4</ele>
        <time>2015-04-20T18:40:20.022Z</time>
      </trkpt>
      <trkpt lat="48.83149" lon="2.30913">
        <ele>125</ele>
        <time>2015-04-20T18:40:22.105Z</time>
      </trkpt>
      <trkpt lat="48.83144" lon="2.30907">
        <ele>125.6</ele>
        <time>2015-04-20T18:40:24.044Z</time>
      </trkpt>
      <trkpt lat="48.83142" lon="2.30904">
        <ele>125.6</ele>
        <time>2015-04-20T18:40:25.037Z</time>
      </trkpt>
      <trkpt lat="48.83138" lon="2.30898">
        <ele>126.1</ele>
        <time>2015-04-20T18:40:27.138Z</time>
      </trkpt>
      <trkpt lat="48.83135" lon="2.30894">
        <ele>126.3</ele>
        <time>2015-04-20T18:40:28.068Z</time>
      </trkpt>
      <trkpt lat="48.83129" lon="2.30885">
        <ele>126.7</ele>
        <time>2015-04-20T18:40:30.099Z</time>
      </trkpt>
      <trkpt lat="48.83127" lon="2.30881">
        <ele>126.8</ele>
        <time>2015-04-20T18:40:31.108Z</time>
      </trkpt>
      <trkpt lat="48.83124" lon="2.30872">
        <ele>127.1</ele>
        <time>2015-04-20T18:40:33.125Z</time>
      </trkpt>
      <trkpt lat="48.83122" lon="2.30867">
        <ele>127.2</ele>
        <time>2015-04-20T18:40:34.167Z</time>
      </trkpt>
      <trkpt lat="48.83118" lon="2.30862">
        <ele>127.3</ele>
        <time>2015-04-20T18:40:35.032Z</time>
      </trkpt>
      <trkpt lat="48.83113" lon="2.30858">
        <ele>127.3</ele>
        <time>2015-04-20T18:40:36.052Z</time>
      </trkpt>
      <trkpt lat="48.83109" lon="2.30854">
        <ele>127.2</ele>
        <time>2015-04-20T18:40:37.068Z</time>
      </trkpt>
      <trkpt lat="48.83104" lon="2.3085">
        <ele>127.1</ele>
        <time>2015-04-20T18:40:38.083Z</time>
      </trkpt>
      <trkpt lat="48.831" lon="2.30847">
        <ele>126.9</ele>
        <time>2015-04-20T18:40:39.837Z</time>
      </trkpt>
      <trkpt lat="48.83095" lon="2.30844">
        <ele>126.6</ele>
        <time>2015-04-20T18:40:40.008Z</time>
      </trkpt>
      <trkpt lat="48.83092" lon="2.3084">
        <ele>126.5</ele>
        <time>2015-04-20T18:40:41.052Z</time>
      </trkpt>
      <trkpt lat="48.83087" lon="2.30837">
        <ele>126.3</ele>
        <time>2015-04-20T18:40:42.054Z</time>
      </trkpt>
      <trkpt lat="48.8308" lon="2.3083">
        <ele>126.1</ele>
        <time>2015-04-20T18:40:44.062Z</time>
      </trkpt>
      <trkpt lat="48.83077" lon="2.30826">
        <ele>125.8</ele>
        <time>2015-04-20T18:40:45.094Z</time>
      </trkpt>
      <trkpt lat="48.83071" lon="2.30821">
        <ele>125.1</ele>
        <time>2015-04-20T18:40:44.937Z</time>
      </trkpt>
      <trkpt lat="48.83068" lon="2.30817">
        <ele>125</ele>
        <time>2015-04-20T18:40:47.106Z</time>
      </trkpt>
      <trkpt lat="48.83062" lon="2.30808">
        <ele>124.9</ele>
        <time>2015-04-20T18:40:49.046Z</time>
      </trkpt>
      <trkpt lat="48.8306" lon="2.30804">
        <ele>125.1</ele>
        <time>2015-04-20T18:40:50.058Z</time>
      </trkpt>
      <trkpt lat="48.83056" lon="2.308">
        <ele>125.1</ele>
        <time>2015-04-20T18:40:51.067Z</time>
      </trkpt>
      <trkpt lat="48.83053" lon="2.30794">
        <ele>125.3</ele>
        <time>2015-04-20T18:40:52.154Z</time>
      </trkpt>
      <trkpt lat="48.83046" lon="2.30787">
        <ele>125.8</ele>
        <time>2015-04-20T18:40:54.089Z</time>
      </trkpt>
      <trkpt lat="48.83043" lon="2.30783">
        <ele>126.1</ele>
        <time>2015-04-20T18:40:55.099Z</time>
      </trkpt>
      <trkpt lat="48.83038" lon="2.30772">
        <ele>126.5</ele>
        <time>2015-04-20T18:40:57.127Z</time>
      </trkpt>
      <trkpt lat="48.83034" lon="2.30767">
        <ele>126.1</ele>
        <time>2015-04-20T18:40:58.097Z</time>
      </trkpt>
      <trkpt lat="48.83028" lon="2.30761">
        <ele>125.6</ele>
        <time>2015-04-20T18:41:00.570Z</time>
      </trkpt>
      <trkpt lat="48.83024" lon="2.30758">
        <ele>125.6</ele>
        <time>2015-04-20T18:41:01.062Z</time>
      </trkpt>
      <trkpt lat="48.83019" lon="2.30752">
        <ele>125.9</ele>
        <time>2015-04-20T18:41:03.168Z</time>
      </trkpt>
      <trkpt lat="48.83016" lon="2.30747">
        <ele>126.1</ele>
        <time>2015-04-20T18:41:04.030Z</time>
      </trkpt>
      <trkpt lat="48.83012" lon="2.30736">
        <ele>126.3</ele>
        <time>2015-04-20T18:41:06.076Z</time>
      </trkpt>
      <trkpt lat="48.8301" lon="2.30731">
        <ele>126.4</ele>
        <time>2015-04-20T18:41:07.091Z</time>
      </trkpt>
      <trkpt lat="48.83006" lon="2.3072">
        <ele>126.4</ele>
        <time>2015-04-20T18:41:09.120Z</time>
      </trkpt>
      <trkpt lat="48.83003" lon="2.30716">
        <ele>126.2</ele>
        <time>2015-04-20T18:41:10.215Z</time>
      </trkpt>
      <trkpt lat="48.82997" lon="2.30709">
        <ele>125.7</ele>
        <time>2015-04-20T18:41:12.042Z</time>
      </trkpt>
      <trkpt lat="48.82994" lon="2.30705">
        <ele>125.9</ele>
        <time>2015-04-20T18:41:13.058Z</time>
      </trkpt>
      <trkpt lat="48.82991" lon="2.30696">
        <ele>126.1</ele>
        <time>2015-04-20T18:41:15.925Z</time>
      </trkpt>
      <trkpt lat="48.82988" lon="2.30691">
        <ele>125.8</ele>
        <time>2015-04-20T18:41:16.012Z</time>
      </trkpt>
      <trkpt lat="48.82984" lon="2.30686">
        <ele>125.9</ele>
        <time>2015-04-20T18:41:17.032Z</time>
      </trkpt>
      <trkpt lat="48.82981" lon="2.30682">
        <ele>126</ele>
        <time>2015-04-20T18:41:18.049Z</time>
      </trkpt>
      <trkpt lat="48.82976" lon="2.30678">
        <ele>126.1</ele>
        <time>2015-04-20T18:41:19.054Z</time>
      </trkpt>
      <trkpt lat="48.82971" lon="2.30675">
        <ele>125.7</ele>
        <time>2015-04-20T18:41:20.064Z</time>
      </trkpt>
      <trkpt lat="48.82967" lon="2.30671">
        <ele>125.3</ele>
        <time>2015-04-20T18:41:21.079Z</time>
      </trkpt>
      <trkpt lat="48.82962" lon="2.30668">
        <ele>125.2</ele>
        <time>2015-04-20T18:41:22.098Z</time>
      </trkpt>
      <trkpt lat="48.82958" lon="2.30665">
        <ele>125</ele>
        <time>2015-04-20T18:41:23.119Z</time>
      </trkpt>
      <trkpt lat="48.82952" lon="2.3066">
        <ele>124.9</ele>
        <time>2015-04-20T18:41:24.150Z</time>
      </trkpt>
      <trkpt lat="48.82946" lon="2.30655">
        <ele>125.1</ele>
        <time>2015-04-20T18:41:25.073Z</time>
      </trkpt>
      <trkpt lat="48.8294" lon="2.30649">
        <ele>125.2</ele>
        <time>2015-04-20T18:41:26.059Z</time>
      </trkpt>
      <trkpt lat="48.82935" lon="2.30643">
        <ele>125.9</ele>
        <time>2015-04-20T18:41:27.115Z</time>
      </trkpt>
      <trkpt lat="48.82931" lon="2.30639">
        <ele>126.5</ele>
        <time>2015-04-20T18:41:28.102Z</time>
      </trkpt>
      <trkpt lat="48.82925" lon="2.30629">
        <ele>127.7</ele>
        <time>2015-04-20T18:41:30.130Z</time>
      </trkpt>
      <trkpt lat="48.82924" lon="2.30626">
        <ele>128.1</ele>
        <time>2015-04-20T18:41:31.059Z</time>
      </trkpt>
      <trkpt lat="48.8292" lon="2.30617">
        <ele>128.9</ele>
        <time>2015-04-20T18:41:33.140Z</time>
      </trkpt>
      <trkpt lat="48.82918" lon="2.30614">
        <ele>129</ele>
        <time>2015-04-20T18:41:34.139Z</time>
      </trkpt>
      <trkpt lat="48.82915" lon="2.30605">
        <ele>129.4</ele>
        <time>2015-04-20T18:41:36.037Z</time>
      </trkpt>
      <trkpt lat="48.82908" lon="2.30589">
        <ele>129.9</ele>
        <time>2015-04-20T18:41:39.136Z</time>
      </trkpt>
      <trkpt lat="48.82902" lon="2.30584">
        <ele>131.2</ele>
        <time>2015-04-20T18:41:41.053Z</time>
      </trkpt>
      <trkpt lat="48.82899" lon="2.30584">
        <ele>131.8</ele>
        <time>2015-04-20T18:41:42.061Z</time>
      </trkpt>
      <trkpt lat="48.82891" lon="2.30582">
        <ele>133.3</ele>
        <time>2015-04-20T18:41:44.129Z</time>
      </trkpt>
      <trkpt lat="48.82887" lon="2.3058">
        <ele>134</ele>
        <time>2015-04-20T18:41:45.143Z</time>
      </trkpt>
      <trkpt lat="48.82883" lon="2.30578">
        <ele>134.3</ele>
        <time>2015-04-20T18:41:45.170Z</time>
      </trkpt>
      <trkpt lat="48.82878" lon="2.30576">
        <ele>134.2</ele>
        <time>2015-04-20T18:41:47.087Z</time>
      </trkpt>
      <trkpt lat="48.82873" lon="2.30573">
        <ele>134</ele>
        <time>2015-04-20T18:41:48.166Z</time>
      </trkpt>
      <trkpt lat="48.8287" lon="2.3057">
        <ele>134</ele>
        <time>2015-04-20T18:41:49.127Z</time>
      </trkpt>
      <trkpt lat="48.82862" lon="2.30564">
        <ele>134.4</ele>
        <time>2015-04-20T18:41:51.070Z</time>
      </trkpt>
      <trkpt lat="48.82858" lon="2.30559">
        <ele>134.4</ele>
        <time>2015-04-20T18:41:52.072Z</time>
      </trkpt>
      <trkpt lat="48.82852" lon="2.30551">
        <ele>134.6</ele>
        <time>2015-04-20T18:41:54.100Z</time>
      </trkpt>
      <trkpt lat="48.82848" lon="2.30547">
        <ele>134.7</ele>
        <time>2015-04-20T18:41:55.121Z</time>
      </trkpt>
      <trkpt lat="48.82844" lon="2.30543">
        <ele>134.8</ele>
        <time>2015-04-20T18:41:56.021Z</time>
      </trkpt>
      <trkpt lat="48.8284" lon="2.30536">
        <ele>134.9</ele>
        <time>2015-04-20T18:41:57.125Z</time>
      </trkpt>
      <trkpt lat="48.82836" lon="2.30531">
        <ele>134.5</ele>
        <time>2015-04-20T18:41:58.133Z</time>
      </trkpt>
      <trkpt lat="48.82832" lon="2.30526">
        <ele>134.7</ele>
        <time>2015-04-20T18:41:59.150Z</time>
      </trkpt>
      <trkpt lat="48.82828" lon="2.30521">
        <ele>134.9</ele>
        <time>2015-04-20T18:42:00.371Z</time>
      </trkpt>
      <trkpt lat="48.82824" lon="2.30516">
        <ele>135</ele>
        <time>2015-04-20T18:42:01.058Z</time>
      </trkpt>
      <trkpt lat="48.8282" lon="2.30512">
        <ele>135</ele>
        <time>2015-04-20T18:42:02.080Z</time>
      </trkpt>
      <trkpt lat="48.82817" lon="2.30507">
        <ele>135.1</ele>
        <time>2015-04-20T18:42:03.114Z</time>
      </trkpt>
      <trkpt lat="48.82813" lon="2.30503">
        <ele>135</ele>
        <time>2015-04-20T18:42:04.133Z</time>
      </trkpt>
      <trkpt lat="48.8281" lon="2.30499">
        <ele>135.1</ele>
        <time>2015-04-20T18:42:05.025Z</time>
      </trkpt>
      <trkpt lat="48.82806" lon="2.30495">
        <ele>135.1</ele>
        <time>2015-04-20T18:42:06.028Z</time>
      </trkpt>
      <trkpt lat="48.82802" lon="2.30491">
        <ele>135.1</ele>
        <time>2015-04-20T18:42:07.036Z</time>
      </trkpt>
      <trkpt lat="48.82799" lon="2.30486">
        <ele>135.3</ele>
        <time>2015-04-20T18:42:08.050Z</time>
      </trkpt>
      <trkpt lat="48.82795" lon="2.30482">
        <ele>135.3</ele>
        <time>2015-04-20T18:42:09.092Z</time>
      </trkpt>
      <trkpt lat="48.82789" lon="2.30474">
        <ele>135.5</ele>
        <time>2015-04-20T18:42:11.103Z</time>
      </trkpt>
      <trkpt lat="48.82786" lon="2.30469">
        <ele>135.7</ele>
        <time>2015-04-20T18:42:12.110Z</time>
      </trkpt>
      <trkpt lat="48.8278" lon="2.30461">
        <ele>135.9</ele>
        <time>2015-04-20T18:42:14.062Z</time>
      </trkpt>
      <trkpt lat="48.82777" lon="2.30457">
        <ele>136</ele>
        <time>2015-04-20T18:42:15.140Z</time>
      </trkpt>
      <trkpt lat="48.82771" lon="2.3045">
        <ele>136.2</ele>
        <time>2015-04-20T18:42:17.069Z</time>
      </trkpt>
      <trkpt lat="48.82768" lon="2.30447">
        <ele>136.3</ele>
        <time>2015-04-20T18:42:18.080Z</time>
      </trkpt>
      <trkpt lat="48.82763" lon="2.30439">
        <ele>136.7</ele>
        <time>2015-04-20T18:42:20.726Z</time>
      </trkpt>
      <trkpt lat="48.8276" lon="2.30435">
        <ele>136.7</ele>
        <time>2015-04-20T18:42:21.189Z</time>
      </trkpt>
      <trkpt lat="48.82754" lon="2.30428">
        <ele>136.8</ele>
        <time>2015-04-20T18:42:23.047Z</time>
      </trkpt>
      <trkpt lat="48.82752" lon="2.30426">
        <ele>136.9</ele>
        <time>2015-04-20T18:42:24.088Z</time>
      </trkpt>
      <trkpt lat="48.82745" lon="2.30417">
        <ele>136.3</ele>
        <time>2015-04-20T18:42:27.057Z</time>
      </trkpt>
      <trkpt lat="48.82743" lon="2.30413">
        <ele>136</ele>
        <time>2015-04-20T18:42:28.117Z</time>
      </trkpt>
      <trkpt lat="48.8274" lon="2.30409">
        <ele>135.2</ele>
        <time>2015-04-20T18:42:29.856Z</time>
      </trkpt>
      <trkpt lat="48.82723" lon="2.30396">
        <ele>136</ele>
        <time>2015-04-20T18:42:34.107Z</time>
      </trkpt>
      <trkpt lat="48.82716" lon="2.30386">
        <ele>136.2</ele>
        <time>2015-04-20T18:42:35.121Z</time>
      </trkpt>
      <trkpt lat="48.82716" lon="2.30386">
        <ele>136.2</ele>
        <time>2015-04-20T18:42:35.261Z</time>
      </trkpt>
      <trkpt lat="48.82708" lon="2.30376">
        <ele>135.2</ele>
        <time>2015-04-20T18:42:36.007Z</time>
      </trkpt>
      <trkpt lat="48.827" lon="2.30369">
        <ele>134.5</ele>
        <time>2015-04-20T18:42:37.016Z</time>
      </trkpt>
      <trkpt lat="48.82693" lon="2.30363">
        <ele>134.2</ele>
        <time>2015-04-20T18:42:38.051Z</time>
      </trkpt>
      <trkpt lat="48.82686" lon="2.30358">
        <ele>133.8</ele>
        <time>2015-04-20T18:42:39.074Z</time>
      </trkpt>
      <trkpt lat="48.82679" lon="2.30352">
        <ele>133.1</ele>
        <time>2015-04-20T18:42:40.093Z</time>
      </trkpt>
      <trkpt lat="48.82671" lon="2.30345">
        <ele>132.5</ele>
        <time>2015-04-20T18:42:41.039Z</time>
      </trkpt>
      <trkpt lat="48.82664" lon="2.30337">
        <ele>132</ele>
        <time>2015-04-20T18:42:42.069Z</time>
      </trkpt>
      <trkpt lat="48.82658" lon="2.30328">
        <ele>131.7</ele>
        <time>2015-04-20T18:42:43.093Z</time>
      </trkpt>
      <trkpt lat="48.82652" lon="2.3032">
        <ele>131.5</ele>
        <time>2015-04-20T18:42:44.094Z</time>
      </trkpt>
      <trkpt lat="48.82646" lon="2.30311">
        <ele>131.3</ele>
        <time>2015-04-20T18:42:45.110Z</time>
      </trkpt>
      <trkpt lat="48.8264" lon="2.30304">
        <ele>131.1</ele>
        <time>2015-04-20T18:42:46.122Z</time>
      </trkpt>
      <trkpt lat="48.82635" lon="2.30296">
        <ele>131.1</ele>
        <time>2015-04-20T18:42:47.041Z</time>
      </trkpt>
      <trkpt lat="48.82629" lon="2.30289">
        <ele>131</ele>
        <time>2015-04-20T18:42:48.058Z</time>
      </trkpt>
      <trkpt lat="48.82625" lon="2.30282">
        <ele>130.9</ele>
        <time>2015-04-20T18:42:49.078Z</time>
      </trkpt>
      <trkpt lat="48.82619" lon="2.30275">
        <ele>130.4</ele>
        <time>2015-04-20T18:42:50.093Z</time>
      </trkpt>
      <trkpt lat="48.82613" lon="2.30269">
        <ele>130.2</ele>
        <time>2015-04-20T18:42:51.100Z</time>
      </trkpt>
      <trkpt lat="48.82608" lon="2.30264">
        <ele>130.1</ele>
        <time>2015-04-20T18:42:52.110Z</time>
      </trkpt>
      <trkpt lat="48.82602" lon="2.3026">
        <ele>130.2</ele>
        <time>2015-04-20T18:42:53.127Z</time>
      </trkpt>
      <trkpt lat="48.82596" lon="2.30256">
        <ele>130.1</ele>
        <time>2015-04-20T18:42:54.044Z</time>
      </trkpt>
      <trkpt lat="48.8259" lon="2.30252">
        <ele>129.9</ele>
        <time>2015-04-20T18:42:55.046Z</time>
      </trkpt>
      <trkpt lat="48.82583" lon="2.30249">
        <ele>130.2</ele>
        <time>2015-04-20T18:42:56.080Z</time>
      </trkpt>
      <trkpt lat="48.82577" lon="2.30246">
        <ele>130.9</ele>
        <time>2015-04-20T18:42:57.117Z</time>
      </trkpt>
      <trkpt lat="48.82572" lon="2.30243">
        <ele>131.4</ele>
        <time>2015-04-20T18:42:58.101Z</time>
      </trkpt>
      <trkpt lat="48.82564" lon="2.30237">
        <ele>132.4</ele>
        <time>2015-04-20T18:43:00.141Z</time>
      </trkpt>
      <trkpt lat="48.82562" lon="2.30235">
        <ele>132.6</ele>
        <time>2015-04-20T18:43:01.061Z</time>
      </trkpt>
      <trkpt lat="48.82557" lon="2.30238">
        <ele>134.5</ele>
        <time>2015-04-20T18:43:37.059Z</time>
      </trkpt>
      <trkpt lat="48.82557" lon="2.30238">
        <ele>134.8</ele>
        <time>2015-04-20T18:43:38.036Z</time>
      </trkpt>
      <trkpt lat="48.82556" lon="2.30239">
        <ele>134.8</ele>
        <time>2015-04-20T18:44:17.142Z</time>
      </trkpt>
      <trkpt lat="48.82558" lon="2.30242">
        <ele>130.9</ele>
        <time>2015-04-20T18:44:18.061Z</time>
      </trkpt>
      <trkpt lat="48.82551" lon="2.30234">
        <ele>130.2</ele>
        <time>2015-04-20T18:44:22.077Z</time>
      </trkpt>
      <trkpt lat="48.82549" lon="2.30233">
        <ele>130.4</ele>
        <time>2015-04-20T18:44:23.067Z</time>
      </trkpt>
      <trkpt lat="48.82542" lon="2.3023">
        <ele>130.3</ele>
        <time>2015-04-20T18:44:26.067Z</time>
      </trkpt>
      <trkpt lat="48.82539" lon="2.30229">
        <ele>130.2</ele>
        <time>2015-04-20T18:44:27.157Z</time>
      </trkpt>
      <trkpt lat="48.82531" lon="2.30226">
        <ele>130.1</ele>
        <time>2015-04-20T18:44:30.112Z</time>
      </trkpt>
      <trkpt lat="48.82529" lon="2.30224">
        <ele>130.2</ele>
        <time>2015-04-20T18:44:31.155Z</time>
      </trkpt>
      <trkpt lat="48.82522" lon="2.3022">
        <ele>130</ele>
        <time>2015-04-20T18:44:34.157Z</time>
      </trkpt>
      <trkpt lat="48.82519" lon="2.30219">
        <ele>130</ele>
        <time>2015-04-20T18:44:35.059Z</time>
      </trkpt>
      <trkpt lat="48.8251" lon="2.30215">
        <ele>129.7</ele>
        <time>2015-04-20T18:44:38.072Z</time>
      </trkpt>
      <trkpt lat="48.82507" lon="2.30214">
        <ele>129.5</ele>
        <time>2015-04-20T18:44:39.114Z</time>
      </trkpt>
      <trkpt lat="48.82502" lon="2.30209">
        <ele>129.3</ele>
        <time>2015-04-20T18:44:41.052Z</time>
      </trkpt>
      <trkpt lat="48.82499" lon="2.30207">
        <ele>129.3</ele>
        <time>2015-04-20T18:44:42.059Z</time>
      </trkpt>
      <trkpt lat="48.82492" lon="2.30202">
        <ele>130.1</ele>
        <time>2015-04-20T18:44:44.119Z</time>
      </trkpt>
      <trkpt lat="48.82488" lon="2.30198">
        <ele>130.4</ele>
        <time>2015-04-20T18:44:45.115Z</time>
      </trkpt>
      <trkpt lat="48.82483" lon="2.30189">
        <ele>130.9</ele>
        <time>2015-04-20T18:44:47.134Z</time>
      </trkpt>
      <trkpt lat="48.8248" lon="2.30185">
        <ele>131.3</ele>
        <time>2015-04-20T18:44:48.034Z</time>
      </trkpt>
      <trkpt lat="48.82477" lon="2.30174">
        <ele>131.5</ele>
        <time>2015-04-20T18:44:50.154Z</time>
      </trkpt>
      <trkpt lat="48.82475" lon="2.30168">
        <ele>131.6</ele>
        <time>2015-04-20T18:44:51.174Z</time>
      </trkpt>
      <trkpt lat="48.82474" lon="2.30157">
        <ele>131.8</ele>
        <time>2015-04-20T18:44:53.069Z</time>
      </trkpt>
      <trkpt lat="48.82473" lon="2.30153">
        <ele>131.9</ele>
        <time>2015-04-20T18:44:54.086Z</time>
      </trkpt>
      <trkpt lat="48.8247" lon="2.30143">
        <ele>132.1</ele>
        <time>2015-04-20T18:44:56.157Z</time>
      </trkpt>
      <trkpt lat="48.82469" lon="2.30138">
        <ele>132.2</ele>
        <time>2015-04-20T18:44:57.169Z</time>
      </trkpt>
      <trkpt lat="48.82466" lon="2.30129">
        <ele>132.2</ele>
        <time>2015-04-20T18:44:59.070Z</time>
      </trkpt>
      <trkpt lat="48.82464" lon="2.30126">
        <ele>132.2</ele>
        <time>2015-04-20T18:45:00.143Z</time>
      </trkpt>
      <trkpt lat="48.8246" lon="2.30118">
        <ele>131.9</ele>
        <time>2015-04-20T18:45:03.088Z</time>
      </trkpt>
      <trkpt lat="48.82456" lon="2.30113">
        <ele>131.8</ele>
        <time>2015-04-20T18:45:04.112Z</time>
      </trkpt>
      <trkpt lat="48.82451" lon="2.30108">
        <ele>131.4</ele>
        <time>2015-04-20T18:45:05.143Z</time>
      </trkpt>
      <trkpt lat="48.82445" lon="2.30101">
        <ele>131</ele>
        <time>2015-04-20T18:45:06.046Z</time>
      </trkpt>
      <trkpt lat="48.82439" lon="2.30095">
        <ele>130.8</ele>
        <time>2015-04-20T18:45:07.073Z</time>
      </trkpt>
      <trkpt lat="48.82432" lon="2.30089">
        <ele>130.5</ele>
        <time>2015-04-20T18:45:08.067Z</time>
      </trkpt>
      <trkpt lat="48.82427" lon="2.30084">
        <ele>130.3</ele>
        <time>2015-04-20T18:45:09.098Z</time>
      </trkpt>
      <trkpt lat="48.82422" lon="2.30077">
        <ele>130.1</ele>
        <time>2015-04-20T18:45:10.113Z</time>
      </trkpt>
      <trkpt lat="48.82417" lon="2.30071">
        <ele>129.9</ele>
        <time>2015-04-20T18:45:11.140Z</time>
      </trkpt>
      <trkpt lat="48.82413" lon="2.30066">
        <ele>129.7</ele>
        <time>2015-04-20T18:45:12.057Z</time>
      </trkpt>
      <trkpt lat="48.82408" lon="2.30059">
        <ele>129.8</ele>
        <time>2015-04-20T18:45:13.052Z</time>
      </trkpt>
      <trkpt lat="48.82404" lon="2.30054">
        <ele>129.8</ele>
        <time>2015-04-20T18:45:14.066Z</time>
      </trkpt>
      <trkpt lat="48.824" lon="2.30048">
        <ele>129.8</ele>
        <time>2015-04-20T18:45:15.119Z</time>
      </trkpt>
      <trkpt lat="48.82396" lon="2.30043">
        <ele>129.9</ele>
        <time>2015-04-20T18:45:16.135Z</time>
      </trkpt>
      <trkpt lat="48.82393" lon="2.30039">
        <ele>129.8</ele>
        <time>2015-04-20T18:45:17.054Z</time>
      </trkpt>
      <trkpt lat="48.82389" lon="2.30035">
        <ele>129.9</ele>
        <time>2015-04-20T18:45:18.073Z</time>
      </trkpt>
      <trkpt lat="48.82385" lon="2.30031">
        <ele>129.7</ele>
        <time>2015-04-20T18:45:19.120Z</time>
      </trkpt>
      <trkpt lat="48.82381" lon="2.30027">
        <ele>129.6</ele>
        <time>2015-04-20T18:45:20.117Z</time>
      </trkpt>
      <trkpt lat="48.82376" lon="2.30018">
        <ele>129.6</ele>
        <time>2015-04-20T18:45:22.138Z</time>
      </trkpt>
      <trkpt lat="48.82373" lon="2.30015">
        <ele>129.6</ele>
        <time>2015-04-20T18:45:23.031Z</time>
      </trkpt>
      <trkpt lat="48.82367" lon="2.3001">
        <ele>129.4</ele>
        <time>2015-04-20T18:45:25.120Z</time>
      </trkpt>
      <trkpt lat="48.82364" lon="2.30007">
        <ele>129.4</ele>
        <time>2015-04-20T18:45:26.127Z</time>
      </trkpt>
      <trkpt lat="48.82357" lon="2.30001">
        <ele>129.7</ele>
        <time>2015-04-20T18:45:29.136Z</time>
      </trkpt>
      <trkpt lat="48.82354" lon="2.30001">
        <ele>129.6</ele>
        <time>2015-04-20T18:45:30.151Z</time>
      </trkpt>
      <trkpt lat="48.82359" lon="2.30011">
        <ele>128.3</ele>
        <time>2015-04-20T18:45:35.087Z</time>
      </trkpt>
      <trkpt lat="48.82361" lon="2.30013">
        <ele>128</ele>
        <time>2015-04-20T18:45:36.085Z</time>
      </trkpt>
      <trkpt lat="48.82366" lon="2.30022">
        <ele>127.6</ele>
        <time>2015-04-20T18:45:39.129Z</time>
      </trkpt>
      <trkpt lat="48.82367" lon="2.30025">
        <ele>127.4</ele>
        <time>2015-04-20T18:45:40.039Z</time>
      </trkpt>
      <trkpt lat="48.82363" lon="2.30034">
        <ele>127.3</ele>
        <time>2015-04-20T18:45:43.084Z</time>
      </trkpt>
      <trkpt lat="48.8236" lon="2.30037">
        <ele>127.1</ele>
        <time>2015-04-20T18:45:44.097Z</time>
      </trkpt>
      <trkpt lat="48.82354" lon="2.30041">
        <ele>127.1</ele>
        <time>2015-04-20T18:45:46.049Z</time>
      </trkpt>
      <trkpt lat="48.82351" lon="2.30043">
        <ele>127</ele>
        <time>2015-04-20T18:45:47.058Z</time>
      </trkpt>
      <trkpt lat="48.82345" lon="2.30048">
        <ele>126.6</ele>
        <time>2015-04-20T18:45:49.092Z</time>
      </trkpt>
      <trkpt lat="48.82341" lon="2.3005">
        <ele>126.4</ele>
        <time>2015-04-20T18:45:50.123Z</time>
      </trkpt>
      <trkpt lat="48.82336" lon="2.30055">
        <ele>126.2</ele>
        <time>2015-04-20T18:45:52.098Z</time>
      </trkpt>
      <trkpt lat="48.82333" lon="2.30057">
        <ele>126.3</ele>
        <time>2015-04-20T18:45:53.167Z</time>
      </trkpt>
      <trkpt lat="48.82326" lon="2.30064">
        <ele>126.6</ele>
        <time>2015-04-20T18:45:56.119Z</time>
      </trkpt>
      <trkpt lat="48.82323" lon="2.30067">
        <ele>126.7</ele>
        <time>2015-04-20T18:45:57.147Z</time>
      </trkpt>
      <trkpt lat="48.82317" lon="2.30073">
        <ele>127.1</ele>
        <time>2015-04-20T18:45:59.061Z</time>
      </trkpt>
      <trkpt lat="48.82314" lon="2.30076">
        <ele>127.3</ele>
        <time>2015-04-20T18:46:00.224Z</time>
      </trkpt>
      <trkpt lat="48.82307" lon="2.3008">
        <ele>127.6</ele>
        <time>2015-04-20T18:46:02.071Z</time>
      </trkpt>
      <trkpt lat="48.82304" lon="2.30082">
        <ele>127.6</ele>
        <time>2015-04-20T18:46:03.161Z</time>
      </trkpt>
      <trkpt lat="48.82297" lon="2.30088">
        <ele>127.6</ele>
        <time>2015-04-20T18:46:06.075Z</time>
      </trkpt>
      <trkpt lat="48.82294" lon="2.3009">
        <ele>127.6</ele>
        <time>2015-04-20T18:46:07.100Z</time>
      </trkpt>
      <trkpt lat="48.82286" lon="2.30093">
        <ele>127.7</ele>
        <time>2015-04-20T18:46:09.068Z</time>
      </trkpt>
      <trkpt lat="48.82282" lon="2.30095">
        <ele>127.7</ele>
        <time>2015-04-20T18:46:10.078Z</time>
      </trkpt>
      <trkpt lat="48.82274" lon="2.30098">
        <ele>127.9</ele>
        <time>2015-04-20T18:46:12.029Z</time>
      </trkpt>
      <trkpt lat="48.8227" lon="2.30101">
        <ele>128</ele>
        <time>2015-04-20T18:46:13.057Z</time>
      </trkpt>
      <trkpt lat="48.82264" lon="2.30107">
        <ele>128.1</ele>
        <time>2015-04-20T18:46:15.086Z</time>
      </trkpt>
      <trkpt lat="48.8226" lon="2.3011">
        <ele>128.1</ele>
        <time>2015-04-20T18:46:16.115Z</time>
      </trkpt>
      <trkpt lat="48.82253" lon="2.30114">
        <ele>128.2</ele>
        <time>2015-04-20T18:46:18.102Z</time>
      </trkpt>
      <trkpt lat="48.82249" lon="2.30114">
        <ele>128.4</ele>
        <time>2015-04-20T18:46:19.101Z</time>
      </trkpt>
      <trkpt lat="48.82242" lon="2.30111">
        <ele>128.6</ele>
        <time>2015-04-20T18:46:21.093Z</time>
      </trkpt>
      <trkpt lat="48.8224" lon="2.30106">
        <ele>128.7</ele>
        <time>2015-04-20T18:46:22.105Z</time>
      </trkpt>
      <trkpt lat="48.82236" lon="2.30096">
        <ele>128.8</ele>
        <time>2015-04-20T18:46:25.046Z</time>
      </trkpt>
      <trkpt lat="48.82234" lon="2.30093">
        <ele>128.9</ele>
        <time>2015-04-20T18:46:26.122Z</time>
      </trkpt>
      <trkpt lat="48.82216" lon="2.30065">
        <ele>129.7</ele>
        <time>2015-04-20T18:46:34.079Z</time>
      </trkpt>
      <trkpt lat="48.82214" lon="2.30056">
        <ele>130.2</ele>
        <time>2015-04-20T18:46:36.093Z</time>
      </trkpt>
      <trkpt lat="48.82213" lon="2.3005">
        <ele>130.4</ele>
        <time>2015-04-20T18:46:36.995Z</time>
      </trkpt>
      <trkpt lat="48.82211" lon="2.3004">
        <ele>130.8</ele>
        <time>2015-04-20T18:46:39.057Z</time>
      </trkpt>
      <trkpt lat="48.82211" lon="2.30034">
        <ele>131.1</ele>
        <time>2015-04-20T18:46:40.054Z</time>
      </trkpt>
      <trkpt lat="48.82209" lon="2.30023">
        <ele>131.5</ele>
        <time>2015-04-20T18:46:42.072Z</time>
      </trkpt>
      <trkpt lat="48.82207" lon="2.30019">
        <ele>131.6</ele>
        <time>2015-04-20T18:46:43.079Z</time>
      </trkpt>
      <trkpt lat="48.82205" lon="2.30007">
        <ele>131.7</ele>
        <time>2015-04-20T18:46:45.105Z</time>
      </trkpt>
      <trkpt lat="48.82203" lon="2.30002">
        <ele>131.9</ele>
        <time>2015-04-20T18:46:46.126Z</time>
      </trkpt>
      <trkpt lat="48.82201" lon="2.2999">
        <ele>132.2</ele>
        <time>2015-04-20T18:46:49.116Z</time>
      </trkpt>
      <trkpt lat="48.82199" lon="2.29987">
        <ele>132.2</ele>
        <time>2015-04-20T18:46:50.120Z</time>
      </trkpt>
      <trkpt lat="48.82191" lon="2.29986">
        <ele>133.9</ele>
        <time>2015-04-20T18:46:52.086Z</time>
      </trkpt>
      <trkpt lat="48.82188" lon="2.29986">
        <ele>133.8</ele>
        <time>2015-04-20T18:46:53.101Z</time>
      </trkpt>
      <trkpt lat="48.8218" lon="2.29992">
        <ele>133.5</ele>
        <time>2015-04-20T18:46:56.056Z</time>
      </trkpt>
      <trkpt lat="48.82176" lon="2.29994">
        <ele>133.2</ele>
        <time>2015-04-20T18:46:57.087Z</time>
      </trkpt>
      <trkpt lat="48.82169" lon="2.3">
        <ele>133.1</ele>
        <time>2015-04-20T18:46:59.109Z</time>
      </trkpt>
      <trkpt lat="48.82166" lon="2.30002">
        <ele>133.2</ele>
        <time>2015-04-20T18:47:00.037Z</time>
      </trkpt>
      <trkpt lat="48.82158" lon="2.30009">
        <ele>133.4</ele>
        <time>2015-04-20T18:47:02.075Z</time>
      </trkpt>
      <trkpt lat="48.82155" lon="2.30014">
        <ele>133.4</ele>
        <time>2015-04-20T18:47:03.123Z</time>
      </trkpt>
      <trkpt lat="48.82151" lon="2.30018">
        <ele>133.5</ele>
        <time>2015-04-20T18:47:04.009Z</time>
      </trkpt>
      <trkpt lat="48.82148" lon="2.30023">
        <ele>133.4</ele>
        <time>2015-04-20T18:47:05.052Z</time>
      </trkpt>
      <trkpt lat="48.82141" lon="2.3003">
        <ele>133.3</ele>
        <time>2015-04-20T18:47:07.087Z</time>
      </trkpt>
      <trkpt lat="48.82137" lon="2.30033">
        <ele>133.2</ele>
        <time>2015-04-20T18:47:08.101Z</time>
      </trkpt>
      <trkpt lat="48.8213" lon="2.30038">
        <ele>132.9</ele>
        <time>2015-04-20T18:47:10.049Z</time>
      </trkpt>
      <trkpt lat="48.82125" lon="2.3004">
        <ele>132.5</ele>
        <time>2015-04-20T18:47:11.069Z</time>
      </trkpt>
      <trkpt lat="48.82117" lon="2.30045">
        <ele>131.9</ele>
        <time>2015-04-20T18:47:13.113Z</time>
      </trkpt>
      <trkpt lat="48.82113" lon="2.30047">
        <ele>131.8</ele>
        <time>2015-04-20T18:47:14.115Z</time>
      </trkpt>
      <trkpt lat="48.82105" lon="2.30052">
        <ele>131.6</ele>
        <time>2015-04-20T18:47:16.037Z</time>
      </trkpt>
      <trkpt lat="48.82101" lon="2.30055">
        <ele>131.6</ele>
        <time>2015-04-20T18:47:17.054Z</time>
      </trkpt>
      <trkpt lat="48.82093" lon="2.30059">
        <ele>131.6</ele>
        <time>2015-04-20T18:47:19.090Z</time>
      </trkpt>
      <trkpt lat="48.82089" lon="2.30062">
        <ele>131.6</ele>
        <time>2015-04-20T18:47:20.145Z</time>
      </trkpt>
      <trkpt lat="48.82082" lon="2.30067">
        <ele>131.7</ele>
        <time>2015-04-20T18:47:22.049Z</time>
      </trkpt>
      <trkpt lat="48.82078" lon="2.30071">
        <ele>131.6</ele>
        <time>2015-04-20T18:47:23.072Z</time>
      </trkpt>
      <trkpt lat="48.82074" lon="2.30074">
        <ele>131.4</ele>
        <time>2015-04-20T18:47:24.109Z</time>
      </trkpt>
      <trkpt lat="48.8207" lon="2.30079">
        <ele>131.2</ele>
        <time>2015-04-20T18:47:25.133Z</time>
      </trkpt>
      <trkpt lat="48.82063" lon="2.30084">
        <ele>130.8</ele>
        <time>2015-04-20T18:47:27.092Z</time>
      </trkpt>
      <trkpt lat="48.82059" lon="2.30085">
        <ele>130.8</ele>
        <time>2015-04-20T18:47:28.086Z</time>
      </trkpt>
      <trkpt lat="48.82051" lon="2.30082">
        <ele>130.5</ele>
        <time>2015-04-20T18:47:30.136Z</time>
      </trkpt>
      <trkpt lat="48.82047" lon="2.30081">
        <ele>130.4</ele>
        <time>2015-04-20T18:47:31.031Z</time>
      </trkpt>
      <trkpt lat="48.82039" lon="2.30076">
        <ele>130.2</ele>
        <time>2015-04-20T18:47:33.111Z</time>
      </trkpt>
      <trkpt lat="48.82035" lon="2.30073">
        <ele>130.1</ele>
        <time>2015-04-20T18:47:34.049Z</time>
      </trkpt>
      <trkpt lat="48.8203" lon="2.30071">
        <ele>130</ele>
        <time>2015-04-20T18:47:35.129Z</time>
      </trkpt>
      <trkpt lat="48.82026" lon="2.30068">
        <ele>130</ele>
        <time>2015-04-20T18:47:36.175Z</time>
      </trkpt>
      <trkpt lat="48.82021" lon="2.30066">
        <ele>129.9</ele>
        <time>2015-04-20T18:47:37.013Z</time>
      </trkpt>
      <trkpt lat="48.82017" lon="2.30063">
        <ele>129.8</ele>
        <time>2015-04-20T18:47:38.066Z</time>
      </trkpt>
      <trkpt lat="48.82013" lon="2.3006">
        <ele>129.9</ele>
        <time>2015-04-20T18:47:39.164Z</time>
      </trkpt>
      <trkpt lat="48.82009" lon="2.30056">
        <ele>129.9</ele>
        <time>2015-04-20T18:47:40.050Z</time>
      </trkpt>
      <trkpt lat="48.82001" lon="2.3005">
        <ele>130</ele>
        <time>2015-04-20T18:47:42.092Z</time>
      </trkpt>
      <trkpt lat="48.81998" lon="2.30046">
        <ele>130.2</ele>
        <time>2015-04-20T18:47:43.117Z</time>
      </trkpt>
      <trkpt lat="48.8199" lon="2.30041">
        <ele>130</ele>
        <time>2015-04-20T18:47:45.057Z</time>
      </trkpt>
      <trkpt lat="48.81987" lon="2.30038">
        <ele>130.1</ele>
        <time>2015-04-20T18:47:46.045Z</time>
      </trkpt>
      <trkpt lat="48.81982" lon="2.30036">
        <ele>130</ele>
        <time>2015-04-20T18:47:47.120Z</time>
      </trkpt>
      <trkpt lat="48.81978" lon="2.30033">
        <ele>129.9</ele>
        <time>2015-04-20T18:47:48.037Z</time>
      </trkpt>
      <trkpt lat="48.81971" lon="2.30026">
        <ele>129.7</ele>
        <time>2015-04-20T18:47:50.059Z</time>
      </trkpt>
      <trkpt lat="48.81967" lon="2.30023">
        <ele>129.7</ele>
        <time>2015-04-20T18:47:51.088Z</time>
      </trkpt>
      <trkpt lat="48.81963" lon="2.3002">
        <ele>129.8</ele>
        <time>2015-04-20T18:47:52.092Z</time>
      </trkpt>
      <trkpt lat="48.81959" lon="2.30016">
        <ele>130</ele>
        <time>2015-04-20T18:47:53.086Z</time>
      </trkpt>
      <trkpt lat="48.81952" lon="2.30008">
        <ele>130.4</ele>
        <time>2015-04-20T18:47:55.365Z</time>
      </trkpt>
      <trkpt lat="48.81947" lon="2.30004">
        <ele>130.5</ele>
        <time>2015-04-20T18:47:56.127Z</time>
      </trkpt>
      <trkpt lat="48.8194" lon="2.29998">
        <ele>130.7</ele>
        <time>2015-04-20T18:47:58.059Z</time>
      </trkpt>
      <trkpt lat="48.81937" lon="2.29994">
        <ele>131.1</ele>
        <time>2015-04-20T18:47:59.091Z</time>
      </trkpt>
      <trkpt lat="48.81933" lon="2.29983">
        <ele>131.8</ele>
        <time>2015-04-20T18:48:01.111Z</time>
      </trkpt>
      <trkpt lat="48.81933" lon="2.29978">
        <ele>132.1</ele>
        <time>2015-04-20T18:48:02.132Z</time>
      </trkpt>
      <trkpt lat="48.81933" lon="2.29967">
        <ele>132.6</ele>
        <time>2015-04-20T18:48:04.024Z</time>
      </trkpt>
      <trkpt lat="48.81933" lon="2.29962">
        <ele>132.9</ele>
        <time>2015-04-20T18:48:05.024Z</time>
      </trkpt>
      <trkpt lat="48.81934" lon="2.29951">
        <ele>132.9</ele>
        <time>2015-04-20T18:48:07.085Z</time>
      </trkpt>
      <trkpt lat="48.81936" lon="2.29944">
        <ele>131.6</ele>
        <time>2015-04-20T18:48:08.085Z</time>
      </trkpt>
      <trkpt lat="48.81937" lon="2.29937">
        <ele>130.9</ele>
        <time>2015-04-20T18:48:09.133Z</time>
      </trkpt>
      <trkpt lat="48.81938" lon="2.2993">
        <ele>130.4</ele>
        <time>2015-04-20T18:48:10.018Z</time>
      </trkpt>
      <trkpt lat="48.81939" lon="2.29923">
        <ele>129.9</ele>
        <time>2015-04-20T18:48:11.069Z</time>
      </trkpt>
      <trkpt lat="48.81939" lon="2.29915">
        <ele>129.7</ele>
        <time>2015-04-20T18:48:12.072Z</time>
      </trkpt>
      <trkpt lat="48.81938" lon="2.29907">
        <ele>129.9</ele>
        <time>2015-04-20T18:48:13.088Z</time>
      </trkpt>
      <trkpt lat="48.81937" lon="2.29899">
        <ele>130.2</ele>
        <time>2015-04-20T18:48:14.098Z</time>
      </trkpt>
      <trkpt lat="48.81935" lon="2.29891">
        <ele>130.4</ele>
        <time>2015-04-20T18:48:15.831Z</time>
      </trkpt>
      <trkpt lat="48.81934" lon="2.29884">
        <ele>130.6</ele>
        <time>2015-04-20T18:48:16.120Z</time>
      </trkpt>
      <trkpt lat="48.81932" lon="2.29876">
        <ele>130.8</ele>
        <time>2015-04-20T18:48:17.024Z</time>
      </trkpt>
      <trkpt lat="48.81931" lon="2.29868">
        <ele>130.9</ele>
        <time>2015-04-20T18:48:18.066Z</time>
      </trkpt>
      <trkpt lat="48.8193" lon="2.29854">
        <ele>131</ele>
        <time>2015-04-20T18:48:20.924Z</time>
      </trkpt>
      <trkpt lat="48.8193" lon="2.29848">
        <ele>131.2</ele>
        <time>2015-04-20T18:48:21.080Z</time>
      </trkpt>
      <trkpt lat="48.81932" lon="2.29836">
        <ele>131.4</ele>
        <time>2015-04-20T18:48:23.117Z</time>
      </trkpt>
      <trkpt lat="48.81933" lon="2.2983">
        <ele>131.5</ele>
        <time>2015-04-20T18:48:24.020Z</time>
      </trkpt>
      <trkpt lat="48.81932" lon="2.29817">
        <ele>131.8</ele>
        <time>2015-04-20T18:48:26.081Z</time>
      </trkpt>
      <trkpt lat="48.81931" lon="2.29812">
        <ele>131.9</ele>
        <time>2015-04-20T18:48:27.124Z</time>
      </trkpt>
      <trkpt lat="48.81928" lon="2.29807">
        <ele>132</ele>
        <time>2015-04-20T18:48:28.022Z</time>
      </trkpt>
      <trkpt lat="48.81924" lon="2.29802">
        <ele>131.2</ele>
        <time>2015-04-20T18:48:29.049Z</time>
      </trkpt>
      <trkpt lat="48.8192" lon="2.29793">
        <ele>130.4</ele>
        <time>2015-04-20T18:48:31.133Z</time>
      </trkpt>
      <trkpt lat="48.81918" lon="2.29789">
        <ele>130.2</ele>
        <time>2015-04-20T18:48:32.116Z</time>
      </trkpt>
      <trkpt lat="48.81913" lon="2.29783">
        <ele>129.9</ele>
        <time>2015-04-20T18:48:34.142Z</time>
      </trkpt>
      <trkpt lat="48.8191" lon="2.2978">
        <ele>129.8</ele>
        <time>2015-04-20T18:48:35.032Z</time>
      </trkpt>
      <trkpt lat="48.81905" lon="2.29772">
        <ele>129.9</ele>
        <time>2015-04-20T18:48:37.068Z</time>
      </trkpt>
      <trkpt lat="48.81903" lon="2.29767">
        <ele>130.1</ele>
        <time>2015-04-20T18:48:38.101Z</time>
      </trkpt>
      <trkpt lat="48.81898" lon="2.29757">
        <ele>130.5</ele>
        <time>2015-04-20T18:48:40.127Z</time>
      </trkpt>
      <trkpt lat="48.81896" lon="2.29752">
        <ele>130.6</ele>
        <time>2015-04-20T18:48:41.064Z</time>
      </trkpt>
      <trkpt lat="48.81891" lon="2.29743">
        <ele>130.8</ele>
        <time>2015-04-20T18:48:43.055Z</time>
      </trkpt>
      <trkpt lat="48.81888" lon="2.29739">
        <ele>130.8</ele>
        <time>2015-04-20T18:48:44.145Z</time>
      </trkpt>
      <trkpt lat="48.81883" lon="2.2973">
        <ele>131</ele>
        <time>2015-04-20T18:48:46.051Z</time>
      </trkpt>
      <trkpt lat="48.81882" lon="2.29725">
        <ele>131</ele>
        <time>2015-04-20T18:48:47.054Z</time>
      </trkpt>
      <trkpt lat="48.81876" lon="2.29719">
        <ele>131.1</ele>
        <time>2015-04-20T18:48:49.769Z</time>
      </trkpt>
      <trkpt lat="48.81872" lon="2.29715">
        <ele>131.3</ele>
        <time>2015-04-20T18:48:50.067Z</time>
      </trkpt>
      <trkpt lat="48.81869" lon="2.29709">
        <ele>131.6</ele>
        <time>2015-04-20T18:48:51.102Z</time>
      </trkpt>
      <trkpt lat="48.81866" lon="2.29704">
        <ele>131.9</ele>
        <time>2015-04-20T18:48:52.127Z</time>
      </trkpt>
      <trkpt lat="48.8186" lon="2.29694">
        <ele>132.3</ele>
        <time>2015-04-20T18:48:54.887Z</time>
      </trkpt>
      <trkpt lat="48.81855" lon="2.2969">
        <ele>132.7</ele>
        <time>2015-04-20T18:48:55.097Z</time>
      </trkpt>
      <trkpt lat="48.81851" lon="2.29687">
        <ele>132.9</ele>
        <time>2015-04-20T18:48:56.109Z</time>
      </trkpt>
      <trkpt lat="48.81846" lon="2.29684">
        <ele>133.1</ele>
        <time>2015-04-20T18:48:57.124Z</time>
      </trkpt>
      <trkpt lat="48.81842" lon="2.29681">
        <ele>133.5</ele>
        <time>2015-04-20T18:48:58.023Z</time>
      </trkpt>
      <trkpt lat="48.81838" lon="2.29678">
        <ele>134.1</ele>
        <time>2015-04-20T18:48:59.060Z</time>
      </trkpt>
      <trkpt lat="48.81834" lon="2.29673">
        <ele>134.8</ele>
        <time>2015-04-20T18:49:00.272Z</time>
      </trkpt>
      <trkpt lat="48.81831" lon="2.29668">
        <ele>134.9</ele>
        <time>2015-04-20T18:49:01.068Z</time>
      </trkpt>
      <trkpt lat="48.81828" lon="2.29663">
        <ele>135.1</ele>
        <time>2015-04-20T18:49:02.067Z</time>
      </trkpt>
      <trkpt lat="48.81823" lon="2.29658">
        <ele>135.7</ele>
        <time>2015-04-20T18:49:03.134Z</time>
      </trkpt>
      <trkpt lat="48.81818" lon="2.29649">
        <ele>135.8</ele>
        <time>2015-04-20T18:49:05.335Z</time>
      </trkpt>
      <trkpt lat="48.81815" lon="2.29644">
        <ele>135.8</ele>
        <time>2015-04-20T18:49:06.047Z</time>
      </trkpt>
      <trkpt lat="48.81811" lon="2.29635">
        <ele>136</ele>
        <time>2015-04-20T18:49:08.066Z</time>
      </trkpt>
      <trkpt lat="48.81808" lon="2.2963">
        <ele>136.1</ele>
        <time>2015-04-20T18:49:09.071Z</time>
      </trkpt>
      <trkpt lat="48.81803" lon="2.29622">
        <ele>136.2</ele>
        <time>2015-04-20T18:49:11.097Z</time>
      </trkpt>
      <trkpt lat="48.818" lon="2.29616">
        <ele>136.3</ele>
        <time>2015-04-20T18:49:12.118Z</time>
      </trkpt>
      <trkpt lat="48.81797" lon="2.29606">
        <ele>136.3</ele>
        <time>2015-04-20T18:49:14.007Z</time>
      </trkpt>
      <trkpt lat="48.81796" lon="2.296">
        <ele>136.3</ele>
        <time>2015-04-20T18:49:15.060Z</time>
      </trkpt>
      <trkpt lat="48.81794" lon="2.29589">
        <ele>136.3</ele>
        <time>2015-04-20T18:49:17.093Z</time>
      </trkpt>
      <trkpt lat="48.8179" lon="2.29584">
        <ele>135.7</ele>
        <time>2015-04-20T18:49:18.097Z</time>
      </trkpt>
      <trkpt lat="48.81783" lon="2.29581">
        <ele>135</ele>
        <time>2015-04-20T18:49:20.594Z</time>
      </trkpt>
      <trkpt lat="48.81781" lon="2.29581">
        <ele>135.2</ele>
        <time>2015-04-20T18:49:21.063Z</time>
      </trkpt>
      <trkpt lat="48.81776" lon="2.29585">
        <ele>135.4</ele>
        <time>2015-04-20T18:49:23.102Z</time>
      </trkpt>
      <trkpt lat="48.81774" lon="2.29589">
        <ele>135.5</ele>
        <time>2015-04-20T18:49:24.111Z</time>
      </trkpt>
      <trkpt lat="48.81768" lon="2.29597">
        <ele>135.4</ele>
        <time>2015-04-20T18:49:26.016Z</time>
      </trkpt>
      <trkpt lat="48.81763" lon="2.29601">
        <ele>134.9</ele>
        <time>2015-04-20T18:49:27.037Z</time>
      </trkpt>
      <trkpt lat="48.81759" lon="2.29605">
        <ele>134.8</ele>
        <time>2015-04-20T18:49:28.061Z</time>
      </trkpt>
      <trkpt lat="48.81755" lon="2.29609">
        <ele>134.5</ele>
        <time>2015-04-20T18:49:29.064Z</time>
      </trkpt>
      <trkpt lat="48.81752" lon="2.29613">
        <ele>134.2</ele>
        <time>2015-04-20T18:49:30.079Z</time>
      </trkpt>
      <trkpt lat="48.81748" lon="2.29617">
        <ele>134</ele>
        <time>2015-04-20T18:49:31.076Z</time>
      </trkpt>
      <trkpt lat="48.81741" lon="2.29625">
        <ele>133.2</ele>
        <time>2015-04-20T18:49:33.114Z</time>
      </trkpt>
      <trkpt lat="48.81738" lon="2.29629">
        <ele>132.8</ele>
        <time>2015-04-20T18:49:34.068Z</time>
      </trkpt>
      <trkpt lat="48.81733" lon="2.29633">
        <ele>132.4</ele>
        <time>2015-04-20T18:49:35.041Z</time>
      </trkpt>
      <trkpt lat="48.8173" lon="2.29637">
        <ele>132.4</ele>
        <time>2015-04-20T18:49:36.046Z</time>
      </trkpt>
      <trkpt lat="48.81727" lon="2.29642">
        <ele>132.3</ele>
        <time>2015-04-20T18:49:37.096Z</time>
      </trkpt>
      <trkpt lat="48.81723" lon="2.29646">
        <ele>132.2</ele>
        <time>2015-04-20T18:49:38.111Z</time>
      </trkpt>
      <trkpt lat="48.81717" lon="2.29654">
        <ele>132.2</ele>
        <time>2015-04-20T18:49:40.003Z</time>
      </trkpt>
      <trkpt lat="48.81714" lon="2.29658">
        <ele>132.2</ele>
        <time>2015-04-20T18:49:41.045Z</time>
      </trkpt>
      <trkpt lat="48.81708" lon="2.29665">
        <ele>132.1</ele>
        <time>2015-04-20T18:49:43.028Z</time>
      </trkpt>
      <trkpt lat="48.81704" lon="2.29669">
        <ele>131.9</ele>
        <time>2015-04-20T18:49:44.026Z</time>
      </trkpt>
      <trkpt lat="48.81697" lon="2.29677">
        <ele>131.6</ele>
        <time>2015-04-20T18:49:46.073Z</time>
      </trkpt>
      <trkpt lat="48.81693" lon="2.2968">
        <ele>131.8</ele>
        <time>2015-04-20T18:49:47.073Z</time>
      </trkpt>
      <trkpt lat="48.81687" lon="2.29687">
        <ele>131.9</ele>
        <time>2015-04-20T18:49:49.890Z</time>
      </trkpt>
      <trkpt lat="48.81684" lon="2.29691">
        <ele>131.9</ele>
        <time>2015-04-20T18:49:50.062Z</time>
      </trkpt>
      <trkpt lat="48.81679" lon="2.29699">
        <ele>132.1</ele>
        <time>2015-04-20T18:49:52.087Z</time>
      </trkpt>
      <trkpt lat="48.81676" lon="2.29703">
        <ele>132.1</ele>
        <time>2015-04-20T18:49:53.096Z</time>
      </trkpt>
      <trkpt lat="48.81669" lon="2.2971">
        <ele>132.1</ele>
        <time>2015-04-20T18:49:55.075Z</time>
      </trkpt>
      <trkpt lat="48.81665" lon="2.29713">
        <ele>132.1</ele>
        <time>2015-04-20T18:49:56.035Z</time>
      </trkpt>
      <trkpt lat="48.81658" lon="2.29719">
        <ele>132</ele>
        <time>2015-04-20T18:49:58.087Z</time>
      </trkpt>
      <trkpt lat="48.81654" lon="2.29723">
        <ele>131.8</ele>
        <time>2015-04-20T18:49:59.092Z</time>
      </trkpt>
      <trkpt lat="48.81649" lon="2.29731">
        <ele>131.8</ele>
        <time>2015-04-20T18:50:01.080Z</time>
      </trkpt>
      <trkpt lat="48.81646" lon="2.29735">
        <ele>131.7</ele>
        <time>2015-04-20T18:50:02.034Z</time>
      </trkpt>
      <trkpt lat="48.81643" lon="2.2974">
        <ele>131.7</ele>
        <time>2015-04-20T18:50:03.056Z</time>
      </trkpt>
      <trkpt lat="48.81638" lon="2.29745">
        <ele>131.5</ele>
        <time>2015-04-20T18:50:04.075Z</time>
      </trkpt>
      <trkpt lat="48.81632" lon="2.29753">
        <ele>132</ele>
        <time>2015-04-20T18:50:06.030Z</time>
      </trkpt>
      <trkpt lat="48.81627" lon="2.29756">
        <ele>132</ele>
        <time>2015-04-20T18:50:06.997Z</time>
      </trkpt>
      <trkpt lat="48.8162" lon="2.29763">
        <ele>132.3</ele>
        <time>2015-04-20T18:50:09.042Z</time>
      </trkpt>
      <trkpt lat="48.81616" lon="2.29767">
        <ele>132.1</ele>
        <time>2015-04-20T18:50:10.055Z</time>
      </trkpt>
      <trkpt lat="48.81612" lon="2.29772">
        <ele>132</ele>
        <time>2015-04-20T18:50:11.073Z</time>
      </trkpt>
      <trkpt lat="48.81609" lon="2.29775">
        <ele>132.1</ele>
        <time>2015-04-20T18:50:12.081Z</time>
      </trkpt>
      <trkpt lat="48.81605" lon="2.29777">
        <ele>132.2</ele>
        <time>2015-04-20T18:50:13.013Z</time>
      </trkpt>
      <trkpt lat="48.816" lon="2.29782">
        <ele>132.1</ele>
        <time>2015-04-20T18:50:14.035Z</time>
      </trkpt>
      <trkpt lat="48.81596" lon="2.29787">
        <ele>132.2</ele>
        <time>2015-04-20T18:50:15.735Z</time>
      </trkpt>
      <trkpt lat="48.81592" lon="2.29792">
        <ele>132.3</ele>
        <time>2015-04-20T18:50:16.094Z</time>
      </trkpt>
      <trkpt lat="48.81587" lon="2.29797">
        <ele>132.5</ele>
        <time>2015-04-20T18:50:17.098Z</time>
      </trkpt>
      <trkpt lat="48.81583" lon="2.29803">
        <ele>132.5</ele>
        <time>2015-04-20T18:50:18.102Z</time>
      </trkpt>
      <trkpt lat="48.81578" lon="2.29808">
        <ele>132.4</ele>
        <time>2015-04-20T18:50:19.021Z</time>
      </trkpt>
      <trkpt lat="48.81572" lon="2.29814">
        <ele>132.2</ele>
        <time>2015-04-20T18:50:20.043Z</time>
      </trkpt>
      <trkpt lat="48.81568" lon="2.29819">
        <ele>132.2</ele>
        <time>2015-04-20T18:50:21.054Z</time>
      </trkpt>
      <trkpt lat="48.81563" lon="2.29826">
        <ele>132.5</ele>
        <time>2015-04-20T18:50:22.067Z</time>
      </trkpt>
      <trkpt lat="48.81558" lon="2.29832">
        <ele>132.2</ele>
        <time>2015-04-20T18:50:23.125Z</time>
      </trkpt>
      <trkpt lat="48.81554" lon="2.29838">
        <ele>132</ele>
        <time>2015-04-20T18:50:24.045Z</time>
      </trkpt>
      <trkpt lat="48.81549" lon="2.29845">
        <ele>131.9</ele>
        <time>2015-04-20T18:50:25.054Z</time>
      </trkpt>
      <trkpt lat="48.81544" lon="2.29852">
        <ele>131.8</ele>
        <time>2015-04-20T18:50:26.057Z</time>
      </trkpt>
      <trkpt lat="48.8154" lon="2.29858">
        <ele>131.8</ele>
        <time>2015-04-20T18:50:27.069Z</time>
      </trkpt>
      <trkpt lat="48.81537" lon="2.29865">
        <ele>131.9</ele>
        <time>2015-04-20T18:50:28.108Z</time>
      </trkpt>
      <trkpt lat="48.81533" lon="2.29871">
        <ele>131.9</ele>
        <time>2015-04-20T18:50:29.057Z</time>
      </trkpt>
      <trkpt lat="48.81528" lon="2.29877">
        <ele>132</ele>
        <time>2015-04-20T18:50:30.065Z</time>
      </trkpt>
      <trkpt lat="48.81524" lon="2.29882">
        <ele>132.1</ele>
        <time>2015-04-20T18:50:31.086Z</time>
      </trkpt>
      <trkpt lat="48.8152" lon="2.29887">
        <ele>132.2</ele>
        <time>2015-04-20T18:50:32.091Z</time>
      </trkpt>
      <trkpt lat="48.81515" lon="2.29891">
        <ele>132.3</ele>
        <time>2015-04-20T18:50:33.116Z</time>
      </trkpt>
      <trkpt lat="48.81511" lon="2.29897">
        <ele>132.7</ele>
        <time>2015-04-20T18:50:34.115Z</time>
      </trkpt>
      <trkpt lat="48.81507" lon="2.29903">
        <ele>132.8</ele>
        <time>2015-04-20T18:50:35.046Z</time>
      </trkpt>
      <trkpt lat="48.81503" lon="2.29908">
        <ele>132.7</ele>
        <time>2015-04-20T18:50:36.067Z</time>
      </trkpt>
      <trkpt lat="48.81499" lon="2.29913">
        <ele>132.9</ele>
        <time>2015-04-20T18:50:37.081Z</time>
      </trkpt>
      <trkpt lat="48.81495" lon="2.2992">
        <ele>132.8</ele>
        <time>2015-04-20T18:50:38.049Z</time>
      </trkpt>
      <trkpt lat="48.8149" lon="2.2993">
        <ele>132.9</ele>
        <time>2015-04-20T18:50:40.134Z</time>
      </trkpt>
      <trkpt lat="48.8149" lon="2.29934">
        <ele>133.1</ele>
        <time>2015-04-20T18:50:41.138Z</time>
      </trkpt>
      <trkpt lat="48.81494" lon="2.29945">
        <ele>132.9</ele>
        <time>2015-04-20T18:50:45.114Z</time>
      </trkpt>
      <trkpt lat="48.81496" lon="2.29947">
        <ele>132.8</ele>
        <time>2015-04-20T18:50:46.013Z</time>
      </trkpt>
      <trkpt lat="48.81503" lon="2.2995">
        <ele>133.1</ele>
        <time>2015-04-20T18:50:49.082Z</time>
      </trkpt>
      <trkpt lat="48.81506" lon="2.29952">
        <ele>133.2</ele>
        <time>2015-04-20T18:50:50.075Z</time>
      </trkpt>
      <trkpt lat="48.8151" lon="2.29959">
        <ele>133.4</ele>
        <time>2015-04-20T18:50:52.109Z</time>
      </trkpt>
      <trkpt lat="48.81513" lon="2.29963">
        <ele>133.4</ele>
        <time>2015-04-20T18:50:53.116Z</time>
      </trkpt>
      <trkpt lat="48.81516" lon="2.29971">
        <ele>133.3</ele>
        <time>2015-04-20T18:50:55.047Z</time>
      </trkpt>
      <trkpt lat="48.81519" lon="2.29974">
        <ele>133</ele>
        <time>2015-04-20T18:50:56.087Z</time>
      </trkpt>
      <trkpt lat="48.81521" lon="2.29978">
        <ele>132.8</ele>
        <time>2015-04-20T18:50:57.115Z</time>
      </trkpt>
      <trkpt lat="48.81526" lon="2.29983">
        <ele>130.8</ele>
        <time>2015-04-20T18:50:58.123Z</time>
      </trkpt>
      <trkpt lat="48.81531" lon="2.29988">
        <ele>129</ele>
        <time>2015-04-20T18:50:59.060Z</time>
      </trkpt>
      <trkpt lat="48.81535" lon="2.29991">
        <ele>127.8</ele>
        <time>2015-04-20T18:51:00.092Z</time>
      </trkpt>
      <trkpt lat="48.81539" lon="2.29995">
        <ele>126</ele>
        <time>2015-04-20T18:51:01.061Z</time>
      </trkpt>
      <trkpt lat="48.81542" lon="2.30003">
        <ele>125</ele>
        <time>2015-04-20T18:51:02.090Z</time>
      </trkpt>
      <trkpt lat="48.81545" lon="2.3001">
        <ele>123.9</ele>
        <time>2015-04-20T18:51:03.132Z</time>
      </trkpt>
      <trkpt lat="48.81548" lon="2.30014">
        <ele>122.8</ele>
        <time>2015-04-20T18:51:04.132Z</time>
      </trkpt>
      <trkpt lat="48.81553" lon="2.30018">
        <ele>122</ele>
        <time>2015-04-20T18:51:05.052Z</time>
      </trkpt>
      <trkpt lat="48.81556" lon="2.30023">
        <ele>121.3</ele>
        <time>2015-04-20T18:51:06.071Z</time>
      </trkpt>
      <trkpt lat="48.81555" lon="2.30035">
        <ele>121.7</ele>
        <time>2015-04-20T18:51:08.075Z</time>
      </trkpt>
      <trkpt lat="48.81551" lon="2.30048">
        <ele>121.6</ele>
        <time>2015-04-20T18:51:09.116Z</time>
      </trkpt>
      <trkpt lat="48.81548" lon="2.30058">
        <ele>121.6</ele>
        <time>2015-04-20T18:51:10.049Z</time>
      </trkpt>
      <trkpt lat="48.81546" lon="2.30065">
        <ele>121.6</ele>
        <time>2015-04-20T18:51:11.053Z</time>
      </trkpt>
      <trkpt lat="48.81542" lon="2.30076">
        <ele>121.6</ele>
        <time>2015-04-20T18:51:13.094Z</time>
      </trkpt>
      <trkpt lat="48.8154" lon="2.30082">
        <ele>121.6</ele>
        <time>2015-04-20T18:51:14.106Z</time>
      </trkpt>
      <trkpt lat="48.81535" lon="2.30093">
        <ele>121.6</ele>
        <time>2015-04-20T18:51:16.070Z</time>
      </trkpt>
      <trkpt lat="48.81533" lon="2.30099">
        <ele>121.7</ele>
        <time>2015-04-20T18:51:17.070Z</time>
      </trkpt>
      <trkpt lat="48.81531" lon="2.30106">
        <ele>121.8</ele>
        <time>2015-04-20T18:51:18.133Z</time>
      </trkpt>
      <trkpt lat="48.81529" lon="2.30115">
        <ele>121.8</ele>
        <time>2015-04-20T18:51:19.058Z</time>
      </trkpt>
      <trkpt lat="48.81524" lon="2.30125">
        <ele>121.9</ele>
        <time>2015-04-20T18:51:21.087Z</time>
      </trkpt>
      <trkpt lat="48.81521" lon="2.3013">
        <ele>122</ele>
        <time>2015-04-20T18:51:22.099Z</time>
      </trkpt>
      <trkpt lat="48.81518" lon="2.30136">
        <ele>122</ele>
        <time>2015-04-20T18:51:23.124Z</time>
      </trkpt>
      <trkpt lat="48.81515" lon="2.30141">
        <ele>121.8</ele>
        <time>2015-04-20T18:51:24.047Z</time>
      </trkpt>
      <trkpt lat="48.81509" lon="2.3015">
        <ele>121.8</ele>
        <time>2015-04-20T18:51:26.071Z</time>
      </trkpt>
      <trkpt lat="48.81505" lon="2.30155">
        <ele>121.7</ele>
        <time>2015-04-20T18:51:27.086Z</time>
      </trkpt>
      <trkpt lat="48.81501" lon="2.30161">
        <ele>121.6</ele>
        <time>2015-04-20T18:51:28.117Z</time>
      </trkpt>
      <trkpt lat="48.81498" lon="2.30167">
        <ele>121.6</ele>
        <time>2015-04-20T18:51:28.997Z</time>
      </trkpt>
      <trkpt lat="48.81495" lon="2.30173">
        <ele>121.6</ele>
        <time>2015-04-20T18:51:30.009Z</time>
      </trkpt>
      <trkpt lat="48.81492" lon="2.30179">
        <ele>121.8</ele>
        <time>2015-04-20T18:51:31.024Z</time>
      </trkpt>
      <trkpt lat="48.81489" lon="2.30185">
        <ele>121.9</ele>
        <time>2015-04-20T18:51:32.032Z</time>
      </trkpt>
      <trkpt lat="48.81485" lon="2.30193">
        <ele>122.3</ele>
        <time>2015-04-20T18:51:33.107Z</time>
      </trkpt>
      <trkpt lat="48.81482" lon="2.302">
        <ele>122.3</ele>
        <time>2015-04-20T18:51:34.123Z</time>
      </trkpt>
      <trkpt lat="48.8148" lon="2.30206">
        <ele>122.9</ele>
        <time>2015-04-20T18:51:35.036Z</time>
      </trkpt>
      <trkpt lat="48.81474" lon="2.30217">
        <ele>123.6</ele>
        <time>2015-04-20T18:51:37.097Z</time>
      </trkpt>
      <trkpt lat="48.8147" lon="2.30225">
        <ele>123.9</ele>
        <time>2015-04-20T18:51:38.138Z</time>
      </trkpt>
      <trkpt lat="48.81465" lon="2.30235">
        <ele>125.1</ele>
        <time>2015-04-20T18:51:39.160Z</time>
      </trkpt>
      <trkpt lat="48.81461" lon="2.30243">
        <ele>125.5</ele>
        <time>2015-04-20T18:51:40.027Z</time>
      </trkpt>
      <trkpt lat="48.81457" lon="2.30249">
        <ele>125.4</ele>
        <time>2015-04-20T18:51:41.042Z</time>
      </trkpt>
      <trkpt lat="48.81453" lon="2.30254">
        <ele>125.4</ele>
        <time>2015-04-20T18:51:42.037Z</time>
      </trkpt>
      <trkpt lat="48.81449" lon="2.3026">
        <ele>125.3</ele>
        <time>2015-04-20T18:51:43.067Z</time>
      </trkpt>
      <trkpt lat="48.81445" lon="2.30267">
        <ele>126.2</ele>
        <time>2015-04-20T18:51:44.074Z</time>
      </trkpt>
      <trkpt lat="48.81439" lon="2.30277">
        <ele>126.9</ele>
        <time>2015-04-20T18:51:46.026Z</time>
      </trkpt>
      <trkpt lat="48.81436" lon="2.30282">
        <ele>127.3</ele>
        <time>2015-04-20T18:51:47.020Z</time>
      </trkpt>
      <trkpt lat="48.81431" lon="2.3029">
        <ele>128.4</ele>
        <time>2015-04-20T18:51:49.045Z</time>
      </trkpt>
      <trkpt lat="48.81429" lon="2.30294">
        <ele>128.8</ele>
        <time>2015-04-20T18:51:50.087Z</time>
      </trkpt>
      <trkpt lat="48.81422" lon="2.30302">
        <ele>132.6</ele>
        <time>2015-04-20T18:51:52.048Z</time>
      </trkpt>
      <trkpt lat="48.81419" lon="2.30307">
        <ele>135.7</ele>
        <time>2015-04-20T18:51:53.063Z</time>
      </trkpt>
      <trkpt lat="48.8141" lon="2.30306">
        <ele>153.4</ele>
        <time>2015-04-20T18:53:30.143Z</time>
      </trkpt>
      <trkpt lat="48.81409" lon="2.30305">
        <ele>153.8</ele>
        <time>2015-04-20T18:53:31.053Z</time>
      </trkpt>
      <trkpt lat="48.81401" lon="2.30298">
        <ele>155.9</ele>
        <time>2015-04-20T18:53:37.076Z</time>
      </trkpt>
      <trkpt lat="48.814" lon="2.30297">
        <ele>156.2</ele>
        <time>2015-04-20T18:53:38.092Z</time>
      </trkpt>
      <trkpt lat="48.81394" lon="2.30287">
        <ele>157.6</ele>
        <time>2015-04-20T18:53:43.043Z</time>
      </trkpt>
      <trkpt lat="48.81392" lon="2.30285">
        <ele>157.9</ele>
        <time>2015-04-20T18:53:44.055Z</time>
      </trkpt>
      <trkpt lat="48.81387" lon="2.30275">
        <ele>159.3</ele>
        <time>2015-04-20T18:53:47.108Z</time>
      </trkpt>
      <trkpt lat="48.81384" lon="2.30272">
        <ele>159.9</ele>
        <time>2015-04-20T18:53:48.117Z</time>
      </trkpt>
      <trkpt lat="48.81379" lon="2.30265">
        <ele>160.6</ele>
        <time>2015-04-20T18:53:50.025Z</time>
      </trkpt>
      <trkpt lat="48.81376" lon="2.30261">
        <ele>161.2</ele>
        <time>2015-04-20T18:53:51.080Z</time>
      </trkpt>
      <trkpt lat="48.81369" lon="2.30252">
        <ele>161.7</ele>
        <time>2015-04-20T18:53:54.102Z</time>
      </trkpt>
      <trkpt lat="48.81366" lon="2.30249">
        <ele>161.9</ele>
        <time>2015-04-20T18:53:55.124Z</time>
      </trkpt>
      <trkpt lat="48.81359" lon="2.30242">
        <ele>162.4</ele>
        <time>2015-04-20T18:53:58.044Z</time>
      </trkpt>
      <trkpt lat="48.81356" lon="2.30239">
        <ele>162.7</ele>
        <time>2015-04-20T18:53:59.036Z</time>
      </trkpt>
      <trkpt lat="48.81351" lon="2.30234">
        <ele>163.1</ele>
        <time>2015-04-20T18:54:01.104Z</time>
      </trkpt>
      <trkpt lat="48.81349" lon="2.3023">
        <ele>163.4</ele>
        <time>2015-04-20T18:54:02.103Z</time>
      </trkpt>
      <trkpt lat="48.81343" lon="2.30221">
        <ele>163.8</ele>
        <time>2015-04-20T18:54:04.044Z</time>
      </trkpt>
      <trkpt lat="48.8134" lon="2.30217">
        <ele>163.9</ele>
        <time>2015-04-20T18:54:05.038Z</time>
      </trkpt>
      <trkpt lat="48.81335" lon="2.30212">
        <ele>163.8</ele>
        <time>2015-04-20T18:54:07.030Z</time>
      </trkpt>
      <trkpt lat="48.81331" lon="2.30209">
        <ele>163.7</ele>
        <time>2015-04-20T18:54:08.041Z</time>
      </trkpt>
      <trkpt lat="48.81324" lon="2.30202">
        <ele>162.8</ele>
        <time>2015-04-20T18:54:10.085Z</time>
      </trkpt>
      <trkpt lat="48.81321" lon="2.30198">
        <ele>162.8</ele>
        <time>2015-04-20T18:54:11.085Z</time>
      </trkpt>
      <trkpt lat="48.81316" lon="2.30191">
        <ele>163.3</ele>
        <time>2015-04-20T18:54:14.143Z</time>
      </trkpt>
      <trkpt lat="48.81314" lon="2.30188">
        <ele>163.3</ele>
        <time>2015-04-20T18:54:15.174Z</time>
      </trkpt>
      <trkpt lat="48.8131" lon="2.3018">
        <ele>163.6</ele>
        <time>2015-04-20T18:54:17.036Z</time>
      </trkpt>
      <trkpt lat="48.81308" lon="2.30176">
        <ele>163.8</ele>
        <time>2015-04-20T18:54:18.041Z</time>
      </trkpt>
      <trkpt lat="48.81301" lon="2.30168">
        <ele>164</ele>
        <time>2015-04-20T18:54:20.034Z</time>
      </trkpt>
      <trkpt lat="48.81298" lon="2.30165">
        <ele>164</ele>
        <time>2015-04-20T18:54:21.102Z</time>
      </trkpt>
      <trkpt lat="48.81292" lon="2.30158">
        <ele>163.9</ele>
        <time>2015-04-20T18:54:23.029Z</time>
      </trkpt>
      <trkpt lat="48.81289" lon="2.30155">
        <ele>163.8</ele>
        <time>2015-04-20T18:54:24.064Z</time>
      </trkpt>
      <trkpt lat="48.81283" lon="2.30151">
        <ele>164</ele>
        <time>2015-04-20T18:54:26.107Z</time>
      </trkpt>
      <trkpt lat="48.81279" lon="2.30149">
        <ele>164.1</ele>
        <time>2015-04-20T18:54:27.124Z</time>
      </trkpt>
      <trkpt lat="48.81272" lon="2.30145">
        <ele>163.9</ele>
        <time>2015-04-20T18:54:29.052Z</time>
      </trkpt>
      <trkpt lat="48.81269" lon="2.30143">
        <ele>163.7</ele>
        <time>2015-04-20T18:54:30.035Z</time>
      </trkpt>
      <trkpt lat="48.81262" lon="2.30138">
        <ele>163.6</ele>
        <time>2015-04-20T18:54:32.087Z</time>
      </trkpt>
      <trkpt lat="48.81259" lon="2.30134">
        <ele>163.7</ele>
        <time>2015-04-20T18:54:33.117Z</time>
      </trkpt>
      <trkpt lat="48.81253" lon="2.30127">
        <ele>164</ele>
        <time>2015-04-20T18:54:35.021Z</time>
      </trkpt>
      <trkpt lat="48.81249" lon="2.30124">
        <ele>164</ele>
        <time>2015-04-20T18:54:36.041Z</time>
      </trkpt>
      <trkpt lat="48.81242" lon="2.30116">
        <ele>164</ele>
        <time>2015-04-20T18:54:38.081Z</time>
      </trkpt>
      <trkpt lat="48.81239" lon="2.30113">
        <ele>164.1</ele>
        <time>2015-04-20T18:54:39.099Z</time>
      </trkpt>
      <trkpt lat="48.81233" lon="2.30107">
        <ele>164.1</ele>
        <time>2015-04-20T18:54:41.144Z</time>
      </trkpt>
      <trkpt lat="48.81231" lon="2.30104">
        <ele>164.3</ele>
        <time>2015-04-20T18:54:42.039Z</time>
      </trkpt>
      <trkpt lat="48.81226" lon="2.30096">
        <ele>164.2</ele>
        <time>2015-04-20T18:54:44.049Z</time>
      </trkpt>
      <trkpt lat="48.81225" lon="2.30093">
        <ele>164.4</ele>
        <time>2015-04-20T18:54:45.074Z</time>
      </trkpt>
      <trkpt lat="48.81223" lon="2.30088">
        <ele>164.6</ele>
        <time>2015-04-20T18:54:47.060Z</time>
      </trkpt>
      <trkpt lat="48.81222" lon="2.30087">
        <ele>164.6</ele>
        <time>2015-04-20T18:54:48.075Z</time>
      </trkpt>
      <trkpt lat="48.81221" lon="2.30087">
        <ele>164.6</ele>
        <time>2015-04-20T18:54:49.082Z</time>
      </trkpt>
      <trkpt lat="48.8122" lon="2.30087">
        <ele>164.6</ele>
        <time>2015-04-20T18:54:50.100Z</time>
      </trkpt>
      <trkpt lat="48.81212" lon="2.30084">
        <ele>164.7</ele>
        <time>2015-04-20T18:54:53.158Z</time>
      </trkpt>
      <trkpt lat="48.81209" lon="2.30083">
        <ele>164.5</ele>
        <time>2015-04-20T18:54:54.057Z</time>
      </trkpt>
      <trkpt lat="48.81203" lon="2.30079">
        <ele>164.4</ele>
        <time>2015-04-20T18:54:56.058Z</time>
      </trkpt>
      <trkpt lat="48.812" lon="2.30077">
        <ele>164.4</ele>
        <time>2015-04-20T18:54:57.075Z</time>
      </trkpt>
      <trkpt lat="48.81193" lon="2.30074">
        <ele>164.6</ele>
        <time>2015-04-20T18:55:00.368Z</time>
      </trkpt>
      <trkpt lat="48.81189" lon="2.30073">
        <ele>164.7</ele>
        <time>2015-04-20T18:55:01.017Z</time>
      </trkpt>
      <trkpt lat="48.81183" lon="2.30073">
        <ele>164.9</ele>
        <time>2015-04-20T18:55:03.107Z</time>
      </trkpt>
      <trkpt lat="48.81179" lon="2.30071">
        <ele>165</ele>
        <time>2015-04-20T18:55:04.104Z</time>
      </trkpt>
      <trkpt lat="48.8117" lon="2.30067">
        <ele>164.3</ele>
        <time>2015-04-20T18:55:08.052Z</time>
      </trkpt>
      <trkpt lat="48.81169" lon="2.30067">
        <ele>164.1</ele>
        <time>2015-04-20T18:55:09.089Z</time>
      </trkpt>
      <trkpt lat="48.81164" lon="2.30064">
        <ele>164.2</ele>
        <time>2015-04-20T18:55:12.040Z</time>
      </trkpt>
      <trkpt lat="48.81161" lon="2.30061">
        <ele>164.4</ele>
        <time>2015-04-20T18:55:13.288Z</time>
      </trkpt>
      <trkpt lat="48.81155" lon="2.30057">
        <ele>164.2</ele>
        <time>2015-04-20T18:55:15.681Z</time>
      </trkpt>
      <trkpt lat="48.8115" lon="2.30055">
        <ele>163.7</ele>
        <time>2015-04-20T18:55:16.014Z</time>
      </trkpt>
      <trkpt lat="48.81143" lon="2.30054">
        <ele>162.3</ele>
        <time>2015-04-20T18:55:18.034Z</time>
      </trkpt>
      <trkpt lat="48.8114" lon="2.30055">
        <ele>161.5</ele>
        <time>2015-04-20T18:55:19.060Z</time>
      </trkpt>
      <trkpt lat="48.81133" lon="2.30056">
        <ele>160.2</ele>
        <time>2015-04-20T18:55:21.066Z</time>
      </trkpt>
      <trkpt lat="48.8113" lon="2.30057">
        <ele>159.8</ele>
        <time>2015-04-20T18:55:22.026Z</time>
      </trkpt>
      <trkpt lat="48.8112" lon="2.30059">
        <ele>158.4</ele>
        <time>2015-04-20T18:55:25.034Z</time>
      </trkpt>
      <trkpt lat="48.81112" lon="2.30062">
        <ele>157.7</ele>
        <time>2015-04-20T18:55:26.451Z</time>
      </trkpt>
      <trkpt lat="48.81108" lon="2.30064">
        <ele>157.3</ele>
        <time>2015-04-20T18:55:28.036Z</time>
      </trkpt>
      <trkpt lat="48.81101" lon="2.30069">
        <ele>156.4</ele>
        <time>2015-04-20T18:55:30.067Z</time>
      </trkpt>
      <trkpt lat="48.81097" lon="2.30071">
        <ele>156.1</ele>
        <time>2015-04-20T18:55:31.077Z</time>
      </trkpt>
      <trkpt lat="48.8109" lon="2.30076">
        <ele>155.1</ele>
        <time>2015-04-20T18:55:33.037Z</time>
      </trkpt>
      <trkpt lat="48.81086" lon="2.30078">
        <ele>154.6</ele>
        <time>2015-04-20T18:55:34.044Z</time>
      </trkpt>
      <trkpt lat="48.81078" lon="2.30082">
        <ele>153.6</ele>
        <time>2015-04-20T18:55:36.125Z</time>
      </trkpt>
      <trkpt lat="48.81074" lon="2.30084">
        <ele>153.2</ele>
        <time>2015-04-20T18:55:37.022Z</time>
      </trkpt>
      <trkpt lat="48.81066" lon="2.30088">
        <ele>152.3</ele>
        <time>2015-04-20T18:55:39.938Z</time>
      </trkpt>
      <trkpt lat="48.81063" lon="2.30089">
        <ele>152.4</ele>
        <time>2015-04-20T18:55:40.078Z</time>
      </trkpt>
      <trkpt lat="48.81055" lon="2.30091">
        <ele>153</ele>
        <time>2015-04-20T18:55:42.032Z</time>
      </trkpt>
      <trkpt lat="48.81052" lon="2.30089">
        <ele>153.4</ele>
        <time>2015-04-20T18:55:43.019Z</time>
      </trkpt>
      <trkpt lat="48.81045" lon="2.30084">
        <ele>155.2</ele>
        <time>2015-04-20T18:55:45.044Z</time>
      </trkpt>
      <trkpt lat="48.81042" lon="2.30081">
        <ele>156.7</ele>
        <time>2015-04-20T18:55:46.072Z</time>
      </trkpt>
      <trkpt lat="48.81035" lon="2.30075">
        <ele>159.4</ele>
        <time>2015-04-20T18:55:48.112Z</time>
      </trkpt>
      <trkpt lat="48.81034" lon="2.30074">
        <ele>159.2</ele>
        <time>2015-04-20T18:55:48.984Z</time>
      </trkpt>
      <trkpt lat="48.81031" lon="2.30066">
        <ele>159.1</ele>
        <time>2015-04-20T18:55:53.023Z</time>
      </trkpt>
      <trkpt lat="48.8103" lon="2.30061">
        <ele>159.1</ele>
        <time>2015-04-20T18:55:54.032Z</time>
      </trkpt>
      <trkpt lat="48.81028" lon="2.30051">
        <ele>159</ele>
        <time>2015-04-20T18:55:56.052Z</time>
      </trkpt>
      <trkpt lat="48.81025" lon="2.30048">
        <ele>159</ele>
        <time>2015-04-20T18:55:57.068Z</time>
      </trkpt>
      <trkpt lat="48.81023" lon="2.30046">
        <ele>159.1</ele>
        <time>2015-04-20T18:55:58.022Z</time>
      </trkpt>
      <trkpt lat="48.81012" lon="2.30037">
        <ele>159.1</ele>
        <time>2015-04-20T18:56:01.028Z</time>
      </trkpt>
      <trkpt lat="48.81008" lon="2.30036">
        <ele>159.4</ele>
        <time>2015-04-20T18:56:02.042Z</time>
      </trkpt>
      <trkpt lat="48.81001" lon="2.30033">
        <ele>159.5</ele>
        <time>2015-04-20T18:56:03.060Z</time>
      </trkpt>
      <trkpt lat="48.80996" lon="2.3003">
        <ele>159.5</ele>
        <time>2015-04-20T18:56:04.098Z</time>
      </trkpt>
      <trkpt lat="48.80992" lon="2.30027">
        <ele>159.6</ele>
        <time>2015-04-20T18:56:05.041Z</time>
      </trkpt>
      <trkpt lat="48.80984" lon="2.30021">
        <ele>159.6</ele>
        <time>2015-04-20T18:56:07.009Z</time>
      </trkpt>
      <trkpt lat="48.8098" lon="2.3002">
        <ele>159.8</ele>
        <time>2015-04-20T18:56:08.048Z</time>
      </trkpt>
      <trkpt lat="48.80974" lon="2.30018">
        <ele>160.1</ele>
        <time>2015-04-20T18:56:10.664Z</time>
      </trkpt>
      <trkpt lat="48.8097" lon="2.30016">
        <ele>160.3</ele>
        <time>2015-04-20T18:56:11.092Z</time>
      </trkpt>
      <trkpt lat="48.80962" lon="2.30015">
        <ele>160.3</ele>
        <time>2015-04-20T18:56:13.010Z</time>
      </trkpt>
      <trkpt lat="48.80959" lon="2.30014">
        <ele>160.4</ele>
        <time>2015-04-20T18:56:14.018Z</time>
      </trkpt>
      <trkpt lat="48.80951" lon="2.30011">
        <ele>160.7</ele>
        <time>2015-04-20T18:56:16.042Z</time>
      </trkpt>
      <trkpt lat="48.80948" lon="2.30009">
        <ele>160.9</ele>
        <time>2015-04-20T18:56:17.056Z</time>
      </trkpt>
      <trkpt lat="48.8094" lon="2.30008">
        <ele>161.1</ele>
        <time>2015-04-20T18:56:19.077Z</time>
      </trkpt>
      <trkpt lat="48.80936" lon="2.30006">
        <ele>161.3</ele>
        <time>2015-04-20T18:56:19.965Z</time>
      </trkpt>
      <trkpt lat="48.80929" lon="2.30005">
        <ele>161.8</ele>
        <time>2015-04-20T18:56:22.004Z</time>
      </trkpt>
      <trkpt lat="48.80925" lon="2.30004">
        <ele>162.1</ele>
        <time>2015-04-20T18:56:23.049Z</time>
      </trkpt>
      <trkpt lat="48.80918" lon="2.30002">
        <ele>162.5</ele>
        <time>2015-04-20T18:56:25.747Z</time>
      </trkpt>
      <trkpt lat="48.80911" lon="2.29998">
        <ele>162.4</ele>
        <time>2015-04-20T18:56:27.062Z</time>
      </trkpt>
      <trkpt lat="48.80904" lon="2.29994">
        <ele>162.5</ele>
        <time>2015-04-20T18:56:29.853Z</time>
      </trkpt>
      <trkpt lat="48.809" lon="2.29991">
        <ele>162.5</ele>
        <time>2015-04-20T18:56:30.056Z</time>
      </trkpt>
      <trkpt lat="48.80892" lon="2.29988">
        <ele>162.5</ele>
        <time>2015-04-20T18:56:32.163Z</time>
      </trkpt>
      <trkpt lat="48.80887" lon="2.29985">
        <ele>161.8</ele>
        <time>2015-04-20T18:56:33.049Z</time>
      </trkpt>
      <trkpt lat="48.80881" lon="2.29978">
        <ele>161.7</ele>
        <time>2015-04-20T18:56:34.998Z</time>
      </trkpt>
      <trkpt lat="48.80878" lon="2.29975">
        <ele>161.7</ele>
        <time>2015-04-20T18:56:36.036Z</time>
      </trkpt>
      <trkpt lat="48.80873" lon="2.29969">
        <ele>161.5</ele>
        <time>2015-04-20T18:56:38.065Z</time>
      </trkpt>
      <trkpt lat="48.8087" lon="2.29967">
        <ele>161.5</ele>
        <time>2015-04-20T18:56:39.048Z</time>
      </trkpt>
      <trkpt lat="48.80863" lon="2.29966">
        <ele>161.3</ele>
        <time>2015-04-20T18:56:41.011Z</time>
      </trkpt>
      <trkpt lat="48.80858" lon="2.29964">
        <ele>160.8</ele>
        <time>2015-04-20T18:56:42.014Z</time>
      </trkpt>
      <trkpt lat="48.80853" lon="2.29962">
        <ele>160.6</ele>
        <time>2015-04-20T18:56:43.031Z</time>
      </trkpt>
      <trkpt lat="48.80849" lon="2.2996">
        <ele>160.3</ele>
        <time>2015-04-20T18:56:44.041Z</time>
      </trkpt>
      <trkpt lat="48.80841" lon="2.29956">
        <ele>160.3</ele>
        <time>2015-04-20T18:56:46.741Z</time>
      </trkpt>
      <trkpt lat="48.80838" lon="2.29954">
        <ele>160.5</ele>
        <time>2015-04-20T18:56:47.066Z</time>
      </trkpt>
      <trkpt lat="48.80832" lon="2.29949">
        <ele>160.5</ele>
        <time>2015-04-20T18:56:48.984Z</time>
      </trkpt>
      <trkpt lat="48.80829" lon="2.29948">
        <ele>160.5</ele>
        <time>2015-04-20T18:56:50.020Z</time>
      </trkpt>
      <trkpt lat="48.80823" lon="2.29942">
        <ele>160.4</ele>
        <time>2015-04-20T18:56:52.144Z</time>
      </trkpt>
      <trkpt lat="48.80821" lon="2.29939">
        <ele>160.5</ele>
        <time>2015-04-20T18:56:53.090Z</time>
      </trkpt>
      <trkpt lat="48.80817" lon="2.29932">
        <ele>160.6</ele>
        <time>2015-04-20T18:56:55.550Z</time>
      </trkpt>
      <trkpt lat="48.80814" lon="2.29929">
        <ele>160.6</ele>
        <time>2015-04-20T18:56:56.028Z</time>
      </trkpt>
      <trkpt lat="48.80808" lon="2.2992">
        <ele>160.7</ele>
        <time>2015-04-20T18:56:59.061Z</time>
      </trkpt>
      <trkpt lat="48.80806" lon="2.29917">
        <ele>160.6</ele>
        <time>2015-04-20T18:57:00.099Z</time>
      </trkpt>
      <trkpt lat="48.808" lon="2.29907">
        <ele>160.8</ele>
        <time>2015-04-20T18:57:03.055Z</time>
      </trkpt>
      <trkpt lat="48.80798" lon="2.29903">
        <ele>160.8</ele>
        <time>2015-04-20T18:57:04.082Z</time>
      </trkpt>
      <trkpt lat="48.80794" lon="2.29894">
        <ele>160.9</ele>
        <time>2015-04-20T18:57:05.973Z</time>
      </trkpt>
      <trkpt lat="48.80792" lon="2.2989">
        <ele>160.9</ele>
        <time>2015-04-20T18:57:07.006Z</time>
      </trkpt>
      <trkpt lat="48.80789" lon="2.29881">
        <ele>160.9</ele>
        <time>2015-04-20T18:57:09.036Z</time>
      </trkpt>
      <trkpt lat="48.80786" lon="2.29879">
        <ele>161.2</ele>
        <time>2015-04-20T18:57:10.063Z</time>
      </trkpt>
      <trkpt lat="48.80778" lon="2.29877">
        <ele>162.9</ele>
        <time>2015-04-20T18:57:12.110Z</time>
      </trkpt>
      <trkpt lat="48.80772" lon="2.29878">
        <ele>165.1</ele>
        <time>2015-04-20T18:57:13.122Z</time>
      </trkpt>
      <trkpt lat="48.80764" lon="2.29877">
        <ele>167.3</ele>
        <time>2015-04-20T18:57:16.022Z</time>
      </trkpt>
      <trkpt lat="48.8076" lon="2.29877">
        <ele>168.1</ele>
        <time>2015-04-20T18:57:16.092Z</time>
      </trkpt>
      <trkpt lat="48.80753" lon="2.29868">
        <ele>171.3</ele>
        <time>2015-04-20T18:57:21.157Z</time>
      </trkpt>
      <trkpt lat="48.80751" lon="2.29867">
        <ele>172.4</ele>
        <time>2015-04-20T18:57:22.099Z</time>
      </trkpt>
      <trkpt lat="48.80745" lon="2.2986">
        <ele>175.2</ele>
        <time>2015-04-20T18:57:24.117Z</time>
      </trkpt>
      <trkpt lat="48.80742" lon="2.29856">
        <ele>176.5</ele>
        <time>2015-04-20T18:57:25.134Z</time>
      </trkpt>
      <trkpt lat="48.80736" lon="2.29849">
        <ele>179</ele>
        <time>2015-04-20T18:57:27.150Z</time>
      </trkpt>
      <trkpt lat="48.8073" lon="2.29851">
        <ele>181.6</ele>
        <time>2015-04-20T18:57:28.054Z</time>
      </trkpt>
      <trkpt lat="48.80722" lon="2.29853">
        <ele>186.8</ele>
        <time>2015-04-20T18:57:30.078Z</time>
      </trkpt>
      <trkpt lat="48.80719" lon="2.29851">
        <ele>188.5</ele>
        <time>2015-04-20T18:57:31.079Z</time>
      </trkpt>
      <trkpt lat="48.80712" lon="2.29846">
        <ele>190.2</ele>
        <time>2015-04-20T18:57:34.848Z</time>
      </trkpt>
      <trkpt lat="48.80711" lon="2.29843">
        <ele>190.9</ele>
        <time>2015-04-20T18:57:35.000Z</time>
      </trkpt>
      <trkpt lat="48.80705" lon="2.29834">
        <ele>190.8</ele>
        <time>2015-04-20T18:57:38.029Z</time>
      </trkpt>
      <trkpt lat="48.80704" lon="2.29832">
        <ele>190.9</ele>
        <time>2015-04-20T18:57:39.087Z</time>
      </trkpt>
      <trkpt lat="48.80698" lon="2.29823">
        <ele>184.2</ele>
        <time>2015-04-20T18:57:45.054Z</time>
      </trkpt>
      <trkpt lat="48.80698" lon="2.29821">
        <ele>182.7</ele>
        <time>2015-04-20T18:57:47.088Z</time>
      </trkpt>
      <trkpt lat="48.80698" lon="2.2981">
        <ele>183</ele>
        <time>2015-04-20T18:57:51.142Z</time>
      </trkpt>
      <trkpt lat="48.80694" lon="2.29797">
        <ele>183.2</ele>
        <time>2015-04-20T18:57:54.062Z</time>
      </trkpt>
      <trkpt lat="48.8069" lon="2.29788">
        <ele>182.9</ele>
        <time>2015-04-20T18:57:56.084Z</time>
      </trkpt>
      <trkpt lat="48.80688" lon="2.29783">
        <ele>183</ele>
        <time>2015-04-20T18:57:57.093Z</time>
      </trkpt>
      <trkpt lat="48.80685" lon="2.2978">
        <ele>182</ele>
        <time>2015-04-20T18:58:06.026Z</time>
      </trkpt>
      <trkpt lat="48.80686" lon="2.2978">
        <ele>181.9</ele>
        <time>2015-04-20T18:58:07.059Z</time>
      </trkpt>
      <trkpt lat="48.80686" lon="2.2978">
        <ele>181.6</ele>
        <time>2015-04-20T18:58:11.115Z</time>
      </trkpt>
      <trkpt lat="48.80687" lon="2.2978">
        <ele>181.2</ele>
        <time>2015-04-20T18:58:12.110Z</time>
      </trkpt>
      <trkpt lat="48.8069" lon="2.2978">
        <ele>181</ele>
        <time>2015-04-20T18:58:16.075Z</time>
      </trkpt>
      <trkpt lat="48.8069" lon="2.2978">
        <ele>180.7</ele>
        <time>2015-04-20T18:58:17.098Z</time>
      </trkpt>
      <trkpt lat="48.8069" lon="2.2978">
        <ele>180.6</ele>
        <time>2015-04-20T18:58:18.041Z</time>
      </trkpt>
      <trkpt lat="48.8069" lon="2.29779">
        <ele>180.6</ele>
        <time>2015-04-20T18:58:19.044Z</time>
      </trkpt>
      <trkpt lat="48.80689" lon="2.29772">
        <ele>179.9</ele>
        <time>2015-04-20T18:58:32.098Z</time>
      </trkpt>
      <trkpt lat="48.80689" lon="2.29771">
        <ele>179.9</ele>
        <time>2015-04-20T18:58:33.219Z</time>
      </trkpt>
      <trkpt lat="48.80689" lon="2.2977">
        <ele>179.8</ele>
        <time>2015-04-20T18:58:34.036Z</time>
      </trkpt>
      <trkpt lat="48.80691" lon="2.2976">
        <ele>181.4</ele>
        <time>2015-04-20T18:58:46.107Z</time>
      </trkpt>
      <trkpt lat="48.80692" lon="2.2976">
        <ele>181.4</ele>
        <time>2015-04-20T18:58:47.120Z</time>
      </trkpt>
      <trkpt lat="48.80691" lon="2.29759">
        <ele>181.3</ele>
        <time>2015-04-20T18:58:48.131Z</time>
      </trkpt>
      <trkpt lat="48.80699" lon="2.29761">
        <ele>177.9</ele>
        <time>2015-04-20T18:58:59.128Z</time>
      </trkpt>
      <trkpt lat="48.807" lon="2.29762">
        <ele>177.7</ele>
        <time>2015-04-20T18:59:00.276Z</time>
      </trkpt>
      <trkpt lat="48.80709" lon="2.29767">
        <ele>177</ele>
        <time>2015-04-20T18:59:05.426Z</time>
      </trkpt>
      <trkpt lat="48.80711" lon="2.29768">
        <ele>176.8</ele>
        <time>2015-04-20T18:59:06.041Z</time>
      </trkpt>
      <trkpt lat="48.80719" lon="2.29772">
        <ele>175.7</ele>
        <time>2015-04-20T18:59:10.540Z</time>
      </trkpt>
      <trkpt lat="48.80721" lon="2.29773">
        <ele>175.6</ele>
        <time>2015-04-20T18:59:11.008Z</time>
      </trkpt>
      <trkpt lat="48.80725" lon="2.29783">
        <ele>175.2</ele>
        <time>2015-04-20T18:59:17.007Z</time>
      </trkpt>
      <trkpt lat="48.80726" lon="2.29787">
        <ele>173.3</ele>
        <time>2015-04-20T18:59:18.090Z</time>
      </trkpt>
      <trkpt lat="48.80731" lon="2.2979">
        <ele>172.5</ele>
        <time>2015-04-20T18:59:27.105Z</time>
      </trkpt>
      <trkpt lat="48.80731" lon="2.2979">
        <ele>172.6</ele>
        <time>2015-04-20T18:59:28.009Z</time>
      </trkpt>
      <trkpt lat="48.80731" lon="2.2979">
        <ele>172.8</ele>
        <time>2015-04-20T18:59:29.042Z</time>
      </trkpt>
      <trkpt lat="48.80731" lon="2.29794">
        <ele>174.2</ele>
        <time>2015-04-20T18:59:35.093Z</time>
      </trkpt>
      <trkpt lat="48.80731" lon="2.29794">
        <ele>174.4</ele>
        <time>2015-04-20T18:59:36.127Z</time>
      </trkpt>
      <trkpt lat="48.8073" lon="2.29795">
        <ele>174.4</ele>
        <time>2015-04-20T18:59:37.006Z</time>
      </trkpt>
      <trkpt lat="48.80734" lon="2.29787">
        <ele>176.2</ele>
        <time>2015-04-20T19:00:12.091Z</time>
      </trkpt>
      <trkpt lat="48.80734" lon="2.29787">
        <ele>176.3</ele>
        <time>2015-04-20T19:00:13.073Z</time>
      </trkpt>
      <trkpt lat="48.80733" lon="2.29789">
        <ele>176.8</ele>
        <time>2015-04-20T19:00:31.056Z</time>
      </trkpt>
      <trkpt lat="48.80731" lon="2.29788">
        <ele>181.4</ele>
        <time>2015-04-20T19:00:32.055Z</time>
      </trkpt>
      <trkpt lat="48.80731" lon="2.29787">
        <ele>181.8</ele>
        <time>2015-04-20T19:00:33.061Z</time>
      </trkpt>
      <trkpt lat="48.80731" lon="2.29786">
        <ele>181.7</ele>
        <time>2015-04-20T19:00:34.961Z</time>
      </trkpt>
      <trkpt lat="48.80731" lon="2.29786">
        <ele>181.7</ele>
        <time>2015-04-20T19:00:35.083Z</time>
      </trkpt>
      <trkpt lat="48.80731" lon="2.29785">
        <ele>181.9</ele>
        <time>2015-04-20T19:00:39.051Z</time>
      </trkpt>
      <trkpt lat="48.80731" lon="2.29786">
        <ele>182.2</ele>
        <time>2015-04-20T19:00:40.040Z</time>
      </trkpt>
      <trkpt lat="48.80731" lon="2.29785">
        <ele>182.3</ele>
        <time>2015-04-20T19:00:41.055Z</time>
      </trkpt>
      <trkpt lat="48.80731" lon="2.29785">
        <ele>182.2</ele>
        <time>2015-04-20T19:00:42.054Z</time>
      </trkpt>
      <trkpt lat="48.80732" lon="2.29785">
        <ele>182.1</ele>
        <time>2015-04-20T19:00:43.039Z</time>
      </trkpt>
      <trkpt lat="48.80738" lon="2.29784">
        <ele>178.5</ele>
        <time>2015-04-20T19:01:48.061Z</time>
      </trkpt>
      <trkpt lat="48.80739" lon="2.29786">
        <ele>178.5</ele>
        <time>2015-04-20T19:01:49.078Z</time>
      </trkpt>
      <trkpt lat="48.80741" lon="2.29784">
        <ele>178.7</ele>
        <time>2015-04-20T19:01:56.081Z</time>
      </trkpt>
      <trkpt lat="48.80741" lon="2.29784">
        <ele>178.7</ele>
        <time>2015-04-20T19:01:57.091Z</time>
      </trkpt>
      <trkpt lat="48.80741" lon="2.29783">
        <ele>179</ele>
        <time>2015-04-20T19:02:01.100Z</time>
      </trkpt>
      <trkpt lat="48.80742" lon="2.29783">
        <ele>179.1</ele>
        <time>2015-04-20T19:02:02.132Z</time>
      </trkpt>
      <trkpt lat="48.80744" lon="2.29783">
        <ele>178.5</ele>
        <time>2015-04-20T19:02:09.112Z</time>
      </trkpt>
      <trkpt lat="48.80744" lon="2.29783">
        <ele>178.3</ele>
        <time>2015-04-20T19:02:10.018Z</time>
      </trkpt>
      <trkpt lat="48.80744" lon="2.29783">
        <ele>178.3</ele>
        <time>2015-04-20T19:02:10.625Z</time>
      </trkpt>
      <trkpt lat="48.80741" lon="2.29765">
        <ele>174.7</ele>
        <time>2015-04-20T19:02:48.111Z</time>
      </trkpt>
      <trkpt lat="48.80735" lon="2.29763">
        <ele>174.3</ele>
        <time>2015-04-20T19:02:49.011Z</time>
      </trkpt>
      <trkpt lat="48.80731" lon="2.2976">
        <ele>174</ele>
        <time>2015-04-20T19:02:50.028Z</time>
      </trkpt>
      <trkpt lat="48.80727" lon="2.29758">
        <ele>173.7</ele>
        <time>2015-04-20T19:02:51.067Z</time>
      </trkpt>
      <trkpt lat="48.80723" lon="2.29755">
        <ele>173.4</ele>
        <time>2015-04-20T19:02:52.076Z</time>
      </trkpt>
      <trkpt lat="48.80715" lon="2.29749">
        <ele>172.9</ele>
        <time>2015-04-20T19:02:54.124Z</time>
      </trkpt>
      <trkpt lat="48.80708" lon="2.29743">
        <ele>171.9</ele>
        <time>2015-04-20T19:02:56.084Z</time>
      </trkpt>
      <trkpt lat="48.80694" lon="2.2973">
        <ele>170.5</ele>
        <time>2015-04-20T19:03:00.135Z</time>
      </trkpt>
      <trkpt lat="48.80694" lon="2.2973">
        <ele>170.5</ele>
        <time>2015-04-20T19:03:00.741Z</time>
      </trkpt>
      <trkpt lat="48.80672" lon="2.29714">
        <ele>171.6</ele>
        <time>2015-04-20T19:03:06.007Z</time>
      </trkpt>
      <trkpt lat="48.80665" lon="2.29709">
        <ele>171.5</ele>
        <time>2015-04-20T19:03:08.045Z</time>
      </trkpt>
      <trkpt lat="48.80661" lon="2.29707">
        <ele>171.4</ele>
        <time>2015-04-20T19:03:09.052Z</time>
      </trkpt>
      <trkpt lat="48.80654" lon="2.29702">
        <ele>171.3</ele>
        <time>2015-04-20T19:03:10.984Z</time>
      </trkpt>
      <trkpt lat="48.80651" lon="2.29699">
        <ele>171.3</ele>
        <time>2015-04-20T19:03:12.017Z</time>
      </trkpt>
      <trkpt lat="48.80644" lon="2.29694">
        <ele>171.4</ele>
        <time>2015-04-20T19:03:14.043Z</time>
      </trkpt>
      <trkpt lat="48.8064" lon="2.29691">
        <ele>171.5</ele>
        <time>2015-04-20T19:03:15.047Z</time>
      </trkpt>
      <trkpt lat="48.80634" lon="2.29683">
        <ele>171.8</ele>
        <time>2015-04-20T19:03:17.000Z</time>
      </trkpt>
      <trkpt lat="48.8063" lon="2.29678">
        <ele>171.7</ele>
        <time>2015-04-20T19:03:18.025Z</time>
      </trkpt>
      <trkpt lat="48.80626" lon="2.29674">
        <ele>171.8</ele>
        <time>2015-04-20T19:03:19.038Z</time>
      </trkpt>
      <trkpt lat="48.80622" lon="2.29669">
        <ele>171.8</ele>
        <time>2015-04-20T19:03:20.058Z</time>
      </trkpt>
      <trkpt lat="48.80616" lon="2.2966">
        <ele>171.8</ele>
        <time>2015-04-20T19:03:22.074Z</time>
      </trkpt>
      <trkpt lat="48.80613" lon="2.29655">
        <ele>171.9</ele>
        <time>2015-04-20T19:03:23.130Z</time>
      </trkpt>
      <trkpt lat="48.80609" lon="2.29651">
        <ele>172</ele>
        <time>2015-04-20T19:03:24.027Z</time>
      </trkpt>
      <trkpt lat="48.80605" lon="2.29647">
        <ele>172.1</ele>
        <time>2015-04-20T19:03:25.027Z</time>
      </trkpt>
      <trkpt lat="48.80601" lon="2.29642">
        <ele>172.1</ele>
        <time>2015-04-20T19:03:26.074Z</time>
      </trkpt>
      <trkpt lat="48.80597" lon="2.29638">
        <ele>172.2</ele>
        <time>2015-04-20T19:03:27.130Z</time>
      </trkpt>
      <trkpt lat="48.80593" lon="2.29632">
        <ele>172.3</ele>
        <time>2015-04-20T19:03:28.030Z</time>
      </trkpt>
      <trkpt lat="48.80589" lon="2.29628">
        <ele>172.3</ele>
        <time>2015-04-20T19:03:29.034Z</time>
      </trkpt>
      <trkpt lat="48.80585" lon="2.29624">
        <ele>172.3</ele>
        <time>2015-04-20T19:03:30.041Z</time>
      </trkpt>
      <trkpt lat="48.80581" lon="2.29619">
        <ele>172.3</ele>
        <time>2015-04-20T19:03:31.059Z</time>
      </trkpt>
      <trkpt lat="48.80578" lon="2.29614">
        <ele>172.1</ele>
        <time>2015-04-20T19:03:32.071Z</time>
      </trkpt>
      <trkpt lat="48.80574" lon="2.29609">
        <ele>172</ele>
        <time>2015-04-20T19:03:33.085Z</time>
      </trkpt>
      <trkpt lat="48.80568" lon="2.296">
        <ele>172</ele>
        <time>2015-04-20T19:03:34.997Z</time>
      </trkpt>
      <trkpt lat="48.80565" lon="2.29595">
        <ele>171.9</ele>
        <time>2015-04-20T19:03:36.152Z</time>
      </trkpt>
      <trkpt lat="48.80559" lon="2.29586">
        <ele>171.9</ele>
        <time>2015-04-20T19:03:38.033Z</time>
      </trkpt>
      <trkpt lat="48.80557" lon="2.29583">
        <ele>171.9</ele>
        <time>2015-04-20T19:03:39.094Z</time>
      </trkpt>
      <trkpt lat="48.80552" lon="2.29575">
        <ele>171.1</ele>
        <time>2015-04-20T19:03:42.035Z</time>
      </trkpt>
      <trkpt lat="48.8055" lon="2.29573">
        <ele>170.5</ele>
        <time>2015-04-20T19:03:43.039Z</time>
      </trkpt>
      <trkpt lat="48.80544" lon="2.29568">
        <ele>168.7</ele>
        <time>2015-04-20T19:03:46.081Z</time>
      </trkpt>
      <trkpt lat="48.80542" lon="2.29565">
        <ele>168.5</ele>
        <time>2015-04-20T19:03:47.119Z</time>
      </trkpt>
      <trkpt lat="48.80538" lon="2.29558">
        <ele>168</ele>
        <time>2015-04-20T19:03:49.055Z</time>
      </trkpt>
      <trkpt lat="48.80535" lon="2.29554">
        <ele>168</ele>
        <time>2015-04-20T19:03:50.061Z</time>
      </trkpt>
      <trkpt lat="48.80531" lon="2.29545">
        <ele>167.7</ele>
        <time>2015-04-20T19:03:52.039Z</time>
      </trkpt>
      <trkpt lat="48.80528" lon="2.2954">
        <ele>167.3</ele>
        <time>2015-04-20T19:03:53.037Z</time>
      </trkpt>
      <trkpt lat="48.80522" lon="2.29533">
        <ele>166.9</ele>
        <time>2015-04-20T19:03:55.065Z</time>
      </trkpt>
      <trkpt lat="48.80519" lon="2.2953">
        <ele>166.8</ele>
        <time>2015-04-20T19:03:56.085Z</time>
      </trkpt>
      <trkpt lat="48.80513" lon="2.29524">
        <ele>165.7</ele>
        <time>2015-04-20T19:03:58.121Z</time>
      </trkpt>
      <trkpt lat="48.8051" lon="2.29521">
        <ele>165.5</ele>
        <time>2015-04-20T19:03:59.029Z</time>
      </trkpt>
      <trkpt lat="48.80503" lon="2.29515">
        <ele>164.8</ele>
        <time>2015-04-20T19:04:01.038Z</time>
      </trkpt>
      <trkpt lat="48.80501" lon="2.29511">
        <ele>164.7</ele>
        <time>2015-04-20T19:04:02.052Z</time>
      </trkpt>
      <trkpt lat="48.80497" lon="2.29504">
        <ele>164.2</ele>
        <time>2015-04-20T19:04:04.031Z</time>
      </trkpt>
      <trkpt lat="48.80494" lon="2.29502">
        <ele>163.8</ele>
        <time>2015-04-20T19:04:05.103Z</time>
      </trkpt>
      <trkpt lat="48.80487" lon="2.295">
        <ele>163.4</ele>
        <time>2015-04-20T19:04:07.041Z</time>
      </trkpt>
      <trkpt lat="48.80483" lon="2.295">
        <ele>163.2</ele>
        <time>2015-04-20T19:04:08.062Z</time>
      </trkpt>
      <trkpt lat="48.80475" lon="2.29503">
        <ele>162.2</ele>
        <time>2015-04-20T19:04:10.086Z</time>
      </trkpt>
      <trkpt lat="48.80471" lon="2.29504">
        <ele>161.7</ele>
        <time>2015-04-20T19:04:11.088Z</time>
      </trkpt>
      <trkpt lat="48.80464" lon="2.29506">
        <ele>161.2</ele>
        <time>2015-04-20T19:04:13.562Z</time>
      </trkpt>
      <trkpt lat="48.80461" lon="2.29508">
        <ele>160.9</ele>
        <time>2015-04-20T19:04:14.060Z</time>
      </trkpt>
      <trkpt lat="48.80453" lon="2.29513">
        <ele>161.6</ele>
        <time>2015-04-20T19:04:18.627Z</time>
      </trkpt>
      <trkpt lat="48.80451" lon="2.29514">
        <ele>161.8</ele>
        <time>2015-04-20T19:04:19.000Z</time>
      </trkpt>
      <trkpt lat="48.80449" lon="2.29518">
        <ele>161.9</ele>
        <time>2015-04-20T19:04:21.041Z</time>
      </trkpt>
      <trkpt lat="48.80448" lon="2.2952">
        <ele>162.1</ele>
        <time>2015-04-20T19:04:22.044Z</time>
      </trkpt>
      <trkpt lat="48.80447" lon="2.29522">
        <ele>161.1</ele>
        <time>2015-04-20T19:04:28.033Z</time>
      </trkpt>
      <trkpt lat="48.80443" lon="2.29527">
        <ele>160.9</ele>
        <time>2015-04-20T19:04:29.093Z</time>
      </trkpt>
      <trkpt lat="48.80443" lon="2.29539">
        <ele>156.3</ele>
        <time>2015-04-20T19:04:53.029Z</time>
      </trkpt>
      <trkpt lat="48.80444" lon="2.29542">
        <ele>156.2</ele>
        <time>2015-04-20T19:04:54.089Z</time>
      </trkpt>
      <trkpt lat="48.8045" lon="2.29551">
        <ele>155.8</ele>
        <time>2015-04-20T19:04:57.045Z</time>
      </trkpt>
      <trkpt lat="48.80452" lon="2.29555">
        <ele>155.8</ele>
        <time>2015-04-20T19:04:58.206Z</time>
      </trkpt>
      <trkpt lat="48.80456" lon="2.29564">
        <ele>156.1</ele>
        <time>2015-04-20T19:05:00.034Z</time>
      </trkpt>
      <trkpt lat="48.80459" lon="2.29569">
        <ele>155.9</ele>
        <time>2015-04-20T19:05:01.164Z</time>
      </trkpt>
      <trkpt lat="48.80464" lon="2.29576">
        <ele>155.9</ele>
        <time>2015-04-20T19:05:03.249Z</time>
      </trkpt>
      <trkpt lat="48.80467" lon="2.29579">
        <ele>155.8</ele>
        <time>2015-04-20T19:05:04.143Z</time>
      </trkpt>
      <trkpt lat="48.80473" lon="2.29586">
        <ele>155.6</ele>
        <time>2015-04-20T19:05:06.090Z</time>
      </trkpt>
      <trkpt lat="48.80475" lon="2.29592">
        <ele>155.2</ele>
        <time>2015-04-20T19:05:07.021Z</time>
      </trkpt>
      <trkpt lat="48.80478" lon="2.29598">
        <ele>155.1</ele>
        <time>2015-04-20T19:05:08.026Z</time>
      </trkpt>
      <trkpt lat="48.80481" lon="2.29603">
        <ele>155.1</ele>
        <time>2015-04-20T19:05:09.042Z</time>
      </trkpt>
      <trkpt lat="48.80487" lon="2.29612">
        <ele>154.7</ele>
        <time>2015-04-20T19:05:11.003Z</time>
      </trkpt>
      <trkpt lat="48.8049" lon="2.29617">
        <ele>154.6</ele>
        <time>2015-04-20T19:05:12.023Z</time>
      </trkpt>
      <trkpt lat="48.80495" lon="2.29625">
        <ele>154.3</ele>
        <time>2015-04-20T19:05:14.051Z</time>
      </trkpt>
      <trkpt lat="48.80497" lon="2.2963">
        <ele>154.1</ele>
        <time>2015-04-20T19:05:15.079Z</time>
      </trkpt>
      <trkpt lat="48.80495" lon="2.29639">
        <ele>153.4</ele>
        <time>2015-04-20T19:05:17.167Z</time>
      </trkpt>
      <trkpt lat="48.80492" lon="2.29644">
        <ele>153.4</ele>
        <time>2015-04-20T19:05:18.084Z</time>
      </trkpt>
      <trkpt lat="48.80486" lon="2.29652">
        <ele>152.9</ele>
        <time>2015-04-20T19:05:20.012Z</time>
      </trkpt>
      <trkpt lat="48.80484" lon="2.29657">
        <ele>152.8</ele>
        <time>2015-04-20T19:05:21.070Z</time>
      </trkpt>
      <trkpt lat="48.80478" lon="2.29666">
        <ele>152.8</ele>
        <time>2015-04-20T19:05:23.050Z</time>
      </trkpt>
      <trkpt lat="48.80475" lon="2.29671">
        <ele>152.7</ele>
        <time>2015-04-20T19:05:24.064Z</time>
      </trkpt>
      <trkpt lat="48.80472" lon="2.29677">
        <ele>152.6</ele>
        <time>2015-04-20T19:05:25.090Z</time>
      </trkpt>
      <trkpt lat="48.80469" lon="2.29683">
        <ele>152.5</ele>
        <time>2015-04-20T19:05:26.025Z</time>
      </trkpt>
      <trkpt lat="48.80466" lon="2.29688">
        <ele>152.3</ele>
        <time>2015-04-20T19:05:27.060Z</time>
      </trkpt>
      <trkpt lat="48.80463" lon="2.29694">
        <ele>152.2</ele>
        <time>2015-04-20T19:05:28.065Z</time>
      </trkpt>
      <trkpt lat="48.8046" lon="2.29699">
        <ele>152.3</ele>
        <time>2015-04-20T19:05:29.052Z</time>
      </trkpt>
      <trkpt lat="48.80457" lon="2.29704">
        <ele>152.2</ele>
        <time>2015-04-20T19:05:30.027Z</time>
      </trkpt>
      <trkpt lat="48.80451" lon="2.29715">
        <ele>152</ele>
        <time>2015-04-20T19:05:32.038Z</time>
      </trkpt>
      <trkpt lat="48.80448" lon="2.2972">
        <ele>151.7</ele>
        <time>2015-04-20T19:05:33.108Z</time>
      </trkpt>
      <trkpt lat="48.80445" lon="2.29725">
        <ele>151.7</ele>
        <time>2015-04-20T19:05:34.030Z</time>
      </trkpt>
      <trkpt lat="48.80441" lon="2.2973">
        <ele>151.7</ele>
        <time>2015-04-20T19:05:35.047Z</time>
      </trkpt>
      <trkpt lat="48.80435" lon="2.29739">
        <ele>151.6</ele>
        <time>2015-04-20T19:05:37.081Z</time>
      </trkpt>
      <trkpt lat="48.80433" lon="2.29744">
        <ele>151.6</ele>
        <time>2015-04-20T19:05:37.997Z</time>
      </trkpt>
      <trkpt lat="48.80429" lon="2.29754">
        <ele>151.6</ele>
        <time>2015-04-20T19:05:40.028Z</time>
      </trkpt>
      <trkpt lat="48.80426" lon="2.29758">
        <ele>151.5</ele>
        <time>2015-04-20T19:05:41.047Z</time>
      </trkpt>
      <trkpt lat="48.80421" lon="2.29767">
        <ele>151.4</ele>
        <time>2015-04-20T19:05:43.096Z</time>
      </trkpt>
      <trkpt lat="48.80419" lon="2.29771">
        <ele>151.4</ele>
        <time>2015-04-20T19:05:44.113Z</time>
      </trkpt>
      <trkpt lat="48.80414" lon="2.29779">
        <ele>151.7</ele>
        <time>2015-04-20T19:05:46.070Z</time>
      </trkpt>
      <trkpt lat="48.80412" lon="2.29781">
        <ele>152.1</ele>
        <time>2015-04-20T19:05:46.992Z</time>
      </trkpt>
      <trkpt lat="48.80405" lon="2.29788">
        <ele>154.1</ele>
        <time>2015-04-20T19:05:56.056Z</time>
      </trkpt>
      <trkpt lat="48.80404" lon="2.29789">
        <ele>154.2</ele>
        <time>2015-04-20T19:05:57.041Z</time>
      </trkpt>
      <trkpt lat="48.80398" lon="2.29795">
        <ele>154.4</ele>
        <time>2015-04-20T19:06:00.176Z</time>
      </trkpt>
      <trkpt lat="48.80395" lon="2.29798">
        <ele>154.1</ele>
        <time>2015-04-20T19:06:01.031Z</time>
      </trkpt>
      <trkpt lat="48.8039" lon="2.29807">
        <ele>153.5</ele>
        <time>2015-04-20T19:06:03.236Z</time>
      </trkpt>
      <trkpt lat="48.80387" lon="2.29811">
        <ele>153.5</ele>
        <time>2015-04-20T19:06:04.043Z</time>
      </trkpt>
      <trkpt lat="48.80383" lon="2.29816">
        <ele>153.5</ele>
        <time>2015-04-20T19:06:04.994Z</time>
      </trkpt>
      <trkpt lat="48.8038" lon="2.29821">
        <ele>153.6</ele>
        <time>2015-04-20T19:06:06.034Z</time>
      </trkpt>
      <trkpt lat="48.80373" lon="2.29829">
        <ele>153.7</ele>
        <time>2015-04-20T19:06:08.054Z</time>
      </trkpt>
      <trkpt lat="48.8037" lon="2.29832">
        <ele>153.8</ele>
        <time>2015-04-20T19:06:09.102Z</time>
      </trkpt>
      <trkpt lat="48.80362" lon="2.2984">
        <ele>154.1</ele>
        <time>2015-04-20T19:06:11.029Z</time>
      </trkpt>
      <trkpt lat="48.80359" lon="2.29843">
        <ele>154</ele>
        <time>2015-04-20T19:06:12.069Z</time>
      </trkpt>
      <trkpt lat="48.80352" lon="2.29849">
        <ele>154</ele>
        <time>2015-04-20T19:06:14.122Z</time>
      </trkpt>
      <trkpt lat="48.80349" lon="2.29853">
        <ele>153.9</ele>
        <time>2015-04-20T19:06:15.131Z</time>
      </trkpt>
      <trkpt lat="48.80342" lon="2.29859">
        <ele>153.9</ele>
        <time>2015-04-20T19:06:17.047Z</time>
      </trkpt>
      <trkpt lat="48.80338" lon="2.29863">
        <ele>153.8</ele>
        <time>2015-04-20T19:06:18.064Z</time>
      </trkpt>
      <trkpt lat="48.80331" lon="2.2987">
        <ele>153.8</ele>
        <time>2015-04-20T19:06:20.104Z</time>
      </trkpt>
      <trkpt lat="48.80326" lon="2.29874">
        <ele>153.8</ele>
        <time>2015-04-20T19:06:21.169Z</time>
      </trkpt>
      <trkpt lat="48.80322" lon="2.29878">
        <ele>153.8</ele>
        <time>2015-04-20T19:06:22.025Z</time>
      </trkpt>
      <trkpt lat="48.80319" lon="2.29882">
        <ele>153.8</ele>
        <time>2015-04-20T19:06:23.048Z</time>
      </trkpt>
      <trkpt lat="48.80315" lon="2.29887">
        <ele>153.7</ele>
        <time>2015-04-20T19:06:24.115Z</time>
      </trkpt>
      <trkpt lat="48.80311" lon="2.29891">
        <ele>153.6</ele>
        <time>2015-04-20T19:06:25.033Z</time>
      </trkpt>
      <trkpt lat="48.80307" lon="2.29895">
        <ele>153.5</ele>
        <time>2015-04-20T19:06:26.053Z</time>
      </trkpt>
      <trkpt lat="48.80303" lon="2.29898">
        <ele>153.6</ele>
        <time>2015-04-20T19:06:27.068Z</time>
      </trkpt>
      <trkpt lat="48.80298" lon="2.29901">
        <ele>153.5</ele>
        <time>2015-04-20T19:06:28.078Z</time>
      </trkpt>
      <trkpt lat="48.80294" lon="2.29905">
        <ele>153.6</ele>
        <time>2015-04-20T19:06:29.087Z</time>
      </trkpt>
      <trkpt lat="48.8029" lon="2.29909">
        <ele>153.7</ele>
        <time>2015-04-20T19:06:30.097Z</time>
      </trkpt>
      <trkpt lat="48.80286" lon="2.29914">
        <ele>153.8</ele>
        <time>2015-04-20T19:06:31.106Z</time>
      </trkpt>
      <trkpt lat="48.80281" lon="2.29919">
        <ele>154</ele>
        <time>2015-04-20T19:06:32.019Z</time>
      </trkpt>
      <trkpt lat="48.80277" lon="2.29923">
        <ele>154.2</ele>
        <time>2015-04-20T19:06:33.075Z</time>
      </trkpt>
      <trkpt lat="48.80273" lon="2.29927">
        <ele>154.5</ele>
        <time>2015-04-20T19:06:34.078Z</time>
      </trkpt>
      <trkpt lat="48.80269" lon="2.29931">
        <ele>154.7</ele>
        <time>2015-04-20T19:06:35.095Z</time>
      </trkpt>
      <trkpt lat="48.80264" lon="2.29936">
        <ele>155.2</ele>
        <time>2015-04-20T19:06:36.007Z</time>
      </trkpt>
      <trkpt lat="48.8026" lon="2.2994">
        <ele>155.2</ele>
        <time>2015-04-20T19:06:37.030Z</time>
      </trkpt>
      <trkpt lat="48.80256" lon="2.29944">
        <ele>155.1</ele>
        <time>2015-04-20T19:06:38.049Z</time>
      </trkpt>
      <trkpt lat="48.80252" lon="2.29948">
        <ele>155.1</ele>
        <time>2015-04-20T19:06:39.081Z</time>
      </trkpt>
      <trkpt lat="48.80248" lon="2.29952">
        <ele>155.1</ele>
        <time>2015-04-20T19:06:40.004Z</time>
      </trkpt>
      <trkpt lat="48.80244" lon="2.29955">
        <ele>155.1</ele>
        <time>2015-04-20T19:06:41.062Z</time>
      </trkpt>
      <trkpt lat="48.8024" lon="2.29959">
        <ele>155.1</ele>
        <time>2015-04-20T19:06:42.075Z</time>
      </trkpt>
      <trkpt lat="48.80236" lon="2.29963">
        <ele>155.2</ele>
        <time>2015-04-20T19:06:43.039Z</time>
      </trkpt>
      <trkpt lat="48.80232" lon="2.29967">
        <ele>155.1</ele>
        <time>2015-04-20T19:06:44.065Z</time>
      </trkpt>
      <trkpt lat="48.80229" lon="2.29972">
        <ele>155</ele>
        <time>2015-04-20T19:06:45.128Z</time>
      </trkpt>
      <trkpt lat="48.80222" lon="2.2998">
        <ele>154.7</ele>
        <time>2015-04-20T19:06:47.092Z</time>
      </trkpt>
      <trkpt lat="48.80218" lon="2.29983">
        <ele>154.4</ele>
        <time>2015-04-20T19:06:48.140Z</time>
      </trkpt>
      <trkpt lat="48.80215" lon="2.29987">
        <ele>154.2</ele>
        <time>2015-04-20T19:06:49.052Z</time>
      </trkpt>
      <trkpt lat="48.80211" lon="2.29991">
        <ele>154.1</ele>
        <time>2015-04-20T19:06:50.061Z</time>
      </trkpt>
      <trkpt lat="48.80207" lon="2.29995">
        <ele>153.8</ele>
        <time>2015-04-20T19:06:51.083Z</time>
      </trkpt>
      <trkpt lat="48.80203" lon="2.29999">
        <ele>153.7</ele>
        <time>2015-04-20T19:06:52.100Z</time>
      </trkpt>
      <trkpt lat="48.80196" lon="2.30005">
        <ele>153.7</ele>
        <time>2015-04-20T19:06:54.039Z</time>
      </trkpt>
      <trkpt lat="48.80192" lon="2.30008">
        <ele>153.7</ele>
        <time>2015-04-20T19:06:55.058Z</time>
      </trkpt>
      <trkpt lat="48.80188" lon="2.30012">
        <ele>153.7</ele>
        <time>2015-04-20T19:06:56.086Z</time>
      </trkpt>
      <trkpt lat="48.80184" lon="2.30016">
        <ele>153.7</ele>
        <time>2015-04-20T19:06:57.114Z</time>
      </trkpt>
      <trkpt lat="48.8018" lon="2.3002">
        <ele>153.7</ele>
        <time>2015-04-20T19:06:57.999Z</time>
      </trkpt>
      <trkpt lat="48.80176" lon="2.30025">
        <ele>153.8</ele>
        <time>2015-04-20T19:06:59.031Z</time>
      </trkpt>
      <trkpt lat="48.80172" lon="2.30029">
        <ele>153.7</ele>
        <time>2015-04-20T19:07:00.044Z</time>
      </trkpt>
      <trkpt lat="48.80169" lon="2.30033">
        <ele>153.8</ele>
        <time>2015-04-20T19:07:01.066Z</time>
      </trkpt>
      <trkpt lat="48.8016" lon="2.30035">
        <ele>153.7</ele>
        <time>2015-04-20T19:07:03.084Z</time>
      </trkpt>
      <trkpt lat="48.80155" lon="2.30033">
        <ele>153.8</ele>
        <time>2015-04-20T19:07:04.137Z</time>
      </trkpt>
      <trkpt lat="48.80151" lon="2.3003">
        <ele>153.8</ele>
        <time>2015-04-20T19:07:05.098Z</time>
      </trkpt>
      <trkpt lat="48.80146" lon="2.30025">
        <ele>153.8</ele>
        <time>2015-04-20T19:07:06.111Z</time>
      </trkpt>
      <trkpt lat="48.80141" lon="2.30018">
        <ele>153.9</ele>
        <time>2015-04-20T19:07:07.025Z</time>
      </trkpt>
      <trkpt lat="48.80137" lon="2.30012">
        <ele>153.9</ele>
        <time>2015-04-20T19:07:08.029Z</time>
      </trkpt>
      <trkpt lat="48.80132" lon="2.30006">
        <ele>153.7</ele>
        <time>2015-04-20T19:07:09.102Z</time>
      </trkpt>
      <trkpt lat="48.80128" lon="2.29999">
        <ele>153.6</ele>
        <time>2015-04-20T19:07:10.095Z</time>
      </trkpt>
      <trkpt lat="48.80122" lon="2.29992">
        <ele>153.4</ele>
        <time>2015-04-20T19:07:11.103Z</time>
      </trkpt>
      <trkpt lat="48.80117" lon="2.29986">
        <ele>153.3</ele>
        <time>2015-04-20T19:07:12.022Z</time>
      </trkpt>
      <trkpt lat="48.80111" lon="2.29979">
        <ele>153.1</ele>
        <time>2015-04-20T19:07:13.027Z</time>
      </trkpt>
      <trkpt lat="48.80105" lon="2.29973">
        <ele>153.1</ele>
        <time>2015-04-20T19:07:14.077Z</time>
      </trkpt>
      <trkpt lat="48.80097" lon="2.29967">
        <ele>152.8</ele>
        <time>2015-04-20T19:07:15.129Z</time>
      </trkpt>
      <trkpt lat="48.8009" lon="2.2996">
        <ele>152.8</ele>
        <time>2015-04-20T19:07:16.064Z</time>
      </trkpt>
      <trkpt lat="48.80083" lon="2.29953">
        <ele>153.4</ele>
        <time>2015-04-20T19:07:17.029Z</time>
      </trkpt>
      <trkpt lat="48.80076" lon="2.29947">
        <ele>153.6</ele>
        <time>2015-04-20T19:07:18.034Z</time>
      </trkpt>
      <trkpt lat="48.8007" lon="2.29942">
        <ele>153.9</ele>
        <time>2015-04-20T19:07:19.051Z</time>
      </trkpt>
      <trkpt lat="48.80063" lon="2.29937">
        <ele>153.7</ele>
        <time>2015-04-20T19:07:20.066Z</time>
      </trkpt>
      <trkpt lat="48.80057" lon="2.29933">
        <ele>153.6</ele>
        <time>2015-04-20T19:07:21.094Z</time>
      </trkpt>
      <trkpt lat="48.80052" lon="2.29928">
        <ele>153.7</ele>
        <time>2015-04-20T19:07:22.093Z</time>
      </trkpt>
      <trkpt lat="48.80046" lon="2.29925">
        <ele>152.8</ele>
        <time>2015-04-20T19:07:23.103Z</time>
      </trkpt>
      <trkpt lat="48.80041" lon="2.29921">
        <ele>152.7</ele>
        <time>2015-04-20T19:07:24.112Z</time>
      </trkpt>
      <trkpt lat="48.80036" lon="2.29916">
        <ele>152.7</ele>
        <time>2015-04-20T19:07:24.993Z</time>
      </trkpt>
      <trkpt lat="48.80031" lon="2.29912">
        <ele>152.8</ele>
        <time>2015-04-20T19:07:25.998Z</time>
      </trkpt>
      <trkpt lat="48.80026" lon="2.29908">
        <ele>152.8</ele>
        <time>2015-04-20T19:07:27.043Z</time>
      </trkpt>
      <trkpt lat="48.80022" lon="2.29904">
        <ele>152.9</ele>
        <time>2015-04-20T19:07:28.046Z</time>
      </trkpt>
      <trkpt lat="48.80018" lon="2.299">
        <ele>153.3</ele>
        <time>2015-04-20T19:07:29.068Z</time>
      </trkpt>
      <trkpt lat="48.80013" lon="2.29897">
        <ele>152.8</ele>
        <time>2015-04-20T19:07:30.071Z</time>
      </trkpt>
      <trkpt lat="48.80005" lon="2.29891">
        <ele>154</ele>
        <time>2015-04-20T19:07:32.085Z</time>
      </trkpt>
      <trkpt lat="48.8" lon="2.29889">
        <ele>154.3</ele>
        <time>2015-04-20T19:07:33.258Z</time>
      </trkpt>
      <trkpt lat="48.79996" lon="2.29885">
        <ele>154.3</ele>
        <time>2015-04-20T19:07:34.078Z</time>
      </trkpt>
      <trkpt lat="48.79992" lon="2.29883">
        <ele>155.4</ele>
        <time>2015-04-20T19:07:35.113Z</time>
      </trkpt>
      <trkpt lat="48.79985" lon="2.29875">
        <ele>156.5</ele>
        <time>2015-04-20T19:07:37.038Z</time>
      </trkpt>
      <trkpt lat="48.79981" lon="2.29871">
        <ele>156.4</ele>
        <time>2015-04-20T19:07:38.045Z</time>
      </trkpt>
      <trkpt lat="48.79977" lon="2.29868">
        <ele>156.8</ele>
        <time>2015-04-20T19:07:39.120Z</time>
      </trkpt>
      <trkpt lat="48.79973" lon="2.29865">
        <ele>157.3</ele>
        <time>2015-04-20T19:07:40.150Z</time>
      </trkpt>
      <trkpt lat="48.79965" lon="2.29858">
        <ele>159.1</ele>
        <time>2015-04-20T19:07:42.016Z</time>
      </trkpt>
      <trkpt lat="48.79962" lon="2.29854">
        <ele>159.1</ele>
        <time>2015-04-20T19:07:43.032Z</time>
      </trkpt>
      <trkpt lat="48.79955" lon="2.29847">
        <ele>159.3</ele>
        <time>2015-04-20T19:07:45.078Z</time>
      </trkpt>
      <trkpt lat="48.79951" lon="2.29844">
        <ele>159.1</ele>
        <time>2015-04-20T19:07:46.094Z</time>
      </trkpt>
      <trkpt lat="48.79944" lon="2.29838">
        <ele>159.4</ele>
        <time>2015-04-20T19:07:48.014Z</time>
      </trkpt>
      <trkpt lat="48.7994" lon="2.29836">
        <ele>160.5</ele>
        <time>2015-04-20T19:07:49.014Z</time>
      </trkpt>
      <trkpt lat="48.79934" lon="2.2983">
        <ele>161.1</ele>
        <time>2015-04-20T19:07:51.093Z</time>
      </trkpt>
      <trkpt lat="48.79931" lon="2.29827">
        <ele>161.6</ele>
        <time>2015-04-20T19:07:52.103Z</time>
      </trkpt>
      <trkpt lat="48.79925" lon="2.29821">
        <ele>161.8</ele>
        <time>2015-04-20T19:07:54.061Z</time>
      </trkpt>
      <trkpt lat="48.79922" lon="2.29817">
        <ele>162.4</ele>
        <time>2015-04-20T19:07:55.012Z</time>
      </trkpt>
      <trkpt lat="48.79916" lon="2.2981">
        <ele>163.6</ele>
        <time>2015-04-20T19:07:57.063Z</time>
      </trkpt>
      <trkpt lat="48.79913" lon="2.29806">
        <ele>163.8</ele>
        <time>2015-04-20T19:07:58.080Z</time>
      </trkpt>
      <trkpt lat="48.79907" lon="2.29798">
        <ele>163.1</ele>
        <time>2015-04-20T19:08:00.274Z</time>
      </trkpt>
      <trkpt lat="48.79902" lon="2.29794">
        <ele>162.4</ele>
        <time>2015-04-20T19:08:01.130Z</time>
      </trkpt>
      <trkpt lat="48.79895" lon="2.29788">
        <ele>162.7</ele>
        <time>2015-04-20T19:08:03.098Z</time>
      </trkpt>
      <trkpt lat="48.79892" lon="2.29785">
        <ele>162.7</ele>
        <time>2015-04-20T19:08:04.009Z</time>
      </trkpt>
      <trkpt lat="48.79885" lon="2.29778">
        <ele>162</ele>
        <time>2015-04-20T19:08:06.347Z</time>
      </trkpt>
      <trkpt lat="48.79881" lon="2.29775">
        <ele>162</ele>
        <time>2015-04-20T19:08:07.063Z</time>
      </trkpt>
      <trkpt lat="48.79874" lon="2.29768">
        <ele>161.7</ele>
        <time>2015-04-20T19:08:09.141Z</time>
      </trkpt>
      <trkpt lat="48.7987" lon="2.29765">
        <ele>161.3</ele>
        <time>2015-04-20T19:08:10.049Z</time>
      </trkpt>
      <trkpt lat="48.79863" lon="2.29759">
        <ele>161.2</ele>
        <time>2015-04-20T19:08:12.056Z</time>
      </trkpt>
      <trkpt lat="48.7986" lon="2.29756">
        <ele>161</ele>
        <time>2015-04-20T19:08:13.052Z</time>
      </trkpt>
      <trkpt lat="48.79852" lon="2.29752">
        <ele>161.3</ele>
        <time>2015-04-20T19:08:15.100Z</time>
      </trkpt>
      <trkpt lat="48.79848" lon="2.2975">
        <ele>162.8</ele>
        <time>2015-04-20T19:08:16.116Z</time>
      </trkpt>
      <trkpt lat="48.7984" lon="2.29745">
        <ele>163.4</ele>
        <time>2015-04-20T19:08:18.011Z</time>
      </trkpt>
      <trkpt lat="48.79836" lon="2.29741">
        <ele>163.3</ele>
        <time>2015-04-20T19:08:19.046Z</time>
      </trkpt>
      <trkpt lat="48.79829" lon="2.29734">
        <ele>163.1</ele>
        <time>2015-04-20T19:08:21.755Z</time>
      </trkpt>
      <trkpt lat="48.79825" lon="2.29731">
        <ele>162.9</ele>
        <time>2015-04-20T19:08:22.108Z</time>
      </trkpt>
      <trkpt lat="48.79817" lon="2.29726">
        <ele>163</ele>
        <time>2015-04-20T19:08:24.083Z</time>
      </trkpt>
      <trkpt lat="48.79814" lon="2.29723">
        <ele>163.2</ele>
        <time>2015-04-20T19:08:25.084Z</time>
      </trkpt>
      <trkpt lat="48.79808" lon="2.29718">
        <ele>163.2</ele>
        <time>2015-04-20T19:08:27.056Z</time>
      </trkpt>
      <trkpt lat="48.79804" lon="2.29715">
        <ele>163.1</ele>
        <time>2015-04-20T19:08:28.056Z</time>
      </trkpt>
      <trkpt lat="48.79797" lon="2.29711">
        <ele>162.8</ele>
        <time>2015-04-20T19:08:30.080Z</time>
      </trkpt>
      <trkpt lat="48.79794" lon="2.2971">
        <ele>162.7</ele>
        <time>2015-04-20T19:08:31.093Z</time>
      </trkpt>
      <trkpt lat="48.79786" lon="2.29705">
        <ele>163.3</ele>
        <time>2015-04-20T19:08:34.927Z</time>
      </trkpt>
      <trkpt lat="48.79784" lon="2.29704">
        <ele>163.3</ele>
        <time>2015-04-20T19:08:35.029Z</time>
      </trkpt>
      <trkpt lat="48.79776" lon="2.29699">
        <ele>162.5</ele>
        <time>2015-04-20T19:08:47.027Z</time>
      </trkpt>
      <trkpt lat="48.79771" lon="2.29688">
        <ele>160.5</ele>
        <time>2015-04-20T19:08:48.072Z</time>
      </trkpt>
      <trkpt lat="48.79775" lon="2.29696">
        <ele>156.2</ele>
        <time>2015-04-20T19:09:16.465Z</time>
      </trkpt>
      <trkpt lat="48.79778" lon="2.29698">
        <ele>155.9</ele>
        <time>2015-04-20T19:09:17.046Z</time>
      </trkpt>
      <trkpt lat="48.79784" lon="2.29702">
        <ele>155.4</ele>
        <time>2015-04-20T19:09:19.019Z</time>
      </trkpt>
      <trkpt lat="48.79788" lon="2.29704">
        <ele>155.3</ele>
        <time>2015-04-20T19:09:20.025Z</time>
      </trkpt>
      <trkpt lat="48.79795" lon="2.29708">
        <ele>155.4</ele>
        <time>2015-04-20T19:09:22.039Z</time>
      </trkpt>
      <trkpt lat="48.79797" lon="2.2971">
        <ele>155.3</ele>
        <time>2015-04-20T19:09:23.096Z</time>
      </trkpt>
      <trkpt lat="48.79802" lon="2.29715">
        <ele>154.9</ele>
        <time>2015-04-20T19:09:25.028Z</time>
      </trkpt>
      <trkpt lat="48.79805" lon="2.29717">
        <ele>154.6</ele>
        <time>2015-04-20T19:09:26.043Z</time>
      </trkpt>
      <trkpt lat="48.79812" lon="2.29721">
        <ele>154.4</ele>
        <time>2015-04-20T19:09:28.033Z</time>
      </trkpt>
      <trkpt lat="48.79814" lon="2.29722">
        <ele>153.9</ele>
        <time>2015-04-20T19:09:29.044Z</time>
      </trkpt>
      <trkpt lat="48.79812" lon="2.29727">
        <ele>152.5</ele>
        <time>2015-04-20T19:09:41.085Z</time>
      </trkpt>
      <trkpt lat="48.79808" lon="2.29736">
        <ele>151.4</ele>
        <time>2015-04-20T19:09:42.094Z</time>
      </trkpt>
      <trkpt lat="48.79802" lon="2.29745">
        <ele>151.4</ele>
        <time>2015-04-20T19:09:52.989Z</time>
      </trkpt>
      <trkpt lat="48.79797" lon="2.29755">
        <ele>151</ele>
        <time>2015-04-20T19:09:54.024Z</time>
      </trkpt>
      <trkpt lat="48.79793" lon="2.29761">
        <ele>151.3</ele>
        <time>2015-04-20T19:10:01.042Z</time>
      </trkpt>
      <trkpt lat="48.7979" lon="2.29772">
        <ele>150.4</ele>
        <time>2015-04-20T19:10:02.053Z</time>
      </trkpt>
      <trkpt lat="48.79786" lon="2.29783">
        <ele>151.1</ele>
        <time>2015-04-20T19:10:02.956Z</time>
      </trkpt>
      <trkpt lat="48.79785" lon="2.29787">
        <ele>151.6</ele>
        <time>2015-04-20T19:10:06.024Z</time>
      </trkpt>
      <trkpt lat="48.79783" lon="2.29798">
        <ele>152.3</ele>
        <time>2015-04-20T19:10:09.123Z</time>
      </trkpt>
      <trkpt lat="48.79783" lon="2.29802">
        <ele>152.4</ele>
        <time>2015-04-20T19:10:10.024Z</time>
      </trkpt>
      <trkpt lat="48.79782" lon="2.29814">
        <ele>152</ele>
        <time>2015-04-20T19:10:13.093Z</time>
      </trkpt>
      <trkpt lat="48.79781" lon="2.29819">
        <ele>152.2</ele>
        <time>2015-04-20T19:10:14.005Z</time>
      </trkpt>
      <trkpt lat="48.79779" lon="2.29827">
        <ele>152.6</ele>
        <time>2015-04-20T19:10:16.094Z</time>
      </trkpt>
      <trkpt lat="48.79777" lon="2.29831">
        <ele>152.7</ele>
        <time>2015-04-20T19:10:17.006Z</time>
      </trkpt>
      <trkpt lat="48.79771" lon="2.29837">
        <ele>152.9</ele>
        <time>2015-04-20T19:10:19.019Z</time>
      </trkpt>
      <trkpt lat="48.79769" lon="2.2984">
        <ele>152.9</ele>
        <time>2015-04-20T19:10:20.042Z</time>
      </trkpt>
      <trkpt lat="48.79762" lon="2.29844">
        <ele>152.9</ele>
        <time>2015-04-20T19:10:23.992Z</time>
      </trkpt>
      <trkpt lat="48.7976" lon="2.29845">
        <ele>153</ele>
        <time>2015-04-20T19:10:25.109Z</time>
      </trkpt>
      <trkpt lat="48.79752" lon="2.29843">
        <ele>154.1</ele>
        <time>2015-04-20T19:10:29.841Z</time>
      </trkpt>
      <trkpt lat="48.7975" lon="2.29842">
        <ele>154.5</ele>
        <time>2015-04-20T19:10:30.046Z</time>
      </trkpt>
      <trkpt lat="48.79742" lon="2.29841">
        <ele>155.8</ele>
        <time>2015-04-20T19:10:33.151Z</time>
      </trkpt>
      <trkpt lat="48.7974" lon="2.29841">
        <ele>156</ele>
        <time>2015-04-20T19:10:34.021Z</time>
      </trkpt>
      <trkpt lat="48.79733" lon="2.29843">
        <ele>157.1</ele>
        <time>2015-04-20T19:10:36.050Z</time>
      </trkpt>
      <trkpt lat="48.79728" lon="2.29843">
        <ele>158.2</ele>
        <time>2015-04-20T19:10:37.052Z</time>
      </trkpt>
      <trkpt lat="48.79728" lon="2.29832">
        <ele>158.2</ele>
        <time>2015-04-20T19:10:39.984Z</time>
      </trkpt>
      <trkpt lat="48.79732" lon="2.29826">
        <ele>157.4</ele>
        <time>2015-04-20T19:10:41.037Z</time>
      </trkpt>
      <trkpt lat="48.79735" lon="2.2982">
        <ele>156.5</ele>
        <time>2015-04-20T19:10:42.048Z</time>
      </trkpt>
      <trkpt lat="48.79738" lon="2.29814">
        <ele>156.2</ele>
        <time>2015-04-20T19:10:43.093Z</time>
      </trkpt>
      <trkpt lat="48.79741" lon="2.29808">
        <ele>156</ele>
        <time>2015-04-20T19:10:45.049Z</time>
      </trkpt>
      <trkpt lat="48.79744" lon="2.29802">
        <ele>155.9</ele>
        <time>2015-04-20T19:10:45.137Z</time>
      </trkpt>
      <trkpt lat="48.79746" lon="2.29796">
        <ele>155.8</ele>
        <time>2015-04-20T19:10:46.083Z</time>
      </trkpt>
      <trkpt lat="48.79749" lon="2.29791">
        <ele>155.7</ele>
        <time>2015-04-20T19:10:47.100Z</time>
      </trkpt>
      <trkpt lat="48.79753" lon="2.2978">
        <ele>155.5</ele>
        <time>2015-04-20T19:10:49.043Z</time>
      </trkpt>
      <trkpt lat="48.79755" lon="2.29774">
        <ele>155.4</ele>
        <time>2015-04-20T19:10:50.057Z</time>
      </trkpt>
      <trkpt lat="48.79759" lon="2.29766">
        <ele>155</ele>
        <time>2015-04-20T19:10:51.032Z</time>
      </trkpt>
      <trkpt lat="48.79762" lon="2.29758">
        <ele>155.4</ele>
        <time>2015-04-20T19:10:52.003Z</time>
      </trkpt>
      <trkpt lat="48.79764" lon="2.29751">
        <ele>155.6</ele>
        <time>2015-04-20T19:10:52.988Z</time>
      </trkpt>
      <trkpt lat="48.79766" lon="2.29743">
        <ele>155.9</ele>
        <time>2015-04-20T19:10:54.001Z</time>
      </trkpt>
      <trkpt lat="48.79769" lon="2.29736">
        <ele>156.1</ele>
        <time>2015-04-20T19:10:55.137Z</time>
      </trkpt>
      <trkpt lat="48.79771" lon="2.29729">
        <ele>156</ele>
        <time>2015-04-20T19:10:56.049Z</time>
      </trkpt>
      <trkpt lat="48.79773" lon="2.29722">
        <ele>155.9</ele>
        <time>2015-04-20T19:10:57.129Z</time>
      </trkpt>
      <trkpt lat="48.79774" lon="2.29715">
        <ele>155.8</ele>
        <time>2015-04-20T19:10:58.023Z</time>
      </trkpt>
      <trkpt lat="48.79777" lon="2.29703">
        <ele>155.5</ele>
        <time>2015-04-20T19:11:00.047Z</time>
      </trkpt>
      <trkpt lat="48.79777" lon="2.29696">
        <ele>155.6</ele>
        <time>2015-04-20T19:11:01.017Z</time>
      </trkpt>
      <trkpt lat="48.79773" lon="2.29686">
        <ele>155.2</ele>
        <time>2015-04-20T19:11:03.135Z</time>
      </trkpt>
      <trkpt lat="48.79769" lon="2.29681">
        <ele>154.9</ele>
        <time>2015-04-20T19:11:04.033Z</time>
      </trkpt>
      <trkpt lat="48.79764" lon="2.29676">
        <ele>154.3</ele>
        <time>2015-04-20T19:11:06.052Z</time>
      </trkpt>
      <trkpt lat="48.79761" lon="2.29671">
        <ele>154.6</ele>
        <time>2015-04-20T19:11:07.060Z</time>
      </trkpt>
      <trkpt lat="48.79755" lon="2.29664">
        <ele>154.6</ele>
        <time>2015-04-20T19:11:09.094Z</time>
      </trkpt>
      <trkpt lat="48.79751" lon="2.29661">
        <ele>154.5</ele>
        <time>2015-04-20T19:11:10.135Z</time>
      </trkpt>
      <trkpt lat="48.79745" lon="2.29653">
        <ele>153.5</ele>
        <time>2015-04-20T19:11:12.016Z</time>
      </trkpt>
      <trkpt lat="48.79743" lon="2.29649">
        <ele>153.4</ele>
        <time>2015-04-20T19:11:13.019Z</time>
      </trkpt>
      <trkpt lat="48.79739" lon="2.2964">
        <ele>153.5</ele>
        <time>2015-04-20T19:11:15.088Z</time>
      </trkpt>
      <trkpt lat="48.79737" lon="2.29636">
        <ele>153.6</ele>
        <time>2015-04-20T19:11:16.115Z</time>
      </trkpt>
      <trkpt lat="48.79732" lon="2.29629">
        <ele>153.8</ele>
        <time>2015-04-20T19:11:18.028Z</time>
      </trkpt>
      <trkpt lat="48.79729" lon="2.29626">
        <ele>153.8</ele>
        <time>2015-04-20T19:11:19.044Z</time>
      </trkpt>
      <trkpt lat="48.79723" lon="2.2962">
        <ele>153.9</ele>
        <time>2015-04-20T19:11:21.065Z</time>
      </trkpt>
      <trkpt lat="48.7972" lon="2.29617">
        <ele>154</ele>
        <time>2015-04-20T19:11:22.045Z</time>
      </trkpt>
      <trkpt lat="48.79712" lon="2.29611">
        <ele>153.8</ele>
        <time>2015-04-20T19:11:24.024Z</time>
      </trkpt>
      <trkpt lat="48.79709" lon="2.29608">
        <ele>153.8</ele>
        <time>2015-04-20T19:11:25.019Z</time>
      </trkpt>
      <trkpt lat="48.79701" lon="2.29602">
        <ele>153.8</ele>
        <time>2015-04-20T19:11:27.139Z</time>
      </trkpt>
      <trkpt lat="48.79697" lon="2.29598">
        <ele>153.6</ele>
        <time>2015-04-20T19:11:27.993Z</time>
      </trkpt>
      <trkpt lat="48.79691" lon="2.2959">
        <ele>153.4</ele>
        <time>2015-04-20T19:11:29.993Z</time>
      </trkpt>
      <trkpt lat="48.79688" lon="2.29585">
        <ele>153.6</ele>
        <time>2015-04-20T19:11:31.021Z</time>
      </trkpt>
      <trkpt lat="48.79684" lon="2.29582">
        <ele>153.7</ele>
        <time>2015-04-20T19:11:32.059Z</time>
      </trkpt>
      <trkpt lat="48.7968" lon="2.29578">
        <ele>153.6</ele>
        <time>2015-04-20T19:11:33.089Z</time>
      </trkpt>
      <trkpt lat="48.79676" lon="2.29574">
        <ele>153.6</ele>
        <time>2015-04-20T19:11:34.839Z</time>
      </trkpt>
      <trkpt lat="48.79671" lon="2.29571">
        <ele>153.5</ele>
        <time>2015-04-20T19:11:34.996Z</time>
      </trkpt>
      <trkpt lat="48.79663" lon="2.29565">
        <ele>154.2</ele>
        <time>2015-04-20T19:11:37.081Z</time>
      </trkpt>
      <trkpt lat="48.79659" lon="2.29561">
        <ele>154.4</ele>
        <time>2015-04-20T19:11:38.005Z</time>
      </trkpt>
      <trkpt lat="48.79651" lon="2.29556">
        <ele>154.8</ele>
        <time>2015-04-20T19:11:39.993Z</time>
      </trkpt>
      <trkpt lat="48.79647" lon="2.29554">
        <ele>155.2</ele>
        <time>2015-04-20T19:11:41.032Z</time>
      </trkpt>
      <trkpt lat="48.79641" lon="2.29549">
        <ele>155.8</ele>
        <time>2015-04-20T19:11:43.071Z</time>
      </trkpt>
      <trkpt lat="48.79639" lon="2.29546">
        <ele>155.8</ele>
        <time>2015-04-20T19:11:44.115Z</time>
      </trkpt>
      <trkpt lat="48.79634" lon="2.2954">
        <ele>155.6</ele>
        <time>2015-04-20T19:11:46.034Z</time>
      </trkpt>
      <trkpt lat="48.79631" lon="2.29537">
        <ele>155.1</ele>
        <time>2015-04-20T19:11:47.048Z</time>
      </trkpt>
      <trkpt lat="48.79624" lon="2.29531">
        <ele>154.7</ele>
        <time>2015-04-20T19:11:53.038Z</time>
      </trkpt>
      <trkpt lat="48.79619" lon="2.29526">
        <ele>155.1</ele>
        <time>2015-04-20T19:11:54.047Z</time>
      </trkpt>
      <trkpt lat="48.79613" lon="2.29517">
        <ele>155.1</ele>
        <time>2015-04-20T19:11:58.032Z</time>
      </trkpt>
      <trkpt lat="48.79611" lon="2.29515">
        <ele>155.2</ele>
        <time>2015-04-20T19:11:59.078Z</time>
      </trkpt>
      <trkpt lat="48.79605" lon="2.29505">
        <ele>155.6</ele>
        <time>2015-04-20T19:12:02.033Z</time>
      </trkpt>
      <trkpt lat="48.79603" lon="2.29501">
        <ele>155.7</ele>
        <time>2015-04-20T19:12:03.143Z</time>
      </trkpt>
      <trkpt lat="48.79599" lon="2.29496">
        <ele>155.5</ele>
        <time>2015-04-20T19:12:04.029Z</time>
      </trkpt>
      <trkpt lat="48.79594" lon="2.29492">
        <ele>155.5</ele>
        <time>2015-04-20T19:12:05.045Z</time>
      </trkpt>
      <trkpt lat="48.79589" lon="2.29488">
        <ele>155.5</ele>
        <time>2015-04-20T19:12:06.057Z</time>
      </trkpt>
      <trkpt lat="48.79586" lon="2.29485">
        <ele>155.5</ele>
        <time>2015-04-20T19:12:07.080Z</time>
      </trkpt>
      <trkpt lat="48.79583" lon="2.29481">
        <ele>155.3</ele>
        <time>2015-04-20T19:12:08.096Z</time>
      </trkpt>
      <trkpt lat="48.79576" lon="2.29473">
        <ele>155.3</ele>
        <time>2015-04-20T19:12:09.991Z</time>
      </trkpt>
      <trkpt lat="48.79576" lon="2.29473">
        <ele>155.3</ele>
        <time>2015-04-20T19:12:10.706Z</time>
      </trkpt>
      <trkpt lat="48.79567" lon="2.29467">
        <ele>155.2</ele>
        <time>2015-04-20T19:12:11.986Z</time>
      </trkpt>
      <trkpt lat="48.79562" lon="2.29463">
        <ele>155</ele>
        <time>2015-04-20T19:12:13.094Z</time>
      </trkpt>
      <trkpt lat="48.79557" lon="2.29462">
        <ele>155.1</ele>
        <time>2015-04-20T19:12:14.016Z</time>
      </trkpt>
      <trkpt lat="48.79552" lon="2.29461">
        <ele>155.1</ele>
        <time>2015-04-20T19:12:15.784Z</time>
      </trkpt>
      <trkpt lat="48.79548" lon="2.2946">
        <ele>155</ele>
        <time>2015-04-20T19:12:16.058Z</time>
      </trkpt>
      <trkpt lat="48.79543" lon="2.2946">
        <ele>154.9</ele>
        <time>2015-04-20T19:12:16.993Z</time>
      </trkpt>
      <trkpt lat="48.79539" lon="2.29462">
        <ele>154.9</ele>
        <time>2015-04-20T19:12:18.010Z</time>
      </trkpt>
      <trkpt lat="48.79531" lon="2.29467">
        <ele>154.9</ele>
        <time>2015-04-20T19:12:20.048Z</time>
      </trkpt>
      <trkpt lat="48.79527" lon="2.29468">
        <ele>154.8</ele>
        <time>2015-04-20T19:12:21.039Z</time>
      </trkpt>
      <trkpt lat="48.7952" lon="2.29469">
        <ele>154.8</ele>
        <time>2015-04-20T19:12:23.022Z</time>
      </trkpt>
      <trkpt lat="48.79516" lon="2.29467">
        <ele>154.7</ele>
        <time>2015-04-20T19:12:24.014Z</time>
      </trkpt>
      <trkpt lat="48.79509" lon="2.29465">
        <ele>154.9</ele>
        <time>2015-04-20T19:12:26.140Z</time>
      </trkpt>
      <trkpt lat="48.79506" lon="2.29463">
        <ele>155</ele>
        <time>2015-04-20T19:12:27.048Z</time>
      </trkpt>
      <trkpt lat="48.795" lon="2.2946">
        <ele>155.1</ele>
        <time>2015-04-20T19:12:29.062Z</time>
      </trkpt>
      <trkpt lat="48.79497" lon="2.29459">
        <ele>155.3</ele>
        <time>2015-04-20T19:12:30.077Z</time>
      </trkpt>
      <trkpt lat="48.79491" lon="2.29454">
        <ele>155.4</ele>
        <time>2015-04-20T19:12:32.025Z</time>
      </trkpt>
      <trkpt lat="48.79488" lon="2.29452">
        <ele>155.9</ele>
        <time>2015-04-20T19:12:33.187Z</time>
      </trkpt>
      <trkpt lat="48.79481" lon="2.29447">
        <ele>155.9</ele>
        <time>2015-04-20T19:12:35.030Z</time>
      </trkpt>
      <trkpt lat="48.79479" lon="2.29446">
        <ele>156</ele>
        <time>2015-04-20T19:12:35.981Z</time>
      </trkpt>
      <trkpt lat="48.79471" lon="2.29441">
        <ele>156.4</ele>
        <time>2015-04-20T19:12:39.113Z</time>
      </trkpt>
      <trkpt lat="48.79469" lon="2.29438">
        <ele>156.5</ele>
        <time>2015-04-20T19:12:40.037Z</time>
      </trkpt>
      <trkpt lat="48.79463" lon="2.2943">
        <ele>156.5</ele>
        <time>2015-04-20T19:12:42.052Z</time>
      </trkpt>
      <trkpt lat="48.7946" lon="2.29427">
        <ele>156.7</ele>
        <time>2015-04-20T19:12:43.140Z</time>
      </trkpt>
      <trkpt lat="48.79454" lon="2.29422">
        <ele>156.9</ele>
        <time>2015-04-20T19:12:45.052Z</time>
      </trkpt>
      <trkpt lat="48.79451" lon="2.2942">
        <ele>156.9</ele>
        <time>2015-04-20T19:12:45.982Z</time>
      </trkpt>
      <trkpt lat="48.79444" lon="2.29415">
        <ele>157.3</ele>
        <time>2015-04-20T19:12:49.044Z</time>
      </trkpt>
      <trkpt lat="48.79442" lon="2.29413">
        <ele>156.9</ele>
        <time>2015-04-20T19:12:50.053Z</time>
      </trkpt>
      <trkpt lat="48.79436" lon="2.29405">
        <ele>156.8</ele>
        <time>2015-04-20T19:12:53.112Z</time>
      </trkpt>
      <trkpt lat="48.79433" lon="2.29403">
        <ele>156.8</ele>
        <time>2015-04-20T19:12:54.038Z</time>
      </trkpt>
      <trkpt lat="48.79426" lon="2.29397">
        <ele>156.6</ele>
        <time>2015-04-20T19:12:56.011Z</time>
      </trkpt>
      <trkpt lat="48.79422" lon="2.29393">
        <ele>156.1</ele>
        <time>2015-04-20T19:12:57.080Z</time>
      </trkpt>
      <trkpt lat="48.79416" lon="2.29389">
        <ele>155.8</ele>
        <time>2015-04-20T19:12:59.044Z</time>
      </trkpt>
      <trkpt lat="48.79414" lon="2.29386">
        <ele>155.6</ele>
        <time>2015-04-20T19:13:00.126Z</time>
      </trkpt>
      <trkpt lat="48.79409" lon="2.2938">
        <ele>155.5</ele>
        <time>2015-04-20T19:13:02.043Z</time>
      </trkpt>
      <trkpt lat="48.79406" lon="2.29377">
        <ele>155.8</ele>
        <time>2015-04-20T19:13:03.069Z</time>
      </trkpt>
      <trkpt lat="48.79399" lon="2.29372">
        <ele>156.2</ele>
        <time>2015-04-20T19:13:06.020Z</time>
      </trkpt>
      <trkpt lat="48.79396" lon="2.29369">
        <ele>156</ele>
        <time>2015-04-20T19:13:07.028Z</time>
      </trkpt>
      <trkpt lat="48.7939" lon="2.2936">
        <ele>155.1</ele>
        <time>2015-04-20T19:13:10.028Z</time>
      </trkpt>
      <trkpt lat="48.79388" lon="2.29357">
        <ele>155</ele>
        <time>2015-04-20T19:13:11.034Z</time>
      </trkpt>
      <trkpt lat="48.79383" lon="2.29351">
        <ele>154.6</ele>
        <time>2015-04-20T19:13:13.103Z</time>
      </trkpt>
      <trkpt lat="48.79381" lon="2.29348">
        <ele>154.7</ele>
        <time>2015-04-20T19:13:14.031Z</time>
      </trkpt>
      <trkpt lat="48.79374" lon="2.2934">
        <ele>154.4</ele>
        <time>2015-04-20T19:13:17.070Z</time>
      </trkpt>
      <trkpt lat="48.79373" lon="2.29338">
        <ele>154</ele>
        <time>2015-04-20T19:13:18.079Z</time>
      </trkpt>
      <trkpt lat="48.79371" lon="2.29337">
        <ele>153.9</ele>
        <time>2015-04-20T19:14:42.991Z</time>
      </trkpt>
      <trkpt lat="48.79353" lon="2.29316">
        <ele>151.5</ele>
        <time>2015-04-20T19:14:44.068Z</time>
      </trkpt>
      <trkpt lat="48.79346" lon="2.29312">
        <ele>151</ele>
        <time>2015-04-20T19:14:47.036Z</time>
      </trkpt>
      <trkpt lat="48.79344" lon="2.2931">
        <ele>151.3</ele>
        <time>2015-04-20T19:14:48.049Z</time>
      </trkpt>
      <trkpt lat="48.79336" lon="2.29307">
        <ele>151.5</ele>
        <time>2015-04-20T19:14:51.147Z</time>
      </trkpt>
      <trkpt lat="48.79332" lon="2.29306">
        <ele>151.7</ele>
        <time>2015-04-20T19:14:51.993Z</time>
      </trkpt>
      <trkpt lat="48.79326" lon="2.29304">
        <ele>151.9</ele>
        <time>2015-04-20T19:14:54.040Z</time>
      </trkpt>
      <trkpt lat="48.79323" lon="2.29304">
        <ele>152.1</ele>
        <time>2015-04-20T19:14:55.034Z</time>
      </trkpt>
      <trkpt lat="48.79315" lon="2.29303">
        <ele>151.9</ele>
        <time>2015-04-20T19:14:57.058Z</time>
      </trkpt>
      <trkpt lat="48.79312" lon="2.29302">
        <ele>152</ele>
        <time>2015-04-20T19:14:58.078Z</time>
      </trkpt>
      <trkpt lat="48.79304" lon="2.293">
        <ele>152.4</ele>
        <time>2015-04-20T19:15:00.027Z</time>
      </trkpt>
      <trkpt lat="48.793" lon="2.29299">
        <ele>152.3</ele>
        <time>2015-04-20T19:15:01.012Z</time>
      </trkpt>
      <trkpt lat="48.79292" lon="2.29296">
        <ele>152.3</ele>
        <time>2015-04-20T19:15:03.129Z</time>
      </trkpt>
      <trkpt lat="48.79289" lon="2.29294">
        <ele>152.7</ele>
        <time>2015-04-20T19:15:03.992Z</time>
      </trkpt>
      <trkpt lat="48.79282" lon="2.29292">
        <ele>152.8</ele>
        <time>2015-04-20T19:15:06.039Z</time>
      </trkpt>
      <trkpt lat="48.79278" lon="2.29291">
        <ele>152.3</ele>
        <time>2015-04-20T19:15:07.047Z</time>
      </trkpt>
      <trkpt lat="48.7927" lon="2.29288">
        <ele>152.7</ele>
        <time>2015-04-20T19:15:10.014Z</time>
      </trkpt>
      <trkpt lat="48.79266" lon="2.29286">
        <ele>154.4</ele>
        <time>2015-04-20T19:15:11.024Z</time>
      </trkpt>
      <trkpt lat="48.7926" lon="2.29286">
        <ele>154.4</ele>
        <time>2015-04-20T19:15:13.053Z</time>
      </trkpt>
      <trkpt lat="48.79257" lon="2.29285">
        <ele>154.5</ele>
        <time>2015-04-20T19:15:14.058Z</time>
      </trkpt>
      <trkpt lat="48.7925" lon="2.2928">
        <ele>154.9</ele>
        <time>2015-04-20T19:15:17.030Z</time>
      </trkpt>
      <trkpt lat="48.79247" lon="2.29279">
        <ele>154.9</ele>
        <time>2015-04-20T19:15:18.089Z</time>
      </trkpt>
      <trkpt lat="48.79241" lon="2.29275">
        <ele>154.8</ele>
        <time>2015-04-20T19:15:20.039Z</time>
      </trkpt>
      <trkpt lat="48.79237" lon="2.29275">
        <ele>155</ele>
        <time>2015-04-20T19:15:21.069Z</time>
      </trkpt>
      <trkpt lat="48.79233" lon="2.29276">
        <ele>155.3</ele>
        <time>2015-04-20T19:15:22.082Z</time>
      </trkpt>
      <trkpt lat="48.79228" lon="2.29278">
        <ele>155.3</ele>
        <time>2015-04-20T19:15:23.031Z</time>
      </trkpt>
      <trkpt lat="48.79219" lon="2.29277">
        <ele>155</ele>
        <time>2015-04-20T19:15:25.058Z</time>
      </trkpt>
      <trkpt lat="48.79215" lon="2.29276">
        <ele>155.1</ele>
        <time>2015-04-20T19:15:26.012Z</time>
      </trkpt>
      <trkpt lat="48.79207" lon="2.29276">
        <ele>155.1</ele>
        <time>2015-04-20T19:15:28.250Z</time>
      </trkpt>
      <trkpt lat="48.79203" lon="2.29276">
        <ele>155.2</ele>
        <time>2015-04-20T19:15:29.011Z</time>
      </trkpt>
      <trkpt lat="48.79195" lon="2.29275">
        <ele>155.5</ele>
        <time>2015-04-20T19:15:31.087Z</time>
      </trkpt>
      <trkpt lat="48.79191" lon="2.29275">
        <ele>155.5</ele>
        <time>2015-04-20T19:15:32.085Z</time>
      </trkpt>
      <trkpt lat="48.79185" lon="2.29271">
        <ele>155.5</ele>
        <time>2015-04-20T19:15:34.026Z</time>
      </trkpt>
      <trkpt lat="48.79182" lon="2.2927">
        <ele>155.7</ele>
        <time>2015-04-20T19:15:35.039Z</time>
      </trkpt>
      <trkpt lat="48.79175" lon="2.29266">
        <ele>155.9</ele>
        <time>2015-04-20T19:15:37.093Z</time>
      </trkpt>
      <trkpt lat="48.79173" lon="2.29264">
        <ele>155.9</ele>
        <time>2015-04-20T19:15:38.018Z</time>
      </trkpt>
      <trkpt lat="48.79167" lon="2.29257">
        <ele>156.3</ele>
        <time>2015-04-20T19:15:41.066Z</time>
      </trkpt>
      <trkpt lat="48.79167" lon="2.29253">
        <ele>156.6</ele>
        <time>2015-04-20T19:15:42.074Z</time>
      </trkpt>
      <trkpt lat="48.79165" lon="2.29244">
        <ele>157.2</ele>
        <time>2015-04-20T19:15:44.013Z</time>
      </trkpt>
      <trkpt lat="48.79164" lon="2.2924">
        <ele>157.4</ele>
        <time>2015-04-20T19:15:45.032Z</time>
      </trkpt>
      <trkpt lat="48.79161" lon="2.29231">
        <ele>157.7</ele>
        <time>2015-04-20T19:15:46.993Z</time>
      </trkpt>
      <trkpt lat="48.79159" lon="2.29228">
        <ele>157.7</ele>
        <time>2015-04-20T19:15:48.013Z</time>
      </trkpt>
      <trkpt lat="48.79156" lon="2.2922">
        <ele>157.9</ele>
        <time>2015-04-20T19:15:50.041Z</time>
      </trkpt>
      <trkpt lat="48.79153" lon="2.29217">
        <ele>157.9</ele>
        <time>2015-04-20T19:15:51.035Z</time>
      </trkpt>
      <trkpt lat="48.79146" lon="2.29213">
        <ele>157.8</ele>
        <time>2015-04-20T19:15:53.051Z</time>
      </trkpt>
      <trkpt lat="48.79142" lon="2.29212">
        <ele>157.6</ele>
        <time>2015-04-20T19:15:54.054Z</time>
      </trkpt>
      <trkpt lat="48.79137" lon="2.29212">
        <ele>157.6</ele>
        <time>2015-04-20T19:15:54.955Z</time>
      </trkpt>
      <trkpt lat="48.7913" lon="2.2921">
        <ele>156.9</ele>
        <time>2015-04-20T19:15:55.995Z</time>
      </trkpt>
      <trkpt lat="48.79126" lon="2.29209">
        <ele>157</ele>
        <time>2015-04-20T19:15:57.131Z</time>
      </trkpt>
      <trkpt lat="48.79121" lon="2.29207">
        <ele>156.8</ele>
        <time>2015-04-20T19:15:58.077Z</time>
      </trkpt>
      <trkpt lat="48.79113" lon="2.29205">
        <ele>156.8</ele>
        <time>2015-04-20T19:16:00.058Z</time>
      </trkpt>
      <trkpt lat="48.79109" lon="2.29204">
        <ele>156.7</ele>
        <time>2015-04-20T19:16:01.067Z</time>
      </trkpt>
      <trkpt lat="48.79102" lon="2.29202">
        <ele>156.9</ele>
        <time>2015-04-20T19:16:03.111Z</time>
      </trkpt>
      <trkpt lat="48.79098" lon="2.29201">
        <ele>157.2</ele>
        <time>2015-04-20T19:16:04.015Z</time>
      </trkpt>
      <trkpt lat="48.79092" lon="2.29198">
        <ele>157.3</ele>
        <time>2015-04-20T19:16:06.343Z</time>
      </trkpt>
      <trkpt lat="48.79089" lon="2.29197">
        <ele>157.7</ele>
        <time>2015-04-20T19:16:07.030Z</time>
      </trkpt>
      <trkpt lat="48.79083" lon="2.29195">
        <ele>158.1</ele>
        <time>2015-04-20T19:16:09.069Z</time>
      </trkpt>
      <trkpt lat="48.7908" lon="2.29194">
        <ele>158.3</ele>
        <time>2015-04-20T19:16:10.070Z</time>
      </trkpt>
      <trkpt lat="48.79073" lon="2.29193">
        <ele>158.7</ele>
        <time>2015-04-20T19:16:12.025Z</time>
      </trkpt>
      <trkpt lat="48.79069" lon="2.29193">
        <ele>158.9</ele>
        <time>2015-04-20T19:16:13.022Z</time>
      </trkpt>
      <trkpt lat="48.79062" lon="2.29192">
        <ele>159.3</ele>
        <time>2015-04-20T19:16:15.089Z</time>
      </trkpt>
      <trkpt lat="48.7906" lon="2.29192">
        <ele>159.5</ele>
        <time>2015-04-20T19:16:16.019Z</time>
      </trkpt>
      <trkpt lat="48.79051" lon="2.2919">
        <ele>160.1</ele>
        <time>2015-04-20T19:16:19.065Z</time>
      </trkpt>
      <trkpt lat="48.79048" lon="2.29189">
        <ele>160.3</ele>
        <time>2015-04-20T19:16:20.080Z</time>
      </trkpt>
      <trkpt lat="48.7904" lon="2.29188">
        <ele>161.2</ele>
        <time>2015-04-20T19:16:27.035Z</time>
      </trkpt>
      <trkpt lat="48.79032" lon="2.29195">
        <ele>160.8</ele>
        <time>2015-04-20T19:16:28.051Z</time>
      </trkpt>
      <trkpt lat="48.79024" lon="2.29197">
        <ele>162.7</ele>
        <time>2015-04-20T19:16:32.030Z</time>
      </trkpt>
      <trkpt lat="48.79021" lon="2.29196">
        <ele>162.7</ele>
        <time>2015-04-20T19:16:33.095Z</time>
      </trkpt>
      <trkpt lat="48.79014" lon="2.29191">
        <ele>164.5</ele>
        <time>2015-04-20T19:16:37.026Z</time>
      </trkpt>
      <trkpt lat="48.79013" lon="2.2919">
        <ele>164.7</ele>
        <time>2015-04-20T19:16:38.001Z</time>
      </trkpt>
      <trkpt lat="48.79004" lon="2.29191">
        <ele>164.4</ele>
        <time>2015-04-20T19:16:42.038Z</time>
      </trkpt>
      <trkpt lat="48.79001" lon="2.29191">
        <ele>164.4</ele>
        <time>2015-04-20T19:16:43.072Z</time>
      </trkpt>
      <trkpt lat="48.78994" lon="2.29188">
        <ele>164.8</ele>
        <time>2015-04-20T19:16:45.975Z</time>
      </trkpt>
      <trkpt lat="48.78992" lon="2.29187">
        <ele>165.1</ele>
        <time>2015-04-20T19:16:47.078Z</time>
      </trkpt>
      <trkpt lat="48.78985" lon="2.29187">
        <ele>165.8</ele>
        <time>2015-04-20T19:16:50.042Z</time>
      </trkpt>
      <trkpt lat="48.78982" lon="2.29187">
        <ele>166.2</ele>
        <time>2015-04-20T19:16:51.049Z</time>
      </trkpt>
      <trkpt lat="48.78974" lon="2.29185">
        <ele>167.1</ele>
        <time>2015-04-20T19:16:55.069Z</time>
      </trkpt>
      <trkpt lat="48.78973" lon="2.29182">
        <ele>166.6</ele>
        <time>2015-04-20T19:16:56.023Z</time>
      </trkpt>
      <trkpt lat="48.78973" lon="2.2918">
        <ele>166.1</ele>
        <time>2015-04-20T19:16:57.047Z</time>
      </trkpt>
      <trkpt lat="48.78974" lon="2.29179">
        <ele>165.8</ele>
        <time>2015-04-20T19:17:03.085Z</time>
      </trkpt>
      <trkpt lat="48.78979" lon="2.29179">
        <ele>165.7</ele>
        <time>2015-04-20T19:17:04.072Z</time>
      </trkpt>
      <trkpt lat="48.78984" lon="2.29188">
        <ele>162.4</ele>
        <time>2015-04-20T19:17:59.029Z</time>
      </trkpt>
      <trkpt lat="48.78984" lon="2.29191">
        <ele>162.5</ele>
        <time>2015-04-20T19:18:00.241Z</time>
      </trkpt>
      <trkpt lat="48.78981" lon="2.29203">
        <ele>161</ele>
        <time>2015-04-20T19:18:03.179Z</time>
      </trkpt>
      <trkpt lat="48.7898" lon="2.29207">
        <ele>160.2</ele>
        <time>2015-04-20T19:18:04.033Z</time>
      </trkpt>
      <trkpt lat="48.78978" lon="2.29217">
        <ele>159.5</ele>
        <time>2015-04-20T19:18:06.022Z</time>
      </trkpt>
      <trkpt lat="48.78978" lon="2.29222">
        <ele>159.2</ele>
        <time>2015-04-20T19:18:07.031Z</time>
      </trkpt>
      <trkpt lat="48.78978" lon="2.29232">
        <ele>158.3</ele>
        <time>2015-04-20T19:18:09.082Z</time>
      </trkpt>
      <trkpt lat="48.78977" lon="2.29236">
        <ele>158</ele>
        <time>2015-04-20T19:18:10.053Z</time>
      </trkpt>
      <trkpt lat="48.78972" lon="2.29246">
        <ele>157.5</ele>
        <time>2015-04-20T19:18:13.159Z</time>
      </trkpt>
      <trkpt lat="48.78971" lon="2.2925">
        <ele>157.4</ele>
        <time>2015-04-20T19:18:14.032Z</time>
      </trkpt>
      <trkpt lat="48.78967" lon="2.29258">
        <ele>156.8</ele>
        <time>2015-04-20T19:18:16.014Z</time>
      </trkpt>
      <trkpt lat="48.78965" lon="2.29261">
        <ele>156.6</ele>
        <time>2015-04-20T19:18:17.033Z</time>
      </trkpt>
      <trkpt lat="48.7896" lon="2.29269">
        <ele>156.5</ele>
        <time>2015-04-20T19:18:19.016Z</time>
      </trkpt>
      <trkpt lat="48.78958" lon="2.29273">
        <ele>156.4</ele>
        <time>2015-04-20T19:18:20.041Z</time>
      </trkpt>
      <trkpt lat="48.78953" lon="2.2928">
        <ele>155.7</ele>
        <time>2015-04-20T19:18:22.017Z</time>
      </trkpt>
      <trkpt lat="48.78949" lon="2.29283">
        <ele>155.5</ele>
        <time>2015-04-20T19:18:23.042Z</time>
      </trkpt>
      <trkpt lat="48.78944" lon="2.29291">
        <ele>154.9</ele>
        <time>2015-04-20T19:18:25.001Z</time>
      </trkpt>
      <trkpt lat="48.78941" lon="2.29296">
        <ele>154.5</ele>
        <time>2015-04-20T19:18:26.034Z</time>
      </trkpt>
      <trkpt lat="48.78938" lon="2.29302">
        <ele>154</ele>
        <time>2015-04-20T19:18:27.060Z</time>
      </trkpt>
      <trkpt lat="48.78935" lon="2.29307">
        <ele>153.8</ele>
        <time>2015-04-20T19:18:28.068Z</time>
      </trkpt>
      <trkpt lat="48.78928" lon="2.29316">
        <ele>153.4</ele>
        <time>2015-04-20T19:18:30.017Z</time>
      </trkpt>
      <trkpt lat="48.78924" lon="2.2932">
        <ele>152.9</ele>
        <time>2015-04-20T19:18:31.039Z</time>
      </trkpt>
      <trkpt lat="48.78917" lon="2.29328">
        <ele>152.4</ele>
        <time>2015-04-20T19:18:33.075Z</time>
      </trkpt>
      <trkpt lat="48.78914" lon="2.29332">
        <ele>152.4</ele>
        <time>2015-04-20T19:18:34.103Z</time>
      </trkpt>
      <trkpt lat="48.78906" lon="2.29339">
        <ele>152.3</ele>
        <time>2015-04-20T19:18:36.012Z</time>
      </trkpt>
      <trkpt lat="48.78902" lon="2.29341">
        <ele>152.1</ele>
        <time>2015-04-20T19:18:37.038Z</time>
      </trkpt>
      <trkpt lat="48.78897" lon="2.29344">
        <ele>151.9</ele>
        <time>2015-04-20T19:18:38.106Z</time>
      </trkpt>
      <trkpt lat="48.78893" lon="2.29347">
        <ele>151.7</ele>
        <time>2015-04-20T19:18:39.121Z</time>
      </trkpt>
      <trkpt lat="48.7889" lon="2.29352">
        <ele>151.6</ele>
        <time>2015-04-20T19:18:39.997Z</time>
      </trkpt>
      <trkpt lat="48.78885" lon="2.29358">
        <ele>151.3</ele>
        <time>2015-04-20T19:18:41.008Z</time>
      </trkpt>
      <trkpt lat="48.78881" lon="2.29369">
        <ele>150.9</ele>
        <time>2015-04-20T19:18:43.037Z</time>
      </trkpt>
      <trkpt lat="48.7888" lon="2.29373">
        <ele>150.2</ele>
        <time>2015-04-20T19:18:44.054Z</time>
      </trkpt>
      <trkpt lat="48.78879" lon="2.29383">
        <ele>149.7</ele>
        <time>2015-04-20T19:18:45.982Z</time>
      </trkpt>
      <trkpt lat="48.78879" lon="2.29389">
        <ele>149.4</ele>
        <time>2015-04-20T19:18:47.037Z</time>
      </trkpt>
      <trkpt lat="48.78879" lon="2.294">
        <ele>149.1</ele>
        <time>2015-04-20T19:18:49.103Z</time>
      </trkpt>
      <trkpt lat="48.78878" lon="2.29405">
        <ele>149.1</ele>
        <time>2015-04-20T19:18:50.077Z</time>
      </trkpt>
      <trkpt lat="48.78876" lon="2.29414">
        <ele>149</ele>
        <time>2015-04-20T19:18:52.089Z</time>
      </trkpt>
      <trkpt lat="48.78875" lon="2.29419">
        <ele>149</ele>
        <time>2015-04-20T19:18:53.033Z</time>
      </trkpt>
      <trkpt lat="48.78872" lon="2.29428">
        <ele>148.9</ele>
        <time>2015-04-20T19:18:55.064Z</time>
      </trkpt>
      <trkpt lat="48.78871" lon="2.29434">
        <ele>148.8</ele>
        <time>2015-04-20T19:18:56.205Z</time>
      </trkpt>
      <trkpt lat="48.78869" lon="2.29445">
        <ele>149</ele>
        <time>2015-04-20T19:18:58.067Z</time>
      </trkpt>
      <trkpt lat="48.78868" lon="2.29451">
        <ele>149.1</ele>
        <time>2015-04-20T19:18:59.088Z</time>
      </trkpt>
      <trkpt lat="48.78866" lon="2.29463">
        <ele>149.3</ele>
        <time>2015-04-20T19:19:01.031Z</time>
      </trkpt>
      <trkpt lat="48.78866" lon="2.29471">
        <ele>149.1</ele>
        <time>2015-04-20T19:19:02.054Z</time>
      </trkpt>
      <trkpt lat="48.78865" lon="2.29478">
        <ele>149.1</ele>
        <time>2015-04-20T19:19:03.102Z</time>
      </trkpt>
      <trkpt lat="48.78865" lon="2.29486">
        <ele>149</ele>
        <time>2015-04-20T19:19:04.014Z</time>
      </trkpt>
      <trkpt lat="48.78864" lon="2.29493">
        <ele>148.9</ele>
        <time>2015-04-20T19:19:05.030Z</time>
      </trkpt>
      <trkpt lat="48.78864" lon="2.295">
        <ele>148.8</ele>
        <time>2015-04-20T19:19:06.031Z</time>
      </trkpt>
      <trkpt lat="48.78864" lon="2.29507">
        <ele>148.5</ele>
        <time>2015-04-20T19:19:07.049Z</time>
      </trkpt>
      <trkpt lat="48.78864" lon="2.29514">
        <ele>148.1</ele>
        <time>2015-04-20T19:19:08.053Z</time>
      </trkpt>
      <trkpt lat="48.78864" lon="2.29526">
        <ele>147.4</ele>
        <time>2015-04-20T19:19:10.102Z</time>
      </trkpt>
      <trkpt lat="48.78863" lon="2.2953">
        <ele>147.1</ele>
        <time>2015-04-20T19:19:11.025Z</time>
      </trkpt>
      <trkpt lat="48.78861" lon="2.29541">
        <ele>146.3</ele>
        <time>2015-04-20T19:19:15.207Z</time>
      </trkpt>
      <trkpt lat="48.7886" lon="2.29544">
        <ele>146</ele>
        <time>2015-04-20T19:19:15.985Z</time>
      </trkpt>
      <trkpt lat="48.78858" lon="2.29555">
        <ele>145</ele>
        <time>2015-04-20T19:19:20.037Z</time>
      </trkpt>
      <trkpt lat="48.78857" lon="2.29557">
        <ele>145</ele>
        <time>2015-04-20T19:19:21.052Z</time>
      </trkpt>
      <trkpt lat="48.78855" lon="2.29567">
        <ele>143.8</ele>
        <time>2015-04-20T19:19:25.014Z</time>
      </trkpt>
      <trkpt lat="48.78854" lon="2.2957">
        <ele>143.8</ele>
        <time>2015-04-20T19:19:26.094Z</time>
      </trkpt>
      <trkpt lat="48.78851" lon="2.29583">
        <ele>143.1</ele>
        <time>2015-04-20T19:19:30.040Z</time>
      </trkpt>
      <trkpt lat="48.7885" lon="2.29587">
        <ele>143</ele>
        <time>2015-04-20T19:19:31.047Z</time>
      </trkpt>
      <trkpt lat="48.7885" lon="2.29598">
        <ele>142.3</ele>
        <time>2015-04-20T19:19:34.021Z</time>
      </trkpt>
      <trkpt lat="48.78849" lon="2.29601">
        <ele>142</ele>
        <time>2015-04-20T19:19:35.035Z</time>
      </trkpt>
      <trkpt lat="48.78845" lon="2.2961">
        <ele>141.3</ele>
        <time>2015-04-20T19:19:38.058Z</time>
      </trkpt>
      <trkpt lat="48.78844" lon="2.29614">
        <ele>141</ele>
        <time>2015-04-20T19:19:39.060Z</time>
      </trkpt>
      <trkpt lat="48.78841" lon="2.29624">
        <ele>140.9</ele>
        <time>2015-04-20T19:19:42.011Z</time>
      </trkpt>
      <trkpt lat="48.7884" lon="2.29627">
        <ele>141</ele>
        <time>2015-04-20T19:19:43.026Z</time>
      </trkpt>
      <trkpt lat="48.78835" lon="2.29637">
        <ele>140.4</ele>
        <time>2015-04-20T19:19:46.073Z</time>
      </trkpt>
      <trkpt lat="48.78833" lon="2.2964">
        <ele>140.1</ele>
        <time>2015-04-20T19:19:47.066Z</time>
      </trkpt>
      <trkpt lat="48.7883" lon="2.29651">
        <ele>139.9</ele>
        <time>2015-04-20T19:19:50.064Z</time>
      </trkpt>
      <trkpt lat="48.78828" lon="2.29655">
        <ele>139.9</ele>
        <time>2015-04-20T19:19:51.083Z</time>
      </trkpt>
      <trkpt lat="48.78822" lon="2.29664">
        <ele>140</ele>
        <time>2015-04-20T19:19:54.021Z</time>
      </trkpt>
      <trkpt lat="48.78821" lon="2.29668">
        <ele>139.8</ele>
        <time>2015-04-20T19:19:55.068Z</time>
      </trkpt>
      <trkpt lat="48.78816" lon="2.29679">
        <ele>140.5</ele>
        <time>2015-04-20T19:19:58.004Z</time>
      </trkpt>
      <trkpt lat="48.78814" lon="2.29683">
        <ele>140.6</ele>
        <time>2015-04-20T19:19:59.019Z</time>
      </trkpt>
      <trkpt lat="48.7881" lon="2.2969">
        <ele>140.4</ele>
        <time>2015-04-20T19:20:01.060Z</time>
      </trkpt>
      <trkpt lat="48.78808" lon="2.29695">
        <ele>140.4</ele>
        <time>2015-04-20T19:20:02.074Z</time>
      </trkpt>
      <trkpt lat="48.78802" lon="2.29703">
        <ele>139.6</ele>
        <time>2015-04-20T19:20:04.989Z</time>
      </trkpt>
      <trkpt lat="48.78799" lon="2.29705">
        <ele>139.3</ele>
        <time>2015-04-20T19:20:06.006Z</time>
      </trkpt>
      <trkpt lat="48.78794" lon="2.29713">
        <ele>139.1</ele>
        <time>2015-04-20T19:20:09.055Z</time>
      </trkpt>
      <trkpt lat="48.78792" lon="2.29715">
        <ele>139</ele>
        <time>2015-04-20T19:20:10.056Z</time>
      </trkpt>
      <trkpt lat="48.78788" lon="2.29722">
        <ele>139.1</ele>
        <time>2015-04-20T19:20:11.991Z</time>
      </trkpt>
      <trkpt lat="48.78786" lon="2.29725">
        <ele>139</ele>
        <time>2015-04-20T19:20:12.988Z</time>
      </trkpt>
      <trkpt lat="48.78781" lon="2.29734">
        <ele>138.7</ele>
        <time>2015-04-20T19:20:15.995Z</time>
      </trkpt>
      <trkpt lat="48.78778" lon="2.29737">
        <ele>138.5</ele>
        <time>2015-04-20T19:20:16.986Z</time>
      </trkpt>
      <trkpt lat="48.78773" lon="2.29743">
        <ele>137.7</ele>
        <time>2015-04-20T19:20:19.007Z</time>
      </trkpt>
      <trkpt lat="48.7877" lon="2.29745">
        <ele>137.2</ele>
        <time>2015-04-20T19:20:20.047Z</time>
      </trkpt>
      <trkpt lat="48.78763" lon="2.29738">
        <ele>135.7</ele>
        <time>2015-04-20T19:20:24.093Z</time>
      </trkpt>
      <trkpt lat="48.78762" lon="2.29736">
        <ele>135.7</ele>
        <time>2015-04-20T19:20:24.982Z</time>
      </trkpt>
      <trkpt lat="48.78759" lon="2.2973">
        <ele>135.5</ele>
        <time>2015-04-20T19:21:13.004Z</time>
      </trkpt>
      <trkpt lat="48.78769" lon="2.29756">
        <ele>136.1</ele>
        <time>2015-04-20T19:21:14.004Z</time>
      </trkpt>
      <trkpt lat="48.78767" lon="2.29763">
        <ele>135.5</ele>
        <time>2015-04-20T19:21:16.068Z</time>
      </trkpt>
      <trkpt lat="48.78764" lon="2.29767">
        <ele>134.5</ele>
        <time>2015-04-20T19:21:17.085Z</time>
      </trkpt>
      <trkpt lat="48.78759" lon="2.29774">
        <ele>133.6</ele>
        <time>2015-04-20T19:21:19.017Z</time>
      </trkpt>
      <trkpt lat="48.78756" lon="2.29778">
        <ele>133</ele>
        <time>2015-04-20T19:21:20.172Z</time>
      </trkpt>
      <trkpt lat="48.78753" lon="2.29782">
        <ele>132.7</ele>
        <time>2015-04-20T19:21:21.052Z</time>
      </trkpt>
      <trkpt lat="48.78749" lon="2.29788">
        <ele>132.4</ele>
        <time>2015-04-20T19:21:22.073Z</time>
      </trkpt>
      <trkpt lat="48.78746" lon="2.29793">
        <ele>131.8</ele>
        <time>2015-04-20T19:21:23.091Z</time>
      </trkpt>
      <trkpt lat="48.78742" lon="2.29798">
        <ele>131.5</ele>
        <time>2015-04-20T19:21:24.011Z</time>
      </trkpt>
      <trkpt lat="48.78739" lon="2.29804">
        <ele>131.2</ele>
        <time>2015-04-20T19:21:25.074Z</time>
      </trkpt>
      <trkpt lat="48.78735" lon="2.29809">
        <ele>131.1</ele>
        <time>2015-04-20T19:21:25.979Z</time>
      </trkpt>
      <trkpt lat="48.78732" lon="2.29814">
        <ele>130.9</ele>
        <time>2015-04-20T19:21:27.017Z</time>
      </trkpt>
      <trkpt lat="48.78729" lon="2.2982">
        <ele>130.7</ele>
        <time>2015-04-20T19:21:28.032Z</time>
      </trkpt>
      <trkpt lat="48.78725" lon="2.29826">
        <ele>130.2</ele>
        <time>2015-04-20T19:21:29.050Z</time>
      </trkpt>
      <trkpt lat="48.78722" lon="2.29832">
        <ele>129.5</ele>
        <time>2015-04-20T19:21:30.073Z</time>
      </trkpt>
      <trkpt lat="48.78719" lon="2.29838">
        <ele>129.1</ele>
        <time>2015-04-20T19:21:31.014Z</time>
      </trkpt>
      <trkpt lat="48.78715" lon="2.29843">
        <ele>128.5</ele>
        <time>2015-04-20T19:21:32.005Z</time>
      </trkpt>
      <trkpt lat="48.78713" lon="2.29849">
        <ele>127.8</ele>
        <time>2015-04-20T19:21:33.016Z</time>
      </trkpt>
      <trkpt lat="48.7871" lon="2.29856">
        <ele>127.7</ele>
        <time>2015-04-20T19:21:34.028Z</time>
      </trkpt>
      <trkpt lat="48.78708" lon="2.29863">
        <ele>127.5</ele>
        <time>2015-04-20T19:21:35.067Z</time>
      </trkpt>
      <trkpt lat="48.78705" lon="2.2987">
        <ele>127.5</ele>
        <time>2015-04-20T19:21:36.079Z</time>
      </trkpt>
      <trkpt lat="48.78703" lon="2.29877">
        <ele>127.7</ele>
        <time>2015-04-20T19:21:36.998Z</time>
      </trkpt>
      <trkpt lat="48.787" lon="2.29884">
        <ele>127.5</ele>
        <time>2015-04-20T19:21:38.014Z</time>
      </trkpt>
      <trkpt lat="48.78698" lon="2.29891">
        <ele>127.1</ele>
        <time>2015-04-20T19:21:39.056Z</time>
      </trkpt>
      <trkpt lat="48.78696" lon="2.29898">
        <ele>127.5</ele>
        <time>2015-04-20T19:21:40.059Z</time>
      </trkpt>
      <trkpt lat="48.78694" lon="2.29905">
        <ele>127.2</ele>
        <time>2015-04-20T19:21:41.097Z</time>
      </trkpt>
      <trkpt lat="48.78692" lon="2.29914">
        <ele>126.6</ele>
        <time>2015-04-20T19:21:42.095Z</time>
      </trkpt>
      <trkpt lat="48.7869" lon="2.29923">
        <ele>126.1</ele>
        <time>2015-04-20T19:21:43.012Z</time>
      </trkpt>
      <trkpt lat="48.78688" lon="2.29933">
        <ele>126</ele>
        <time>2015-04-20T19:21:44.003Z</time>
      </trkpt>
      <trkpt lat="48.78686" lon="2.29942">
        <ele>125.9</ele>
        <time>2015-04-20T19:21:45.036Z</time>
      </trkpt>
      <trkpt lat="48.78685" lon="2.29951">
        <ele>125.6</ele>
        <time>2015-04-20T19:21:46.048Z</time>
      </trkpt>
      <trkpt lat="48.78684" lon="2.29959">
        <ele>125.1</ele>
        <time>2015-04-20T19:21:47.061Z</time>
      </trkpt>
      <trkpt lat="48.78683" lon="2.29968">
        <ele>124.6</ele>
        <time>2015-04-20T19:21:48.065Z</time>
      </trkpt>
      <trkpt lat="48.78682" lon="2.29977">
        <ele>124.3</ele>
        <time>2015-04-20T19:21:48.998Z</time>
      </trkpt>
      <trkpt lat="48.78681" lon="2.29985">
        <ele>123.7</ele>
        <time>2015-04-20T19:21:50.101Z</time>
      </trkpt>
      <trkpt lat="48.78679" lon="2.29994">
        <ele>123.2</ele>
        <time>2015-04-20T19:21:51.123Z</time>
      </trkpt>
      <trkpt lat="48.78678" lon="2.30003">
        <ele>122.9</ele>
        <time>2015-04-20T19:21:51.992Z</time>
      </trkpt>
      <trkpt lat="48.78677" lon="2.3001">
        <ele>122.8</ele>
        <time>2015-04-20T19:21:53.001Z</time>
      </trkpt>
      <trkpt lat="48.78676" lon="2.30017">
        <ele>122.7</ele>
        <time>2015-04-20T19:21:54.015Z</time>
      </trkpt>
      <trkpt lat="48.78674" lon="2.30025">
        <ele>122.6</ele>
        <time>2015-04-20T19:21:55.091Z</time>
      </trkpt>
      <trkpt lat="48.78672" lon="2.30032">
        <ele>122.4</ele>
        <time>2015-04-20T19:21:56.012Z</time>
      </trkpt>
      <trkpt lat="48.7867" lon="2.3004">
        <ele>122.4</ele>
        <time>2015-04-20T19:21:57.109Z</time>
      </trkpt>
      <trkpt lat="48.78669" lon="2.30048">
        <ele>122.4</ele>
        <time>2015-04-20T19:21:58.006Z</time>
      </trkpt>
      <trkpt lat="48.78667" lon="2.30055">
        <ele>122.2</ele>
        <time>2015-04-20T19:21:59.072Z</time>
      </trkpt>
      <trkpt lat="48.78665" lon="2.30064">
        <ele>122.2</ele>
        <time>2015-04-20T19:21:59.985Z</time>
      </trkpt>
      <trkpt lat="48.78662" lon="2.30073">
        <ele>122.1</ele>
        <time>2015-04-20T19:22:01.023Z</time>
      </trkpt>
      <trkpt lat="48.7866" lon="2.3008">
        <ele>122.1</ele>
        <time>2015-04-20T19:22:02.048Z</time>
      </trkpt>
      <trkpt lat="48.78657" lon="2.30087">
        <ele>121.8</ele>
        <time>2015-04-20T19:22:03.059Z</time>
      </trkpt>
      <trkpt lat="48.78654" lon="2.30095">
        <ele>121.7</ele>
        <time>2015-04-20T19:22:04.087Z</time>
      </trkpt>
      <trkpt lat="48.7865" lon="2.30102">
        <ele>121.1</ele>
        <time>2015-04-20T19:22:04.995Z</time>
      </trkpt>
      <trkpt lat="48.78647" lon="2.30109">
        <ele>120.5</ele>
        <time>2015-04-20T19:22:06.008Z</time>
      </trkpt>
      <trkpt lat="48.78645" lon="2.30117">
        <ele>120.5</ele>
        <time>2015-04-20T19:22:07.029Z</time>
      </trkpt>
      <trkpt lat="48.78642" lon="2.30125">
        <ele>120.2</ele>
        <time>2015-04-20T19:22:08.036Z</time>
      </trkpt>
      <trkpt lat="48.78638" lon="2.30131">
        <ele>119.8</ele>
        <time>2015-04-20T19:22:09.069Z</time>
      </trkpt>
      <trkpt lat="48.78635" lon="2.30139">
        <ele>119.9</ele>
        <time>2015-04-20T19:22:10.072Z</time>
      </trkpt>
      <trkpt lat="48.78632" lon="2.30147">
        <ele>119.5</ele>
        <time>2015-04-20T19:22:11.105Z</time>
      </trkpt>
      <trkpt lat="48.78629" lon="2.30155">
        <ele>119.4</ele>
        <time>2015-04-20T19:22:11.989Z</time>
      </trkpt>
      <trkpt lat="48.78625" lon="2.30161">
        <ele>119.6</ele>
        <time>2015-04-20T19:22:12.991Z</time>
      </trkpt>
      <trkpt lat="48.7862" lon="2.30168">
        <ele>118.8</ele>
        <time>2015-04-20T19:22:13.993Z</time>
      </trkpt>
      <trkpt lat="48.78617" lon="2.30176">
        <ele>118.6</ele>
        <time>2015-04-20T19:22:15.019Z</time>
      </trkpt>
      <trkpt lat="48.78614" lon="2.30185">
        <ele>118.4</ele>
        <time>2015-04-20T19:22:16.070Z</time>
      </trkpt>
      <trkpt lat="48.78612" lon="2.30193">
        <ele>118.6</ele>
        <time>2015-04-20T19:22:17.072Z</time>
      </trkpt>
      <trkpt lat="48.78609" lon="2.30201">
        <ele>118.6</ele>
        <time>2015-04-20T19:22:18.090Z</time>
      </trkpt>
      <trkpt lat="48.78605" lon="2.30209">
        <ele>118.3</ele>
        <time>2015-04-20T19:22:19.002Z</time>
      </trkpt>
      <trkpt lat="48.78602" lon="2.30217">
        <ele>118.3</ele>
        <time>2015-04-20T19:22:20.010Z</time>
      </trkpt>
      <trkpt lat="48.78598" lon="2.30225">
        <ele>117.8</ele>
        <time>2015-04-20T19:22:21.031Z</time>
      </trkpt>
      <trkpt lat="48.78595" lon="2.30233">
        <ele>117.2</ele>
        <time>2015-04-20T19:22:22.046Z</time>
      </trkpt>
      <trkpt lat="48.78592" lon="2.30242">
        <ele>117</ele>
        <time>2015-04-20T19:22:23.062Z</time>
      </trkpt>
      <trkpt lat="48.78589" lon="2.3025">
        <ele>116.3</ele>
        <time>2015-04-20T19:22:24.067Z</time>
      </trkpt>
      <trkpt lat="48.78586" lon="2.30262">
        <ele>115.8</ele>
        <time>2015-04-20T19:22:26.013Z</time>
      </trkpt>
      <trkpt lat="48.78584" lon="2.30267">
        <ele>115.8</ele>
        <time>2015-04-20T19:22:27.084Z</time>
      </trkpt>
      <trkpt lat="48.78584" lon="2.30277">
        <ele>115.9</ele>
        <time>2015-04-20T19:22:29.016Z</time>
      </trkpt>
      <trkpt lat="48.78583" lon="2.30282">
        <ele>115.9</ele>
        <time>2015-04-20T19:22:30.038Z</time>
      </trkpt>
      <trkpt lat="48.78577" lon="2.3029">
        <ele>116.6</ele>
        <time>2015-04-20T19:22:34.004Z</time>
      </trkpt>
      <trkpt lat="48.78576" lon="2.3029">
        <ele>116.7</ele>
        <time>2015-04-20T19:22:35.050Z</time>
      </trkpt>
      <trkpt lat="48.78567" lon="2.30291">
        <ele>113.6</ele>
        <time>2015-04-20T19:23:20.056Z</time>
      </trkpt>
      <trkpt lat="48.78565" lon="2.30292">
        <ele>113.8</ele>
        <time>2015-04-20T19:23:21.097Z</time>
      </trkpt>
      <trkpt lat="48.78557" lon="2.30298">
        <ele>114.6</ele>
        <time>2015-04-20T19:23:24.020Z</time>
      </trkpt>
      <trkpt lat="48.78555" lon="2.303">
        <ele>114.7</ele>
        <time>2015-04-20T19:23:25.031Z</time>
      </trkpt>
      <trkpt lat="48.78546" lon="2.30304">
        <ele>115</ele>
        <time>2015-04-20T19:23:28.092Z</time>
      </trkpt>
      <trkpt lat="48.78544" lon="2.30305">
        <ele>115</ele>
        <time>2015-04-20T19:23:28.989Z</time>
      </trkpt>
      <trkpt lat="48.78538" lon="2.30313">
        <ele>114.6</ele>
        <time>2015-04-20T19:23:32.050Z</time>
      </trkpt>
      <trkpt lat="48.78536" lon="2.30317">
        <ele>114.5</ele>
        <time>2015-04-20T19:23:33.065Z</time>
      </trkpt>
      <trkpt lat="48.78535" lon="2.3033">
        <ele>115</ele>
        <time>2015-04-20T19:23:35.992Z</time>
      </trkpt>
      <trkpt lat="48.78534" lon="2.30335">
        <ele>115</ele>
        <time>2015-04-20T19:23:37.008Z</time>
      </trkpt>
      <trkpt lat="48.78532" lon="2.30344">
        <ele>114.9</ele>
        <time>2015-04-20T19:23:39.021Z</time>
      </trkpt>
      <trkpt lat="48.78532" lon="2.30349">
        <ele>114.8</ele>
        <time>2015-04-20T19:23:40.026Z</time>
      </trkpt>
      <trkpt lat="48.7853" lon="2.30362">
        <ele>114.9</ele>
        <time>2015-04-20T19:23:42.000Z</time>
      </trkpt>
      <trkpt lat="48.78529" lon="2.3037">
        <ele>115.1</ele>
        <time>2015-04-20T19:23:43.028Z</time>
      </trkpt>
      <trkpt lat="48.78528" lon="2.30377">
        <ele>114.8</ele>
        <time>2015-04-20T19:23:44.004Z</time>
      </trkpt>
      <trkpt lat="48.78526" lon="2.30383">
        <ele>114.7</ele>
        <time>2015-04-20T19:23:45.000Z</time>
      </trkpt>
      <trkpt lat="48.78524" lon="2.3039">
        <ele>114.7</ele>
        <time>2015-04-20T19:23:46.070Z</time>
      </trkpt>
      <trkpt lat="48.78523" lon="2.30397">
        <ele>114.7</ele>
        <time>2015-04-20T19:23:46.998Z</time>
      </trkpt>
      <trkpt lat="48.78522" lon="2.30404">
        <ele>114.5</ele>
        <time>2015-04-20T19:23:47.999Z</time>
      </trkpt>
      <trkpt lat="48.78522" lon="2.30412">
        <ele>114.6</ele>
        <time>2015-04-20T19:23:49.020Z</time>
      </trkpt>
      <trkpt lat="48.78521" lon="2.30419">
        <ele>114.7</ele>
        <time>2015-04-20T19:23:50.028Z</time>
      </trkpt>
      <trkpt lat="48.7852" lon="2.30426">
        <ele>114.7</ele>
        <time>2015-04-20T19:23:51.049Z</time>
      </trkpt>
      <trkpt lat="48.78519" lon="2.30439">
        <ele>114.7</ele>
        <time>2015-04-20T19:23:53.065Z</time>
      </trkpt>
      <trkpt lat="48.78519" lon="2.30447">
        <ele>114.7</ele>
        <time>2015-04-20T19:23:54.012Z</time>
      </trkpt>
      <trkpt lat="48.78518" lon="2.30455">
        <ele>114.9</ele>
        <time>2015-04-20T19:23:55.059Z</time>
      </trkpt>
      <trkpt lat="48.78517" lon="2.30463">
        <ele>114.8</ele>
        <time>2015-04-20T19:23:56.066Z</time>
      </trkpt>
      <trkpt lat="48.78517" lon="2.30471">
        <ele>114.7</ele>
        <time>2015-04-20T19:23:57.078Z</time>
      </trkpt>
      <trkpt lat="48.78516" lon="2.30477">
        <ele>114.6</ele>
        <time>2015-04-20T19:23:57.991Z</time>
      </trkpt>
      <trkpt lat="48.78514" lon="2.30484">
        <ele>114.7</ele>
        <time>2015-04-20T19:23:59.020Z</time>
      </trkpt>
      <trkpt lat="48.78513" lon="2.30491">
        <ele>114.6</ele>
        <time>2015-04-20T19:24:00.001Z</time>
      </trkpt>
      <trkpt lat="48.78512" lon="2.30499">
        <ele>114.3</ele>
        <time>2015-04-20T19:24:01.019Z</time>
      </trkpt>
      <trkpt lat="48.78512" lon="2.30506">
        <ele>114.3</ele>
        <time>2015-04-20T19:24:02.030Z</time>
      </trkpt>
      <trkpt lat="48.78511" lon="2.30513">
        <ele>113.4</ele>
        <time>2015-04-20T19:24:03.039Z</time>
      </trkpt>
      <trkpt lat="48.7851" lon="2.30521">
        <ele>113</ele>
        <time>2015-04-20T19:24:04.044Z</time>
      </trkpt>
      <trkpt lat="48.78509" lon="2.30527">
        <ele>112.6</ele>
        <time>2015-04-20T19:24:05.059Z</time>
      </trkpt>
      <trkpt lat="48.78508" lon="2.30534">
        <ele>112.5</ele>
        <time>2015-04-20T19:24:06.124Z</time>
      </trkpt>
      <trkpt lat="48.78507" lon="2.30541">
        <ele>112.5</ele>
        <time>2015-04-20T19:24:06.995Z</time>
      </trkpt>
      <trkpt lat="48.78505" lon="2.30549">
        <ele>112.4</ele>
        <time>2015-04-20T19:24:08.030Z</time>
      </trkpt>
      <trkpt lat="48.78504" lon="2.30556">
        <ele>112.2</ele>
        <time>2015-04-20T19:24:09.039Z</time>
      </trkpt>
      <trkpt lat="48.78504" lon="2.30565">
        <ele>112</ele>
        <time>2015-04-20T19:24:10.044Z</time>
      </trkpt>
      <trkpt lat="48.78503" lon="2.30574">
        <ele>112.1</ele>
        <time>2015-04-20T19:24:11.074Z</time>
      </trkpt>
      <trkpt lat="48.78502" lon="2.30583">
        <ele>111.7</ele>
        <time>2015-04-20T19:24:12.074Z</time>
      </trkpt>
      <trkpt lat="48.78502" lon="2.30591">
        <ele>111.7</ele>
        <time>2015-04-20T19:24:12.968Z</time>
      </trkpt>
      <trkpt lat="48.785" lon="2.30598">
        <ele>111.5</ele>
        <time>2015-04-20T19:24:13.989Z</time>
      </trkpt>
      <trkpt lat="48.785" lon="2.30606">
        <ele>111.3</ele>
        <time>2015-04-20T19:24:15.032Z</time>
      </trkpt>
      <trkpt lat="48.78499" lon="2.30613">
        <ele>111.2</ele>
        <time>2015-04-20T19:24:16.047Z</time>
      </trkpt>
      <trkpt lat="48.78498" lon="2.30621">
        <ele>111.6</ele>
        <time>2015-04-20T19:24:17.067Z</time>
      </trkpt>
      <trkpt lat="48.78497" lon="2.30629">
        <ele>111.3</ele>
        <time>2015-04-20T19:24:18.072Z</time>
      </trkpt>
      <trkpt lat="48.78496" lon="2.30636">
        <ele>111.4</ele>
        <time>2015-04-20T19:24:18.985Z</time>
      </trkpt>
      <trkpt lat="48.78496" lon="2.30644">
        <ele>111.3</ele>
        <time>2015-04-20T19:24:19.988Z</time>
      </trkpt>
      <trkpt lat="48.78496" lon="2.30651">
        <ele>111.4</ele>
        <time>2015-04-20T19:24:21.011Z</time>
      </trkpt>
      <trkpt lat="48.78496" lon="2.30658">
        <ele>111.2</ele>
        <time>2015-04-20T19:24:22.021Z</time>
      </trkpt>
      <trkpt lat="48.78496" lon="2.30665">
        <ele>111</ele>
        <time>2015-04-20T19:24:23.039Z</time>
      </trkpt>
      <trkpt lat="48.78497" lon="2.30674">
        <ele>111.1</ele>
        <time>2015-04-20T19:24:24.100Z</time>
      </trkpt>
      <trkpt lat="48.78497" lon="2.30683">
        <ele>111.1</ele>
        <time>2015-04-20T19:24:24.975Z</time>
      </trkpt>
      <trkpt lat="48.78498" lon="2.30691">
        <ele>110.7</ele>
        <time>2015-04-20T19:24:25.983Z</time>
      </trkpt>
      <trkpt lat="48.78498" lon="2.30698">
        <ele>110.6</ele>
        <time>2015-04-20T19:24:27.010Z</time>
      </trkpt>
      <trkpt lat="48.78497" lon="2.30705">
        <ele>110.8</ele>
        <time>2015-04-20T19:24:28.012Z</time>
      </trkpt>
      <trkpt lat="48.78497" lon="2.30713">
        <ele>110.5</ele>
        <time>2015-04-20T19:24:29.045Z</time>
      </trkpt>
      <trkpt lat="48.78496" lon="2.30721">
        <ele>110.3</ele>
        <time>2015-04-20T19:24:30.056Z</time>
      </trkpt>
      <trkpt lat="48.78496" lon="2.30729">
        <ele>110.4</ele>
        <time>2015-04-20T19:24:30.975Z</time>
      </trkpt>
      <trkpt lat="48.78495" lon="2.30737">
        <ele>110.3</ele>
        <time>2015-04-20T19:24:31.994Z</time>
      </trkpt>
      <trkpt lat="48.78494" lon="2.30746">
        <ele>110.1</ele>
        <time>2015-04-20T19:24:33.018Z</time>
      </trkpt>
      <trkpt lat="48.78493" lon="2.30754">
        <ele>110</ele>
        <time>2015-04-20T19:24:34.020Z</time>
      </trkpt>
      <trkpt lat="48.78494" lon="2.30762">
        <ele>109.6</ele>
        <time>2015-04-20T19:24:35.046Z</time>
      </trkpt>
      <trkpt lat="48.78493" lon="2.3077">
        <ele>109.9</ele>
        <time>2015-04-20T19:24:36.044Z</time>
      </trkpt>
      <trkpt lat="48.78493" lon="2.30779">
        <ele>109.9</ele>
        <time>2015-04-20T19:24:37.064Z</time>
      </trkpt>
      <trkpt lat="48.78492" lon="2.30787">
        <ele>110</ele>
        <time>2015-04-20T19:24:37.976Z</time>
      </trkpt>
      <trkpt lat="48.78492" lon="2.30795">
        <ele>110</ele>
        <time>2015-04-20T19:24:39.009Z</time>
      </trkpt>
      <trkpt lat="48.78492" lon="2.30804">
        <ele>110.1</ele>
        <time>2015-04-20T19:24:40.022Z</time>
      </trkpt>
      <trkpt lat="48.78492" lon="2.30812">
        <ele>109.8</ele>
        <time>2015-04-20T19:24:41.023Z</time>
      </trkpt>
      <trkpt lat="48.78493" lon="2.30821">
        <ele>109.1</ele>
        <time>2015-04-20T19:24:42.031Z</time>
      </trkpt>
      <trkpt lat="48.78493" lon="2.30829">
        <ele>109</ele>
        <time>2015-04-20T19:24:43.040Z</time>
      </trkpt>
      <trkpt lat="48.78493" lon="2.30837">
        <ele>108.8</ele>
        <time>2015-04-20T19:24:44.063Z</time>
      </trkpt>
      <trkpt lat="48.78493" lon="2.30845">
        <ele>108.6</ele>
        <time>2015-04-20T19:24:45.090Z</time>
      </trkpt>
      <trkpt lat="48.78493" lon="2.30853">
        <ele>108.6</ele>
        <time>2015-04-20T19:24:45.993Z</time>
      </trkpt>
      <trkpt lat="48.78494" lon="2.30861">
        <ele>108.6</ele>
        <time>2015-04-20T19:24:47.006Z</time>
      </trkpt>
      <trkpt lat="48.78494" lon="2.30869">
        <ele>108.4</ele>
        <time>2015-04-20T19:24:48.016Z</time>
      </trkpt>
      <trkpt lat="48.78494" lon="2.30877">
        <ele>108.1</ele>
        <time>2015-04-20T19:24:49.026Z</time>
      </trkpt>
      <trkpt lat="48.78494" lon="2.30884">
        <ele>108.4</ele>
        <time>2015-04-20T19:24:50.045Z</time>
      </trkpt>
      <trkpt lat="48.78494" lon="2.30892">
        <ele>108.6</ele>
        <time>2015-04-20T19:24:51.058Z</time>
      </trkpt>
      <trkpt lat="48.78494" lon="2.309">
        <ele>108.4</ele>
        <time>2015-04-20T19:24:52.074Z</time>
      </trkpt>
      <trkpt lat="48.78493" lon="2.30907">
        <ele>108.3</ele>
        <time>2015-04-20T19:24:53.081Z</time>
      </trkpt>
      <trkpt lat="48.78493" lon="2.30914">
        <ele>108.3</ele>
        <time>2015-04-20T19:24:53.981Z</time>
      </trkpt>
      <trkpt lat="48.78492" lon="2.30927">
        <ele>108.2</ele>
        <time>2015-04-20T19:24:55.996Z</time>
      </trkpt>
      <trkpt lat="48.78491" lon="2.30933">
        <ele>107.8</ele>
        <time>2015-04-20T19:24:57.027Z</time>
      </trkpt>
      <trkpt lat="48.78489" lon="2.30946">
        <ele>106.6</ele>
        <time>2015-04-20T19:25:01.026Z</time>
      </trkpt>
      <trkpt lat="48.78489" lon="2.30948">
        <ele>106.2</ele>
        <time>2015-04-20T19:25:02.020Z</time>
      </trkpt>
      <trkpt lat="48.7849" lon="2.3096">
        <ele>105.5</ele>
        <time>2015-04-20T19:25:09.099Z</time>
      </trkpt>
      <trkpt lat="48.7849" lon="2.30963">
        <ele>105.8</ele>
        <time>2015-04-20T19:25:10.114Z</time>
      </trkpt>
      <trkpt lat="48.78491" lon="2.30972">
        <ele>105.6</ele>
        <time>2015-04-20T19:25:12.032Z</time>
      </trkpt>
      <trkpt lat="48.78492" lon="2.30977">
        <ele>105.8</ele>
        <time>2015-04-20T19:25:13.063Z</time>
      </trkpt>
      <trkpt lat="48.78495" lon="2.30987">
        <ele>105.6</ele>
        <time>2015-04-20T19:25:15.058Z</time>
      </trkpt>
      <trkpt lat="48.78496" lon="2.30992">
        <ele>105.5</ele>
        <time>2015-04-20T19:25:16.059Z</time>
      </trkpt>
      <trkpt lat="48.785" lon="2.31001">
        <ele>105.5</ele>
        <time>2015-04-20T19:25:19.056Z</time>
      </trkpt>
      <trkpt lat="48.78502" lon="2.31004">
        <ele>105.4</ele>
        <time>2015-04-20T19:25:20.078Z</time>
      </trkpt>
      <trkpt lat="48.7851" lon="2.31009">
        <ele>105.9</ele>
        <time>2015-04-20T19:25:23.002Z</time>
      </trkpt>
      <trkpt lat="48.78512" lon="2.31012">
        <ele>106.2</ele>
        <time>2015-04-20T19:25:24.014Z</time>
      </trkpt>
      <trkpt lat="48.78517" lon="2.31016">
        <ele>106.8</ele>
        <time>2015-04-20T19:25:26.030Z</time>
      </trkpt>
      <trkpt lat="48.7852" lon="2.31018">
        <ele>106.7</ele>
        <time>2015-04-20T19:25:27.044Z</time>
      </trkpt>
      <trkpt lat="48.78525" lon="2.31025">
        <ele>107.1</ele>
        <time>2015-04-20T19:25:29.124Z</time>
      </trkpt>
      <trkpt lat="48.78528" lon="2.31029">
        <ele>107.6</ele>
        <time>2015-04-20T19:25:30.168Z</time>
      </trkpt>
      <trkpt lat="48.78535" lon="2.31036">
        <ele>107.8</ele>
        <time>2015-04-20T19:25:32.128Z</time>
      </trkpt>
      <trkpt lat="48.78539" lon="2.31039">
        <ele>107.4</ele>
        <time>2015-04-20T19:25:33.137Z</time>
      </trkpt>
      <trkpt lat="48.78545" lon="2.31047">
        <ele>107.4</ele>
        <time>2015-04-20T19:25:35.016Z</time>
      </trkpt>
      <trkpt lat="48.78548" lon="2.31051">
        <ele>106.9</ele>
        <time>2015-04-20T19:25:36.027Z</time>
      </trkpt>
      <trkpt lat="48.78554" lon="2.3106">
        <ele>107.6</ele>
        <time>2015-04-20T19:25:38.048Z</time>
      </trkpt>
      <trkpt lat="48.78557" lon="2.31064">
        <ele>107.8</ele>
        <time>2015-04-20T19:25:39.115Z</time>
      </trkpt>
      <trkpt lat="48.78562" lon="2.31075">
        <ele>108</ele>
        <time>2015-04-20T19:25:40.992Z</time>
      </trkpt>
      <trkpt lat="48.78565" lon="2.31079">
        <ele>107.7</ele>
        <time>2015-04-20T19:25:41.996Z</time>
      </trkpt>
      <trkpt lat="48.78571" lon="2.31087">
        <ele>108</ele>
        <time>2015-04-20T19:25:44.053Z</time>
      </trkpt>
      <trkpt lat="48.78575" lon="2.31091">
        <ele>108.4</ele>
        <time>2015-04-20T19:25:45.056Z</time>
      </trkpt>
      <trkpt lat="48.78578" lon="2.31096">
        <ele>108.7</ele>
        <time>2015-04-20T19:25:45.977Z</time>
      </trkpt>
      <trkpt lat="48.78582" lon="2.311">
        <ele>108.9</ele>
        <time>2015-04-20T19:25:47.090Z</time>
      </trkpt>
      <trkpt lat="48.78588" lon="2.31108">
        <ele>108.8</ele>
        <time>2015-04-20T19:25:49.013Z</time>
      </trkpt>
      <trkpt lat="48.78591" lon="2.31112">
        <ele>109.1</ele>
        <time>2015-04-20T19:25:50.020Z</time>
      </trkpt>
      <trkpt lat="48.78598" lon="2.3112">
        <ele>109.5</ele>
        <time>2015-04-20T19:25:52.199Z</time>
      </trkpt>
      <trkpt lat="48.78601" lon="2.31124">
        <ele>109.8</ele>
        <time>2015-04-20T19:25:53.022Z</time>
      </trkpt>
      <trkpt lat="48.78606" lon="2.31131">
        <ele>110.9</ele>
        <time>2015-04-20T19:25:55.051Z</time>
      </trkpt>
      <trkpt lat="48.78608" lon="2.31135">
        <ele>111</ele>
        <time>2015-04-20T19:25:56.045Z</time>
      </trkpt>
      <trkpt lat="48.78612" lon="2.31144">
        <ele>111.5</ele>
        <time>2015-04-20T19:25:58.080Z</time>
      </trkpt>
      <trkpt lat="48.78615" lon="2.31147">
        <ele>111.7</ele>
        <time>2015-04-20T19:25:59.088Z</time>
      </trkpt>
      <trkpt lat="48.78619" lon="2.31152">
        <ele>112</ele>
        <time>2015-04-20T19:26:00.114Z</time>
      </trkpt>
      <trkpt lat="48.78623" lon="2.31158">
        <ele>112.1</ele>
        <time>2015-04-20T19:26:01.022Z</time>
      </trkpt>
      <trkpt lat="48.78627" lon="2.31162">
        <ele>112.1</ele>
        <time>2015-04-20T19:26:02.045Z</time>
      </trkpt>
      <trkpt lat="48.78632" lon="2.31167">
        <ele>112.2</ele>
        <time>2015-04-20T19:26:03.101Z</time>
      </trkpt>
      <trkpt lat="48.78635" lon="2.31173">
        <ele>112.6</ele>
        <time>2015-04-20T19:26:04.046Z</time>
      </trkpt>
      <trkpt lat="48.78639" lon="2.31178">
        <ele>112.9</ele>
        <time>2015-04-20T19:26:04.980Z</time>
      </trkpt>
      <trkpt lat="48.78642" lon="2.31183">
        <ele>112.9</ele>
        <time>2015-04-20T19:26:06.426Z</time>
      </trkpt>
      <trkpt lat="48.78647" lon="2.31188">
        <ele>112.3</ele>
        <time>2015-04-20T19:26:07.045Z</time>
      </trkpt>
      <trkpt lat="48.78652" lon="2.31191">
        <ele>112.5</ele>
        <time>2015-04-20T19:26:08.055Z</time>
      </trkpt>
      <trkpt lat="48.78657" lon="2.31194">
        <ele>112.8</ele>
        <time>2015-04-20T19:26:09.059Z</time>
      </trkpt>
      <trkpt lat="48.78662" lon="2.31198">
        <ele>113.1</ele>
        <time>2015-04-20T19:26:10.063Z</time>
      </trkpt>
      <trkpt lat="48.78666" lon="2.31202">
        <ele>113.4</ele>
        <time>2015-04-20T19:26:11.077Z</time>
      </trkpt>
      <trkpt lat="48.78671" lon="2.31205">
        <ele>113.4</ele>
        <time>2015-04-20T19:26:12.021Z</time>
      </trkpt>
      <trkpt lat="48.78676" lon="2.31209">
        <ele>113.5</ele>
        <time>2015-04-20T19:26:13.007Z</time>
      </trkpt>
      <trkpt lat="48.7868" lon="2.31214">
        <ele>113.7</ele>
        <time>2015-04-20T19:26:14.036Z</time>
      </trkpt>
      <trkpt lat="48.78685" lon="2.31218">
        <ele>113.8</ele>
        <time>2015-04-20T19:26:15.123Z</time>
      </trkpt>
      <trkpt lat="48.7869" lon="2.31222">
        <ele>113.8</ele>
        <time>2015-04-20T19:26:16.637Z</time>
      </trkpt>
      <trkpt lat="48.78694" lon="2.31227">
        <ele>113.9</ele>
        <time>2015-04-20T19:26:17.003Z</time>
      </trkpt>
      <trkpt lat="48.78699" lon="2.31232">
        <ele>114.1</ele>
        <time>2015-04-20T19:26:18.006Z</time>
      </trkpt>
      <trkpt lat="48.78704" lon="2.31236">
        <ele>114.3</ele>
        <time>2015-04-20T19:26:19.011Z</time>
      </trkpt>
      <trkpt lat="48.78709" lon="2.3124">
        <ele>114.3</ele>
        <time>2015-04-20T19:26:20.018Z</time>
      </trkpt>
      <trkpt lat="48.78713" lon="2.31244">
        <ele>114.4</ele>
        <time>2015-04-20T19:26:21.047Z</time>
      </trkpt>
      <trkpt lat="48.78719" lon="2.31246">
        <ele>114.7</ele>
        <time>2015-04-20T19:26:22.158Z</time>
      </trkpt>
      <trkpt lat="48.78725" lon="2.3125">
        <ele>115.1</ele>
        <time>2015-04-20T19:26:23.003Z</time>
      </trkpt>
      <trkpt lat="48.78731" lon="2.31253">
        <ele>115.3</ele>
        <time>2015-04-20T19:26:24.001Z</time>
      </trkpt>
      <trkpt lat="48.78738" lon="2.31257">
        <ele>115.9</ele>
        <time>2015-04-20T19:26:24.995Z</time>
      </trkpt>
      <trkpt lat="48.78746" lon="2.3126">
        <ele>116.5</ele>
        <time>2015-04-20T19:26:26.004Z</time>
      </trkpt>
      <trkpt lat="48.78752" lon="2.31263">
        <ele>117.2</ele>
        <time>2015-04-20T19:26:27.072Z</time>
      </trkpt>
      <trkpt lat="48.78759" lon="2.31265">
        <ele>117.8</ele>
        <time>2015-04-20T19:26:28.062Z</time>
      </trkpt>
      <trkpt lat="48.78765" lon="2.31267">
        <ele>118.4</ele>
        <time>2015-04-20T19:26:29.069Z</time>
      </trkpt>
      <trkpt lat="48.78772" lon="2.31266">
        <ele>119.2</ele>
        <time>2015-04-20T19:26:30.088Z</time>
      </trkpt>
      <trkpt lat="48.78778" lon="2.31267">
        <ele>119.8</ele>
        <time>2015-04-20T19:26:30.987Z</time>
      </trkpt>
      <trkpt lat="48.78785" lon="2.31269">
        <ele>120.5</ele>
        <time>2015-04-20T19:26:32.000Z</time>
      </trkpt>
      <trkpt lat="48.78791" lon="2.31272">
        <ele>121.4</ele>
        <time>2015-04-20T19:26:33.023Z</time>
      </trkpt>
      <trkpt lat="48.78798" lon="2.31274">
        <ele>122.3</ele>
        <time>2015-04-20T19:26:34.044Z</time>
      </trkpt>
      <trkpt lat="48.78804" lon="2.31276">
        <ele>122.9</ele>
        <time>2015-04-20T19:26:35.058Z</time>
      </trkpt>
      <trkpt lat="48.78809" lon="2.3128">
        <ele>123.3</ele>
        <time>2015-04-20T19:26:35.997Z</time>
      </trkpt>
      <trkpt lat="48.78813" lon="2.31286">
        <ele>123.3</ele>
        <time>2015-04-20T19:26:36.989Z</time>
      </trkpt>
      <trkpt lat="48.78816" lon="2.31293">
        <ele>123.6</ele>
        <time>2015-04-20T19:26:38.019Z</time>
      </trkpt>
      <trkpt lat="48.7882" lon="2.31301">
        <ele>123.7</ele>
        <time>2015-04-20T19:26:39.050Z</time>
      </trkpt>
      <trkpt lat="48.78826" lon="2.31304">
        <ele>124.4</ele>
        <time>2015-04-20T19:26:40.105Z</time>
      </trkpt>
      <trkpt lat="48.78832" lon="2.31306">
        <ele>124.9</ele>
        <time>2015-04-20T19:26:40.983Z</time>
      </trkpt>
      <trkpt lat="48.78837" lon="2.31311">
        <ele>125.5</ele>
        <time>2015-04-20T19:26:41.988Z</time>
      </trkpt>
      <trkpt lat="48.78843" lon="2.31315">
        <ele>126.4</ele>
        <time>2015-04-20T19:26:43.005Z</time>
      </trkpt>
      <trkpt lat="48.78848" lon="2.31321">
        <ele>126.9</ele>
        <time>2015-04-20T19:26:44.022Z</time>
      </trkpt>
      <trkpt lat="48.78852" lon="2.31328">
        <ele>127.7</ele>
        <time>2015-04-20T19:26:45.031Z</time>
      </trkpt>
      <trkpt lat="48.78858" lon="2.31331">
        <ele>128</ele>
        <time>2015-04-20T19:26:46.057Z</time>
      </trkpt>
      <trkpt lat="48.78864" lon="2.31334">
        <ele>128.7</ele>
        <time>2015-04-20T19:26:47.121Z</time>
      </trkpt>
      <trkpt lat="48.78868" lon="2.31338">
        <ele>128.6</ele>
        <time>2015-04-20T19:26:47.986Z</time>
      </trkpt>
      <trkpt lat="48.78875" lon="2.31342">
        <ele>129.3</ele>
        <time>2015-04-20T19:26:48.995Z</time>
      </trkpt>
      <trkpt lat="48.78879" lon="2.31348">
        <ele>129.7</ele>
        <time>2015-04-20T19:26:50.028Z</time>
      </trkpt>
      <trkpt lat="48.78883" lon="2.31354">
        <ele>129.9</ele>
        <time>2015-04-20T19:26:51.044Z</time>
      </trkpt>
      <trkpt lat="48.78887" lon="2.31358">
        <ele>130.3</ele>
        <time>2015-04-20T19:26:52.061Z</time>
      </trkpt>
      <trkpt lat="48.7889" lon="2.31363">
        <ele>130.8</ele>
        <time>2015-04-20T19:26:52.986Z</time>
      </trkpt>
      <trkpt lat="48.78893" lon="2.31368">
        <ele>130.8</ele>
        <time>2015-04-20T19:26:53.986Z</time>
      </trkpt>
      <trkpt lat="48.78897" lon="2.31372">
        <ele>130.1</ele>
        <time>2015-04-20T19:26:54.995Z</time>
      </trkpt>
      <trkpt lat="48.78902" lon="2.31381">
        <ele>129.6</ele>
        <time>2015-04-20T19:26:57.029Z</time>
      </trkpt>
      <trkpt lat="48.78902" lon="2.31385">
        <ele>129.8</ele>
        <time>2015-04-20T19:26:58.026Z</time>
      </trkpt>
      <trkpt lat="48.78905" lon="2.31395">
        <ele>131.5</ele>
        <time>2015-04-20T19:27:01.032Z</time>
      </trkpt>
      <trkpt lat="48.78905" lon="2.314">
        <ele>131.9</ele>
        <time>2015-04-20T19:27:02.022Z</time>
      </trkpt>
      <trkpt lat="48.78909" lon="2.31411">
        <ele>133.7</ele>
        <time>2015-04-20T19:27:05.070Z</time>
      </trkpt>
      <trkpt lat="48.78911" lon="2.31414">
        <ele>134.1</ele>
        <time>2015-04-20T19:27:06.023Z</time>
      </trkpt>
      <trkpt lat="48.78919" lon="2.31418">
        <ele>135.4</ele>
        <time>2015-04-20T19:27:09.106Z</time>
      </trkpt>
      <trkpt lat="48.78922" lon="2.31419">
        <ele>135.7</ele>
        <time>2015-04-20T19:27:09.997Z</time>
      </trkpt>
      <trkpt lat="48.78927" lon="2.31417">
        <ele>135.9</ele>
        <time>2015-04-20T19:27:11.022Z</time>
      </trkpt>
      <trkpt lat="48.78932" lon="2.31415">
        <ele>136.2</ele>
        <time>2015-04-20T19:27:12.033Z</time>
      </trkpt>
      <trkpt lat="48.78934" lon="2.31414">
        <ele>135</ele>
        <time>2015-04-20T19:27:54.028Z</time>
      </trkpt>
      <trkpt lat="48.78946" lon="2.31418">
        <ele>128.3</ele>
        <time>2015-04-20T19:27:55.065Z</time>
      </trkpt>
      <trkpt lat="48.78954" lon="2.31419">
        <ele>128.6</ele>
        <time>2015-04-20T19:27:58.995Z</time>
      </trkpt>
      <trkpt lat="48.78956" lon="2.31419">
        <ele>128.9</ele>
        <time>2015-04-20T19:27:59.997Z</time>
      </trkpt>
      <trkpt lat="48.78959" lon="2.3142">
        <ele>130.3</ele>
        <time>2015-04-20T19:28:46.990Z</time>
      </trkpt>
      <trkpt lat="48.7896" lon="2.31437">
        <ele>135.4</ele>
        <time>2015-04-20T19:28:48.021Z</time>
      </trkpt>
      <trkpt lat="48.78968" lon="2.31439">
        <ele>135.8</ele>
        <time>2015-04-20T19:28:51.053Z</time>
      </trkpt>
      <trkpt lat="48.78972" lon="2.31439">
        <ele>136.1</ele>
        <time>2015-04-20T19:28:52.076Z</time>
      </trkpt>
      <trkpt lat="48.78977" lon="2.3144">
        <ele>136.3</ele>
        <time>2015-04-20T19:28:52.974Z</time>
      </trkpt>
      <trkpt lat="48.78981" lon="2.31439">
        <ele>136.5</ele>
        <time>2015-04-20T19:28:53.988Z</time>
      </trkpt>
      <trkpt lat="48.78986" lon="2.31438">
        <ele>136.7</ele>
        <time>2015-04-20T19:28:54.996Z</time>
      </trkpt>
      <trkpt lat="48.7899" lon="2.31438">
        <ele>136.9</ele>
        <time>2015-04-20T19:28:56.007Z</time>
      </trkpt>
      <trkpt lat="48.78998" lon="2.3144">
        <ele>136.8</ele>
        <time>2015-04-20T19:28:58.045Z</time>
      </trkpt>
      <trkpt lat="48.79002" lon="2.3144">
        <ele>136.9</ele>
        <time>2015-04-20T19:28:59.058Z</time>
      </trkpt>
      <trkpt lat="48.79009" lon="2.31442">
        <ele>136.8</ele>
        <time>2015-04-20T19:29:00.981Z</time>
      </trkpt>
      <trkpt lat="48.79012" lon="2.31443">
        <ele>136.4</ele>
        <time>2015-04-20T19:29:02.063Z</time>
      </trkpt>
      <trkpt lat="48.7902" lon="2.31446">
        <ele>134.9</ele>
        <time>2015-04-20T19:29:03.988Z</time>
      </trkpt>
      <trkpt lat="48.79024" lon="2.31447">
        <ele>135</ele>
        <time>2015-04-20T19:29:04.991Z</time>
      </trkpt>
      <trkpt lat="48.79029" lon="2.31449">
        <ele>135.4</ele>
        <time>2015-04-20T19:29:06.041Z</time>
      </trkpt>
      <trkpt lat="48.79034" lon="2.31452">
        <ele>135.7</ele>
        <time>2015-04-20T19:29:07.087Z</time>
      </trkpt>
      <trkpt lat="48.7904" lon="2.31457">
        <ele>134.4</ele>
        <time>2015-04-20T19:29:07.994Z</time>
      </trkpt>
      <trkpt lat="48.79046" lon="2.31459">
        <ele>134</ele>
        <time>2015-04-20T19:29:09.019Z</time>
      </trkpt>
      <trkpt lat="48.79051" lon="2.31461">
        <ele>134</ele>
        <time>2015-04-20T19:29:10.056Z</time>
      </trkpt>
      <trkpt lat="48.79055" lon="2.31462">
        <ele>134.1</ele>
        <time>2015-04-20T19:29:11.046Z</time>
      </trkpt>
      <trkpt lat="48.79062" lon="2.31468">
        <ele>134.2</ele>
        <time>2015-04-20T19:29:13.059Z</time>
      </trkpt>
      <trkpt lat="48.79066" lon="2.31472">
        <ele>133.1</ele>
        <time>2015-04-20T19:29:14.087Z</time>
      </trkpt>
      <trkpt lat="48.79071" lon="2.31475">
        <ele>132.5</ele>
        <time>2015-04-20T19:29:15.022Z</time>
      </trkpt>
      <trkpt lat="48.79077" lon="2.31477">
        <ele>131.5</ele>
        <time>2015-04-20T19:29:16.024Z</time>
      </trkpt>
      <trkpt lat="48.79082" lon="2.31479">
        <ele>131</ele>
        <time>2015-04-20T19:29:17.034Z</time>
      </trkpt>
      <trkpt lat="48.79086" lon="2.3148">
        <ele>130.9</ele>
        <time>2015-04-20T19:29:18.054Z</time>
      </trkpt>
      <trkpt lat="48.79094" lon="2.31484">
        <ele>131.5</ele>
        <time>2015-04-20T19:29:19.964Z</time>
      </trkpt>
      <trkpt lat="48.791" lon="2.31485">
        <ele>132</ele>
        <time>2015-04-20T19:29:21.018Z</time>
      </trkpt>
      <trkpt lat="48.79107" lon="2.31486">
        <ele>132.1</ele>
        <time>2015-04-20T19:29:22.053Z</time>
      </trkpt>
      <trkpt lat="48.79113" lon="2.31488">
        <ele>132.2</ele>
        <time>2015-04-20T19:29:23.081Z</time>
      </trkpt>
      <trkpt lat="48.79118" lon="2.3149">
        <ele>132</ele>
        <time>2015-04-20T19:29:23.990Z</time>
      </trkpt>
      <trkpt lat="48.79124" lon="2.31494">
        <ele>130.9</ele>
        <time>2015-04-20T19:29:25.010Z</time>
      </trkpt>
      <trkpt lat="48.7913" lon="2.31496">
        <ele>130.3</ele>
        <time>2015-04-20T19:29:26.028Z</time>
      </trkpt>
      <trkpt lat="48.79135" lon="2.31498">
        <ele>129.3</ele>
        <time>2015-04-20T19:29:27.056Z</time>
      </trkpt>
      <trkpt lat="48.7914" lon="2.31501">
        <ele>128.9</ele>
        <time>2015-04-20T19:29:28.055Z</time>
      </trkpt>
      <trkpt lat="48.79144" lon="2.31502">
        <ele>128.3</ele>
        <time>2015-04-20T19:29:29.064Z</time>
      </trkpt>
      <trkpt lat="48.79149" lon="2.31503">
        <ele>128.3</ele>
        <time>2015-04-20T19:29:30.075Z</time>
      </trkpt>
      <trkpt lat="48.79154" lon="2.31506">
        <ele>127.8</ele>
        <time>2015-04-20T19:29:30.985Z</time>
      </trkpt>
      <trkpt lat="48.79158" lon="2.31508">
        <ele>127.8</ele>
        <time>2015-04-20T19:29:31.992Z</time>
      </trkpt>
      <trkpt lat="48.79162" lon="2.3151">
        <ele>128.1</ele>
        <time>2015-04-20T19:29:33.031Z</time>
      </trkpt>
      <trkpt lat="48.79167" lon="2.31514">
        <ele>128</ele>
        <time>2015-04-20T19:29:34.985Z</time>
      </trkpt>
      <trkpt lat="48.79171" lon="2.31517">
        <ele>128.5</ele>
        <time>2015-04-20T19:29:36.054Z</time>
      </trkpt>
      <trkpt lat="48.79179" lon="2.3152">
        <ele>128.6</ele>
        <time>2015-04-20T19:29:38.002Z</time>
      </trkpt>
      <trkpt lat="48.79185" lon="2.31522">
        <ele>129.1</ele>
        <time>2015-04-20T19:29:39.052Z</time>
      </trkpt>
      <trkpt lat="48.79188" lon="2.31525">
        <ele>128.7</ele>
        <time>2015-04-20T19:29:39.959Z</time>
      </trkpt>
      <trkpt lat="48.79193" lon="2.31528">
        <ele>127.9</ele>
        <time>2015-04-20T19:29:41.022Z</time>
      </trkpt>
      <trkpt lat="48.79201" lon="2.31532">
        <ele>127.5</ele>
        <time>2015-04-20T19:29:42.993Z</time>
      </trkpt>
      <trkpt lat="48.79204" lon="2.31534">
        <ele>127.4</ele>
        <time>2015-04-20T19:29:43.994Z</time>
      </trkpt>
      <trkpt lat="48.79213" lon="2.31538">
        <ele>127.5</ele>
        <time>2015-04-20T19:29:46.041Z</time>
      </trkpt>
      <trkpt lat="48.79217" lon="2.3154">
        <ele>127.8</ele>
        <time>2015-04-20T19:29:47.065Z</time>
      </trkpt>
      <trkpt lat="48.79222" lon="2.31543">
        <ele>127.7</ele>
        <time>2015-04-20T19:29:48.079Z</time>
      </trkpt>
      <trkpt lat="48.79226" lon="2.31546">
        <ele>126.7</ele>
        <time>2015-04-20T19:29:48.968Z</time>
      </trkpt>
      <trkpt lat="48.7923" lon="2.31549">
        <ele>126.1</ele>
        <time>2015-04-20T19:29:50.034Z</time>
      </trkpt>
      <trkpt lat="48.79235" lon="2.31552">
        <ele>125.9</ele>
        <time>2015-04-20T19:29:51.029Z</time>
      </trkpt>
      <trkpt lat="48.79243" lon="2.31556">
        <ele>126.4</ele>
        <time>2015-04-20T19:29:53.051Z</time>
      </trkpt>
      <trkpt lat="48.79246" lon="2.31558">
        <ele>126.7</ele>
        <time>2015-04-20T19:29:54.047Z</time>
      </trkpt>
      <trkpt lat="48.79253" lon="2.31561">
        <ele>127.2</ele>
        <time>2015-04-20T19:29:55.967Z</time>
      </trkpt>
      <trkpt lat="48.79255" lon="2.31563">
        <ele>127.9</ele>
        <time>2015-04-20T19:29:57.002Z</time>
      </trkpt>
      <trkpt lat="48.79261" lon="2.31566">
        <ele>128.5</ele>
        <time>2015-04-20T19:29:59.038Z</time>
      </trkpt>
      <trkpt lat="48.79264" lon="2.31566">
        <ele>128.4</ele>
        <time>2015-04-20T19:30:00.062Z</time>
      </trkpt>
      <trkpt lat="48.7927" lon="2.31569">
        <ele>128.6</ele>
        <time>2015-04-20T19:30:02.096Z</time>
      </trkpt>
      <trkpt lat="48.79274" lon="2.3157">
        <ele>128.6</ele>
        <time>2015-04-20T19:30:03.106Z</time>
      </trkpt>
      <trkpt lat="48.79281" lon="2.31573">
        <ele>128.7</ele>
        <time>2015-04-20T19:30:05.425Z</time>
      </trkpt>
      <trkpt lat="48.79283" lon="2.31575">
        <ele>128.5</ele>
        <time>2015-04-20T19:30:06.044Z</time>
      </trkpt>
      <trkpt lat="48.79288" lon="2.3158">
        <ele>128.2</ele>
        <time>2015-04-20T19:30:08.024Z</time>
      </trkpt>
      <trkpt lat="48.79292" lon="2.31585">
        <ele>127.2</ele>
        <time>2015-04-20T19:30:09.065Z</time>
      </trkpt>
      <trkpt lat="48.79299" lon="2.31593">
        <ele>126.3</ele>
        <time>2015-04-20T19:30:11.077Z</time>
      </trkpt>
      <trkpt lat="48.79302" lon="2.31596">
        <ele>126.3</ele>
        <time>2015-04-20T19:30:12.227Z</time>
      </trkpt>
      <trkpt lat="48.79309" lon="2.316">
        <ele>125.6</ele>
        <time>2015-04-20T19:30:14.030Z</time>
      </trkpt>
      <trkpt lat="48.79312" lon="2.31601">
        <ele>125.3</ele>
        <time>2015-04-20T19:30:15.056Z</time>
      </trkpt>
      <trkpt lat="48.79319" lon="2.31603">
        <ele>126.7</ele>
        <time>2015-04-20T19:30:17.058Z</time>
      </trkpt>
      <trkpt lat="48.79323" lon="2.31604">
        <ele>127.6</ele>
        <time>2015-04-20T19:30:18.077Z</time>
      </trkpt>
      <trkpt lat="48.7933" lon="2.31601">
        <ele>128.7</ele>
        <time>2015-04-20T19:36:02.037Z</time>
      </trkpt>
      <trkpt lat="48.79342" lon="2.31605">
        <ele>131.1</ele>
        <time>2015-04-20T19:36:03.044Z</time>
      </trkpt>
      <trkpt lat="48.7935" lon="2.3161">
        <ele>130.6</ele>
        <time>2015-04-20T19:36:07.996Z</time>
      </trkpt>
      <trkpt lat="48.79352" lon="2.31611">
        <ele>130.7</ele>
        <time>2015-04-20T19:36:09.015Z</time>
      </trkpt>
      <trkpt lat="48.79358" lon="2.31615">
        <ele>130.7</ele>
        <time>2015-04-20T19:36:12.052Z</time>
      </trkpt>
      <trkpt lat="48.79361" lon="2.31616">
        <ele>130.8</ele>
        <time>2015-04-20T19:36:13.004Z</time>
      </trkpt>
      <trkpt lat="48.79367" lon="2.31619">
        <ele>130.7</ele>
        <time>2015-04-20T19:36:15.023Z</time>
      </trkpt>
      <trkpt lat="48.79371" lon="2.31621">
        <ele>130.7</ele>
        <time>2015-04-20T19:36:16.026Z</time>
      </trkpt>
      <trkpt lat="48.79376" lon="2.31623">
        <ele>130.8</ele>
        <time>2015-04-20T19:36:17.016Z</time>
      </trkpt>
      <trkpt lat="48.79381" lon="2.31625">
        <ele>130.8</ele>
        <time>2015-04-20T19:36:18.027Z</time>
      </trkpt>
      <trkpt lat="48.79389" lon="2.31629">
        <ele>130.6</ele>
        <time>2015-04-20T19:36:20.016Z</time>
      </trkpt>
      <trkpt lat="48.79394" lon="2.31632">
        <ele>130.4</ele>
        <time>2015-04-20T19:36:21.039Z</time>
      </trkpt>
      <trkpt lat="48.79399" lon="2.31636">
        <ele>129.7</ele>
        <time>2015-04-20T19:36:22.045Z</time>
      </trkpt>
      <trkpt lat="48.79405" lon="2.31638">
        <ele>129.5</ele>
        <time>2015-04-20T19:36:23.063Z</time>
      </trkpt>
      <trkpt lat="48.79409" lon="2.31641">
        <ele>129.2</ele>
        <time>2015-04-20T19:36:24.092Z</time>
      </trkpt>
      <trkpt lat="48.79414" lon="2.31642">
        <ele>129.2</ele>
        <time>2015-04-20T19:36:24.993Z</time>
      </trkpt>
      <trkpt lat="48.79418" lon="2.31644">
        <ele>129.2</ele>
        <time>2015-04-20T19:36:26.001Z</time>
      </trkpt>
      <trkpt lat="48.79423" lon="2.31645">
        <ele>129.3</ele>
        <time>2015-04-20T19:36:27.022Z</time>
      </trkpt>
      <trkpt lat="48.79431" lon="2.31648">
        <ele>129.6</ele>
        <time>2015-04-20T19:36:29.869Z</time>
      </trkpt>
      <trkpt lat="48.79433" lon="2.31649">
        <ele>129.5</ele>
        <time>2015-04-20T19:36:29.974Z</time>
      </trkpt>
      <trkpt lat="48.79441" lon="2.31652">
        <ele>129.9</ele>
        <time>2015-04-20T19:36:33.127Z</time>
      </trkpt>
      <trkpt lat="48.79442" lon="2.31653">
        <ele>130</ele>
        <time>2015-04-20T19:36:34.001Z</time>
      </trkpt>
      <trkpt lat="48.79444" lon="2.31655">
        <ele>130</ele>
        <time>2015-04-20T19:36:50.149Z</time>
      </trkpt>
      <trkpt lat="48.79454" lon="2.31655">
        <ele>131.9</ele>
        <time>2015-04-20T19:36:51.055Z</time>
      </trkpt>
      <trkpt lat="48.79461" lon="2.31659">
        <ele>131.9</ele>
        <time>2015-04-20T19:36:54.036Z</time>
      </trkpt>
      <trkpt lat="48.79464" lon="2.31661">
        <ele>131.7</ele>
        <time>2015-04-20T19:36:55.064Z</time>
      </trkpt>
      <trkpt lat="48.79469" lon="2.31665">
        <ele>131.5</ele>
        <time>2015-04-20T19:36:57.059Z</time>
      </trkpt>
      <trkpt lat="48.79473" lon="2.31668">
        <ele>131.4</ele>
        <time>2015-04-20T19:36:58.046Z</time>
      </trkpt>
      <trkpt lat="48.79479" lon="2.31672">
        <ele>130.9</ele>
        <time>2015-04-20T19:37:00.815Z</time>
      </trkpt>
      <trkpt lat="48.79483" lon="2.31675">
        <ele>131.1</ele>
        <time>2015-04-20T19:37:00.976Z</time>
      </trkpt>
      <trkpt lat="48.7949" lon="2.31679">
        <ele>131.5</ele>
        <time>2015-04-20T19:37:03.096Z</time>
      </trkpt>
      <trkpt lat="48.79494" lon="2.31681">
        <ele>131.3</ele>
        <time>2015-04-20T19:37:03.968Z</time>
      </trkpt>
      <trkpt lat="48.79502" lon="2.31686">
        <ele>131.5</ele>
        <time>2015-04-20T19:37:05.966Z</time>
      </trkpt>
      <trkpt lat="48.79506" lon="2.31688">
        <ele>131.5</ele>
        <time>2015-04-20T19:37:07.023Z</time>
      </trkpt>
      <trkpt lat="48.79511" lon="2.31689">
        <ele>131</ele>
        <time>2015-04-20T19:37:08.133Z</time>
      </trkpt>
      <trkpt lat="48.79516" lon="2.31691">
        <ele>130.8</ele>
        <time>2015-04-20T19:37:09.132Z</time>
      </trkpt>
      <trkpt lat="48.79521" lon="2.31694">
        <ele>131.1</ele>
        <time>2015-04-20T19:37:10.016Z</time>
      </trkpt>
      <trkpt lat="48.79526" lon="2.31696">
        <ele>131.4</ele>
        <time>2015-04-20T19:37:11.015Z</time>
      </trkpt>
      <trkpt lat="48.7953" lon="2.31699">
        <ele>131.4</ele>
        <time>2015-04-20T19:37:11.740Z</time>
      </trkpt>
      <trkpt lat="48.79535" lon="2.31701">
        <ele>131.7</ele>
        <time>2015-04-20T19:37:13.065Z</time>
      </trkpt>
      <trkpt lat="48.7954" lon="2.31704">
        <ele>131.8</ele>
        <time>2015-04-20T19:37:14.074Z</time>
      </trkpt>
      <trkpt lat="48.79544" lon="2.31705">
        <ele>131.9</ele>
        <time>2015-04-20T19:37:15.135Z</time>
      </trkpt>
      <trkpt lat="48.79549" lon="2.31707">
        <ele>132.1</ele>
        <time>2015-04-20T19:37:16.044Z</time>
      </trkpt>
      <trkpt lat="48.79554" lon="2.31709">
        <ele>132.3</ele>
        <time>2015-04-20T19:37:17.069Z</time>
      </trkpt>
      <trkpt lat="48.79558" lon="2.31711">
        <ele>132.1</ele>
        <time>2015-04-20T19:37:18.082Z</time>
      </trkpt>
      <trkpt lat="48.79562" lon="2.31713">
        <ele>132.2</ele>
        <time>2015-04-20T19:37:19.003Z</time>
      </trkpt>
      <trkpt lat="48.79567" lon="2.31715">
        <ele>132.3</ele>
        <time>2015-04-20T19:37:20.038Z</time>
      </trkpt>
      <trkpt lat="48.79571" lon="2.31717">
        <ele>132.2</ele>
        <time>2015-04-20T19:37:21.109Z</time>
      </trkpt>
      <trkpt lat="48.79579" lon="2.3172">
        <ele>132.3</ele>
        <time>2015-04-20T19:37:23.113Z</time>
      </trkpt>
      <trkpt lat="48.79583" lon="2.31722">
        <ele>132.5</ele>
        <time>2015-04-20T19:37:24.031Z</time>
      </trkpt>
      <trkpt lat="48.79591" lon="2.31725">
        <ele>132.5</ele>
        <time>2015-04-20T19:37:26.182Z</time>
      </trkpt>
      <trkpt lat="48.79595" lon="2.31726">
        <ele>132.7</ele>
        <time>2015-04-20T19:37:27.091Z</time>
      </trkpt>
      <trkpt lat="48.796" lon="2.31727">
        <ele>133</ele>
        <time>2015-04-20T19:37:29.841Z</time>
      </trkpt>
      <trkpt lat="48.79604" lon="2.31728">
        <ele>133.1</ele>
        <time>2015-04-20T19:37:30.015Z</time>
      </trkpt>
      <trkpt lat="48.79611" lon="2.31727">
        <ele>133.1</ele>
        <time>2015-04-20T19:37:32.101Z</time>
      </trkpt>
      <trkpt lat="48.79616" lon="2.31727">
        <ele>133.1</ele>
        <time>2015-04-20T19:37:33.108Z</time>
      </trkpt>
      <trkpt lat="48.79624" lon="2.31727">
        <ele>133.3</ele>
        <time>2015-04-20T19:37:34.984Z</time>
      </trkpt>
      <trkpt lat="48.79629" lon="2.31727">
        <ele>133.5</ele>
        <time>2015-04-20T19:37:35.997Z</time>
      </trkpt>
      <trkpt lat="48.79636" lon="2.31727">
        <ele>134</ele>
        <time>2015-04-20T19:37:38.091Z</time>
      </trkpt>
      <trkpt lat="48.79638" lon="2.31727">
        <ele>133.8</ele>
        <time>2015-04-20T19:37:39.214Z</time>
      </trkpt>
      <trkpt lat="48.79644" lon="2.31725">
        <ele>133.4</ele>
        <time>2015-04-20T19:37:41.007Z</time>
      </trkpt>
      <trkpt lat="48.79647" lon="2.31725">
        <ele>133.2</ele>
        <time>2015-04-20T19:37:42.010Z</time>
      </trkpt>
      <trkpt lat="48.79655" lon="2.31721">
        <ele>132.5</ele>
        <time>2015-04-20T19:37:45.195Z</time>
      </trkpt>
      <trkpt lat="48.79658" lon="2.31721">
        <ele>132.4</ele>
        <time>2015-04-20T19:37:46.004Z</time>
      </trkpt>
      <trkpt lat="48.79664" lon="2.31721">
        <ele>132.6</ele>
        <time>2015-04-20T19:37:48.060Z</time>
      </trkpt>
      <trkpt lat="48.79668" lon="2.31721">
        <ele>132.9</ele>
        <time>2015-04-20T19:37:48.958Z</time>
      </trkpt>
      <trkpt lat="48.79674" lon="2.31722">
        <ele>133.6</ele>
        <time>2015-04-20T19:37:51.043Z</time>
      </trkpt>
      <trkpt lat="48.79677" lon="2.31722">
        <ele>134</ele>
        <time>2015-04-20T19:37:52.040Z</time>
      </trkpt>
      <trkpt lat="48.79682" lon="2.3172">
        <ele>134.2</ele>
        <time>2015-04-20T19:37:52.972Z</time>
      </trkpt>
      <trkpt lat="48.79686" lon="2.31719">
        <ele>134.3</ele>
        <time>2015-04-20T19:37:53.999Z</time>
      </trkpt>
      <trkpt lat="48.79691" lon="2.31718">
        <ele>134.5</ele>
        <time>2015-04-20T19:37:55.330Z</time>
      </trkpt>
      <trkpt lat="48.79696" lon="2.31719">
        <ele>134.8</ele>
        <time>2015-04-20T19:37:56.016Z</time>
      </trkpt>
      <trkpt lat="48.79701" lon="2.3172">
        <ele>135.3</ele>
        <time>2015-04-20T19:37:57.040Z</time>
      </trkpt>
      <trkpt lat="48.79706" lon="2.31721">
        <ele>135.8</ele>
        <time>2015-04-20T19:37:58.048Z</time>
      </trkpt>
      <trkpt lat="48.7971" lon="2.31724">
        <ele>135.9</ele>
        <time>2015-04-20T19:37:59.069Z</time>
      </trkpt>
      <trkpt lat="48.79714" lon="2.31727">
        <ele>135.4</ele>
        <time>2015-04-20T19:37:59.980Z</time>
      </trkpt>
      <trkpt lat="48.79721" lon="2.31727">
        <ele>135.1</ele>
        <time>2015-04-20T19:38:01.026Z</time>
      </trkpt>
      <trkpt lat="48.79727" lon="2.31728">
        <ele>135.6</ele>
        <time>2015-04-20T19:38:02.038Z</time>
      </trkpt>
      <trkpt lat="48.79732" lon="2.3173">
        <ele>136.4</ele>
        <time>2015-04-20T19:38:03.047Z</time>
      </trkpt>
      <trkpt lat="48.79737" lon="2.31731">
        <ele>137</ele>
        <time>2015-04-20T19:38:04.055Z</time>
      </trkpt>
      <trkpt lat="48.79742" lon="2.31733">
        <ele>137.2</ele>
        <time>2015-04-20T19:38:05.727Z</time>
      </trkpt>
      <trkpt lat="48.79748" lon="2.31734">
        <ele>137.3</ele>
        <time>2015-04-20T19:38:05.990Z</time>
      </trkpt>
      <trkpt lat="48.79754" lon="2.31737">
        <ele>137.7</ele>
        <time>2015-04-20T19:38:07.005Z</time>
      </trkpt>
      <trkpt lat="48.7976" lon="2.31738">
        <ele>137.9</ele>
        <time>2015-04-20T19:38:08.017Z</time>
      </trkpt>
      <trkpt lat="48.79765" lon="2.31739">
        <ele>138.2</ele>
        <time>2015-04-20T19:38:09.048Z</time>
      </trkpt>
      <trkpt lat="48.79771" lon="2.31739">
        <ele>138.6</ele>
        <time>2015-04-20T19:38:10.052Z</time>
      </trkpt>
      <trkpt lat="48.79776" lon="2.3174">
        <ele>138.9</ele>
        <time>2015-04-20T19:38:10.957Z</time>
      </trkpt>
      <trkpt lat="48.79781" lon="2.3174">
        <ele>139.1</ele>
        <time>2015-04-20T19:38:11.994Z</time>
      </trkpt>
      <trkpt lat="48.79788" lon="2.3174">
        <ele>139.1</ele>
        <time>2015-04-20T19:38:14.020Z</time>
      </trkpt>
      <trkpt lat="48.79791" lon="2.31742">
        <ele>138.8</ele>
        <time>2015-04-20T19:38:15.029Z</time>
      </trkpt>
      <trkpt lat="48.79799" lon="2.31746">
        <ele>138.8</ele>
        <time>2015-04-20T19:38:16.960Z</time>
      </trkpt>
      <trkpt lat="48.79804" lon="2.31746">
        <ele>139</ele>
        <time>2015-04-20T19:38:18.047Z</time>
      </trkpt>
      <trkpt lat="48.79811" lon="2.31746">
        <ele>139.2</ele>
        <time>2015-04-20T19:38:20.076Z</time>
      </trkpt>
      <trkpt lat="48.79817" lon="2.31747">
        <ele>139.2</ele>
        <time>2015-04-20T19:38:21.118Z</time>
      </trkpt>
      <trkpt lat="48.79825" lon="2.31747">
        <ele>139.1</ele>
        <time>2015-04-20T19:38:23.098Z</time>
      </trkpt>
      <trkpt lat="48.79829" lon="2.31747">
        <ele>139.1</ele>
        <time>2015-04-20T19:38:23.976Z</time>
      </trkpt>
      <trkpt lat="48.79836" lon="2.3175">
        <ele>139.1</ele>
        <time>2015-04-20T19:38:26.000Z</time>
      </trkpt>
      <trkpt lat="48.79843" lon="2.31752">
        <ele>139.2</ele>
        <time>2015-04-20T19:38:27.043Z</time>
      </trkpt>
      <trkpt lat="48.7985" lon="2.31754">
        <ele>139.4</ele>
        <time>2015-04-20T19:38:28.001Z</time>
      </trkpt>
      <trkpt lat="48.79858" lon="2.31757">
        <ele>139.7</ele>
        <time>2015-04-20T19:38:29.111Z</time>
      </trkpt>
      <trkpt lat="48.79858" lon="2.31757">
        <ele>139.7</ele>
        <time>2015-04-20T19:38:29.835Z</time>
      </trkpt>
      <trkpt lat="48.79873" lon="2.31762">
        <ele>140.4</ele>
        <time>2015-04-20T19:38:31.069Z</time>
      </trkpt>
      <trkpt lat="48.7988" lon="2.31764">
        <ele>140.9</ele>
        <time>2015-04-20T19:38:31.962Z</time>
      </trkpt>
      <trkpt lat="48.79886" lon="2.31765">
        <ele>141.2</ele>
        <time>2015-04-20T19:38:32.995Z</time>
      </trkpt>
      <trkpt lat="48.79891" lon="2.31768">
        <ele>141.5</ele>
        <time>2015-04-20T19:38:34.888Z</time>
      </trkpt>
      <trkpt lat="48.79898" lon="2.31771">
        <ele>141.7</ele>
        <time>2015-04-20T19:38:35.021Z</time>
      </trkpt>
      <trkpt lat="48.79905" lon="2.31773">
        <ele>142.1</ele>
        <time>2015-04-20T19:38:36.042Z</time>
      </trkpt>
      <trkpt lat="48.79911" lon="2.31774">
        <ele>142.4</ele>
        <time>2015-04-20T19:38:37.055Z</time>
      </trkpt>
      <trkpt lat="48.79917" lon="2.31776">
        <ele>143.1</ele>
        <time>2015-04-20T19:38:37.956Z</time>
      </trkpt>
      <trkpt lat="48.79922" lon="2.31777">
        <ele>143.5</ele>
        <time>2015-04-20T19:38:39.013Z</time>
      </trkpt>
      <trkpt lat="48.79928" lon="2.31779">
        <ele>143.8</ele>
        <time>2015-04-20T19:38:39.975Z</time>
      </trkpt>
      <trkpt lat="48.79933" lon="2.31781">
        <ele>144.1</ele>
        <time>2015-04-20T19:38:40.978Z</time>
      </trkpt>
      <trkpt lat="48.79938" lon="2.31783">
        <ele>144.4</ele>
        <time>2015-04-20T19:38:41.996Z</time>
      </trkpt>
      <trkpt lat="48.79942" lon="2.31784">
        <ele>144.6</ele>
        <time>2015-04-20T19:38:43.014Z</time>
      </trkpt>
      <trkpt lat="48.79948" lon="2.31784">
        <ele>144.7</ele>
        <time>2015-04-20T19:38:44.022Z</time>
      </trkpt>
      <trkpt lat="48.79955" lon="2.31785">
        <ele>144.6</ele>
        <time>2015-04-20T19:38:45.031Z</time>
      </trkpt>
      <trkpt lat="48.79961" lon="2.31786">
        <ele>144.7</ele>
        <time>2015-04-20T19:38:46.046Z</time>
      </trkpt>
      <trkpt lat="48.79965" lon="2.31787">
        <ele>144.8</ele>
        <time>2015-04-20T19:38:47.059Z</time>
      </trkpt>
      <trkpt lat="48.79971" lon="2.31789">
        <ele>145</ele>
        <time>2015-04-20T19:38:47.975Z</time>
      </trkpt>
      <trkpt lat="48.79975" lon="2.31791">
        <ele>144.9</ele>
        <time>2015-04-20T19:38:48.977Z</time>
      </trkpt>
      <trkpt lat="48.7998" lon="2.31793">
        <ele>144.7</ele>
        <time>2015-04-20T19:38:51.047Z</time>
      </trkpt>
      <trkpt lat="48.79983" lon="2.31795">
        <ele>144.6</ele>
        <time>2015-04-20T19:38:52.066Z</time>
      </trkpt>
      <trkpt lat="48.79991" lon="2.31799">
        <ele>144.8</ele>
        <time>2015-04-20T19:38:53.977Z</time>
      </trkpt>
      <trkpt lat="48.79993" lon="2.318">
        <ele>144.7</ele>
        <time>2015-04-20T19:38:55.030Z</time>
      </trkpt>
      <trkpt lat="48.80001" lon="2.31803">
        <ele>144.3</ele>
        <time>2015-04-20T19:38:57.089Z</time>
      </trkpt>
      <trkpt lat="48.80006" lon="2.31804">
        <ele>143.9</ele>
        <time>2015-04-20T19:38:57.964Z</time>
      </trkpt>
      <trkpt lat="48.80011" lon="2.31805">
        <ele>143.5</ele>
        <time>2015-04-20T19:38:58.996Z</time>
      </trkpt>
      <trkpt lat="48.80015" lon="2.31806">
        <ele>143.3</ele>
        <time>2015-04-20T19:39:00.005Z</time>
      </trkpt>
      <trkpt lat="48.8002" lon="2.31807">
        <ele>143.1</ele>
        <time>2015-04-20T19:39:01.014Z</time>
      </trkpt>
      <trkpt lat="48.80024" lon="2.31807">
        <ele>142.5</ele>
        <time>2015-04-20T19:39:02.037Z</time>
      </trkpt>
      <trkpt lat="48.80029" lon="2.31808">
        <ele>142.2</ele>
        <time>2015-04-20T19:39:03.045Z</time>
      </trkpt>
      <trkpt lat="48.80036" lon="2.31809">
        <ele>140.9</ele>
        <time>2015-04-20T19:39:04.052Z</time>
      </trkpt>
      <trkpt lat="48.80045" lon="2.31811">
        <ele>139.9</ele>
        <time>2015-04-20T19:39:05.075Z</time>
      </trkpt>
      <trkpt lat="48.80051" lon="2.31814">
        <ele>140.2</ele>
        <time>2015-04-20T19:39:05.985Z</time>
      </trkpt>
      <trkpt lat="48.80058" lon="2.31818">
        <ele>140.7</ele>
        <time>2015-04-20T19:39:06.998Z</time>
      </trkpt>
      <trkpt lat="48.80066" lon="2.31819">
        <ele>141.1</ele>
        <time>2015-04-20T19:39:08.012Z</time>
      </trkpt>
      <trkpt lat="48.80071" lon="2.31821">
        <ele>141.6</ele>
        <time>2015-04-20T19:39:09.041Z</time>
      </trkpt>
      <trkpt lat="48.80076" lon="2.31824">
        <ele>142.2</ele>
        <time>2015-04-20T19:39:10.051Z</time>
      </trkpt>
      <trkpt lat="48.80081" lon="2.31827">
        <ele>141.9</ele>
        <time>2015-04-20T19:39:10.959Z</time>
      </trkpt>
      <trkpt lat="48.80086" lon="2.3183">
        <ele>141.4</ele>
        <time>2015-04-20T19:39:11.999Z</time>
      </trkpt>
      <trkpt lat="48.80093" lon="2.31834">
        <ele>139.8</ele>
        <time>2015-04-20T19:39:13.034Z</time>
      </trkpt>
      <trkpt lat="48.801" lon="2.31837">
        <ele>139.2</ele>
        <time>2015-04-20T19:39:14.048Z</time>
      </trkpt>
      <trkpt lat="48.80107" lon="2.31839">
        <ele>138.9</ele>
        <time>2015-04-20T19:39:15.058Z</time>
      </trkpt>
      <trkpt lat="48.80114" lon="2.3184">
        <ele>138.5</ele>
        <time>2015-04-20T19:39:15.981Z</time>
      </trkpt>
      <trkpt lat="48.80121" lon="2.3184">
        <ele>138.6</ele>
        <time>2015-04-20T19:39:16.970Z</time>
      </trkpt>
      <trkpt lat="48.80128" lon="2.31841">
        <ele>138.9</ele>
        <time>2015-04-20T19:39:17.985Z</time>
      </trkpt>
      <trkpt lat="48.80135" lon="2.31843">
        <ele>139.3</ele>
        <time>2015-04-20T19:39:18.999Z</time>
      </trkpt>
      <trkpt lat="48.80141" lon="2.31845">
        <ele>139.3</ele>
        <time>2015-04-20T19:39:20.005Z</time>
      </trkpt>
      <trkpt lat="48.80146" lon="2.31846">
        <ele>139</ele>
        <time>2015-04-20T19:39:21.022Z</time>
      </trkpt>
      <trkpt lat="48.80152" lon="2.31848">
        <ele>138.8</ele>
        <time>2015-04-20T19:39:22.039Z</time>
      </trkpt>
      <trkpt lat="48.80158" lon="2.3185">
        <ele>138.3</ele>
        <time>2015-04-20T19:39:23.046Z</time>
      </trkpt>
      <trkpt lat="48.80163" lon="2.31853">
        <ele>138</ele>
        <time>2015-04-20T19:39:23.972Z</time>
      </trkpt>
      <trkpt lat="48.80169" lon="2.31856">
        <ele>137.4</ele>
        <time>2015-04-20T19:39:24.972Z</time>
      </trkpt>
      <trkpt lat="48.80176" lon="2.31857">
        <ele>136.4</ele>
        <time>2015-04-20T19:39:25.987Z</time>
      </trkpt>
      <trkpt lat="48.80183" lon="2.31861">
        <ele>134.9</ele>
        <time>2015-04-20T19:39:27.011Z</time>
      </trkpt>
      <trkpt lat="48.80189" lon="2.31864">
        <ele>134.1</ele>
        <time>2015-04-20T19:39:28.046Z</time>
      </trkpt>
      <trkpt lat="48.80194" lon="2.31868">
        <ele>133.5</ele>
        <time>2015-04-20T19:39:29.050Z</time>
      </trkpt>
      <trkpt lat="48.80198" lon="2.31871">
        <ele>132.6</ele>
        <time>2015-04-20T19:39:30.058Z</time>
      </trkpt>
      <trkpt lat="48.80204" lon="2.31873">
        <ele>132.7</ele>
        <time>2015-04-20T19:39:30.972Z</time>
      </trkpt>
      <trkpt lat="48.80209" lon="2.31875">
        <ele>132.8</ele>
        <time>2015-04-20T19:39:31.980Z</time>
      </trkpt>
      <trkpt lat="48.80214" lon="2.31877">
        <ele>133.2</ele>
        <time>2015-04-20T19:39:33.015Z</time>
      </trkpt>
      <trkpt lat="48.80219" lon="2.3188">
        <ele>133</ele>
        <time>2015-04-20T19:39:34.021Z</time>
      </trkpt>
      <trkpt lat="48.80223" lon="2.31883">
        <ele>132.7</ele>
        <time>2015-04-20T19:39:35.034Z</time>
      </trkpt>
      <trkpt lat="48.80228" lon="2.31887">
        <ele>132.9</ele>
        <time>2015-04-20T19:39:36.045Z</time>
      </trkpt>
      <trkpt lat="48.80235" lon="2.31893">
        <ele>132.9</ele>
        <time>2015-04-20T19:39:37.986Z</time>
      </trkpt>
      <trkpt lat="48.80238" lon="2.31897">
        <ele>133.2</ele>
        <time>2015-04-20T19:39:39.032Z</time>
      </trkpt>
      <trkpt lat="48.80242" lon="2.31905">
        <ele>133.5</ele>
        <time>2015-04-20T19:39:41.049Z</time>
      </trkpt>
      <trkpt lat="48.80245" lon="2.31908">
        <ele>133.8</ele>
        <time>2015-04-20T19:39:42.064Z</time>
      </trkpt>
      <trkpt lat="48.80253" lon="2.31909">
        <ele>134.5</ele>
        <time>2015-04-20T19:39:44.026Z</time>
      </trkpt>
      <trkpt lat="48.8026" lon="2.3191">
        <ele>135.3</ele>
        <time>2015-04-20T19:39:44.988Z</time>
      </trkpt>
      <trkpt lat="48.80265" lon="2.31912">
        <ele>136.1</ele>
        <time>2015-04-20T19:39:46.057Z</time>
      </trkpt>
      <trkpt lat="48.8027" lon="2.31913">
        <ele>136.7</ele>
        <time>2015-04-20T19:39:46.976Z</time>
      </trkpt>
      <trkpt lat="48.80275" lon="2.31916">
        <ele>137.4</ele>
        <time>2015-04-20T19:39:47.983Z</time>
      </trkpt>
      <trkpt lat="48.8028" lon="2.31918">
        <ele>137.8</ele>
        <time>2015-04-20T19:39:49.028Z</time>
      </trkpt>
      <trkpt lat="48.80285" lon="2.3192">
        <ele>137.4</ele>
        <time>2015-04-20T19:39:50.036Z</time>
      </trkpt>
      <trkpt lat="48.80289" lon="2.31923">
        <ele>137.6</ele>
        <time>2015-04-20T19:39:51.056Z</time>
      </trkpt>
      <trkpt lat="48.80297" lon="2.31927">
        <ele>137.1</ele>
        <time>2015-04-20T19:39:53.015Z</time>
      </trkpt>
      <trkpt lat="48.80302" lon="2.31931">
        <ele>137.1</ele>
        <time>2015-04-20T19:39:54.012Z</time>
      </trkpt>
      <trkpt lat="48.80307" lon="2.31934">
        <ele>137</ele>
        <time>2015-04-20T19:39:55.065Z</time>
      </trkpt>
      <trkpt lat="48.80311" lon="2.31937">
        <ele>136.7</ele>
        <time>2015-04-20T19:39:55.963Z</time>
      </trkpt>
      <trkpt lat="48.80318" lon="2.31944">
        <ele>136.5</ele>
        <time>2015-04-20T19:39:58.434Z</time>
      </trkpt>
      <trkpt lat="48.80322" lon="2.31947">
        <ele>136.4</ele>
        <time>2015-04-20T19:39:59.056Z</time>
      </trkpt>
      <trkpt lat="48.80327" lon="2.31953">
        <ele>136.6</ele>
        <time>2015-04-20T19:40:00.999Z</time>
      </trkpt>
      <trkpt lat="48.80329" lon="2.31956">
        <ele>136.3</ele>
        <time>2015-04-20T19:40:01.983Z</time>
      </trkpt>
      <trkpt lat="48.80334" lon="2.31964">
        <ele>136.1</ele>
        <time>2015-04-20T19:40:04.084Z</time>
      </trkpt>
      <trkpt lat="48.80337" lon="2.31969">
        <ele>135.8</ele>
        <time>2015-04-20T19:40:04.987Z</time>
      </trkpt>
      <trkpt lat="48.80344" lon="2.31977">
        <ele>136.5</ele>
        <time>2015-04-20T19:40:07.060Z</time>
      </trkpt>
      <trkpt lat="48.80346" lon="2.31982">
        <ele>136.1</ele>
        <time>2015-04-20T19:40:08.063Z</time>
      </trkpt>
      <trkpt lat="48.8035" lon="2.31987">
        <ele>136.2</ele>
        <time>2015-04-20T19:40:09.112Z</time>
      </trkpt>
      <trkpt lat="48.80353" lon="2.31992">
        <ele>136.2</ele>
        <time>2015-04-20T19:40:09.979Z</time>
      </trkpt>
      <trkpt lat="48.80356" lon="2.31998">
        <ele>136.6</ele>
        <time>2015-04-20T19:40:11.014Z</time>
      </trkpt>
      <trkpt lat="48.8036" lon="2.32003">
        <ele>137</ele>
        <time>2015-04-20T19:40:12.040Z</time>
      </trkpt>
      <trkpt lat="48.80364" lon="2.32009">
        <ele>137.6</ele>
        <time>2015-04-20T19:40:13.013Z</time>
      </trkpt>
      <trkpt lat="48.80368" lon="2.32016">
        <ele>138.4</ele>
        <time>2015-04-20T19:40:14.023Z</time>
      </trkpt>
      <trkpt lat="48.80372" lon="2.32023">
        <ele>138.6</ele>
        <time>2015-04-20T19:40:15.043Z</time>
      </trkpt>
      <trkpt lat="48.80376" lon="2.3203">
        <ele>138.6</ele>
        <time>2015-04-20T19:40:16.052Z</time>
      </trkpt>
      <trkpt lat="48.8038" lon="2.32039">
        <ele>139.1</ele>
        <time>2015-04-20T19:40:16.998Z</time>
      </trkpt>
      <trkpt lat="48.80384" lon="2.32048">
        <ele>139.3</ele>
        <time>2015-04-20T19:40:18.026Z</time>
      </trkpt>
      <trkpt lat="48.80388" lon="2.32056">
        <ele>139.4</ele>
        <time>2015-04-20T19:40:19.036Z</time>
      </trkpt>
      <trkpt lat="48.80392" lon="2.32065">
        <ele>139.7</ele>
        <time>2015-04-20T19:40:19.984Z</time>
      </trkpt>
      <trkpt lat="48.80396" lon="2.32074">
        <ele>139.9</ele>
        <time>2015-04-20T19:40:21.024Z</time>
      </trkpt>
      <trkpt lat="48.804" lon="2.32083">
        <ele>140</ele>
        <time>2015-04-20T19:40:22.027Z</time>
      </trkpt>
      <trkpt lat="48.80405" lon="2.32092">
        <ele>140</ele>
        <time>2015-04-20T19:40:23.044Z</time>
      </trkpt>
      <trkpt lat="48.80408" lon="2.32101">
        <ele>139.6</ele>
        <time>2015-04-20T19:40:23.984Z</time>
      </trkpt>
      <trkpt lat="48.80411" lon="2.32109">
        <ele>139.3</ele>
        <time>2015-04-20T19:40:25.000Z</time>
      </trkpt>
      <trkpt lat="48.80414" lon="2.32118">
        <ele>139.2</ele>
        <time>2015-04-20T19:40:26.005Z</time>
      </trkpt>
      <trkpt lat="48.80417" lon="2.32128">
        <ele>138.9</ele>
        <time>2015-04-20T19:40:27.025Z</time>
      </trkpt>
      <trkpt lat="48.8042" lon="2.32137">
        <ele>139.2</ele>
        <time>2015-04-20T19:40:28.032Z</time>
      </trkpt>
      <trkpt lat="48.80424" lon="2.32146">
        <ele>138.8</ele>
        <time>2015-04-20T19:40:29.074Z</time>
      </trkpt>
      <trkpt lat="48.80428" lon="2.32156">
        <ele>138.5</ele>
        <time>2015-04-20T19:40:30.001Z</time>
      </trkpt>
      <trkpt lat="48.80433" lon="2.32167">
        <ele>138.2</ele>
        <time>2015-04-20T19:40:30.984Z</time>
      </trkpt>
      <trkpt lat="48.80437" lon="2.32177">
        <ele>137.9</ele>
        <time>2015-04-20T19:40:32.022Z</time>
      </trkpt>
      <trkpt lat="48.80442" lon="2.32186">
        <ele>137.8</ele>
        <time>2015-04-20T19:40:33.033Z</time>
      </trkpt>
      <trkpt lat="48.80447" lon="2.32196">
        <ele>137.5</ele>
        <time>2015-04-20T19:40:34.038Z</time>
      </trkpt>
      <trkpt lat="48.80452" lon="2.32205">
        <ele>137.5</ele>
        <time>2015-04-20T19:40:35.049Z</time>
      </trkpt>
      <trkpt lat="48.80458" lon="2.32215">
        <ele>137.7</ele>
        <time>2015-04-20T19:40:36.056Z</time>
      </trkpt>
      <trkpt lat="48.80463" lon="2.32224">
        <ele>138.1</ele>
        <time>2015-04-20T19:40:37.073Z</time>
      </trkpt>
      <trkpt lat="48.80468" lon="2.32232">
        <ele>138.5</ele>
        <time>2015-04-20T19:40:37.983Z</time>
      </trkpt>
      <trkpt lat="48.80471" lon="2.32239">
        <ele>138.6</ele>
        <time>2015-04-20T19:40:39.028Z</time>
      </trkpt>
      <trkpt lat="48.80474" lon="2.32246">
        <ele>138.7</ele>
        <time>2015-04-20T19:40:40.048Z</time>
      </trkpt>
      <trkpt lat="48.80477" lon="2.32252">
        <ele>139</ele>
        <time>2015-04-20T19:40:41.067Z</time>
      </trkpt>
      <trkpt lat="48.8048" lon="2.32258">
        <ele>139.3</ele>
        <time>2015-04-20T19:40:41.984Z</time>
      </trkpt>
      <trkpt lat="48.80486" lon="2.32268">
        <ele>139.4</ele>
        <time>2015-04-20T19:40:44.010Z</time>
      </trkpt>
      <trkpt lat="48.80489" lon="2.32273">
        <ele>139.8</ele>
        <time>2015-04-20T19:40:45.042Z</time>
      </trkpt>
      <trkpt lat="48.80493" lon="2.32278">
        <ele>140.8</ele>
        <time>2015-04-20T19:40:46.054Z</time>
      </trkpt>
      <trkpt lat="48.80498" lon="2.32284">
        <ele>142</ele>
        <time>2015-04-20T19:40:47.019Z</time>
      </trkpt>
      <trkpt lat="48.80502" lon="2.32289">
        <ele>142.9</ele>
        <time>2015-04-20T19:40:48.053Z</time>
      </trkpt>
      <trkpt lat="48.80505" lon="2.32294">
        <ele>143.3</ele>
        <time>2015-04-20T19:40:49.070Z</time>
      </trkpt>
      <trkpt lat="48.80509" lon="2.323">
        <ele>143.5</ele>
        <time>2015-04-20T19:40:50.080Z</time>
      </trkpt>
      <trkpt lat="48.80512" lon="2.32305">
        <ele>143.9</ele>
        <time>2015-04-20T19:40:51.090Z</time>
      </trkpt>
      <trkpt lat="48.80517" lon="2.32314">
        <ele>143.7</ele>
        <time>2015-04-20T19:40:53.006Z</time>
      </trkpt>
      <trkpt lat="48.80519" lon="2.32319">
        <ele>143.8</ele>
        <time>2015-04-20T19:40:54.067Z</time>
      </trkpt>
      <trkpt lat="48.80523" lon="2.3233">
        <ele>144.5</ele>
        <time>2015-04-20T19:40:56.017Z</time>
      </trkpt>
      <trkpt lat="48.80525" lon="2.32335">
        <ele>144.2</ele>
        <time>2015-04-20T19:40:57.063Z</time>
      </trkpt>
      <trkpt lat="48.8053" lon="2.32344">
        <ele>144.2</ele>
        <time>2015-04-20T19:40:58.996Z</time>
      </trkpt>
      <trkpt lat="48.80532" lon="2.32348">
        <ele>144.4</ele>
        <time>2015-04-20T19:40:59.968Z</time>
      </trkpt>
      <trkpt lat="48.80535" lon="2.32354">
        <ele>144.7</ele>
        <time>2015-04-20T19:41:00.982Z</time>
      </trkpt>
      <trkpt lat="48.80538" lon="2.32359">
        <ele>145.1</ele>
        <time>2015-04-20T19:41:01.990Z</time>
      </trkpt>
      <trkpt lat="48.80544" lon="2.32369">
        <ele>145.6</ele>
        <time>2015-04-20T19:41:04.027Z</time>
      </trkpt>
      <trkpt lat="48.80547" lon="2.32374">
        <ele>145.7</ele>
        <time>2015-04-20T19:41:04.973Z</time>
      </trkpt>
      <trkpt lat="48.80551" lon="2.32385">
        <ele>146</ele>
        <time>2015-04-20T19:41:07.033Z</time>
      </trkpt>
      <trkpt lat="48.80554" lon="2.3239">
        <ele>146.1</ele>
        <time>2015-04-20T19:41:08.079Z</time>
      </trkpt>
      <trkpt lat="48.80559" lon="2.32401">
        <ele>145.6</ele>
        <time>2015-04-20T19:41:10.016Z</time>
      </trkpt>
      <trkpt lat="48.80561" lon="2.32407">
        <ele>145.6</ele>
        <time>2015-04-20T19:41:10.996Z</time>
      </trkpt>
      <trkpt lat="48.80565" lon="2.32415">
        <ele>145.6</ele>
        <time>2015-04-20T19:41:11.989Z</time>
      </trkpt>
      <trkpt lat="48.80567" lon="2.32421">
        <ele>145.8</ele>
        <time>2015-04-20T19:41:13.038Z</time>
      </trkpt>
      <trkpt lat="48.8057" lon="2.32428">
        <ele>146</ele>
        <time>2015-04-20T19:41:13.970Z</time>
      </trkpt>
      <trkpt lat="48.80573" lon="2.32433">
        <ele>145.8</ele>
        <time>2015-04-20T19:41:15.013Z</time>
      </trkpt>
      <trkpt lat="48.80576" lon="2.3244">
        <ele>145.5</ele>
        <time>2015-04-20T19:41:16.006Z</time>
      </trkpt>
      <trkpt lat="48.8058" lon="2.32446">
        <ele>145.4</ele>
        <time>2015-04-20T19:41:17.014Z</time>
      </trkpt>
      <trkpt lat="48.80583" lon="2.32452">
        <ele>145.4</ele>
        <time>2015-04-20T19:41:18.010Z</time>
      </trkpt>
      <trkpt lat="48.80586" lon="2.32458">
        <ele>145.3</ele>
        <time>2015-04-20T19:41:18.998Z</time>
      </trkpt>
      <trkpt lat="48.80589" lon="2.32465">
        <ele>145.2</ele>
        <time>2015-04-20T19:41:20.010Z</time>
      </trkpt>
      <trkpt lat="48.80591" lon="2.32471">
        <ele>145.1</ele>
        <time>2015-04-20T19:41:21.023Z</time>
      </trkpt>
      <trkpt lat="48.80594" lon="2.32477">
        <ele>145.1</ele>
        <time>2015-04-20T19:41:22.075Z</time>
      </trkpt>
      <trkpt lat="48.80598" lon="2.32484">
        <ele>145.2</ele>
        <time>2015-04-20T19:41:23.076Z</time>
      </trkpt>
      <trkpt lat="48.806" lon="2.3249">
        <ele>145.1</ele>
        <time>2015-04-20T19:41:23.993Z</time>
      </trkpt>
      <trkpt lat="48.80603" lon="2.32496">
        <ele>145.2</ele>
        <time>2015-04-20T19:41:25.009Z</time>
      </trkpt>
      <trkpt lat="48.80606" lon="2.32501">
        <ele>145.2</ele>
        <time>2015-04-20T19:41:26.046Z</time>
      </trkpt>
      <trkpt lat="48.80609" lon="2.32507">
        <ele>145.4</ele>
        <time>2015-04-20T19:41:27.113Z</time>
      </trkpt>
      <trkpt lat="48.80611" lon="2.32513">
        <ele>145.4</ele>
        <time>2015-04-20T19:41:28.123Z</time>
      </trkpt>
      <trkpt lat="48.80613" lon="2.32519">
        <ele>145.5</ele>
        <time>2015-04-20T19:41:29.016Z</time>
      </trkpt>
      <trkpt lat="48.80617" lon="2.3253">
        <ele>145.4</ele>
        <time>2015-04-20T19:41:31.023Z</time>
      </trkpt>
      <trkpt lat="48.80619" lon="2.32536">
        <ele>145.2</ele>
        <time>2015-04-20T19:41:32.036Z</time>
      </trkpt>
      <trkpt lat="48.80621" lon="2.32545">
        <ele>144.9</ele>
        <time>2015-04-20T19:41:34.010Z</time>
      </trkpt>
      <trkpt lat="48.80622" lon="2.32549">
        <ele>144.7</ele>
        <time>2015-04-20T19:41:35.023Z</time>
      </trkpt>
      <trkpt lat="48.80625" lon="2.32562">
        <ele>144.6</ele>
        <time>2015-04-20T19:41:40.050Z</time>
      </trkpt>
      <trkpt lat="48.80625" lon="2.32562">
        <ele>144.6</ele>
        <time>2015-04-20T19:41:41.059Z</time>
      </trkpt>
      <trkpt lat="48.80621" lon="2.32571">
        <ele>139.6</ele>
        <time>2015-04-20T19:42:47.994Z</time>
      </trkpt>
      <trkpt lat="48.80621" lon="2.32576">
        <ele>139.7</ele>
        <time>2015-04-20T19:42:49.002Z</time>
      </trkpt>
      <trkpt lat="48.80623" lon="2.32587">
        <ele>139.7</ele>
        <time>2015-04-20T19:42:52.060Z</time>
      </trkpt>
      <trkpt lat="48.80624" lon="2.32589">
        <ele>139.7</ele>
        <time>2015-04-20T19:42:52.974Z</time>
      </trkpt>
      <trkpt lat="48.8063" lon="2.32594">
        <ele>139.8</ele>
        <time>2015-04-20T19:42:55.014Z</time>
      </trkpt>
      <trkpt lat="48.80633" lon="2.32595">
        <ele>139.9</ele>
        <time>2015-04-20T19:42:56.033Z</time>
      </trkpt>
      <trkpt lat="48.80638" lon="2.32601">
        <ele>140.2</ele>
        <time>2015-04-20T19:42:59.020Z</time>
      </trkpt>
      <trkpt lat="48.80641" lon="2.32602">
        <ele>140.4</ele>
        <time>2015-04-20T19:43:00.210Z</time>
      </trkpt>
      <trkpt lat="48.80648" lon="2.32605">
        <ele>140.7</ele>
        <time>2015-04-20T19:43:02.025Z</time>
      </trkpt>
      <trkpt lat="48.80653" lon="2.32606">
        <ele>140.6</ele>
        <time>2015-04-20T19:43:03.076Z</time>
      </trkpt>
      <trkpt lat="48.8066" lon="2.32607">
        <ele>140.8</ele>
        <time>2015-04-20T19:43:05.001Z</time>
      </trkpt>
      <trkpt lat="48.80663" lon="2.32608">
        <ele>140.6</ele>
        <time>2015-04-20T19:43:06.068Z</time>
      </trkpt>
      <trkpt lat="48.8067" lon="2.32609">
        <ele>140.2</ele>
        <time>2015-04-20T19:43:08.010Z</time>
      </trkpt>
      <trkpt lat="48.80675" lon="2.3261">
        <ele>140</ele>
        <time>2015-04-20T19:43:09.107Z</time>
      </trkpt>
      <trkpt lat="48.80679" lon="2.32611">
        <ele>139.8</ele>
        <time>2015-04-20T19:43:10.016Z</time>
      </trkpt>
      <trkpt lat="48.80684" lon="2.32612">
        <ele>139.3</ele>
        <time>2015-04-20T19:43:11.020Z</time>
      </trkpt>
      <trkpt lat="48.80689" lon="2.32615">
        <ele>138.2</ele>
        <time>2015-04-20T19:43:12.070Z</time>
      </trkpt>
      <trkpt lat="48.80695" lon="2.32618">
        <ele>137.3</ele>
        <time>2015-04-20T19:43:13.198Z</time>
      </trkpt>
      <trkpt lat="48.80701" lon="2.32619">
        <ele>137.1</ele>
        <time>2015-04-20T19:43:14.119Z</time>
      </trkpt>
      <trkpt lat="48.80707" lon="2.3262">
        <ele>137.4</ele>
        <time>2015-04-20T19:43:15.110Z</time>
      </trkpt>
      <trkpt lat="48.80713" lon="2.32621">
        <ele>137.1</ele>
        <time>2015-04-20T19:43:16.007Z</time>
      </trkpt>
      <trkpt lat="48.8072" lon="2.32623">
        <ele>137</ele>
        <time>2015-04-20T19:43:17.017Z</time>
      </trkpt>
      <trkpt lat="48.80726" lon="2.32624">
        <ele>136.9</ele>
        <time>2015-04-20T19:43:18.013Z</time>
      </trkpt>
      <trkpt lat="48.80731" lon="2.32625">
        <ele>137</ele>
        <time>2015-04-20T19:43:19.018Z</time>
      </trkpt>
      <trkpt lat="48.80739" lon="2.32626">
        <ele>136.7</ele>
        <time>2015-04-20T19:43:21.066Z</time>
      </trkpt>
      <trkpt lat="48.80744" lon="2.32627">
        <ele>136.5</ele>
        <time>2015-04-20T19:43:22.094Z</time>
      </trkpt>
      <trkpt lat="48.8075" lon="2.32627">
        <ele>136.7</ele>
        <time>2015-04-20T19:43:22.982Z</time>
      </trkpt>
      <trkpt lat="48.80755" lon="2.32629">
        <ele>136.6</ele>
        <time>2015-04-20T19:43:24.116Z</time>
      </trkpt>
      <trkpt lat="48.80761" lon="2.32631">
        <ele>136.6</ele>
        <time>2015-04-20T19:43:25.017Z</time>
      </trkpt>
      <trkpt lat="48.80766" lon="2.32634">
        <ele>136.7</ele>
        <time>2015-04-20T19:43:26.021Z</time>
      </trkpt>
      <trkpt lat="48.80772" lon="2.32636">
        <ele>136.4</ele>
        <time>2015-04-20T19:43:27.066Z</time>
      </trkpt>
      <trkpt lat="48.80776" lon="2.32636">
        <ele>135.7</ele>
        <time>2015-04-20T19:43:28.088Z</time>
      </trkpt>
      <trkpt lat="48.80781" lon="2.32637">
        <ele>135.5</ele>
        <time>2015-04-20T19:43:28.976Z</time>
      </trkpt>
      <trkpt lat="48.80786" lon="2.32638">
        <ele>135.4</ele>
        <time>2015-04-20T19:43:29.996Z</time>
      </trkpt>
      <trkpt lat="48.80791" lon="2.3264">
        <ele>135.2</ele>
        <time>2015-04-20T19:43:31.036Z</time>
      </trkpt>
      <trkpt lat="48.80795" lon="2.32641">
        <ele>135.1</ele>
        <time>2015-04-20T19:43:32.045Z</time>
      </trkpt>
      <trkpt lat="48.808" lon="2.32642">
        <ele>135</ele>
        <time>2015-04-20T19:43:33.053Z</time>
      </trkpt>
      <trkpt lat="48.80805" lon="2.32643">
        <ele>135</ele>
        <time>2015-04-20T19:43:34.066Z</time>
      </trkpt>
      <trkpt lat="48.80809" lon="2.32644">
        <ele>134.9</ele>
        <time>2015-04-20T19:43:35.006Z</time>
      </trkpt>
      <trkpt lat="48.80815" lon="2.32645">
        <ele>135</ele>
        <time>2015-04-20T19:43:35.969Z</time>
      </trkpt>
      <trkpt lat="48.80821" lon="2.32645">
        <ele>135.2</ele>
        <time>2015-04-20T19:43:37.019Z</time>
      </trkpt>
      <trkpt lat="48.80826" lon="2.32647">
        <ele>135.4</ele>
        <time>2015-04-20T19:43:38.042Z</time>
      </trkpt>
      <trkpt lat="48.80832" lon="2.3265">
        <ele>136.5</ele>
        <time>2015-04-20T19:43:39.115Z</time>
      </trkpt>
      <trkpt lat="48.80837" lon="2.32651">
        <ele>136.5</ele>
        <time>2015-04-20T19:43:40.117Z</time>
      </trkpt>
      <trkpt lat="48.80845" lon="2.32652">
        <ele>137.5</ele>
        <time>2015-04-20T19:43:42.017Z</time>
      </trkpt>
      <trkpt lat="48.80849" lon="2.32652">
        <ele>137.6</ele>
        <time>2015-04-20T19:43:43.031Z</time>
      </trkpt>
      <trkpt lat="48.80857" lon="2.3265">
        <ele>137</ele>
        <time>2015-04-20T19:43:45.073Z</time>
      </trkpt>
      <trkpt lat="48.80861" lon="2.32649">
        <ele>136.5</ele>
        <time>2015-04-20T19:43:46.090Z</time>
      </trkpt>
      <trkpt lat="48.80867" lon="2.32647">
        <ele>136.2</ele>
        <time>2015-04-20T19:43:47.003Z</time>
      </trkpt>
      <trkpt lat="48.8087" lon="2.32647">
        <ele>135.9</ele>
        <time>2015-04-20T19:43:48.000Z</time>
      </trkpt>
      <trkpt lat="48.80879" lon="2.32646">
        <ele>135.5</ele>
        <time>2015-04-20T19:43:50.031Z</time>
      </trkpt>
      <trkpt lat="48.80882" lon="2.32646">
        <ele>135.2</ele>
        <time>2015-04-20T19:43:51.052Z</time>
      </trkpt>
      <trkpt lat="48.80889" lon="2.32648">
        <ele>135.5</ele>
        <time>2015-04-20T19:43:53.071Z</time>
      </trkpt>
      <trkpt lat="48.80893" lon="2.3265">
        <ele>136</ele>
        <time>2015-04-20T19:43:54.080Z</time>
      </trkpt>
      <trkpt lat="48.80897" lon="2.32649">
        <ele>136.3</ele>
        <time>2015-04-20T19:43:55.005Z</time>
      </trkpt>
      <trkpt lat="48.80903" lon="2.32647">
        <ele>136.6</ele>
        <time>2015-04-20T19:43:56.013Z</time>
      </trkpt>
      <trkpt lat="48.80909" lon="2.32645">
        <ele>136.7</ele>
        <time>2015-04-20T19:43:57.046Z</time>
      </trkpt>
      <trkpt lat="48.80914" lon="2.32644">
        <ele>136.8</ele>
        <time>2015-04-20T19:43:58.046Z</time>
      </trkpt>
      <trkpt lat="48.80919" lon="2.32644">
        <ele>136.8</ele>
        <time>2015-04-20T19:43:59.076Z</time>
      </trkpt>
      <trkpt lat="48.80924" lon="2.32645">
        <ele>136.8</ele>
        <time>2015-04-20T19:43:59.970Z</time>
      </trkpt>
      <trkpt lat="48.80929" lon="2.32646">
        <ele>136.8</ele>
        <time>2015-04-20T19:44:00.979Z</time>
      </trkpt>
      <trkpt lat="48.80934" lon="2.32647">
        <ele>136.7</ele>
        <time>2015-04-20T19:44:02.021Z</time>
      </trkpt>
      <trkpt lat="48.80942" lon="2.3265">
        <ele>136.4</ele>
        <time>2015-04-20T19:44:04.044Z</time>
      </trkpt>
      <trkpt lat="48.80947" lon="2.32655">
        <ele>135.6</ele>
        <time>2015-04-20T19:44:05.260Z</time>
      </trkpt>
      <trkpt lat="48.80952" lon="2.3266">
        <ele>134.7</ele>
        <time>2015-04-20T19:44:06.084Z</time>
      </trkpt>
      <trkpt lat="48.80956" lon="2.32665">
        <ele>134.1</ele>
        <time>2015-04-20T19:44:06.997Z</time>
      </trkpt>
      <trkpt lat="48.80961" lon="2.32668">
        <ele>133.9</ele>
        <time>2015-04-20T19:44:08.006Z</time>
      </trkpt>
      <trkpt lat="48.80967" lon="2.32674">
        <ele>132.9</ele>
        <time>2015-04-20T19:44:09.013Z</time>
      </trkpt>
      <trkpt lat="48.80972" lon="2.32679">
        <ele>132.4</ele>
        <time>2015-04-20T19:44:10.033Z</time>
      </trkpt>
      <trkpt lat="48.80976" lon="2.32686">
        <ele>131.2</ele>
        <time>2015-04-20T19:44:11.052Z</time>
      </trkpt>
      <trkpt lat="48.8098" lon="2.32691">
        <ele>130.4</ele>
        <time>2015-04-20T19:44:12.050Z</time>
      </trkpt>
      <trkpt lat="48.80983" lon="2.32696">
        <ele>129.8</ele>
        <time>2015-04-20T19:44:13.052Z</time>
      </trkpt>
      <trkpt lat="48.80988" lon="2.32705">
        <ele>129.5</ele>
        <time>2015-04-20T19:44:15.076Z</time>
      </trkpt>
      <trkpt lat="48.80991" lon="2.32708">
        <ele>129.4</ele>
        <time>2015-04-20T19:44:16.007Z</time>
      </trkpt>
      <trkpt lat="48.80994" lon="2.32716">
        <ele>129.7</ele>
        <time>2015-04-20T19:44:18.029Z</time>
      </trkpt>
      <trkpt lat="48.80995" lon="2.3272">
        <ele>130.1</ele>
        <time>2015-04-20T19:44:19.075Z</time>
      </trkpt>
      <trkpt lat="48.80995" lon="2.32729">
        <ele>130.7</ele>
        <time>2015-04-20T19:44:21.036Z</time>
      </trkpt>
      <trkpt lat="48.80994" lon="2.32734">
        <ele>131.7</ele>
        <time>2015-04-20T19:44:22.041Z</time>
      </trkpt>
      <trkpt lat="48.8099" lon="2.32741">
        <ele>132.4</ele>
        <time>2015-04-20T19:44:23.989Z</time>
      </trkpt>
      <trkpt lat="48.80988" lon="2.32745">
        <ele>132.4</ele>
        <time>2015-04-20T19:44:25.029Z</time>
      </trkpt>
      <trkpt lat="48.80985" lon="2.32754">
        <ele>133.5</ele>
        <time>2015-04-20T19:44:27.048Z</time>
      </trkpt>
      <trkpt lat="48.80983" lon="2.32758">
        <ele>134.2</ele>
        <time>2015-04-20T19:44:27.959Z</time>
      </trkpt>
      <trkpt lat="48.80982" lon="2.32767">
        <ele>136.1</ele>
        <time>2015-04-20T19:44:29.968Z</time>
      </trkpt>
      <trkpt lat="48.8098" lon="2.32772">
        <ele>137.3</ele>
        <time>2015-04-20T19:44:30.994Z</time>
      </trkpt>
      <trkpt lat="48.80977" lon="2.32777">
        <ele>136.3</ele>
        <time>2015-04-20T19:44:32.003Z</time>
      </trkpt>
      <trkpt lat="48.80975" lon="2.32783">
        <ele>135.9</ele>
        <time>2015-04-20T19:44:33.060Z</time>
      </trkpt>
      <trkpt lat="48.80972" lon="2.32794">
        <ele>136</ele>
        <time>2015-04-20T19:44:34.997Z</time>
      </trkpt>
      <trkpt lat="48.80971" lon="2.32801">
        <ele>136.3</ele>
        <time>2015-04-20T19:44:36.116Z</time>
      </trkpt>
      <trkpt lat="48.80968" lon="2.32808">
        <ele>136.6</ele>
        <time>2015-04-20T19:44:36.955Z</time>
      </trkpt>
      <trkpt lat="48.80967" lon="2.32814">
        <ele>136.8</ele>
        <time>2015-04-20T19:44:37.967Z</time>
      </trkpt>
      <trkpt lat="48.80964" lon="2.32821">
        <ele>134.9</ele>
        <time>2015-04-20T19:44:39.025Z</time>
      </trkpt>
      <trkpt lat="48.80962" lon="2.32827">
        <ele>134.1</ele>
        <time>2015-04-20T19:44:40.039Z</time>
      </trkpt>
      <trkpt lat="48.8096" lon="2.32834">
        <ele>133.7</ele>
        <time>2015-04-20T19:44:41.049Z</time>
      </trkpt>
      <trkpt lat="48.80957" lon="2.3284">
        <ele>133</ele>
        <time>2015-04-20T19:44:41.957Z</time>
      </trkpt>
      <trkpt lat="48.80955" lon="2.32846">
        <ele>132.6</ele>
        <time>2015-04-20T19:44:42.981Z</time>
      </trkpt>
      <trkpt lat="48.80952" lon="2.32852">
        <ele>131.8</ele>
        <time>2015-04-20T19:44:44.004Z</time>
      </trkpt>
      <trkpt lat="48.8095" lon="2.32859">
        <ele>130.8</ele>
        <time>2015-04-20T19:44:45.025Z</time>
      </trkpt>
      <trkpt lat="48.80947" lon="2.32867">
        <ele>130.4</ele>
        <time>2015-04-20T19:44:46.034Z</time>
      </trkpt>
      <trkpt lat="48.80945" lon="2.32873">
        <ele>130</ele>
        <time>2015-04-20T19:44:46.970Z</time>
      </trkpt>
      <trkpt lat="48.80943" lon="2.32881">
        <ele>129.4</ele>
        <time>2015-04-20T19:44:47.971Z</time>
      </trkpt>
      <trkpt lat="48.8094" lon="2.32888">
        <ele>128.6</ele>
        <time>2015-04-20T19:44:48.983Z</time>
      </trkpt>
      <trkpt lat="48.80938" lon="2.32895">
        <ele>127.5</ele>
        <time>2015-04-20T19:44:50.004Z</time>
      </trkpt>
      <trkpt lat="48.80936" lon="2.32902">
        <ele>126.9</ele>
        <time>2015-04-20T19:44:51.028Z</time>
      </trkpt>
      <trkpt lat="48.80935" lon="2.32909">
        <ele>126.4</ele>
        <time>2015-04-20T19:44:52.036Z</time>
      </trkpt>
      <trkpt lat="48.80933" lon="2.32915">
        <ele>126.1</ele>
        <time>2015-04-20T19:44:52.932Z</time>
      </trkpt>
      <trkpt lat="48.80931" lon="2.32922">
        <ele>125.8</ele>
        <time>2015-04-20T19:44:53.960Z</time>
      </trkpt>
      <trkpt lat="48.80929" lon="2.3293">
        <ele>126</ele>
        <time>2015-04-20T19:44:54.981Z</time>
      </trkpt>
      <trkpt lat="48.80927" lon="2.32936">
        <ele>126.2</ele>
        <time>2015-04-20T19:44:56.008Z</time>
      </trkpt>
      <trkpt lat="48.80926" lon="2.32944">
        <ele>126.4</ele>
        <time>2015-04-20T19:44:56.999Z</time>
      </trkpt>
      <trkpt lat="48.80924" lon="2.32952">
        <ele>126.7</ele>
        <time>2015-04-20T19:44:58.000Z</time>
      </trkpt>
      <trkpt lat="48.80921" lon="2.32958">
        <ele>126.5</ele>
        <time>2015-04-20T19:44:59.015Z</time>
      </trkpt>
      <trkpt lat="48.80919" lon="2.32966">
        <ele>126.4</ele>
        <time>2015-04-20T19:45:00.027Z</time>
      </trkpt>
      <trkpt lat="48.80917" lon="2.32972">
        <ele>126.5</ele>
        <time>2015-04-20T19:45:01.064Z</time>
      </trkpt>
      <trkpt lat="48.80915" lon="2.3298">
        <ele>126.7</ele>
        <time>2015-04-20T19:45:01.965Z</time>
      </trkpt>
      <trkpt lat="48.80914" lon="2.32986">
        <ele>126.7</ele>
        <time>2015-04-20T19:45:03.081Z</time>
      </trkpt>
      <trkpt lat="48.80912" lon="2.32993">
        <ele>126.7</ele>
        <time>2015-04-20T19:45:03.957Z</time>
      </trkpt>
      <trkpt lat="48.8091" lon="2.33">
        <ele>126.6</ele>
        <time>2015-04-20T19:45:04.957Z</time>
      </trkpt>
      <trkpt lat="48.80907" lon="2.33008">
        <ele>126.7</ele>
        <time>2015-04-20T19:45:05.981Z</time>
      </trkpt>
      <trkpt lat="48.80904" lon="2.33015">
        <ele>126.9</ele>
        <time>2015-04-20T19:45:07.021Z</time>
      </trkpt>
      <trkpt lat="48.80902" lon="2.33021">
        <ele>127.2</ele>
        <time>2015-04-20T19:45:08.039Z</time>
      </trkpt>
      <trkpt lat="48.809" lon="2.33029">
        <ele>127.2</ele>
        <time>2015-04-20T19:45:09.050Z</time>
      </trkpt>
      <trkpt lat="48.80898" lon="2.33036">
        <ele>127.4</ele>
        <time>2015-04-20T19:45:09.961Z</time>
      </trkpt>
      <trkpt lat="48.80896" lon="2.33043">
        <ele>127.3</ele>
        <time>2015-04-20T19:45:10.975Z</time>
      </trkpt>
      <trkpt lat="48.80894" lon="2.3305">
        <ele>127.3</ele>
        <time>2015-04-20T19:45:11.978Z</time>
      </trkpt>
      <trkpt lat="48.80891" lon="2.33056">
        <ele>126.8</ele>
        <time>2015-04-20T19:45:13.023Z</time>
      </trkpt>
      <trkpt lat="48.80889" lon="2.33061">
        <ele>126.6</ele>
        <time>2015-04-20T19:45:14.052Z</time>
      </trkpt>
      <trkpt lat="48.80884" lon="2.33071">
        <ele>126.4</ele>
        <time>2015-04-20T19:45:15.970Z</time>
      </trkpt>
      <trkpt lat="48.80882" lon="2.33075">
        <ele>125.9</ele>
        <time>2015-04-20T19:45:16.984Z</time>
      </trkpt>
      <trkpt lat="48.80877" lon="2.33086">
        <ele>125.5</ele>
        <time>2015-04-20T19:45:19.037Z</time>
      </trkpt>
      <trkpt lat="48.80875" lon="2.33092">
        <ele>125.6</ele>
        <time>2015-04-20T19:45:20.046Z</time>
      </trkpt>
      <trkpt lat="48.80871" lon="2.33103">
        <ele>124.8</ele>
        <time>2015-04-20T19:45:22.072Z</time>
      </trkpt>
      <trkpt lat="48.80869" lon="2.33109">
        <ele>124.8</ele>
        <time>2015-04-20T19:45:22.990Z</time>
      </trkpt>
      <trkpt lat="48.80864" lon="2.3312">
        <ele>125.6</ele>
        <time>2015-04-20T19:45:25.023Z</time>
      </trkpt>
      <trkpt lat="48.80862" lon="2.33124">
        <ele>125.4</ele>
        <time>2015-04-20T19:45:26.045Z</time>
      </trkpt>
      <trkpt lat="48.80858" lon="2.33135">
        <ele>125.6</ele>
        <time>2015-04-20T19:45:28.012Z</time>
      </trkpt>
      <trkpt lat="48.80856" lon="2.33139">
        <ele>125.7</ele>
        <time>2015-04-20T19:45:29.022Z</time>
      </trkpt>
      <trkpt lat="48.80852" lon="2.33151">
        <ele>125.4</ele>
        <time>2015-04-20T19:45:31.993Z</time>
      </trkpt>
      <trkpt lat="48.8085" lon="2.33154">
        <ele>125.2</ele>
        <time>2015-04-20T19:45:33.004Z</time>
      </trkpt>
      <trkpt lat="48.80847" lon="2.33159">
        <ele>124.6</ele>
        <time>2015-04-20T19:45:48.943Z</time>
      </trkpt>
      <trkpt lat="48.80841" lon="2.33188">
        <ele>128.6</ele>
        <time>2015-04-20T19:45:49.963Z</time>
      </trkpt>
      <trkpt lat="48.80835" lon="2.33196">
        <ele>127.3</ele>
        <time>2015-04-20T19:45:51.992Z</time>
      </trkpt>
      <trkpt lat="48.80833" lon="2.332">
        <ele>126.9</ele>
        <time>2015-04-20T19:45:53.043Z</time>
      </trkpt>
      <trkpt lat="48.80827" lon="2.33208">
        <ele>124.9</ele>
        <time>2015-04-20T19:45:55.981Z</time>
      </trkpt>
      <trkpt lat="48.80825" lon="2.33214">
        <ele>124.5</ele>
        <time>2015-04-20T19:45:57.061Z</time>
      </trkpt>
      <trkpt lat="48.80823" lon="2.3322">
        <ele>124.2</ele>
        <time>2015-04-20T19:45:57.984Z</time>
      </trkpt>
      <trkpt lat="48.8082" lon="2.33226">
        <ele>124</ele>
        <time>2015-04-20T19:45:58.997Z</time>
      </trkpt>
      <trkpt lat="48.80817" lon="2.33232">
        <ele>123.4</ele>
        <time>2015-04-20T19:46:00.021Z</time>
      </trkpt>
      <trkpt lat="48.80814" lon="2.33237">
        <ele>123.1</ele>
        <time>2015-04-20T19:46:01.031Z</time>
      </trkpt>
      <trkpt lat="48.8081" lon="2.33247">
        <ele>122.7</ele>
        <time>2015-04-20T19:46:03.054Z</time>
      </trkpt>
      <trkpt lat="48.80808" lon="2.33253">
        <ele>122.5</ele>
        <time>2015-04-20T19:46:03.951Z</time>
      </trkpt>
      <trkpt lat="48.80805" lon="2.33259">
        <ele>122.3</ele>
        <time>2015-04-20T19:46:04.977Z</time>
      </trkpt>
      <trkpt lat="48.80803" lon="2.33266">
        <ele>122.1</ele>
        <time>2015-04-20T19:46:05.979Z</time>
      </trkpt>
      <trkpt lat="48.80801" lon="2.33278">
        <ele>122</ele>
        <time>2015-04-20T19:46:08.019Z</time>
      </trkpt>
      <trkpt lat="48.80802" lon="2.33284">
        <ele>121.9</ele>
        <time>2015-04-20T19:46:09.027Z</time>
      </trkpt>
      <trkpt lat="48.80804" lon="2.33295">
        <ele>122.5</ele>
        <time>2015-04-20T19:46:11.976Z</time>
      </trkpt>
      <trkpt lat="48.80805" lon="2.33298">
        <ele>122.5</ele>
        <time>2015-04-20T19:46:12.976Z</time>
      </trkpt>
      <trkpt lat="48.80804" lon="2.33311">
        <ele>122.2</ele>
        <time>2015-04-20T19:46:17.001Z</time>
      </trkpt>
      <trkpt lat="48.80805" lon="2.33315">
        <ele>122.2</ele>
        <time>2015-04-20T19:46:18.020Z</time>
      </trkpt>
      <trkpt lat="48.80804" lon="2.33325">
        <ele>122.8</ele>
        <time>2015-04-20T19:46:21.088Z</time>
      </trkpt>
      <trkpt lat="48.80803" lon="2.33328">
        <ele>123.1</ele>
        <time>2015-04-20T19:46:22.035Z</time>
      </trkpt>
      <trkpt lat="48.80801" lon="2.33336">
        <ele>124.3</ele>
        <time>2015-04-20T19:46:24.018Z</time>
      </trkpt>
      <trkpt lat="48.80798" lon="2.33342">
        <ele>124.7</ele>
        <time>2015-04-20T19:46:25.027Z</time>
      </trkpt>
      <trkpt lat="48.80796" lon="2.33348">
        <ele>124.6</ele>
        <time>2015-04-20T19:46:26.052Z</time>
      </trkpt>
      <trkpt lat="48.80793" lon="2.33354">
        <ele>123.9</ele>
        <time>2015-04-20T19:46:27.052Z</time>
      </trkpt>
      <trkpt lat="48.8079" lon="2.33361">
        <ele>123</ele>
        <time>2015-04-20T19:46:27.985Z</time>
      </trkpt>
      <trkpt lat="48.80788" lon="2.33367">
        <ele>122.3</ele>
        <time>2015-04-20T19:46:29.001Z</time>
      </trkpt>
      <trkpt lat="48.80785" lon="2.33372">
        <ele>121.6</ele>
        <time>2015-04-20T19:46:30.004Z</time>
      </trkpt>
      <trkpt lat="48.80781" lon="2.33377">
        <ele>120.8</ele>
        <time>2015-04-20T19:46:31.022Z</time>
      </trkpt>
      <trkpt lat="48.80775" lon="2.33387">
        <ele>120.5</ele>
        <time>2015-04-20T19:46:33.044Z</time>
      </trkpt>
      <trkpt lat="48.80773" lon="2.33393">
        <ele>120.3</ele>
        <time>2015-04-20T19:46:33.969Z</time>
      </trkpt>
      <trkpt lat="48.80768" lon="2.33403">
        <ele>120.4</ele>
        <time>2015-04-20T19:46:35.990Z</time>
      </trkpt>
      <trkpt lat="48.80766" lon="2.33411">
        <ele>120.8</ele>
        <time>2015-04-20T19:46:36.995Z</time>
      </trkpt>
      <trkpt lat="48.80761" lon="2.3342">
        <ele>121.7</ele>
        <time>2015-04-20T19:46:39.082Z</time>
      </trkpt>
      <trkpt lat="48.8076" lon="2.33424">
        <ele>121.5</ele>
        <time>2015-04-20T19:46:40.005Z</time>
      </trkpt>
      <trkpt lat="48.80757" lon="2.33431">
        <ele>121.2</ele>
        <time>2015-04-20T19:46:41.978Z</time>
      </trkpt>
      <trkpt lat="48.80756" lon="2.33436">
        <ele>121.2</ele>
        <time>2015-04-20T19:46:42.980Z</time>
      </trkpt>
      <trkpt lat="48.80753" lon="2.33448">
        <ele>121.4</ele>
        <time>2015-04-20T19:46:45.028Z</time>
      </trkpt>
      <trkpt lat="48.80751" lon="2.33455">
        <ele>120.6</ele>
        <time>2015-04-20T19:46:46.036Z</time>
      </trkpt>
      <trkpt lat="48.80749" lon="2.33463">
        <ele>120.1</ele>
        <time>2015-04-20T19:46:47.049Z</time>
      </trkpt>
      <trkpt lat="48.80746" lon="2.33471">
        <ele>119.2</ele>
        <time>2015-04-20T19:46:48.081Z</time>
      </trkpt>
      <trkpt lat="48.80744" lon="2.33478">
        <ele>118.3</ele>
        <time>2015-04-20T19:46:48.980Z</time>
      </trkpt>
      <trkpt lat="48.80741" lon="2.33485">
        <ele>117.9</ele>
        <time>2015-04-20T19:46:49.982Z</time>
      </trkpt>
      <trkpt lat="48.80738" lon="2.33493">
        <ele>117.4</ele>
        <time>2015-04-20T19:46:51.021Z</time>
      </trkpt>
      <trkpt lat="48.80736" lon="2.335">
        <ele>117.3</ele>
        <time>2015-04-20T19:46:52.032Z</time>
      </trkpt>
      <trkpt lat="48.80733" lon="2.33508">
        <ele>116.9</ele>
        <time>2015-04-20T19:46:53.050Z</time>
      </trkpt>
      <trkpt lat="48.8073" lon="2.33514">
        <ele>116.9</ele>
        <time>2015-04-20T19:46:53.974Z</time>
      </trkpt>
      <trkpt lat="48.80726" lon="2.33525">
        <ele>116.7</ele>
        <time>2015-04-20T19:46:56.016Z</time>
      </trkpt>
      <trkpt lat="48.80724" lon="2.3353">
        <ele>116.9</ele>
        <time>2015-04-20T19:46:57.180Z</time>
      </trkpt>
      <trkpt lat="48.8072" lon="2.33538">
        <ele>117.1</ele>
        <time>2015-04-20T19:46:59.050Z</time>
      </trkpt>
      <trkpt lat="48.80719" lon="2.33542">
        <ele>117.2</ele>
        <time>2015-04-20T19:47:00.142Z</time>
      </trkpt>
      <trkpt lat="48.80718" lon="2.33551">
        <ele>117.7</ele>
        <time>2015-04-20T19:47:02.035Z</time>
      </trkpt>
      <trkpt lat="48.80716" lon="2.33557">
        <ele>117.3</ele>
        <time>2015-04-20T19:47:03.067Z</time>
      </trkpt>
      <trkpt lat="48.80714" lon="2.33567">
        <ele>117.4</ele>
        <time>2015-04-20T19:47:05.025Z</time>
      </trkpt>
      <trkpt lat="48.80714" lon="2.33573">
        <ele>117.5</ele>
        <time>2015-04-20T19:47:06.063Z</time>
      </trkpt>
      <trkpt lat="48.8071" lon="2.33585">
        <ele>117.8</ele>
        <time>2015-04-20T19:47:09.063Z</time>
      </trkpt>
      <trkpt lat="48.80708" lon="2.33588">
        <ele>117.4</ele>
        <time>2015-04-20T19:47:09.989Z</time>
      </trkpt>
      <trkpt lat="48.80706" lon="2.33599">
        <ele>116.9</ele>
        <time>2015-04-20T19:47:11.996Z</time>
      </trkpt>
      <trkpt lat="48.80704" lon="2.33604">
        <ele>116.4</ele>
        <time>2015-04-20T19:47:13.080Z</time>
      </trkpt>
      <trkpt lat="48.80699" lon="2.33615">
        <ele>115.2</ele>
        <time>2015-04-20T19:47:15.031Z</time>
      </trkpt>
      <trkpt lat="48.80697" lon="2.33621">
        <ele>115</ele>
        <time>2015-04-20T19:47:16.051Z</time>
      </trkpt>
      <trkpt lat="48.80694" lon="2.33627">
        <ele>115.2</ele>
        <time>2015-04-20T19:47:16.958Z</time>
      </trkpt>
      <trkpt lat="48.80692" lon="2.33633">
        <ele>115.1</ele>
        <time>2015-04-20T19:47:17.981Z</time>
      </trkpt>
      <trkpt lat="48.80689" lon="2.33639">
        <ele>115.1</ele>
        <time>2015-04-20T19:47:19.022Z</time>
      </trkpt>
      <trkpt lat="48.80687" lon="2.33645">
        <ele>115</ele>
        <time>2015-04-20T19:47:20.059Z</time>
      </trkpt>
      <trkpt lat="48.80684" lon="2.33652">
        <ele>114.7</ele>
        <time>2015-04-20T19:47:21.129Z</time>
      </trkpt>
      <trkpt lat="48.80682" lon="2.33659">
        <ele>114.4</ele>
        <time>2015-04-20T19:47:21.957Z</time>
      </trkpt>
      <trkpt lat="48.80679" lon="2.33664">
        <ele>114.3</ele>
        <time>2015-04-20T19:47:22.994Z</time>
      </trkpt>
      <trkpt lat="48.80676" lon="2.33671">
        <ele>114.1</ele>
        <time>2015-04-20T19:47:24.011Z</time>
      </trkpt>
      <trkpt lat="48.80673" lon="2.33678">
        <ele>113.9</ele>
        <time>2015-04-20T19:47:25.037Z</time>
      </trkpt>
      <trkpt lat="48.8067" lon="2.33685">
        <ele>113.9</ele>
        <time>2015-04-20T19:47:25.960Z</time>
      </trkpt>
      <trkpt lat="48.80666" lon="2.33692">
        <ele>113.6</ele>
        <time>2015-04-20T19:47:27.081Z</time>
      </trkpt>
      <trkpt lat="48.80663" lon="2.33699">
        <ele>113.5</ele>
        <time>2015-04-20T19:47:27.975Z</time>
      </trkpt>
      <trkpt lat="48.8066" lon="2.33706">
        <ele>113.3</ele>
        <time>2015-04-20T19:47:29.015Z</time>
      </trkpt>
      <trkpt lat="48.80657" lon="2.33712">
        <ele>113.3</ele>
        <time>2015-04-20T19:47:30.025Z</time>
      </trkpt>
      <trkpt lat="48.80651" lon="2.33722">
        <ele>112.6</ele>
        <time>2015-04-20T19:47:31.970Z</time>
      </trkpt>
      <trkpt lat="48.80647" lon="2.33726">
        <ele>112.3</ele>
        <time>2015-04-20T19:47:33.031Z</time>
      </trkpt>
      <trkpt lat="48.80644" lon="2.33731">
        <ele>112.2</ele>
        <time>2015-04-20T19:47:33.992Z</time>
      </trkpt>
      <trkpt lat="48.8064" lon="2.33735">
        <ele>111.9</ele>
        <time>2015-04-20T19:47:35.008Z</time>
      </trkpt>
      <trkpt lat="48.80637" lon="2.33739">
        <ele>111.8</ele>
        <time>2015-04-20T19:47:36.059Z</time>
      </trkpt>
      <trkpt lat="48.80633" lon="2.33744">
        <ele>111.7</ele>
        <time>2015-04-20T19:47:36.969Z</time>
      </trkpt>
      <trkpt lat="48.80628" lon="2.33749">
        <ele>111.7</ele>
        <time>2015-04-20T19:47:38.031Z</time>
      </trkpt>
      <trkpt lat="48.80625" lon="2.33754">
        <ele>111.5</ele>
        <time>2015-04-20T19:47:39.065Z</time>
      </trkpt>
      <trkpt lat="48.8062" lon="2.33759">
        <ele>111.4</ele>
        <time>2015-04-20T19:47:39.968Z</time>
      </trkpt>
      <trkpt lat="48.80614" lon="2.33765">
        <ele>111.3</ele>
        <time>2015-04-20T19:47:41.004Z</time>
      </trkpt>
      <trkpt lat="48.80609" lon="2.33769">
        <ele>111.3</ele>
        <time>2015-04-20T19:47:42.013Z</time>
      </trkpt>
      <trkpt lat="48.80604" lon="2.33774">
        <ele>111.1</ele>
        <time>2015-04-20T19:47:43.033Z</time>
      </trkpt>
      <trkpt lat="48.80598" lon="2.33781">
        <ele>111.1</ele>
        <time>2015-04-20T19:47:43.950Z</time>
      </trkpt>
      <trkpt lat="48.80591" lon="2.33786">
        <ele>111.3</ele>
        <time>2015-04-20T19:47:44.989Z</time>
      </trkpt>
      <trkpt lat="48.80585" lon="2.3379">
        <ele>111.3</ele>
        <time>2015-04-20T19:47:46.016Z</time>
      </trkpt>
      <trkpt lat="48.80578" lon="2.33793">
        <ele>111.2</ele>
        <time>2015-04-20T19:47:46.972Z</time>
      </trkpt>
      <trkpt lat="48.80572" lon="2.33795">
        <ele>110.9</ele>
        <time>2015-04-20T19:47:47.980Z</time>
      </trkpt>
      <trkpt lat="48.80566" lon="2.33796">
        <ele>110.8</ele>
        <time>2015-04-20T19:47:48.991Z</time>
      </trkpt>
      <trkpt lat="48.8056" lon="2.33797">
        <ele>110.2</ele>
        <time>2015-04-20T19:47:50.002Z</time>
      </trkpt>
      <trkpt lat="48.80554" lon="2.33798">
        <ele>110</ele>
        <time>2015-04-20T19:47:51.085Z</time>
      </trkpt>
      <trkpt lat="48.80549" lon="2.33798">
        <ele>109.7</ele>
        <time>2015-04-20T19:47:51.958Z</time>
      </trkpt>
      <trkpt lat="48.80544" lon="2.33798">
        <ele>109.2</ele>
        <time>2015-04-20T19:47:53.013Z</time>
      </trkpt>
      <trkpt lat="48.80539" lon="2.33798">
        <ele>108.6</ele>
        <time>2015-04-20T19:47:54.024Z</time>
      </trkpt>
      <trkpt lat="48.80534" lon="2.33797">
        <ele>108.2</ele>
        <time>2015-04-20T19:47:55.237Z</time>
      </trkpt>
      <trkpt lat="48.80529" lon="2.33797">
        <ele>108.6</ele>
        <time>2015-04-20T19:47:56.016Z</time>
      </trkpt>
      <trkpt lat="48.80495" lon="2.33799">
        <ele>107.9</ele>
        <time>2015-04-20T19:48:03.043Z</time>
      </trkpt>
      <trkpt lat="48.8049" lon="2.33799">
        <ele>107.8</ele>
        <time>2015-04-20T19:48:03.950Z</time>
      </trkpt>
      <trkpt lat="48.80486" lon="2.33799">
        <ele>107.7</ele>
        <time>2015-04-20T19:48:05.058Z</time>
      </trkpt>
      <trkpt lat="48.80481" lon="2.338">
        <ele>107.6</ele>
        <time>2015-04-20T19:48:05.971Z</time>
      </trkpt>
      <trkpt lat="48.80477" lon="2.338">
        <ele>107.5</ele>
        <time>2015-04-20T19:48:06.958Z</time>
      </trkpt>
      <trkpt lat="48.80472" lon="2.33799">
        <ele>107.4</ele>
        <time>2015-04-20T19:48:08.026Z</time>
      </trkpt>
      <trkpt lat="48.80466" lon="2.33799">
        <ele>107.4</ele>
        <time>2015-04-20T19:48:08.991Z</time>
      </trkpt>
      <trkpt lat="48.80454" lon="2.33797">
        <ele>106.9</ele>
        <time>2015-04-20T19:48:10.961Z</time>
      </trkpt>
      <trkpt lat="48.80447" lon="2.33799">
        <ele>107</ele>
        <time>2015-04-20T19:48:11.996Z</time>
      </trkpt>
      <trkpt lat="48.8044" lon="2.33801">
        <ele>106.9</ele>
        <time>2015-04-20T19:48:13.054Z</time>
      </trkpt>
      <trkpt lat="48.80433" lon="2.33802">
        <ele>106.2</ele>
        <time>2015-04-20T19:48:13.942Z</time>
      </trkpt>
      <trkpt lat="48.80425" lon="2.33806">
        <ele>105.8</ele>
        <time>2015-04-20T19:48:15.009Z</time>
      </trkpt>
      <trkpt lat="48.80418" lon="2.3381">
        <ele>105.5</ele>
        <time>2015-04-20T19:48:16.039Z</time>
      </trkpt>
      <trkpt lat="48.80411" lon="2.33814">
        <ele>105.3</ele>
        <time>2015-04-20T19:48:17.054Z</time>
      </trkpt>
      <trkpt lat="48.80379" lon="2.3383">
        <ele>104</ele>
        <time>2015-04-20T19:48:22.001Z</time>
      </trkpt>
      <trkpt lat="48.80372" lon="2.33833">
        <ele>104.3</ele>
        <time>2015-04-20T19:48:23.013Z</time>
      </trkpt>
      <trkpt lat="48.80367" lon="2.33833">
        <ele>104.3</ele>
        <time>2015-04-20T19:48:24.016Z</time>
      </trkpt>
      <trkpt lat="48.80359" lon="2.33831">
        <ele>104.5</ele>
        <time>2015-04-20T19:48:25.983Z</time>
      </trkpt>
      <trkpt lat="48.80355" lon="2.3383">
        <ele>104.9</ele>
        <time>2015-04-20T19:48:26.990Z</time>
      </trkpt>
      <trkpt lat="48.8035" lon="2.33831">
        <ele>104.7</ele>
        <time>2015-04-20T19:48:28.012Z</time>
      </trkpt>
      <trkpt lat="48.80346" lon="2.33831">
        <ele>104.7</ele>
        <time>2015-04-20T19:48:29.204Z</time>
      </trkpt>
      <trkpt lat="48.80339" lon="2.33826">
        <ele>104.6</ele>
        <time>2015-04-20T19:48:31.985Z</time>
      </trkpt>
      <trkpt lat="48.80335" lon="2.33828">
        <ele>104.5</ele>
        <time>2015-04-20T19:48:33.028Z</time>
      </trkpt>
      <trkpt lat="48.8033" lon="2.33829">
        <ele>104.5</ele>
        <time>2015-04-20T19:48:33.966Z</time>
      </trkpt>
      <trkpt lat="48.80325" lon="2.3383">
        <ele>104.2</ele>
        <time>2015-04-20T19:48:34.973Z</time>
      </trkpt>
      <trkpt lat="48.8032" lon="2.3383">
        <ele>104</ele>
        <time>2015-04-20T19:48:36.034Z</time>
      </trkpt>
      <trkpt lat="48.80314" lon="2.3383">
        <ele>104</ele>
        <time>2015-04-20T19:48:36.951Z</time>
      </trkpt>
      <trkpt lat="48.80309" lon="2.33831">
        <ele>104.3</ele>
        <time>2015-04-20T19:48:37.967Z</time>
      </trkpt>
      <trkpt lat="48.80303" lon="2.33832">
        <ele>104</ele>
        <time>2015-04-20T19:48:39.025Z</time>
      </trkpt>
      <trkpt lat="48.8025" lon="2.33845">
        <ele>102</ele>
        <time>2015-04-20T19:48:51.032Z</time>
      </trkpt>
      <trkpt lat="48.80245" lon="2.33847">
        <ele>102.3</ele>
        <time>2015-04-20T19:48:52.046Z</time>
      </trkpt>
      <trkpt lat="48.8024" lon="2.33847">
        <ele>102</ele>
        <time>2015-04-20T19:48:53.015Z</time>
      </trkpt>
      <trkpt lat="48.80236" lon="2.33849">
        <ele>101.9</ele>
        <time>2015-04-20T19:48:54.014Z</time>
      </trkpt>
      <trkpt lat="48.80231" lon="2.33851">
        <ele>102.1</ele>
        <time>2015-04-20T19:48:55.022Z</time>
      </trkpt>
      <trkpt lat="48.80224" lon="2.33854">
        <ele>102.2</ele>
        <time>2015-04-20T19:48:58.105Z</time>
      </trkpt>
      <trkpt lat="48.80222" lon="2.33856">
        <ele>102.6</ele>
        <time>2015-04-20T19:48:58.990Z</time>
      </trkpt>
      <trkpt lat="48.80216" lon="2.33864">
        <ele>103.9</ele>
        <time>2015-04-20T19:49:05.053Z</time>
      </trkpt>
      <trkpt lat="48.80213" lon="2.33871">
        <ele>105.1</ele>
        <time>2015-04-20T19:49:06.121Z</time>
      </trkpt>
      <trkpt lat="48.8021" lon="2.33883">
        <ele>107</ele>
        <time>2015-04-20T19:49:10.029Z</time>
      </trkpt>
      <trkpt lat="48.8021" lon="2.33886">
        <ele>107.7</ele>
        <time>2015-04-20T19:49:11.019Z</time>
      </trkpt>
      <trkpt lat="48.80207" lon="2.33894">
        <ele>109</ele>
        <time>2015-04-20T19:49:28.049Z</time>
      </trkpt>
      <trkpt lat="48.80215" lon="2.33905">
        <ele>112.9</ele>
        <time>2015-04-20T19:49:29.037Z</time>
      </trkpt>
      <trkpt lat="48.80217" lon="2.33917">
        <ele>114.1</ele>
        <time>2015-04-20T19:49:33.063Z</time>
      </trkpt>
      <trkpt lat="48.80217" lon="2.33921">
        <ele>114.2</ele>
        <time>2015-04-20T19:49:34.011Z</time>
      </trkpt>
      <trkpt lat="48.80219" lon="2.33934">
        <ele>114.6</ele>
        <time>2015-04-20T19:49:37.933Z</time>
      </trkpt>
      <trkpt lat="48.8022" lon="2.33937">
        <ele>114.8</ele>
        <time>2015-04-20T19:49:38.975Z</time>
      </trkpt>
      <trkpt lat="48.80224" lon="2.33948">
        <ele>115.9</ele>
        <time>2015-04-20T19:49:43.032Z</time>
      </trkpt>
      <trkpt lat="48.80224" lon="2.33952">
        <ele>116.2</ele>
        <time>2015-04-20T19:49:44.044Z</time>
      </trkpt>
      <trkpt lat="48.80225" lon="2.33961">
        <ele>116.5</ele>
        <time>2015-04-20T19:49:46.001Z</time>
      </trkpt>
      <trkpt lat="48.80225" lon="2.33967">
        <ele>116.5</ele>
        <time>2015-04-20T19:49:46.988Z</time>
      </trkpt>
      <trkpt lat="48.80229" lon="2.33977">
        <ele>116.4</ele>
        <time>2015-04-20T19:49:48.968Z</time>
      </trkpt>
      <trkpt lat="48.80233" lon="2.3398">
        <ele>116.2</ele>
        <time>2015-04-20T19:49:49.983Z</time>
      </trkpt>
      <trkpt lat="48.80238" lon="2.33982">
        <ele>115.9</ele>
        <time>2015-04-20T19:49:51.019Z</time>
      </trkpt>
      <trkpt lat="48.80243" lon="2.33984">
        <ele>115.6</ele>
        <time>2015-04-20T19:49:52.037Z</time>
      </trkpt>
      <trkpt lat="48.80248" lon="2.33985">
        <ele>115.5</ele>
        <time>2015-04-20T19:49:52.975Z</time>
      </trkpt>
      <trkpt lat="48.80251" lon="2.33991">
        <ele>115.5</ele>
        <time>2015-04-20T19:49:53.993Z</time>
      </trkpt>
      <trkpt lat="48.80253" lon="2.34">
        <ele>115.6</ele>
        <time>2015-04-20T19:49:54.998Z</time>
      </trkpt>
      <trkpt lat="48.80256" lon="2.34008">
        <ele>115.7</ele>
        <time>2015-04-20T19:49:56.024Z</time>
      </trkpt>
      <trkpt lat="48.80261" lon="2.34018">
        <ele>116.2</ele>
        <time>2015-04-20T19:49:58.575Z</time>
      </trkpt>
      <trkpt lat="48.80263" lon="2.34021">
        <ele>116.6</ele>
        <time>2015-04-20T19:49:58.975Z</time>
      </trkpt>
      <trkpt lat="48.8027" lon="2.34027">
        <ele>116.8</ele>
        <time>2015-04-20T19:50:00.993Z</time>
      </trkpt>
      <trkpt lat="48.80272" lon="2.34034">
        <ele>116.6</ele>
        <time>2015-04-20T19:50:01.991Z</time>
      </trkpt>
      <trkpt lat="48.80276" lon="2.34043">
        <ele>117</ele>
        <time>2015-04-20T19:50:04.027Z</time>
      </trkpt>
      <trkpt lat="48.80278" lon="2.34048">
        <ele>117.2</ele>
        <time>2015-04-20T19:50:05.034Z</time>
      </trkpt>
      <trkpt lat="48.80281" lon="2.3406">
        <ele>116.9</ele>
        <time>2015-04-20T19:50:07.013Z</time>
      </trkpt>
      <trkpt lat="48.80283" lon="2.34066">
        <ele>116.8</ele>
        <time>2015-04-20T19:50:07.995Z</time>
      </trkpt>
      <trkpt lat="48.80286" lon="2.34077">
        <ele>116.9</ele>
        <time>2015-04-20T19:50:10.021Z</time>
      </trkpt>
      <trkpt lat="48.80288" lon="2.34083">
        <ele>117.3</ele>
        <time>2015-04-20T19:50:11.023Z</time>
      </trkpt>
      <trkpt lat="48.80294" lon="2.34092">
        <ele>117.4</ele>
        <time>2015-04-20T19:50:13.638Z</time>
      </trkpt>
      <trkpt lat="48.80297" lon="2.34097">
        <ele>117.4</ele>
        <time>2015-04-20T19:50:14.046Z</time>
      </trkpt>
      <trkpt lat="48.80302" lon="2.341">
        <ele>117.7</ele>
        <time>2015-04-20T19:50:15.065Z</time>
      </trkpt>
      <trkpt lat="48.80305" lon="2.34104">
        <ele>117.9</ele>
        <time>2015-04-20T19:50:15.991Z</time>
      </trkpt>
      <trkpt lat="48.80313" lon="2.34111">
        <ele>118</ele>
        <time>2015-04-20T19:50:18.864Z</time>
      </trkpt>
      <trkpt lat="48.80316" lon="2.34115">
        <ele>118.1</ele>
        <time>2015-04-20T19:50:18.996Z</time>
      </trkpt>
      <trkpt lat="48.80323" lon="2.34122">
        <ele>118.6</ele>
        <time>2015-04-20T19:50:21.041Z</time>
      </trkpt>
      <trkpt lat="48.80327" lon="2.34126">
        <ele>119.1</ele>
        <time>2015-04-20T19:50:22.043Z</time>
      </trkpt>
      <trkpt lat="48.80333" lon="2.34133">
        <ele>120</ele>
        <time>2015-04-20T19:50:24.035Z</time>
      </trkpt>
      <trkpt lat="48.80336" lon="2.34137">
        <ele>120.2</ele>
        <time>2015-04-20T19:50:25.003Z</time>
      </trkpt>
      <trkpt lat="48.80339" lon="2.34145">
        <ele>120.9</ele>
        <time>2015-04-20T19:50:27.058Z</time>
      </trkpt>
      <trkpt lat="48.80341" lon="2.3415">
        <ele>121.3</ele>
        <time>2015-04-20T19:50:27.964Z</time>
      </trkpt>
      <trkpt lat="48.80346" lon="2.34158">
        <ele>122.3</ele>
        <time>2015-04-20T19:50:29.968Z</time>
      </trkpt>
      <trkpt lat="48.80349" lon="2.34162">
        <ele>123</ele>
        <time>2015-04-20T19:50:31.057Z</time>
      </trkpt>
      <trkpt lat="48.80355" lon="2.34171">
        <ele>123.8</ele>
        <time>2015-04-20T19:50:33.065Z</time>
      </trkpt>
      <trkpt lat="48.80357" lon="2.34176">
        <ele>123.8</ele>
        <time>2015-04-20T19:50:34.013Z</time>
      </trkpt>
      <trkpt lat="48.8036" lon="2.34185">
        <ele>124</ele>
        <time>2015-04-20T19:50:36.039Z</time>
      </trkpt>
      <trkpt lat="48.80362" lon="2.3419">
        <ele>124.2</ele>
        <time>2015-04-20T19:50:37.064Z</time>
      </trkpt>
      <trkpt lat="48.80364" lon="2.342">
        <ele>124.6</ele>
        <time>2015-04-20T19:50:39.026Z</time>
      </trkpt>
      <trkpt lat="48.80365" lon="2.34205">
        <ele>124.8</ele>
        <time>2015-04-20T19:50:40.117Z</time>
      </trkpt>
      <trkpt lat="48.80369" lon="2.34215">
        <ele>125.2</ele>
        <time>2015-04-20T19:50:42.008Z</time>
      </trkpt>
      <trkpt lat="48.80372" lon="2.34221">
        <ele>125.4</ele>
        <time>2015-04-20T19:50:43.034Z</time>
      </trkpt>
      <trkpt lat="48.80376" lon="2.34232">
        <ele>125.7</ele>
        <time>2015-04-20T19:50:45.132Z</time>
      </trkpt>
      <trkpt lat="48.8038" lon="2.34238">
        <ele>125.8</ele>
        <time>2015-04-20T19:50:46.062Z</time>
      </trkpt>
      <trkpt lat="48.80383" lon="2.34243">
        <ele>125.7</ele>
        <time>2015-04-20T19:50:47.079Z</time>
      </trkpt>
      <trkpt lat="48.80386" lon="2.34248">
        <ele>125.6</ele>
        <time>2015-04-20T19:50:47.977Z</time>
      </trkpt>
      <trkpt lat="48.80393" lon="2.34256">
        <ele>125.1</ele>
        <time>2015-04-20T19:50:50.156Z</time>
      </trkpt>
      <trkpt lat="48.80395" lon="2.3426">
        <ele>124.9</ele>
        <time>2015-04-20T19:50:51.060Z</time>
      </trkpt>
      <trkpt lat="48.80399" lon="2.34265">
        <ele>124.3</ele>
        <time>2015-04-20T19:50:52.069Z</time>
      </trkpt>
      <trkpt lat="48.80402" lon="2.34271">
        <ele>124.2</ele>
        <time>2015-04-20T19:50:52.972Z</time>
      </trkpt>
      <trkpt lat="48.80405" lon="2.34277">
        <ele>124.1</ele>
        <time>2015-04-20T19:50:54.009Z</time>
      </trkpt>
      <trkpt lat="48.80408" lon="2.34283">
        <ele>124.4</ele>
        <time>2015-04-20T19:50:55.051Z</time>
      </trkpt>
      <trkpt lat="48.80411" lon="2.34289">
        <ele>124.9</ele>
        <time>2015-04-20T19:50:56.056Z</time>
      </trkpt>
      <trkpt lat="48.80414" lon="2.34294">
        <ele>125.1</ele>
        <time>2015-04-20T19:50:57.069Z</time>
      </trkpt>
      <trkpt lat="48.80417" lon="2.34299">
        <ele>125.3</ele>
        <time>2015-04-20T19:50:58.084Z</time>
      </trkpt>
      <trkpt lat="48.80421" lon="2.34304">
        <ele>125.3</ele>
        <time>2015-04-20T19:50:58.976Z</time>
      </trkpt>
      <trkpt lat="48.80425" lon="2.3431">
        <ele>125.2</ele>
        <time>2015-04-20T19:51:00.595Z</time>
      </trkpt>
      <trkpt lat="48.80428" lon="2.34316">
        <ele>125.3</ele>
        <time>2015-04-20T19:51:00.971Z</time>
      </trkpt>
      <trkpt lat="48.80433" lon="2.34326">
        <ele>125.5</ele>
        <time>2015-04-20T19:51:03.107Z</time>
      </trkpt>
      <trkpt lat="48.80436" lon="2.34332">
        <ele>125.7</ele>
        <time>2015-04-20T19:51:03.989Z</time>
      </trkpt>
      <trkpt lat="48.8044" lon="2.34343">
        <ele>125.5</ele>
        <time>2015-04-20T19:51:06.058Z</time>
      </trkpt>
      <trkpt lat="48.80443" lon="2.34349">
        <ele>125.6</ele>
        <time>2015-04-20T19:51:07.065Z</time>
      </trkpt>
      <trkpt lat="48.80449" lon="2.34358">
        <ele>125.5</ele>
        <time>2015-04-20T19:51:09.081Z</time>
      </trkpt>
      <trkpt lat="48.80451" lon="2.34363">
        <ele>125.6</ele>
        <time>2015-04-20T19:51:09.968Z</time>
      </trkpt>
      <trkpt lat="48.80457" lon="2.34373">
        <ele>126.2</ele>
        <time>2015-04-20T19:51:12.012Z</time>
      </trkpt>
      <trkpt lat="48.8046" lon="2.34378">
        <ele>126.4</ele>
        <time>2015-04-20T19:51:13.060Z</time>
      </trkpt>
      <trkpt lat="48.80465" lon="2.34387">
        <ele>126.8</ele>
        <time>2015-04-20T19:51:15.083Z</time>
      </trkpt>
      <trkpt lat="48.80467" lon="2.34392">
        <ele>127</ele>
        <time>2015-04-20T19:51:16.063Z</time>
      </trkpt>
      <trkpt lat="48.80472" lon="2.344">
        <ele>127.9</ele>
        <time>2015-04-20T19:51:18.071Z</time>
      </trkpt>
      <trkpt lat="48.80474" lon="2.34404">
        <ele>128.4</ele>
        <time>2015-04-20T19:51:19.100Z</time>
      </trkpt>
      <trkpt lat="48.80478" lon="2.34414">
        <ele>129.4</ele>
        <time>2015-04-20T19:51:21.972Z</time>
      </trkpt>
      <trkpt lat="48.80477" lon="2.34417">
        <ele>129.5</ele>
        <time>2015-04-20T19:51:23.011Z</time>
      </trkpt>
      <trkpt lat="48.8048" lon="2.34427">
        <ele>130.2</ele>
        <time>2015-04-20T19:54:09.087Z</time>
      </trkpt>
      <trkpt lat="48.80482" lon="2.34436">
        <ele>136</ele>
        <time>2015-04-20T19:54:10.037Z</time>
      </trkpt>
      <trkpt lat="48.80483" lon="2.34448">
        <ele>135.7</ele>
        <time>2015-04-20T19:54:15.640Z</time>
      </trkpt>
      <trkpt lat="48.80482" lon="2.34451">
        <ele>135.6</ele>
        <time>2015-04-20T19:54:16.099Z</time>
      </trkpt>
      <trkpt lat="48.80482" lon="2.34464">
        <ele>135.3</ele>
        <time>2015-04-20T19:54:20.724Z</time>
      </trkpt>
      <trkpt lat="48.80483" lon="2.34466">
        <ele>135.2</ele>
        <time>2015-04-20T19:54:21.061Z</time>
      </trkpt>
      <trkpt lat="48.80488" lon="2.34476">
        <ele>134.6</ele>
        <time>2015-04-20T19:54:45.136Z</time>
      </trkpt>
      <trkpt lat="48.80489" lon="2.34478">
        <ele>134.7</ele>
        <time>2015-04-20T19:54:46.040Z</time>
      </trkpt>
      <trkpt lat="48.80495" lon="2.34484">
        <ele>135</ele>
        <time>2015-04-20T19:54:49.019Z</time>
      </trkpt>
      <trkpt lat="48.80498" lon="2.34485">
        <ele>135.2</ele>
        <time>2015-04-20T19:54:50.036Z</time>
      </trkpt>
      <trkpt lat="48.80504" lon="2.34487">
        <ele>135.4</ele>
        <time>2015-04-20T19:54:51.986Z</time>
      </trkpt>
      <trkpt lat="48.80507" lon="2.34489">
        <ele>135.3</ele>
        <time>2015-04-20T19:54:52.989Z</time>
      </trkpt>
      <trkpt lat="48.80513" lon="2.34492">
        <ele>135.1</ele>
        <time>2015-04-20T19:54:55.044Z</time>
      </trkpt>
      <trkpt lat="48.80517" lon="2.34494">
        <ele>135.3</ele>
        <time>2015-04-20T19:54:56.060Z</time>
      </trkpt>
      <trkpt lat="48.80524" lon="2.34498">
        <ele>135.4</ele>
        <time>2015-04-20T19:54:57.993Z</time>
      </trkpt>
      <trkpt lat="48.80526" lon="2.345">
        <ele>135.3</ele>
        <time>2015-04-20T19:54:58.990Z</time>
      </trkpt>
      <trkpt lat="48.80534" lon="2.34505">
        <ele>134.5</ele>
        <time>2015-04-20T19:55:02.017Z</time>
      </trkpt>
      <trkpt lat="48.80537" lon="2.34509">
        <ele>134.4</ele>
        <time>2015-04-20T19:55:03.097Z</time>
      </trkpt>
      <trkpt lat="48.80544" lon="2.34516">
        <ele>134.4</ele>
        <time>2015-04-20T19:55:05.008Z</time>
      </trkpt>
      <trkpt lat="48.80548" lon="2.34519">
        <ele>134.6</ele>
        <time>2015-04-20T19:55:06.028Z</time>
      </trkpt>
      <trkpt lat="48.80552" lon="2.34523">
        <ele>134.6</ele>
        <time>2015-04-20T19:55:06.998Z</time>
      </trkpt>
      <trkpt lat="48.80556" lon="2.34527">
        <ele>134.5</ele>
        <time>2015-04-20T19:55:08.002Z</time>
      </trkpt>
      <trkpt lat="48.80561" lon="2.34531">
        <ele>134.7</ele>
        <time>2015-04-20T19:55:09.017Z</time>
      </trkpt>
      <trkpt lat="48.80564" lon="2.34535">
        <ele>134.4</ele>
        <time>2015-04-20T19:55:10.007Z</time>
      </trkpt>
      <trkpt lat="48.80569" lon="2.34539">
        <ele>134.5</ele>
        <time>2015-04-20T19:55:11.036Z</time>
      </trkpt>
      <trkpt lat="48.80574" lon="2.34543">
        <ele>134.7</ele>
        <time>2015-04-20T19:55:12.040Z</time>
      </trkpt>
      <trkpt lat="48.80579" lon="2.34546">
        <ele>134.8</ele>
        <time>2015-04-20T19:55:13.056Z</time>
      </trkpt>
      <trkpt lat="48.80584" lon="2.34549">
        <ele>134.6</ele>
        <time>2015-04-20T19:55:14.068Z</time>
      </trkpt>
      <trkpt lat="48.80588" lon="2.34554">
        <ele>134.5</ele>
        <time>2015-04-20T19:55:15.068Z</time>
      </trkpt>
      <trkpt lat="48.80592" lon="2.34558">
        <ele>134.6</ele>
        <time>2015-04-20T19:55:15.979Z</time>
      </trkpt>
      <trkpt lat="48.80596" lon="2.34562">
        <ele>134.3</ele>
        <time>2015-04-20T19:55:16.981Z</time>
      </trkpt>
      <trkpt lat="48.806" lon="2.34567">
        <ele>134.4</ele>
        <time>2015-04-20T19:55:17.983Z</time>
      </trkpt>
      <trkpt lat="48.80606" lon="2.34574">
        <ele>134.5</ele>
        <time>2015-04-20T19:55:20.000Z</time>
      </trkpt>
      <trkpt lat="48.80609" lon="2.34578">
        <ele>134.5</ele>
        <time>2015-04-20T19:55:21.133Z</time>
      </trkpt>
      <trkpt lat="48.80613" lon="2.34581">
        <ele>134.6</ele>
        <time>2015-04-20T19:55:22.001Z</time>
      </trkpt>
      <trkpt lat="48.80618" lon="2.34585">
        <ele>134.6</ele>
        <time>2015-04-20T19:55:22.979Z</time>
      </trkpt>
      <trkpt lat="48.80624" lon="2.34589">
        <ele>134.7</ele>
        <time>2015-04-20T19:55:23.999Z</time>
      </trkpt>
      <trkpt lat="48.80629" lon="2.34593">
        <ele>134.7</ele>
        <time>2015-04-20T19:55:25.010Z</time>
      </trkpt>
      <trkpt lat="48.80634" lon="2.34597">
        <ele>134.5</ele>
        <time>2015-04-20T19:55:26.034Z</time>
      </trkpt>
      <trkpt lat="48.80639" lon="2.34602">
        <ele>134.4</ele>
        <time>2015-04-20T19:55:27.048Z</time>
      </trkpt>
      <trkpt lat="48.80644" lon="2.34606">
        <ele>134.3</ele>
        <time>2015-04-20T19:55:27.940Z</time>
      </trkpt>
      <trkpt lat="48.80649" lon="2.3461">
        <ele>134.3</ele>
        <time>2015-04-20T19:55:28.974Z</time>
      </trkpt>
      <trkpt lat="48.80653" lon="2.34613">
        <ele>134.1</ele>
        <time>2015-04-20T19:55:29.978Z</time>
      </trkpt>
      <trkpt lat="48.80656" lon="2.34618">
        <ele>134.1</ele>
        <time>2015-04-20T19:55:31.041Z</time>
      </trkpt>
      <trkpt lat="48.8066" lon="2.34621">
        <ele>133.8</ele>
        <time>2015-04-20T19:55:32.039Z</time>
      </trkpt>
      <trkpt lat="48.80664" lon="2.34625">
        <ele>133.6</ele>
        <time>2015-04-20T19:55:33.044Z</time>
      </trkpt>
      <trkpt lat="48.80668" lon="2.34629">
        <ele>133.4</ele>
        <time>2015-04-20T19:55:34.061Z</time>
      </trkpt>
      <trkpt lat="48.80673" lon="2.34634">
        <ele>133.2</ele>
        <time>2015-04-20T19:55:34.955Z</time>
      </trkpt>
      <trkpt lat="48.80677" lon="2.34638">
        <ele>133.6</ele>
        <time>2015-04-20T19:55:35.971Z</time>
      </trkpt>
      <trkpt lat="48.80682" lon="2.34643">
        <ele>133.6</ele>
        <time>2015-04-20T19:55:37.046Z</time>
      </trkpt>
      <trkpt lat="48.80686" lon="2.34647">
        <ele>133.6</ele>
        <time>2015-04-20T19:55:37.946Z</time>
      </trkpt>
      <trkpt lat="48.8069" lon="2.34651">
        <ele>133.3</ele>
        <time>2015-04-20T19:55:39.021Z</time>
      </trkpt>
      <trkpt lat="48.80694" lon="2.34655">
        <ele>133.2</ele>
        <time>2015-04-20T19:55:40.075Z</time>
      </trkpt>
      <trkpt lat="48.80699" lon="2.3466">
        <ele>133.1</ele>
        <time>2015-04-20T19:55:40.952Z</time>
      </trkpt>
      <trkpt lat="48.80702" lon="2.34664">
        <ele>132.9</ele>
        <time>2015-04-20T19:55:42.031Z</time>
      </trkpt>
      <trkpt lat="48.80707" lon="2.34668">
        <ele>132.9</ele>
        <time>2015-04-20T19:55:42.989Z</time>
      </trkpt>
      <trkpt lat="48.80711" lon="2.34672">
        <ele>132.9</ele>
        <time>2015-04-20T19:55:43.969Z</time>
      </trkpt>
      <trkpt lat="48.80718" lon="2.34676">
        <ele>133.1</ele>
        <time>2015-04-20T19:55:45.021Z</time>
      </trkpt>
      <trkpt lat="48.80722" lon="2.3468">
        <ele>133.2</ele>
        <time>2015-04-20T19:55:46.027Z</time>
      </trkpt>
      <trkpt lat="48.80726" lon="2.34684">
        <ele>133</ele>
        <time>2015-04-20T19:55:47.035Z</time>
      </trkpt>
      <trkpt lat="48.80731" lon="2.34689">
        <ele>133</ele>
        <time>2015-04-20T19:55:48.054Z</time>
      </trkpt>
      <trkpt lat="48.80735" lon="2.34693">
        <ele>132.9</ele>
        <time>2015-04-20T19:55:48.950Z</time>
      </trkpt>
      <trkpt lat="48.80739" lon="2.34698">
        <ele>133.1</ele>
        <time>2015-04-20T19:55:50.013Z</time>
      </trkpt>
      <trkpt lat="48.80743" lon="2.34703">
        <ele>133</ele>
        <time>2015-04-20T19:55:51.018Z</time>
      </trkpt>
      <trkpt lat="48.80747" lon="2.34707">
        <ele>133.1</ele>
        <time>2015-04-20T19:55:52.032Z</time>
      </trkpt>
      <trkpt lat="48.8075" lon="2.34712">
        <ele>133.1</ele>
        <time>2015-04-20T19:55:53.036Z</time>
      </trkpt>
      <trkpt lat="48.80754" lon="2.34716">
        <ele>133.2</ele>
        <time>2015-04-20T19:55:54.051Z</time>
      </trkpt>
      <trkpt lat="48.80757" lon="2.34721">
        <ele>133.1</ele>
        <time>2015-04-20T19:55:55.014Z</time>
      </trkpt>
      <trkpt lat="48.80761" lon="2.34725">
        <ele>133</ele>
        <time>2015-04-20T19:55:56.028Z</time>
      </trkpt>
      <trkpt lat="48.80765" lon="2.34729">
        <ele>133.1</ele>
        <time>2015-04-20T19:55:57.027Z</time>
      </trkpt>
      <trkpt lat="48.80769" lon="2.34733">
        <ele>133.3</ele>
        <time>2015-04-20T19:55:58.037Z</time>
      </trkpt>
      <trkpt lat="48.80773" lon="2.34737">
        <ele>133.5</ele>
        <time>2015-04-20T19:55:59.044Z</time>
      </trkpt>
      <trkpt lat="48.80778" lon="2.34741">
        <ele>133.5</ele>
        <time>2015-04-20T19:56:00.003Z</time>
      </trkpt>
      <trkpt lat="48.80782" lon="2.34745">
        <ele>133.4</ele>
        <time>2015-04-20T19:56:01.005Z</time>
      </trkpt>
      <trkpt lat="48.80786" lon="2.3475">
        <ele>133.5</ele>
        <time>2015-04-20T19:56:02.001Z</time>
      </trkpt>
      <trkpt lat="48.80791" lon="2.34754">
        <ele>133.5</ele>
        <time>2015-04-20T19:56:03.136Z</time>
      </trkpt>
      <trkpt lat="48.80795" lon="2.34758">
        <ele>133.4</ele>
        <time>2015-04-20T19:56:03.975Z</time>
      </trkpt>
      <trkpt lat="48.80799" lon="2.34763">
        <ele>133.5</ele>
        <time>2015-04-20T19:56:04.985Z</time>
      </trkpt>
      <trkpt lat="48.80803" lon="2.34767">
        <ele>133.7</ele>
        <time>2015-04-20T19:56:06.013Z</time>
      </trkpt>
      <trkpt lat="48.80807" lon="2.34772">
        <ele>133.8</ele>
        <time>2015-04-20T19:56:07.037Z</time>
      </trkpt>
      <trkpt lat="48.80811" lon="2.34777">
        <ele>133.9</ele>
        <time>2015-04-20T19:56:08.049Z</time>
      </trkpt>
      <trkpt lat="48.80815" lon="2.34781">
        <ele>134</ele>
        <time>2015-04-20T19:56:09.052Z</time>
      </trkpt>
      <trkpt lat="48.80819" lon="2.34786">
        <ele>134</ele>
        <time>2015-04-20T19:56:09.946Z</time>
      </trkpt>
      <trkpt lat="48.80824" lon="2.34791">
        <ele>134.1</ele>
        <time>2015-04-20T19:56:10.970Z</time>
      </trkpt>
      <trkpt lat="48.80828" lon="2.34796">
        <ele>134</ele>
        <time>2015-04-20T19:56:11.957Z</time>
      </trkpt>
      <trkpt lat="48.80832" lon="2.348">
        <ele>134.2</ele>
        <time>2015-04-20T19:56:12.988Z</time>
      </trkpt>
      <trkpt lat="48.80838" lon="2.34804">
        <ele>134</ele>
        <time>2015-04-20T19:56:14.011Z</time>
      </trkpt>
      <trkpt lat="48.80843" lon="2.34808">
        <ele>134</ele>
        <time>2015-04-20T19:56:14.995Z</time>
      </trkpt>
      <trkpt lat="48.80848" lon="2.34812">
        <ele>133.8</ele>
        <time>2015-04-20T19:56:16.010Z</time>
      </trkpt>
      <trkpt lat="48.80853" lon="2.34816">
        <ele>133.7</ele>
        <time>2015-04-20T19:56:17.030Z</time>
      </trkpt>
      <trkpt lat="48.80857" lon="2.34821">
        <ele>133.7</ele>
        <time>2015-04-20T19:56:18.040Z</time>
      </trkpt>
      <trkpt lat="48.80861" lon="2.34826">
        <ele>133.5</ele>
        <time>2015-04-20T19:56:19.058Z</time>
      </trkpt>
      <trkpt lat="48.80866" lon="2.34831">
        <ele>133.5</ele>
        <time>2015-04-20T19:56:20.080Z</time>
      </trkpt>
      <trkpt lat="48.80871" lon="2.34835">
        <ele>133.3</ele>
        <time>2015-04-20T19:56:21.023Z</time>
      </trkpt>
      <trkpt lat="48.80875" lon="2.34841">
        <ele>133.1</ele>
        <time>2015-04-20T19:56:22.026Z</time>
      </trkpt>
      <trkpt lat="48.80879" lon="2.34846">
        <ele>133.1</ele>
        <time>2015-04-20T19:56:23.038Z</time>
      </trkpt>
      <trkpt lat="48.80883" lon="2.34851">
        <ele>132.9</ele>
        <time>2015-04-20T19:56:24.052Z</time>
      </trkpt>
      <trkpt lat="48.80888" lon="2.34855">
        <ele>132.7</ele>
        <time>2015-04-20T19:56:24.984Z</time>
      </trkpt>
      <trkpt lat="48.80893" lon="2.3486">
        <ele>132.4</ele>
        <time>2015-04-20T19:56:25.957Z</time>
      </trkpt>
      <trkpt lat="48.80898" lon="2.34866">
        <ele>132.1</ele>
        <time>2015-04-20T19:56:27.013Z</time>
      </trkpt>
      <trkpt lat="48.80904" lon="2.3487">
        <ele>131.9</ele>
        <time>2015-04-20T19:56:28.013Z</time>
      </trkpt>
      <trkpt lat="48.80909" lon="2.34874">
        <ele>131.7</ele>
        <time>2015-04-20T19:56:29.056Z</time>
      </trkpt>
      <trkpt lat="48.80913" lon="2.34878">
        <ele>131.3</ele>
        <time>2015-04-20T19:56:29.988Z</time>
      </trkpt>
      <trkpt lat="48.80918" lon="2.34882">
        <ele>131.1</ele>
        <time>2015-04-20T19:56:30.979Z</time>
      </trkpt>
      <trkpt lat="48.80923" lon="2.34888">
        <ele>130.6</ele>
        <time>2015-04-20T19:56:31.992Z</time>
      </trkpt>
      <trkpt lat="48.80928" lon="2.34893">
        <ele>130.3</ele>
        <time>2015-04-20T19:56:33.020Z</time>
      </trkpt>
      <trkpt lat="48.80933" lon="2.34898">
        <ele>129.7</ele>
        <time>2015-04-20T19:56:34.026Z</time>
      </trkpt>
      <trkpt lat="48.80938" lon="2.34903">
        <ele>129</ele>
        <time>2015-04-20T19:56:35.052Z</time>
      </trkpt>
      <trkpt lat="48.80943" lon="2.34908">
        <ele>128.5</ele>
        <time>2015-04-20T19:56:36.070Z</time>
      </trkpt>
      <trkpt lat="48.80947" lon="2.34915">
        <ele>128.4</ele>
        <time>2015-04-20T19:56:36.967Z</time>
      </trkpt>
      <trkpt lat="48.80952" lon="2.34921">
        <ele>128.6</ele>
        <time>2015-04-20T19:56:37.971Z</time>
      </trkpt>
      <trkpt lat="48.80957" lon="2.34927">
        <ele>128.5</ele>
        <time>2015-04-20T19:56:38.990Z</time>
      </trkpt>
      <trkpt lat="48.80961" lon="2.34932">
        <ele>128.5</ele>
        <time>2015-04-20T19:56:40.033Z</time>
      </trkpt>
      <trkpt lat="48.80966" lon="2.34937">
        <ele>128.7</ele>
        <time>2015-04-20T19:56:41.027Z</time>
      </trkpt>
      <trkpt lat="48.8097" lon="2.34941">
        <ele>128.8</ele>
        <time>2015-04-20T19:56:42.031Z</time>
      </trkpt>
      <trkpt lat="48.80975" lon="2.34945">
        <ele>129.1</ele>
        <time>2015-04-20T19:56:43.033Z</time>
      </trkpt>
      <trkpt lat="48.8098" lon="2.34949">
        <ele>129.3</ele>
        <time>2015-04-20T19:56:44.036Z</time>
      </trkpt>
      <trkpt lat="48.80985" lon="2.34953">
        <ele>129.2</ele>
        <time>2015-04-20T19:56:45.042Z</time>
      </trkpt>
      <trkpt lat="48.8099" lon="2.34957">
        <ele>129.1</ele>
        <time>2015-04-20T19:56:45.979Z</time>
      </trkpt>
      <trkpt lat="48.80995" lon="2.34962">
        <ele>129.2</ele>
        <time>2015-04-20T19:56:46.951Z</time>
      </trkpt>
      <trkpt lat="48.81" lon="2.34966">
        <ele>129.2</ele>
        <time>2015-04-20T19:56:47.980Z</time>
      </trkpt>
      <trkpt lat="48.81005" lon="2.3497">
        <ele>129.3</ele>
        <time>2015-04-20T19:56:49.016Z</time>
      </trkpt>
      <trkpt lat="48.8101" lon="2.34975">
        <ele>129.4</ele>
        <time>2015-04-20T19:56:50.026Z</time>
      </trkpt>
      <trkpt lat="48.81015" lon="2.3498">
        <ele>129.3</ele>
        <time>2015-04-20T19:56:51.045Z</time>
      </trkpt>
      <trkpt lat="48.8102" lon="2.34985">
        <ele>129.1</ele>
        <time>2015-04-20T19:56:51.945Z</time>
      </trkpt>
      <trkpt lat="48.81026" lon="2.34989">
        <ele>128.9</ele>
        <time>2015-04-20T19:56:52.958Z</time>
      </trkpt>
      <trkpt lat="48.81032" lon="2.34993">
        <ele>128.9</ele>
        <time>2015-04-20T19:56:53.966Z</time>
      </trkpt>
      <trkpt lat="48.81038" lon="2.34996">
        <ele>128.7</ele>
        <time>2015-04-20T19:56:54.984Z</time>
      </trkpt>
      <trkpt lat="48.81044" lon="2.35">
        <ele>128.5</ele>
        <time>2015-04-20T19:56:56.037Z</time>
      </trkpt>
      <trkpt lat="48.81049" lon="2.35005">
        <ele>128.5</ele>
        <time>2015-04-20T19:56:57.053Z</time>
      </trkpt>
      <trkpt lat="48.81055" lon="2.3501">
        <ele>128.5</ele>
        <time>2015-04-20T19:56:58.064Z</time>
      </trkpt>
      <trkpt lat="48.8106" lon="2.35015">
        <ele>128.4</ele>
        <time>2015-04-20T19:56:58.987Z</time>
      </trkpt>
      <trkpt lat="48.81066" lon="2.3502">
        <ele>128.2</ele>
        <time>2015-04-20T19:56:59.988Z</time>
      </trkpt>
      <trkpt lat="48.81071" lon="2.35024">
        <ele>128.2</ele>
        <time>2015-04-20T19:57:00.985Z</time>
      </trkpt>
      <trkpt lat="48.81077" lon="2.35029">
        <ele>128</ele>
        <time>2015-04-20T19:57:02.023Z</time>
      </trkpt>
      <trkpt lat="48.81082" lon="2.35034">
        <ele>127.7</ele>
        <time>2015-04-20T19:57:03.015Z</time>
      </trkpt>
      <trkpt lat="48.81087" lon="2.3504">
        <ele>127.6</ele>
        <time>2015-04-20T19:57:04.040Z</time>
      </trkpt>
      <trkpt lat="48.81092" lon="2.35046">
        <ele>127.5</ele>
        <time>2015-04-20T19:57:05.042Z</time>
      </trkpt>
      <trkpt lat="48.81098" lon="2.35052">
        <ele>127.2</ele>
        <time>2015-04-20T19:57:05.935Z</time>
      </trkpt>
      <trkpt lat="48.81103" lon="2.35058">
        <ele>127</ele>
        <time>2015-04-20T19:57:06.953Z</time>
      </trkpt>
      <trkpt lat="48.81108" lon="2.35066">
        <ele>126.8</ele>
        <time>2015-04-20T19:57:07.944Z</time>
      </trkpt>
      <trkpt lat="48.81113" lon="2.35073">
        <ele>126.5</ele>
        <time>2015-04-20T19:57:08.988Z</time>
      </trkpt>
      <trkpt lat="48.81118" lon="2.35079">
        <ele>126.4</ele>
        <time>2015-04-20T19:57:10.018Z</time>
      </trkpt>
      <trkpt lat="48.81124" lon="2.35086">
        <ele>126.5</ele>
        <time>2015-04-20T19:57:11.035Z</time>
      </trkpt>
      <trkpt lat="48.81129" lon="2.35092">
        <ele>126.6</ele>
        <time>2015-04-20T19:57:11.933Z</time>
      </trkpt>
      <trkpt lat="48.81134" lon="2.35098">
        <ele>126.6</ele>
        <time>2015-04-20T19:57:12.928Z</time>
      </trkpt>
      <trkpt lat="48.81138" lon="2.35105">
        <ele>126.5</ele>
        <time>2015-04-20T19:57:13.959Z</time>
      </trkpt>
      <trkpt lat="48.81143" lon="2.35112">
        <ele>126.4</ele>
        <time>2015-04-20T19:57:14.980Z</time>
      </trkpt>
      <trkpt lat="48.81147" lon="2.35119">
        <ele>126.2</ele>
        <time>2015-04-20T19:57:15.994Z</time>
      </trkpt>
      <trkpt lat="48.81152" lon="2.35126">
        <ele>126</ele>
        <time>2015-04-20T19:57:17.003Z</time>
      </trkpt>
      <trkpt lat="48.81156" lon="2.35134">
        <ele>125.8</ele>
        <time>2015-04-20T19:57:18.015Z</time>
      </trkpt>
      <trkpt lat="48.81159" lon="2.35142">
        <ele>125.5</ele>
        <time>2015-04-20T19:57:19.015Z</time>
      </trkpt>
      <trkpt lat="48.81163" lon="2.35151">
        <ele>125.4</ele>
        <time>2015-04-20T19:57:20.043Z</time>
      </trkpt>
      <trkpt lat="48.81166" lon="2.3516">
        <ele>125.1</ele>
        <time>2015-04-20T19:57:21.058Z</time>
      </trkpt>
      <trkpt lat="48.8117" lon="2.35168">
        <ele>124.5</ele>
        <time>2015-04-20T19:57:21.936Z</time>
      </trkpt>
      <trkpt lat="48.81174" lon="2.35176">
        <ele>124.3</ele>
        <time>2015-04-20T19:57:22.956Z</time>
      </trkpt>
      <trkpt lat="48.81179" lon="2.35184">
        <ele>124.1</ele>
        <time>2015-04-20T19:57:23.957Z</time>
      </trkpt>
      <trkpt lat="48.81183" lon="2.35192">
        <ele>123.8</ele>
        <time>2015-04-20T19:57:24.967Z</time>
      </trkpt>
      <trkpt lat="48.81187" lon="2.35201">
        <ele>123.6</ele>
        <time>2015-04-20T19:57:25.977Z</time>
      </trkpt>
      <trkpt lat="48.81192" lon="2.3521">
        <ele>123.4</ele>
        <time>2015-04-20T19:57:26.981Z</time>
      </trkpt>
      <trkpt lat="48.81196" lon="2.35218">
        <ele>123.5</ele>
        <time>2015-04-20T19:57:28.006Z</time>
      </trkpt>
      <trkpt lat="48.81201" lon="2.35226">
        <ele>123.7</ele>
        <time>2015-04-20T19:57:29.017Z</time>
      </trkpt>
      <trkpt lat="48.81205" lon="2.35234">
        <ele>123.5</ele>
        <time>2015-04-20T19:57:29.919Z</time>
      </trkpt>
      <trkpt lat="48.81209" lon="2.35242">
        <ele>123.4</ele>
        <time>2015-04-20T19:57:30.947Z</time>
      </trkpt>
      <trkpt lat="48.81213" lon="2.3525">
        <ele>123.3</ele>
        <time>2015-04-20T19:57:31.948Z</time>
      </trkpt>
      <trkpt lat="48.81216" lon="2.35258">
        <ele>122.9</ele>
        <time>2015-04-20T19:57:32.950Z</time>
      </trkpt>
      <trkpt lat="48.8122" lon="2.35265">
        <ele>122.6</ele>
        <time>2015-04-20T19:57:33.961Z</time>
      </trkpt>
      <trkpt lat="48.81223" lon="2.35272">
        <ele>122.2</ele>
        <time>2015-04-20T19:57:34.963Z</time>
      </trkpt>
      <trkpt lat="48.81226" lon="2.35278">
        <ele>121.8</ele>
        <time>2015-04-20T19:57:35.971Z</time>
      </trkpt>
      <trkpt lat="48.81229" lon="2.35284">
        <ele>121.5</ele>
        <time>2015-04-20T19:57:36.976Z</time>
      </trkpt>
      <trkpt lat="48.81232" lon="2.3529">
        <ele>121.6</ele>
        <time>2015-04-20T19:57:38.003Z</time>
      </trkpt>
      <trkpt lat="48.81236" lon="2.35296">
        <ele>121.8</ele>
        <time>2015-04-20T19:57:39.010Z</time>
      </trkpt>
      <trkpt lat="48.8124" lon="2.35302">
        <ele>122.2</ele>
        <time>2015-04-20T19:57:40.020Z</time>
      </trkpt>
      <trkpt lat="48.81243" lon="2.35308">
        <ele>122.5</ele>
        <time>2015-04-20T19:57:41.030Z</time>
      </trkpt>
      <trkpt lat="48.81246" lon="2.35313">
        <ele>122.5</ele>
        <time>2015-04-20T19:57:41.963Z</time>
      </trkpt>
      <trkpt lat="48.81249" lon="2.35318">
        <ele>122.6</ele>
        <time>2015-04-20T19:57:42.964Z</time>
      </trkpt>
      <trkpt lat="48.81256" lon="2.35326">
        <ele>122.3</ele>
        <time>2015-04-20T19:57:44.991Z</time>
      </trkpt>
      <trkpt lat="48.81259" lon="2.35328">
        <ele>122</ele>
        <time>2015-04-20T19:57:46.009Z</time>
      </trkpt>
      <trkpt lat="48.81266" lon="2.35334">
        <ele>121.7</ele>
        <time>2015-04-20T19:57:47.955Z</time>
      </trkpt>
      <trkpt lat="48.81269" lon="2.35339">
        <ele>121.3</ele>
        <time>2015-04-20T19:57:48.963Z</time>
      </trkpt>
      <trkpt lat="48.81272" lon="2.3535">
        <ele>120.3</ele>
        <time>2015-04-20T19:57:51.009Z</time>
      </trkpt>
      <trkpt lat="48.81274" lon="2.35355">
        <ele>120.2</ele>
        <time>2015-04-20T19:57:52.027Z</time>
      </trkpt>
      <trkpt lat="48.81276" lon="2.35366">
        <ele>119.1</ele>
        <time>2015-04-20T19:57:53.957Z</time>
      </trkpt>
      <trkpt lat="48.81406" lon="2.35544">
        <ele>120.1</ele>
        <time>2015-04-20T19:58:28.960Z</time>
      </trkpt>
      <trkpt lat="48.81413" lon="2.35552">
        <ele>119.8</ele>
        <time>2015-04-20T19:58:30.994Z</time>
      </trkpt>
      <trkpt lat="48.81417" lon="2.35557">
        <ele>119.8</ele>
        <time>2015-04-20T19:58:32.030Z</time>
      </trkpt>
      <trkpt lat="48.8142" lon="2.35561">
        <ele>119.8</ele>
        <time>2015-04-20T19:58:33.026Z</time>
      </trkpt>
      <trkpt lat="48.81427" lon="2.35569">
        <ele>119.7</ele>
        <time>2015-04-20T19:58:34.964Z</time>
      </trkpt>
      <trkpt lat="48.81431" lon="2.35573">
        <ele>119.6</ele>
        <time>2015-04-20T19:58:35.976Z</time>
      </trkpt>
      <trkpt lat="48.81434" lon="2.35577">
        <ele>119.5</ele>
        <time>2015-04-20T19:58:36.996Z</time>
      </trkpt>
      <trkpt lat="48.81438" lon="2.35581">
        <ele>119.5</ele>
        <time>2015-04-20T19:58:38.114Z</time>
      </trkpt>
      <trkpt lat="48.81442" lon="2.35585">
        <ele>119.6</ele>
        <time>2015-04-20T19:58:39.033Z</time>
      </trkpt>
      <trkpt lat="48.81446" lon="2.35589">
        <ele>119.5</ele>
        <time>2015-04-20T19:58:39.945Z</time>
      </trkpt>
      <trkpt lat="48.81453" lon="2.35596">
        <ele>119.1</ele>
        <time>2015-04-20T19:58:42.017Z</time>
      </trkpt>
      <trkpt lat="48.81457" lon="2.356">
        <ele>118.7</ele>
        <time>2015-04-20T19:58:43.042Z</time>
      </trkpt>
      <trkpt lat="48.81462" lon="2.35602">
        <ele>118.6</ele>
        <time>2015-04-20T19:58:43.962Z</time>
      </trkpt>
      <trkpt lat="48.81466" lon="2.35604">
        <ele>118.1</ele>
        <time>2015-04-20T19:58:44.997Z</time>
      </trkpt>
      <trkpt lat="48.81474" lon="2.3561">
        <ele>117.7</ele>
        <time>2015-04-20T19:58:46.940Z</time>
      </trkpt>
      <trkpt lat="48.81478" lon="2.35612">
        <ele>117.5</ele>
        <time>2015-04-20T19:58:48.024Z</time>
      </trkpt>
      <trkpt lat="48.81481" lon="2.35614">
        <ele>117.2</ele>
        <time>2015-04-20T19:58:48.940Z</time>
      </trkpt>
      <trkpt lat="48.81488" lon="2.35617">
        <ele>116.7</ele>
        <time>2015-04-20T19:58:51.001Z</time>
      </trkpt>
      <trkpt lat="48.81576" lon="2.35639">
        <ele>115.5</ele>
        <time>2015-04-20T19:59:06.961Z</time>
      </trkpt>
      <trkpt lat="48.81582" lon="2.35652">
        <ele>114.6</ele>
        <time>2015-04-20T19:59:07.984Z</time>
      </trkpt>
      <trkpt lat="48.81586" lon="2.35658">
        <ele>114.3</ele>
        <time>2015-04-20T19:59:09.040Z</time>
      </trkpt>
      <trkpt lat="48.8159" lon="2.35671">
        <ele>115</ele>
        <time>2015-04-20T19:59:09.946Z</time>
      </trkpt>
      <trkpt lat="48.81592" lon="2.35682">
        <ele>115.1</ele>
        <time>2015-04-20T19:59:11.026Z</time>
      </trkpt>
      <trkpt lat="48.81595" lon="2.3569">
        <ele>115.2</ele>
        <time>2015-04-20T19:59:11.997Z</time>
      </trkpt>
      <trkpt lat="48.81598" lon="2.35699">
        <ele>115.5</ele>
        <time>2015-04-20T19:59:12.936Z</time>
      </trkpt>
      <trkpt lat="48.81601" lon="2.35707">
        <ele>115.7</ele>
        <time>2015-04-20T19:59:13.958Z</time>
      </trkpt>
      <trkpt lat="48.81604" lon="2.35721">
        <ele>115.6</ele>
        <time>2015-04-20T19:59:15.999Z</time>
      </trkpt>
      <trkpt lat="48.81605" lon="2.35759">
        <ele>115.3</ele>
        <time>2015-04-20T19:59:21.961Z</time>
      </trkpt>
      <trkpt lat="48.81605" lon="2.35771">
        <ele>115.3</ele>
        <time>2015-04-20T19:59:23.941Z</time>
      </trkpt>
      <trkpt lat="48.81605" lon="2.35778">
        <ele>115.4</ele>
        <time>2015-04-20T19:59:24.963Z</time>
      </trkpt>
      <trkpt lat="48.81605" lon="2.35789">
        <ele>115.7</ele>
        <time>2015-04-20T19:59:27.010Z</time>
      </trkpt>
      <trkpt lat="48.81606" lon="2.35794">
        <ele>116</ele>
        <time>2015-04-20T19:59:28.016Z</time>
      </trkpt>
      <trkpt lat="48.81607" lon="2.358">
        <ele>116.3</ele>
        <time>2015-04-20T19:59:28.943Z</time>
      </trkpt>
      <trkpt lat="48.81601" lon="2.35845">
        <ele>117.2</ele>
        <time>2015-04-20T19:59:38.962Z</time>
      </trkpt>
      <trkpt lat="48.81601" lon="2.35857">
        <ele>117.6</ele>
        <time>2015-04-20T19:59:41.932Z</time>
      </trkpt>
      <trkpt lat="48.81601" lon="2.35861">
        <ele>117.7</ele>
        <time>2015-04-20T19:59:43.100Z</time>
      </trkpt>
      <trkpt lat="48.81598" lon="2.35872">
        <ele>117.9</ele>
        <time>2015-04-20T19:59:45.962Z</time>
      </trkpt>
      <trkpt lat="48.81598" lon="2.35876">
        <ele>117.7</ele>
        <time>2015-04-20T19:59:46.936Z</time>
      </trkpt>
      <trkpt lat="48.81596" lon="2.35888">
        <ele>117.8</ele>
        <time>2015-04-20T19:59:49.969Z</time>
      </trkpt>
      <trkpt lat="48.81596" lon="2.35893">
        <ele>118</ele>
        <time>2015-04-20T19:59:50.998Z</time>
      </trkpt>
      <trkpt lat="48.81596" lon="2.35905">
        <ele>118.1</ele>
        <time>2015-04-20T19:59:54.008Z</time>
      </trkpt>
      <trkpt lat="48.81596" lon="2.35909">
        <ele>118.2</ele>
        <time>2015-04-20T19:59:55.065Z</time>
      </trkpt>
      <trkpt lat="48.81597" lon="2.35922">
        <ele>119</ele>
        <time>2015-04-20T19:59:58.752Z</time>
      </trkpt>
      <trkpt lat="48.81598" lon="2.35927">
        <ele>119.1</ele>
        <time>2015-04-20T19:59:58.936Z</time>
      </trkpt>
      <trkpt lat="48.81597" lon="2.35936">
        <ele>119</ele>
        <time>2015-04-20T20:00:00.937Z</time>
      </trkpt>
      <trkpt lat="48.81596" lon="2.3594">
        <ele>118.8</ele>
        <time>2015-04-20T20:00:01.961Z</time>
      </trkpt>
      <trkpt lat="48.81594" lon="2.35951">
        <ele>118.7</ele>
        <time>2015-04-20T20:00:03.991Z</time>
      </trkpt>
      <trkpt lat="48.81593" lon="2.35956">
        <ele>118.7</ele>
        <time>2015-04-20T20:00:05.007Z</time>
      </trkpt>
      <trkpt lat="48.8159" lon="2.35968">
        <ele>118.4</ele>
        <time>2015-04-20T20:00:06.959Z</time>
      </trkpt>
      <trkpt lat="48.81589" lon="2.35973">
        <ele>118.2</ele>
        <time>2015-04-20T20:00:07.935Z</time>
      </trkpt>
      <trkpt lat="48.81587" lon="2.35983">
        <ele>117.7</ele>
        <time>2015-04-20T20:00:10.010Z</time>
      </trkpt>
      <trkpt lat="48.81586" lon="2.35988">
        <ele>117.6</ele>
        <time>2015-04-20T20:00:10.935Z</time>
      </trkpt>
      <trkpt lat="48.81584" lon="2.35999">
        <ele>117.1</ele>
        <time>2015-04-20T20:00:13.009Z</time>
      </trkpt>
      <trkpt lat="48.81583" lon="2.36004">
        <ele>117.3</ele>
        <time>2015-04-20T20:00:14.282Z</time>
      </trkpt>
      <trkpt lat="48.81581" lon="2.36013">
        <ele>118.2</ele>
        <time>2015-04-20T20:00:16.007Z</time>
      </trkpt>
      <trkpt lat="48.81581" lon="2.36019">
        <ele>118.4</ele>
        <time>2015-04-20T20:00:17.053Z</time>
      </trkpt>
      <trkpt lat="48.81581" lon="2.36029">
        <ele>119.2</ele>
        <time>2015-04-20T20:00:19.436Z</time>
      </trkpt>
      <trkpt lat="48.8158" lon="2.36034">
        <ele>119.7</ele>
        <time>2015-04-20T20:00:20.040Z</time>
      </trkpt>
      <trkpt lat="48.81582" lon="2.36043">
        <ele>122.2</ele>
        <time>2015-04-20T20:01:05.007Z</time>
      </trkpt>
      <trkpt lat="48.81575" lon="2.36062">
        <ele>131.4</ele>
        <time>2015-04-20T20:01:06.018Z</time>
      </trkpt>
      <trkpt lat="48.81576" lon="2.36073">
        <ele>130.8</ele>
        <time>2015-04-20T20:01:10.007Z</time>
      </trkpt>
      <trkpt lat="48.81576" lon="2.36076">
        <ele>130.7</ele>
        <time>2015-04-20T20:01:10.984Z</time>
      </trkpt>
      <trkpt lat="48.81581" lon="2.36085">
        <ele>123.9</ele>
        <time>2015-04-20T20:01:31.978Z</time>
      </trkpt>
      <trkpt lat="48.81583" lon="2.36087">
        <ele>123.6</ele>
        <time>2015-04-20T20:01:32.994Z</time>
      </trkpt>
      <trkpt lat="48.81591" lon="2.36088">
        <ele>122.7</ele>
        <time>2015-04-20T20:01:34.952Z</time>
      </trkpt>
      <trkpt lat="48.81595" lon="2.36087">
        <ele>122.6</ele>
        <time>2015-04-20T20:01:35.966Z</time>
      </trkpt>
      <trkpt lat="48.816" lon="2.36085">
        <ele>122.2</ele>
        <time>2015-04-20T20:01:36.944Z</time>
      </trkpt>
      <trkpt lat="48.81604" lon="2.36084">
        <ele>121.9</ele>
        <time>2015-04-20T20:01:37.974Z</time>
      </trkpt>
      <trkpt lat="48.81613" lon="2.36081">
        <ele>121.7</ele>
        <time>2015-04-20T20:01:40.030Z</time>
      </trkpt>
      <trkpt lat="48.81617" lon="2.36079">
        <ele>121.5</ele>
        <time>2015-04-20T20:01:41.049Z</time>
      </trkpt>
      <trkpt lat="48.81626" lon="2.36075">
        <ele>121.2</ele>
        <time>2015-04-20T20:01:42.963Z</time>
      </trkpt>
      <trkpt lat="48.8163" lon="2.36074">
        <ele>121.1</ele>
        <time>2015-04-20T20:01:43.988Z</time>
      </trkpt>
      <trkpt lat="48.81634" lon="2.36072">
        <ele>121.1</ele>
        <time>2015-04-20T20:01:45.002Z</time>
      </trkpt>
      <trkpt lat="48.81638" lon="2.36069">
        <ele>121</ele>
        <time>2015-04-20T20:01:46.021Z</time>
      </trkpt>
      <trkpt lat="48.81643" lon="2.36066">
        <ele>120.9</ele>
        <time>2015-04-20T20:01:46.946Z</time>
      </trkpt>
      <trkpt lat="48.81646" lon="2.36061">
        <ele>120.8</ele>
        <time>2015-04-20T20:01:47.948Z</time>
      </trkpt>
      <trkpt lat="48.81653" lon="2.36053">
        <ele>120.5</ele>
        <time>2015-04-20T20:01:49.983Z</time>
      </trkpt>
      <trkpt lat="48.81657" lon="2.36049">
        <ele>120.5</ele>
        <time>2015-04-20T20:01:50.986Z</time>
      </trkpt>
      <trkpt lat="48.81662" lon="2.36046">
        <ele>120.6</ele>
        <time>2015-04-20T20:01:52.008Z</time>
      </trkpt>
      <trkpt lat="48.81666" lon="2.36044">
        <ele>120.3</ele>
        <time>2015-04-20T20:01:53.026Z</time>
      </trkpt>
      <trkpt lat="48.81671" lon="2.36043">
        <ele>120.1</ele>
        <time>2015-04-20T20:01:53.945Z</time>
      </trkpt>
      <trkpt lat="48.81676" lon="2.36042">
        <ele>119.9</ele>
        <time>2015-04-20T20:01:54.960Z</time>
      </trkpt>
      <trkpt lat="48.81681" lon="2.36041">
        <ele>119.8</ele>
        <time>2015-04-20T20:01:55.959Z</time>
      </trkpt>
      <trkpt lat="48.81686" lon="2.36039">
        <ele>119.7</ele>
        <time>2015-04-20T20:01:57.004Z</time>
      </trkpt>
      <trkpt lat="48.8169" lon="2.36036">
        <ele>119.8</ele>
        <time>2015-04-20T20:01:58.005Z</time>
      </trkpt>
      <trkpt lat="48.81696" lon="2.36034">
        <ele>120.2</ele>
        <time>2015-04-20T20:01:59.025Z</time>
      </trkpt>
      <trkpt lat="48.81701" lon="2.36031">
        <ele>120.5</ele>
        <time>2015-04-20T20:02:00.046Z</time>
      </trkpt>
      <trkpt lat="48.81706" lon="2.36029">
        <ele>120.7</ele>
        <time>2015-04-20T20:02:00.944Z</time>
      </trkpt>
      <trkpt lat="48.81711" lon="2.36027">
        <ele>120.9</ele>
        <time>2015-04-20T20:02:01.964Z</time>
      </trkpt>
      <trkpt lat="48.81715" lon="2.36025">
        <ele>121.1</ele>
        <time>2015-04-20T20:02:03.028Z</time>
      </trkpt>
      <trkpt lat="48.81719" lon="2.36023">
        <ele>121.3</ele>
        <time>2015-04-20T20:02:04.037Z</time>
      </trkpt>
      <trkpt lat="48.81724" lon="2.36023">
        <ele>121.5</ele>
        <time>2015-04-20T20:02:04.938Z</time>
      </trkpt>
      <trkpt lat="48.81729" lon="2.36022">
        <ele>121.7</ele>
        <time>2015-04-20T20:02:05.982Z</time>
      </trkpt>
      <trkpt lat="48.81802" lon="2.3601">
        <ele>121.4</ele>
        <time>2015-04-20T20:02:19.008Z</time>
      </trkpt>
      <trkpt lat="48.81807" lon="2.36008">
        <ele>121.2</ele>
        <time>2015-04-20T20:02:19.955Z</time>
      </trkpt>
      <trkpt lat="48.81811" lon="2.36005">
        <ele>121</ele>
        <time>2015-04-20T20:02:21.014Z</time>
      </trkpt>
      <trkpt lat="48.8182" lon="2.36002">
        <ele>120.5</ele>
        <time>2015-04-20T20:02:22.947Z</time>
      </trkpt>
      <trkpt lat="48.81824" lon="2.36001">
        <ele>120.4</ele>
        <time>2015-04-20T20:02:23.990Z</time>
      </trkpt>
      <trkpt lat="48.8183" lon="2.36">
        <ele>120.5</ele>
        <time>2015-04-20T20:02:24.949Z</time>
      </trkpt>
      <trkpt lat="48.81835" lon="2.35998">
        <ele>120.5</ele>
        <time>2015-04-20T20:02:25.960Z</time>
      </trkpt>
      <trkpt lat="48.81843" lon="2.35995">
        <ele>120.3</ele>
        <time>2015-04-20T20:02:27.976Z</time>
      </trkpt>
      <trkpt lat="48.81848" lon="2.35992">
        <ele>119.5</ele>
        <time>2015-04-20T20:02:28.988Z</time>
      </trkpt>
      <trkpt lat="48.81856" lon="2.35987">
        <ele>118.7</ele>
        <time>2015-04-20T20:02:30.936Z</time>
      </trkpt>
      <trkpt lat="48.8186" lon="2.35986">
        <ele>118.5</ele>
        <time>2015-04-20T20:02:31.963Z</time>
      </trkpt>
      <trkpt lat="48.81867" lon="2.35983">
        <ele>118.1</ele>
        <time>2015-04-20T20:02:33.911Z</time>
      </trkpt>
      <trkpt lat="48.8187" lon="2.35982">
        <ele>118.1</ele>
        <time>2015-04-20T20:02:34.925Z</time>
      </trkpt>
      <trkpt lat="48.81877" lon="2.35979">
        <ele>117.9</ele>
        <time>2015-04-20T20:02:36.994Z</time>
      </trkpt>
      <trkpt lat="48.8188" lon="2.35978">
        <ele>117.6</ele>
        <time>2015-04-20T20:02:38.013Z</time>
      </trkpt>
      <trkpt lat="48.81887" lon="2.35974">
        <ele>117.3</ele>
        <time>2015-04-20T20:02:39.920Z</time>
      </trkpt>
      <trkpt lat="48.81889" lon="2.35973">
        <ele>117.3</ele>
        <time>2015-04-20T20:02:41.059Z</time>
      </trkpt>
      <trkpt lat="48.81896" lon="2.35971">
        <ele>117.5</ele>
        <time>2015-04-20T20:02:42.940Z</time>
      </trkpt>
      <trkpt lat="48.81899" lon="2.3597">
        <ele>117.6</ele>
        <time>2015-04-20T20:02:43.969Z</time>
      </trkpt>
      <trkpt lat="48.81905" lon="2.35968">
        <ele>117.7</ele>
        <time>2015-04-20T20:02:46.016Z</time>
      </trkpt>
      <trkpt lat="48.81908" lon="2.35965">
        <ele>118</ele>
        <time>2015-04-20T20:02:47.030Z</time>
      </trkpt>
      <trkpt lat="48.81915" lon="2.3596">
        <ele>118.4</ele>
        <time>2015-04-20T20:02:48.946Z</time>
      </trkpt>
      <trkpt lat="48.81919" lon="2.35959">
        <ele>118.5</ele>
        <time>2015-04-20T20:02:49.971Z</time>
      </trkpt>
      <trkpt lat="48.81925" lon="2.35956">
        <ele>118.6</ele>
        <time>2015-04-20T20:02:52.010Z</time>
      </trkpt>
      <trkpt lat="48.81932" lon="2.35955">
        <ele>118.7</ele>
        <time>2015-04-20T20:02:53.989Z</time>
      </trkpt>
      <trkpt lat="48.8194" lon="2.35952">
        <ele>118.8</ele>
        <time>2015-04-20T20:02:55.961Z</time>
      </trkpt>
      <trkpt lat="48.81943" lon="2.35949">
        <ele>119</ele>
        <time>2015-04-20T20:02:57.035Z</time>
      </trkpt>
      <trkpt lat="48.81951" lon="2.35942">
        <ele>119.4</ele>
        <time>2015-04-20T20:02:58.985Z</time>
      </trkpt>
      <trkpt lat="48.81955" lon="2.35938">
        <ele>120</ele>
        <time>2015-04-20T20:02:59.943Z</time>
      </trkpt>
      <trkpt lat="48.81959" lon="2.35935">
        <ele>120.4</ele>
        <time>2015-04-20T20:03:00.936Z</time>
      </trkpt>
      <trkpt lat="48.8198" lon="2.35919">
        <ele>121</ele>
        <time>2015-04-20T20:03:06.045Z</time>
      </trkpt>
      <trkpt lat="48.81988" lon="2.35915">
        <ele>121.3</ele>
        <time>2015-04-20T20:03:07.963Z</time>
      </trkpt>
      <trkpt lat="48.81992" lon="2.35913">
        <ele>121.2</ele>
        <time>2015-04-20T20:03:08.975Z</time>
      </trkpt>
      <trkpt lat="48.81999" lon="2.35905">
        <ele>121.6</ele>
        <time>2015-04-20T20:03:11.966Z</time>
      </trkpt>
      <trkpt lat="48.82001" lon="2.35901">
        <ele>122.1</ele>
        <time>2015-04-20T20:03:12.984Z</time>
      </trkpt>
      <trkpt lat="48.82005" lon="2.35893">
        <ele>122.9</ele>
        <time>2015-04-20T20:03:15.014Z</time>
      </trkpt>
      <trkpt lat="48.82009" lon="2.35891">
        <ele>123.2</ele>
        <time>2015-04-20T20:03:16.017Z</time>
      </trkpt>
      <trkpt lat="48.82121" lon="2.35863">
        <ele>129.2</ele>
        <time>2015-04-20T20:03:40.972Z</time>
      </trkpt>
      <trkpt lat="48.82121" lon="2.35863">
        <ele>129.2</ele>
        <time>2015-04-20T20:03:40.046Z</time>
      </trkpt>
      <trkpt lat="48.82154" lon="2.35864">
        <ele>130</ele>
        <time>2015-04-20T20:03:46.053Z</time>
      </trkpt>
      <trkpt lat="48.82157" lon="2.35863">
        <ele>129.7</ele>
        <time>2015-04-20T20:03:46.952Z</time>
      </trkpt>
      <trkpt lat="48.82174" lon="2.35854">
        <ele>129.6</ele>
        <time>2015-04-20T20:03:50.993Z</time>
      </trkpt>
      <trkpt lat="48.82181" lon="2.35849">
        <ele>130.1</ele>
        <time>2015-04-20T20:03:53.027Z</time>
      </trkpt>
      <trkpt lat="48.82185" lon="2.35848">
        <ele>130.3</ele>
        <time>2015-04-20T20:03:53.919Z</time>
      </trkpt>
      <trkpt lat="48.8219" lon="2.35845">
        <ele>130.5</ele>
        <time>2015-04-20T20:03:55.143Z</time>
      </trkpt>
      <trkpt lat="48.82196" lon="2.35843">
        <ele>130.5</ele>
        <time>2015-04-20T20:03:55.942Z</time>
      </trkpt>
      <trkpt lat="48.82203" lon="2.35841">
        <ele>130.8</ele>
        <time>2015-04-20T20:03:56.955Z</time>
      </trkpt>
      <trkpt lat="48.82209" lon="2.35839">
        <ele>131.2</ele>
        <time>2015-04-20T20:03:57.962Z</time>
      </trkpt>
      <trkpt lat="48.82219" lon="2.3584">
        <ele>131.8</ele>
        <time>2015-04-20T20:03:59.979Z</time>
      </trkpt>
      <trkpt lat="48.82228" lon="2.35838">
        <ele>132</ele>
        <time>2015-04-20T20:04:01.995Z</time>
      </trkpt>
      <trkpt lat="48.82232" lon="2.35837">
        <ele>132.2</ele>
        <time>2015-04-20T20:04:03.007Z</time>
      </trkpt>
      <trkpt lat="48.82239" lon="2.35836">
        <ele>132.9</ele>
        <time>2015-04-20T20:04:03.910Z</time>
      </trkpt>
      <trkpt lat="48.82243" lon="2.35833">
        <ele>133.2</ele>
        <time>2015-04-20T20:04:04.918Z</time>
      </trkpt>
      <trkpt lat="48.82248" lon="2.35831">
        <ele>133.4</ele>
        <time>2015-04-20T20:04:05.935Z</time>
      </trkpt>
      <trkpt lat="48.82252" lon="2.35829">
        <ele>133.6</ele>
        <time>2015-04-20T20:04:06.939Z</time>
      </trkpt>
      <trkpt lat="48.82259" lon="2.35823">
        <ele>133.8</ele>
        <time>2015-04-20T20:04:09.027Z</time>
      </trkpt>
      <trkpt lat="48.82263" lon="2.35821">
        <ele>134</ele>
        <time>2015-04-20T20:04:09.965Z</time>
      </trkpt>
      <trkpt lat="48.82268" lon="2.35821">
        <ele>134.2</ele>
        <time>2015-04-20T20:04:10.995Z</time>
      </trkpt>
      <trkpt lat="48.82273" lon="2.35821">
        <ele>134.2</ele>
        <time>2015-04-20T20:04:12.015Z</time>
      </trkpt>
      <trkpt lat="48.82334" lon="2.35803">
        <ele>135.9</ele>
        <time>2015-04-20T20:04:24.966Z</time>
      </trkpt>
      <trkpt lat="48.82342" lon="2.358">
        <ele>136.3</ele>
        <time>2015-04-20T20:04:27.000Z</time>
      </trkpt>
      <trkpt lat="48.82347" lon="2.35798">
        <ele>136.5</ele>
        <time>2015-04-20T20:04:27.941Z</time>
      </trkpt>
      <trkpt lat="48.82354" lon="2.35793">
        <ele>136.7</ele>
        <time>2015-04-20T20:04:29.913Z</time>
      </trkpt>
      <trkpt lat="48.82357" lon="2.35791">
        <ele>136.5</ele>
        <time>2015-04-20T20:04:30.944Z</time>
      </trkpt>
      <trkpt lat="48.82365" lon="2.35788">
        <ele>136.5</ele>
        <time>2015-04-20T20:04:32.978Z</time>
      </trkpt>
      <trkpt lat="48.82369" lon="2.35786">
        <ele>136.5</ele>
        <time>2015-04-20T20:04:33.982Z</time>
      </trkpt>
      <trkpt lat="48.82376" lon="2.35782">
        <ele>135.9</ele>
        <time>2015-04-20T20:04:35.947Z</time>
      </trkpt>
      <trkpt lat="48.8238" lon="2.35781">
        <ele>136</ele>
        <time>2015-04-20T20:04:36.961Z</time>
      </trkpt>
      <trkpt lat="48.82424" lon="2.35774">
        <ele>136.4</ele>
        <time>2015-04-20T20:04:48.971Z</time>
      </trkpt>
      <trkpt lat="48.82432" lon="2.35773">
        <ele>136.7</ele>
        <time>2015-04-20T20:04:51.024Z</time>
      </trkpt>
      <trkpt lat="48.82435" lon="2.35772">
        <ele>136.6</ele>
        <time>2015-04-20T20:04:51.920Z</time>
      </trkpt>
      <trkpt lat="48.82442" lon="2.35772">
        <ele>136.6</ele>
        <time>2015-04-20T20:04:53.947Z</time>
      </trkpt>
      <trkpt lat="48.82445" lon="2.35768">
        <ele>136.5</ele>
        <time>2015-04-20T20:04:54.908Z</time>
      </trkpt>
      <trkpt lat="48.82453" lon="2.35764">
        <ele>136.6</ele>
        <time>2015-04-20T20:04:56.970Z</time>
      </trkpt>
      <trkpt lat="48.82457" lon="2.35762">
        <ele>136.8</ele>
        <time>2015-04-20T20:04:57.981Z</time>
      </trkpt>
      <trkpt lat="48.82465" lon="2.35759">
        <ele>136.6</ele>
        <time>2015-04-20T20:05:00.023Z</time>
      </trkpt>
      <trkpt lat="48.82469" lon="2.35757">
        <ele>136.6</ele>
        <time>2015-04-20T20:05:01.141Z</time>
      </trkpt>
      <trkpt lat="48.82477" lon="2.35753">
        <ele>137.2</ele>
        <time>2015-04-20T20:05:03.005Z</time>
      </trkpt>
      <trkpt lat="48.82481" lon="2.35751">
        <ele>137.3</ele>
        <time>2015-04-20T20:05:04.107Z</time>
      </trkpt>
      <trkpt lat="48.82486" lon="2.3575">
        <ele>137.4</ele>
        <time>2015-04-20T20:05:04.942Z</time>
      </trkpt>
      <trkpt lat="48.82491" lon="2.35749">
        <ele>137.6</ele>
        <time>2015-04-20T20:05:05.943Z</time>
      </trkpt>
      <trkpt lat="48.82496" lon="2.35747">
        <ele>137.6</ele>
        <time>2015-04-20T20:05:07.016Z</time>
      </trkpt>
      <trkpt lat="48.825" lon="2.35746">
        <ele>137.8</ele>
        <time>2015-04-20T20:05:08.007Z</time>
      </trkpt>
      <trkpt lat="48.82507" lon="2.35745">
        <ele>138.2</ele>
        <time>2015-04-20T20:05:09.912Z</time>
      </trkpt>
      <trkpt lat="48.82511" lon="2.35744">
        <ele>138.1</ele>
        <time>2015-04-20T20:05:10.941Z</time>
      </trkpt>
      <trkpt lat="48.82519" lon="2.35742">
        <ele>137.3</ele>
        <time>2015-04-20T20:05:12.975Z</time>
      </trkpt>
      <trkpt lat="48.82524" lon="2.3574">
        <ele>137.1</ele>
        <time>2015-04-20T20:05:13.934Z</time>
      </trkpt>
      <trkpt lat="48.82529" lon="2.35736">
        <ele>136.6</ele>
        <time>2015-04-20T20:05:14.980Z</time>
      </trkpt>
      <trkpt lat="48.82532" lon="2.35734">
        <ele>136.2</ele>
        <time>2015-04-20T20:05:15.992Z</time>
      </trkpt>
      <trkpt lat="48.8254" lon="2.35729">
        <ele>135.7</ele>
        <time>2015-04-20T20:05:18.026Z</time>
      </trkpt>
      <trkpt lat="48.82544" lon="2.35726">
        <ele>135.5</ele>
        <time>2015-04-20T20:05:18.946Z</time>
      </trkpt>
      <trkpt lat="48.82552" lon="2.35721">
        <ele>135.7</ele>
        <time>2015-04-20T20:05:20.978Z</time>
      </trkpt>
      <trkpt lat="48.82556" lon="2.3572">
        <ele>136</ele>
        <time>2015-04-20T20:05:21.992Z</time>
      </trkpt>
      <trkpt lat="48.82565" lon="2.35718">
        <ele>136.8</ele>
        <time>2015-04-20T20:05:24.025Z</time>
      </trkpt>
      <trkpt lat="48.82569" lon="2.35718">
        <ele>137.5</ele>
        <time>2015-04-20T20:05:24.955Z</time>
      </trkpt>
      <trkpt lat="48.82574" lon="2.35716">
        <ele>138.2</ele>
        <time>2015-04-20T20:05:25.957Z</time>
      </trkpt>
      <trkpt lat="48.82578" lon="2.35714">
        <ele>138.7</ele>
        <time>2015-04-20T20:05:27.009Z</time>
      </trkpt>
      <trkpt lat="48.82585" lon="2.35713">
        <ele>139.5</ele>
        <time>2015-04-20T20:05:29.919Z</time>
      </trkpt>
      <trkpt lat="48.82588" lon="2.35714">
        <ele>139.7</ele>
        <time>2015-04-20T20:05:29.953Z</time>
      </trkpt>
      <trkpt lat="48.82596" lon="2.35716">
        <ele>140.2</ele>
        <time>2015-04-20T20:05:33.042Z</time>
      </trkpt>
      <trkpt lat="48.82597" lon="2.35716">
        <ele>140.1</ele>
        <time>2015-04-20T20:05:33.953Z</time>
      </trkpt>
      <trkpt lat="48.82598" lon="2.35716">
        <ele>139.9</ele>
        <time>2015-04-20T20:07:04.026Z</time>
      </trkpt>
      <trkpt lat="48.82611" lon="2.35731">
        <ele>135.9</ele>
        <time>2015-04-20T20:07:04.915Z</time>
      </trkpt>
      <trkpt lat="48.82618" lon="2.3573">
        <ele>136</ele>
        <time>2015-04-20T20:07:07.961Z</time>
      </trkpt>
      <trkpt lat="48.82621" lon="2.35728">
        <ele>135.9</ele>
        <time>2015-04-20T20:07:08.975Z</time>
      </trkpt>
      <trkpt lat="48.82627" lon="2.35725">
        <ele>136.6</ele>
        <time>2015-04-20T20:07:11.025Z</time>
      </trkpt>
      <trkpt lat="48.82629" lon="2.35724">
        <ele>137</ele>
        <time>2015-04-20T20:07:11.950Z</time>
      </trkpt>
      <trkpt lat="48.82635" lon="2.35721">
        <ele>138.1</ele>
        <time>2015-04-20T20:07:13.989Z</time>
      </trkpt>
      <trkpt lat="48.82639" lon="2.35719">
        <ele>138.8</ele>
        <time>2015-04-20T20:07:15.045Z</time>
      </trkpt>
      <trkpt lat="48.82646" lon="2.35714">
        <ele>140.6</ele>
        <time>2015-04-20T20:07:17.949Z</time>
      </trkpt>
      <trkpt lat="48.82649" lon="2.35713">
        <ele>140.7</ele>
        <time>2015-04-20T20:07:18.948Z</time>
      </trkpt>
      <trkpt lat="48.82655" lon="2.35711">
        <ele>140.7</ele>
        <time>2015-04-20T20:07:21.113Z</time>
      </trkpt>
      <trkpt lat="48.82658" lon="2.3571">
        <ele>140.8</ele>
        <time>2015-04-20T20:07:22.012Z</time>
      </trkpt>
      <trkpt lat="48.82665" lon="2.35705">
        <ele>141</ele>
        <time>2015-04-20T20:07:23.944Z</time>
      </trkpt>
      <trkpt lat="48.82669" lon="2.35703">
        <ele>141.6</ele>
        <time>2015-04-20T20:07:24.941Z</time>
      </trkpt>
      <trkpt lat="48.82673" lon="2.35701">
        <ele>142</ele>
        <time>2015-04-20T20:07:26.121Z</time>
      </trkpt>
      <trkpt lat="48.82678" lon="2.357">
        <ele>142.5</ele>
        <time>2015-04-20T20:07:26.975Z</time>
      </trkpt>
      <trkpt lat="48.82684" lon="2.35699">
        <ele>142.6</ele>
        <time>2015-04-20T20:07:27.994Z</time>
      </trkpt>
      <trkpt lat="48.82689" lon="2.35697">
        <ele>142.3</ele>
        <time>2015-04-20T20:07:28.944Z</time>
      </trkpt>
      <trkpt lat="48.82696" lon="2.35695">
        <ele>141.8</ele>
        <time>2015-04-20T20:07:31.963Z</time>
      </trkpt>
      <trkpt lat="48.82699" lon="2.35694">
        <ele>141.8</ele>
        <time>2015-04-20T20:07:32.999Z</time>
      </trkpt>
      <trkpt lat="48.82708" lon="2.35689">
        <ele>142.2</ele>
        <time>2015-04-20T20:07:35.964Z</time>
      </trkpt>
      <trkpt lat="48.82712" lon="2.35688">
        <ele>142.3</ele>
        <time>2015-04-20T20:07:36.976Z</time>
      </trkpt>
      <trkpt lat="48.82718" lon="2.35687">
        <ele>142.2</ele>
        <time>2015-04-20T20:07:38.002Z</time>
      </trkpt>
      <trkpt lat="48.82724" lon="2.35687">
        <ele>141.7</ele>
        <time>2015-04-20T20:07:39.009Z</time>
      </trkpt>
      <trkpt lat="48.82729" lon="2.35686">
        <ele>141.2</ele>
        <time>2015-04-20T20:07:40.152Z</time>
      </trkpt>
      <trkpt lat="48.82733" lon="2.35685">
        <ele>141.3</ele>
        <time>2015-04-20T20:07:40.952Z</time>
      </trkpt>
      <trkpt lat="48.82739" lon="2.35685">
        <ele>141.5</ele>
        <time>2015-04-20T20:07:41.985Z</time>
      </trkpt>
      <trkpt lat="48.82745" lon="2.35685">
        <ele>141.7</ele>
        <time>2015-04-20T20:07:42.995Z</time>
      </trkpt>
      <trkpt lat="48.8275" lon="2.35684">
        <ele>141.5</ele>
        <time>2015-04-20T20:07:44.025Z</time>
      </trkpt>
      <trkpt lat="48.82754" lon="2.35683">
        <ele>141.3</ele>
        <time>2015-04-20T20:07:45.028Z</time>
      </trkpt>
      <trkpt lat="48.82759" lon="2.35681">
        <ele>141.3</ele>
        <time>2015-04-20T20:07:45.923Z</time>
      </trkpt>
      <trkpt lat="48.82764" lon="2.35679">
        <ele>141.3</ele>
        <time>2015-04-20T20:07:46.943Z</time>
      </trkpt>
      <trkpt lat="48.82768" lon="2.35677">
        <ele>141.4</ele>
        <time>2015-04-20T20:07:47.942Z</time>
      </trkpt>
      <trkpt lat="48.82774" lon="2.35676">
        <ele>141.3</ele>
        <time>2015-04-20T20:07:48.947Z</time>
      </trkpt>
      <trkpt lat="48.8278" lon="2.35674">
        <ele>141.2</ele>
        <time>2015-04-20T20:07:49.956Z</time>
      </trkpt>
      <trkpt lat="48.82786" lon="2.35673">
        <ele>141.3</ele>
        <time>2015-04-20T20:07:50.991Z</time>
      </trkpt>
      <trkpt lat="48.82794" lon="2.35672">
        <ele>141.3</ele>
        <time>2015-04-20T20:07:52.998Z</time>
      </trkpt>
      <trkpt lat="48.82797" lon="2.35672">
        <ele>141.5</ele>
        <time>2015-04-20T20:07:54.015Z</time>
      </trkpt>
      <trkpt lat="48.82804" lon="2.35672">
        <ele>142.2</ele>
        <time>2015-04-20T20:07:55.948Z</time>
      </trkpt>
      <trkpt lat="48.82809" lon="2.35672">
        <ele>142.4</ele>
        <time>2015-04-20T20:07:57.010Z</time>
      </trkpt>
      <trkpt lat="48.82816" lon="2.3567">
        <ele>143.2</ele>
        <time>2015-04-20T20:07:58.992Z</time>
      </trkpt>
      <trkpt lat="48.82819" lon="2.35669">
        <ele>143.3</ele>
        <time>2015-04-20T20:08:00.000Z</time>
      </trkpt>
      <trkpt lat="48.82824" lon="2.35668">
        <ele>144.1</ele>
        <time>2015-04-20T20:08:02.044Z</time>
      </trkpt>
      <trkpt lat="48.82828" lon="2.35666">
        <ele>144.5</ele>
        <time>2015-04-20T20:08:03.088Z</time>
      </trkpt>
      <trkpt lat="48.82834" lon="2.35661">
        <ele>145.5</ele>
        <time>2015-04-20T20:08:05.000Z</time>
      </trkpt>
      <trkpt lat="48.82838" lon="2.35658">
        <ele>146.1</ele>
        <time>2015-04-20T20:08:06.080Z</time>
      </trkpt>
      <trkpt lat="48.82845" lon="2.35652">
        <ele>147.3</ele>
        <time>2015-04-20T20:08:09.002Z</time>
      </trkpt>
      <trkpt lat="48.82848" lon="2.35648">
        <ele>147.8</ele>
        <time>2015-04-20T20:08:10.006Z</time>
      </trkpt>
      <trkpt lat="48.82851" lon="2.35643">
        <ele>148.2</ele>
        <time>2015-04-20T20:08:11.025Z</time>
      </trkpt>
      <trkpt lat="48.82855" lon="2.35637">
        <ele>148.4</ele>
        <time>2015-04-20T20:08:12.040Z</time>
      </trkpt>
      <trkpt lat="48.82859" lon="2.35634">
        <ele>149</ele>
        <time>2015-04-20T20:08:13.007Z</time>
      </trkpt>
      <trkpt lat="48.82866" lon="2.35633">
        <ele>150</ele>
        <time>2015-04-20T20:08:14.033Z</time>
      </trkpt>
      <trkpt lat="48.82871" lon="2.35631">
        <ele>150.6</ele>
        <time>2015-04-20T20:08:15.035Z</time>
      </trkpt>
      <trkpt lat="48.82876" lon="2.35628">
        <ele>150.9</ele>
        <time>2015-04-20T20:08:15.942Z</time>
      </trkpt>
      <trkpt lat="48.82884" lon="2.35625">
        <ele>151.8</ele>
        <time>2015-04-20T20:08:17.944Z</time>
      </trkpt>
      <trkpt lat="48.82887" lon="2.35624">
        <ele>152.4</ele>
        <time>2015-04-20T20:08:18.958Z</time>
      </trkpt>
      <trkpt lat="48.82892" lon="2.35622">
        <ele>153.7</ele>
        <time>2015-04-20T20:08:21.035Z</time>
      </trkpt>
      <trkpt lat="48.82896" lon="2.35621">
        <ele>154.3</ele>
        <time>2015-04-20T20:08:22.040Z</time>
      </trkpt>
      <trkpt lat="48.82901" lon="2.3562">
        <ele>154.8</ele>
        <time>2015-04-20T20:08:22.918Z</time>
      </trkpt>
      <trkpt lat="48.82905" lon="2.35619">
        <ele>155.2</ele>
        <time>2015-04-20T20:08:23.931Z</time>
      </trkpt>
      <trkpt lat="48.82911" lon="2.35618">
        <ele>156.1</ele>
        <time>2015-04-20T20:08:24.937Z</time>
      </trkpt>
      <trkpt lat="48.82918" lon="2.35616">
        <ele>156.3</ele>
        <time>2015-04-20T20:08:25.956Z</time>
      </trkpt>
      <trkpt lat="48.82924" lon="2.35613">
        <ele>156.4</ele>
        <time>2015-04-20T20:08:26.974Z</time>
      </trkpt>
      <trkpt lat="48.82933" lon="2.3561">
        <ele>156.6</ele>
        <time>2015-04-20T20:08:27.982Z</time>
      </trkpt>
      <trkpt lat="48.82941" lon="2.35608">
        <ele>156.6</ele>
        <time>2015-04-20T20:08:28.999Z</time>
      </trkpt>
      <trkpt lat="48.82949" lon="2.35605">
        <ele>156.5</ele>
        <time>2015-04-20T20:08:30.007Z</time>
      </trkpt>
      <trkpt lat="48.82956" lon="2.35604">
        <ele>156.6</ele>
        <time>2015-04-20T20:08:31.020Z</time>
      </trkpt>
      <trkpt lat="48.82964" lon="2.35602">
        <ele>156.6</ele>
        <time>2015-04-20T20:08:31.941Z</time>
      </trkpt>
      <trkpt lat="48.82974" lon="2.35598">
        <ele>156.9</ele>
        <time>2015-04-20T20:08:33.054Z</time>
      </trkpt>
      <trkpt lat="48.82985" lon="2.35595">
        <ele>156.9</ele>
        <time>2015-04-20T20:08:33.942Z</time>
      </trkpt>
      <trkpt lat="48.82991" lon="2.35593">
        <ele>156.9</ele>
        <time>2015-04-20T20:08:34.935Z</time>
      </trkpt>
      <trkpt lat="48.82995" lon="2.35592">
        <ele>156.8</ele>
        <time>2015-04-20T20:08:35.949Z</time>
      </trkpt>
      <trkpt lat="48.83001" lon="2.35592">
        <ele>156.5</ele>
        <time>2015-04-20T20:08:37.989Z</time>
      </trkpt>
      <trkpt lat="48.83005" lon="2.35592">
        <ele>156.6</ele>
        <time>2015-04-20T20:08:39.017Z</time>
      </trkpt>
      <trkpt lat="48.83011" lon="2.35592">
        <ele>156.8</ele>
        <time>2015-04-20T20:08:40.939Z</time>
      </trkpt>
      <trkpt lat="48.83014" lon="2.35593">
        <ele>157</ele>
        <time>2015-04-20T20:08:41.948Z</time>
      </trkpt>
      <trkpt lat="48.83022" lon="2.35592">
        <ele>156.5</ele>
        <time>2015-04-20T20:08:45.017Z</time>
      </trkpt>
      <trkpt lat="48.83025" lon="2.35591">
        <ele>156.3</ele>
        <time>2015-04-20T20:08:45.913Z</time>
      </trkpt>
      <trkpt lat="48.83032" lon="2.35593">
        <ele>154.2</ele>
        <time>2015-04-20T20:08:47.946Z</time>
      </trkpt>
      <trkpt lat="48.83036" lon="2.35594">
        <ele>152.4</ele>
        <time>2015-04-20T20:08:48.962Z</time>
      </trkpt>
      <trkpt lat="48.83043" lon="2.35592">
        <ele>150.9</ele>
        <time>2015-04-20T20:08:51.037Z</time>
      </trkpt>
      <trkpt lat="48.83046" lon="2.35591">
        <ele>150.6</ele>
        <time>2015-04-20T20:08:51.936Z</time>
      </trkpt>
      <trkpt lat="48.83051" lon="2.3559">
        <ele>149.9</ele>
        <time>2015-04-20T20:08:53.954Z</time>
      </trkpt>
      <trkpt lat="48.83055" lon="2.35588">
        <ele>149.4</ele>
        <time>2015-04-20T20:08:54.965Z</time>
      </trkpt>
      <trkpt lat="48.83059" lon="2.35589">
        <ele>148.3</ele>
        <time>2015-04-20T20:08:56.015Z</time>
      </trkpt>
      <trkpt lat="48.83064" lon="2.35591">
        <ele>147</ele>
        <time>2015-04-20T20:08:57.020Z</time>
      </trkpt>
      <trkpt lat="48.83073" lon="2.35591">
        <ele>145.4</ele>
        <time>2015-04-20T20:08:58.945Z</time>
      </trkpt>
      <trkpt lat="48.83078" lon="2.35591">
        <ele>145</ele>
        <time>2015-04-20T20:08:59.954Z</time>
      </trkpt>
      <trkpt lat="48.83083" lon="2.35591">
        <ele>144.5</ele>
        <time>2015-04-20T20:09:00.909Z</time>
      </trkpt>
      <trkpt lat="48.83087" lon="2.35591">
        <ele>143.7</ele>
        <time>2015-04-20T20:09:01.933Z</time>
      </trkpt>
      <trkpt lat="48.83094" lon="2.35594">
        <ele>141.4</ele>
        <time>2015-04-20T20:09:03.997Z</time>
      </trkpt>
      <trkpt lat="48.83096" lon="2.35594">
        <ele>140.8</ele>
        <time>2015-04-20T20:09:04.959Z</time>
      </trkpt>
      <trkpt lat="48.83095" lon="2.35595">
        <ele>139.5</ele>
        <time>2015-04-20T20:09:05.944Z</time>
      </trkpt>
      <trkpt lat="48.83091" lon="2.35595">
        <ele>137.8</ele>
        <time>2015-04-20T20:09:06.947Z</time>
      </trkpt>
      <trkpt lat="48.83086" lon="2.35595">
        <ele>136.1</ele>
        <time>2015-04-20T20:10:22.988Z</time>
      </trkpt>
      <trkpt lat="48.83087" lon="2.35579">
        <ele>128.3</ele>
        <time>2015-04-20T20:10:24.182Z</time>
      </trkpt>
      <trkpt lat="48.83094" lon="2.35585">
        <ele>129.4</ele>
        <time>2015-04-20T20:10:27.958Z</time>
      </trkpt>
      <trkpt lat="48.83097" lon="2.35587">
        <ele>129.2</ele>
        <time>2015-04-20T20:10:28.969Z</time>
      </trkpt>
      <trkpt lat="48.83101" lon="2.35592">
        <ele>128.5</ele>
        <time>2015-04-20T20:10:31.016Z</time>
      </trkpt>
      <trkpt lat="48.83104" lon="2.35595">
        <ele>128</ele>
        <time>2015-04-20T20:10:31.916Z</time>
      </trkpt>
      <trkpt lat="48.8311" lon="2.356">
        <ele>127.1</ele>
        <time>2015-04-20T20:10:33.965Z</time>
      </trkpt>
      <trkpt lat="48.83113" lon="2.35603">
        <ele>126.5</ele>
        <time>2015-04-20T20:10:34.920Z</time>
      </trkpt>
      <trkpt lat="48.8312" lon="2.3561">
        <ele>123.9</ele>
        <time>2015-04-20T20:10:36.929Z</time>
      </trkpt>
      <trkpt lat="48.83124" lon="2.35613">
        <ele>122.1</ele>
        <time>2015-04-20T20:10:37.932Z</time>
      </trkpt>
      <trkpt lat="48.83132" lon="2.35616">
        <ele>120.8</ele>
        <time>2015-04-20T20:10:41.098Z</time>
      </trkpt>
      <trkpt lat="48.83135" lon="2.35617">
        <ele>120.7</ele>
        <time>2015-04-20T20:10:41.929Z</time>
      </trkpt>
      <trkpt lat="48.83141" lon="2.35616">
        <ele>120.4</ele>
        <time>2015-04-20T20:10:43.948Z</time>
      </trkpt>
      <trkpt lat="48.83144" lon="2.35615">
        <ele>120.3</ele>
        <time>2015-04-20T20:10:45.079Z</time>
      </trkpt>
      <trkpt lat="48.83151" lon="2.35614">
        <ele>120.6</ele>
        <time>2015-04-20T20:10:47.061Z</time>
      </trkpt>
      <trkpt lat="48.83153" lon="2.35612">
        <ele>120.6</ele>
        <time>2015-04-20T20:10:47.939Z</time>
      </trkpt>
      <trkpt lat="48.83161" lon="2.35607">
        <ele>120.7</ele>
        <time>2015-04-20T20:10:50.982Z</time>
      </trkpt>
      <trkpt lat="48.83164" lon="2.35605">
        <ele>120.6</ele>
        <time>2015-04-20T20:10:52.015Z</time>
      </trkpt>
      <trkpt lat="48.8317" lon="2.35597">
        <ele>120.1</ele>
        <time>2015-04-20T20:10:54.976Z</time>
      </trkpt>
      <trkpt lat="48.83172" lon="2.35594">
        <ele>120</ele>
        <time>2015-04-20T20:10:55.978Z</time>
      </trkpt>
      <trkpt lat="48.83177" lon="2.35588">
        <ele>120.3</ele>
        <time>2015-04-20T20:10:58.038Z</time>
      </trkpt>
      <trkpt lat="48.83179" lon="2.35585">
        <ele>120.3</ele>
        <time>2015-04-20T20:10:58.946Z</time>
      </trkpt>
      <trkpt lat="48.83184" lon="2.35574">
        <ele>120.3</ele>
        <time>2015-04-20T20:11:01.995Z</time>
      </trkpt>
      <trkpt lat="48.83186" lon="2.35571">
        <ele>120.4</ele>
        <time>2015-04-20T20:11:03.000Z</time>
      </trkpt>
      <trkpt lat="48.83189" lon="2.35561">
        <ele>120.5</ele>
        <time>2015-04-20T20:11:05.961Z</time>
      </trkpt>
      <trkpt lat="48.8319" lon="2.35557">
        <ele>120.4</ele>
        <time>2015-04-20T20:11:06.976Z</time>
      </trkpt>
      <trkpt lat="48.83192" lon="2.35547">
        <ele>120.5</ele>
        <time>2015-04-20T20:11:09.031Z</time>
      </trkpt>
      <trkpt lat="48.83193" lon="2.35543">
        <ele>120.3</ele>
        <time>2015-04-20T20:11:10.004Z</time>
      </trkpt>
      <trkpt lat="48.83195" lon="2.35534">
        <ele>120.6</ele>
        <time>2015-04-20T20:11:11.910Z</time>
      </trkpt>
      <trkpt lat="48.83197" lon="2.35528">
        <ele>120.9</ele>
        <time>2015-04-20T20:11:12.928Z</time>
      </trkpt>
      <trkpt lat="48.83201" lon="2.35517">
        <ele>121.8</ele>
        <time>2015-04-20T20:11:15.983Z</time>
      </trkpt>
      <trkpt lat="48.83203" lon="2.35513">
        <ele>122.2</ele>
        <time>2015-04-20T20:11:16.987Z</time>
      </trkpt>
      <trkpt lat="48.83207" lon="2.35507">
        <ele>122.7</ele>
        <time>2015-04-20T20:11:18.948Z</time>
      </trkpt>
      <trkpt lat="48.8321" lon="2.35504">
        <ele>123</ele>
        <time>2015-04-20T20:11:20.005Z</time>
      </trkpt>
      <trkpt lat="48.83214" lon="2.35495">
        <ele>123.6</ele>
        <time>2015-04-20T20:11:22.003Z</time>
      </trkpt>
      <trkpt lat="48.83217" lon="2.35491">
        <ele>124</ele>
        <time>2015-04-20T20:11:22.962Z</time>
      </trkpt>
      <trkpt lat="48.83224" lon="2.35483">
        <ele>124.9</ele>
        <time>2015-04-20T20:11:25.969Z</time>
      </trkpt>
      <trkpt lat="48.83226" lon="2.35481">
        <ele>125.1</ele>
        <time>2015-04-20T20:11:26.973Z</time>
      </trkpt>
      <trkpt lat="48.83232" lon="2.35477">
        <ele>125.4</ele>
        <time>2015-04-20T20:11:28.913Z</time>
      </trkpt>
      <trkpt lat="48.83234" lon="2.35475">
        <ele>125.5</ele>
        <time>2015-04-20T20:11:29.945Z</time>
      </trkpt>
      <trkpt lat="48.83239" lon="2.35466">
        <ele>126</ele>
        <time>2015-04-20T20:11:33.028Z</time>
      </trkpt>
      <trkpt lat="48.8324" lon="2.35462">
        <ele>126.2</ele>
        <time>2015-04-20T20:11:33.945Z</time>
      </trkpt>
      <trkpt lat="48.83241" lon="2.35449">
        <ele>126.3</ele>
        <time>2015-04-20T20:11:37.966Z</time>
      </trkpt>
      <trkpt lat="48.8324" lon="2.35445">
        <ele>126.3</ele>
        <time>2015-04-20T20:11:38.994Z</time>
      </trkpt>
      <trkpt lat="48.8324" lon="2.35433">
        <ele>126.4</ele>
        <time>2015-04-20T20:11:41.937Z</time>
      </trkpt>
      <trkpt lat="48.83241" lon="2.3543">
        <ele>126.8</ele>
        <time>2015-04-20T20:11:42.968Z</time>
      </trkpt>
      <trkpt lat="48.83247" lon="2.35426">
        <ele>126.7</ele>
        <time>2015-04-20T20:11:45.962Z</time>
      </trkpt>
      <trkpt lat="48.83252" lon="2.35426">
        <ele>126.6</ele>
        <time>2015-04-20T20:11:46.999Z</time>
      </trkpt>
      <trkpt lat="48.83257" lon="2.35425">
        <ele>126.7</ele>
        <time>2015-04-20T20:11:47.939Z</time>
      </trkpt>
      <trkpt lat="48.83261" lon="2.35423">
        <ele>126.8</ele>
        <time>2015-04-20T20:11:48.939Z</time>
      </trkpt>
      <trkpt lat="48.83266" lon="2.3542">
        <ele>127.4</ele>
        <time>2015-04-20T20:11:49.960Z</time>
      </trkpt>
      <trkpt lat="48.83272" lon="2.35415">
        <ele>127.9</ele>
        <time>2015-04-20T20:11:50.982Z</time>
      </trkpt>
      <trkpt lat="48.83277" lon="2.35409">
        <ele>128.2</ele>
        <time>2015-04-20T20:11:51.988Z</time>
      </trkpt>
      <trkpt lat="48.83284" lon="2.35406">
        <ele>128.1</ele>
        <time>2015-04-20T20:11:53.035Z</time>
      </trkpt>
      <trkpt lat="48.83291" lon="2.35403">
        <ele>127.8</ele>
        <time>2015-04-20T20:11:53.938Z</time>
      </trkpt>
      <trkpt lat="48.83298" lon="2.35402">
        <ele>127.7</ele>
        <time>2015-04-20T20:11:54.949Z</time>
      </trkpt>
      <trkpt lat="48.83304" lon="2.35401">
        <ele>127.6</ele>
        <time>2015-04-20T20:11:55.955Z</time>
      </trkpt>
      <trkpt lat="48.83312" lon="2.35398">
        <ele>127.6</ele>
        <time>2015-04-20T20:11:56.975Z</time>
      </trkpt>
      <trkpt lat="48.83319" lon="2.35394">
        <ele>127.5</ele>
        <time>2015-04-20T20:11:57.996Z</time>
      </trkpt>
      <trkpt lat="48.83327" lon="2.35391">
        <ele>127.4</ele>
        <time>2015-04-20T20:11:58.999Z</time>
      </trkpt>
      <trkpt lat="48.83333" lon="2.35388">
        <ele>127.4</ele>
        <time>2015-04-20T20:12:00.026Z</time>
      </trkpt>
      <trkpt lat="48.8334" lon="2.35384">
        <ele>127.4</ele>
        <time>2015-04-20T20:12:00.938Z</time>
      </trkpt>
      <trkpt lat="48.83346" lon="2.35381">
        <ele>127.6</ele>
        <time>2015-04-20T20:12:01.946Z</time>
      </trkpt>
      <trkpt lat="48.83352" lon="2.35378">
        <ele>127.6</ele>
        <time>2015-04-20T20:12:02.961Z</time>
      </trkpt>
      <trkpt lat="48.83357" lon="2.35375">
        <ele>127.7</ele>
        <time>2015-04-20T20:12:03.985Z</time>
      </trkpt>
      <trkpt lat="48.83364" lon="2.35372">
        <ele>127.8</ele>
        <time>2015-04-20T20:12:04.992Z</time>
      </trkpt>
      <trkpt lat="48.83371" lon="2.35369">
        <ele>128</ele>
        <time>2015-04-20T20:12:06.011Z</time>
      </trkpt>
      <trkpt lat="48.83377" lon="2.35367">
        <ele>128.2</ele>
        <time>2015-04-20T20:12:07.009Z</time>
      </trkpt>
      <trkpt lat="48.83384" lon="2.35365">
        <ele>128.5</ele>
        <time>2015-04-20T20:12:07.926Z</time>
      </trkpt>
      <trkpt lat="48.83391" lon="2.35363">
        <ele>128.9</ele>
        <time>2015-04-20T20:12:08.982Z</time>
      </trkpt>
      <trkpt lat="48.83399" lon="2.3536">
        <ele>129.3</ele>
        <time>2015-04-20T20:12:09.987Z</time>
      </trkpt>
      <trkpt lat="48.83406" lon="2.35358">
        <ele>129.6</ele>
        <time>2015-04-20T20:12:11.001Z</time>
      </trkpt>
      <trkpt lat="48.83413" lon="2.35354">
        <ele>130.1</ele>
        <time>2015-04-20T20:12:12.012Z</time>
      </trkpt>
      <trkpt lat="48.83418" lon="2.35347">
        <ele>130.8</ele>
        <time>2015-04-20T20:12:13.016Z</time>
      </trkpt>
      <trkpt lat="48.83423" lon="2.35342">
        <ele>131.1</ele>
        <time>2015-04-20T20:12:13.939Z</time>
      </trkpt>
      <trkpt lat="48.83429" lon="2.35338">
        <ele>131.4</ele>
        <time>2015-04-20T20:12:14.976Z</time>
      </trkpt>
      <trkpt lat="48.83435" lon="2.35335">
        <ele>131.5</ele>
        <time>2015-04-20T20:12:15.984Z</time>
      </trkpt>
      <trkpt lat="48.8344" lon="2.35332">
        <ele>131.4</ele>
        <time>2015-04-20T20:12:16.996Z</time>
      </trkpt>
      <trkpt lat="48.83445" lon="2.35329">
        <ele>131</ele>
        <time>2015-04-20T20:12:17.933Z</time>
      </trkpt>
      <trkpt lat="48.83451" lon="2.35325">
        <ele>130.6</ele>
        <time>2015-04-20T20:12:18.943Z</time>
      </trkpt>
      <trkpt lat="48.83456" lon="2.35323">
        <ele>130.4</ele>
        <time>2015-04-20T20:12:19.938Z</time>
      </trkpt>
      <trkpt lat="48.83461" lon="2.3532">
        <ele>130.1</ele>
        <time>2015-04-20T20:12:20.978Z</time>
      </trkpt>
      <trkpt lat="48.83465" lon="2.35318">
        <ele>129.6</ele>
        <time>2015-04-20T20:12:21.987Z</time>
      </trkpt>
      <trkpt lat="48.83471" lon="2.35316">
        <ele>129.3</ele>
        <time>2015-04-20T20:12:23.000Z</time>
      </trkpt>
      <trkpt lat="48.83476" lon="2.35313">
        <ele>129.1</ele>
        <time>2015-04-20T20:12:23.922Z</time>
      </trkpt>
      <trkpt lat="48.83482" lon="2.3531">
        <ele>128.9</ele>
        <time>2015-04-20T20:12:24.937Z</time>
      </trkpt>
      <trkpt lat="48.83488" lon="2.35306">
        <ele>128.7</ele>
        <time>2015-04-20T20:12:25.947Z</time>
      </trkpt>
      <trkpt lat="48.83494" lon="2.35302">
        <ele>128.4</ele>
        <time>2015-04-20T20:12:26.981Z</time>
      </trkpt>
      <trkpt lat="48.835" lon="2.35298">
        <ele>128.2</ele>
        <time>2015-04-20T20:12:27.989Z</time>
      </trkpt>
      <trkpt lat="48.83505" lon="2.35294">
        <ele>127.9</ele>
        <time>2015-04-20T20:12:28.995Z</time>
      </trkpt>
      <trkpt lat="48.83511" lon="2.35291">
        <ele>127.7</ele>
        <time>2015-04-20T20:12:29.912Z</time>
      </trkpt>
      <trkpt lat="48.83517" lon="2.35289">
        <ele>127.7</ele>
        <time>2015-04-20T20:12:31.039Z</time>
      </trkpt>
      <trkpt lat="48.83521" lon="2.35287">
        <ele>127.8</ele>
        <time>2015-04-20T20:12:31.943Z</time>
      </trkpt>
      <trkpt lat="48.83526" lon="2.35284">
        <ele>127.7</ele>
        <time>2015-04-20T20:12:32.976Z</time>
      </trkpt>
      <trkpt lat="48.83532" lon="2.35282">
        <ele>127.6</ele>
        <time>2015-04-20T20:12:33.995Z</time>
      </trkpt>
      <trkpt lat="48.83538" lon="2.3528">
        <ele>127.6</ele>
        <time>2015-04-20T20:12:35.012Z</time>
      </trkpt>
      <trkpt lat="48.83543" lon="2.35278">
        <ele>127.7</ele>
        <time>2015-04-20T20:12:36.030Z</time>
      </trkpt>
      <trkpt lat="48.83548" lon="2.35274">
        <ele>127.8</ele>
        <time>2015-04-20T20:12:36.940Z</time>
      </trkpt>
      <trkpt lat="48.83553" lon="2.35271">
        <ele>128.2</ele>
        <time>2015-04-20T20:12:37.961Z</time>
      </trkpt>
      <trkpt lat="48.83558" lon="2.35265">
        <ele>128.6</ele>
        <time>2015-04-20T20:12:39.017Z</time>
      </trkpt>
      <trkpt lat="48.83562" lon="2.35259">
        <ele>128.9</ele>
        <time>2015-04-20T20:12:40.012Z</time>
      </trkpt>
      <trkpt lat="48.83567" lon="2.35254">
        <ele>129</ele>
        <time>2015-04-20T20:12:41.026Z</time>
      </trkpt>
      <trkpt lat="48.83573" lon="2.35249">
        <ele>128.8</ele>
        <time>2015-04-20T20:12:41.931Z</time>
      </trkpt>
      <trkpt lat="48.83577" lon="2.35246">
        <ele>128.9</ele>
        <time>2015-04-20T20:12:43.037Z</time>
      </trkpt>
      <trkpt lat="48.83582" lon="2.35244">
        <ele>128.6</ele>
        <time>2015-04-20T20:12:43.913Z</time>
      </trkpt>
      <trkpt lat="48.83587" lon="2.35242">
        <ele>128.5</ele>
        <time>2015-04-20T20:12:44.976Z</time>
      </trkpt>
      <trkpt lat="48.83592" lon="2.35241">
        <ele>128.7</ele>
        <time>2015-04-20T20:12:45.993Z</time>
      </trkpt>
      <trkpt lat="48.83597" lon="2.3524">
        <ele>128.9</ele>
        <time>2015-04-20T20:12:46.999Z</time>
      </trkpt>
      <trkpt lat="48.83605" lon="2.35234">
        <ele>129.3</ele>
        <time>2015-04-20T20:12:49.037Z</time>
      </trkpt>
      <trkpt lat="48.83609" lon="2.35231">
        <ele>129.6</ele>
        <time>2015-04-20T20:12:49.979Z</time>
      </trkpt>
      <trkpt lat="48.83615" lon="2.35223">
        <ele>129.9</ele>
        <time>2015-04-20T20:12:51.993Z</time>
      </trkpt>
      <trkpt lat="48.83618" lon="2.3522">
        <ele>130.1</ele>
        <time>2015-04-20T20:12:53.008Z</time>
      </trkpt>
      <trkpt lat="48.83625" lon="2.35214">
        <ele>129.9</ele>
        <time>2015-04-20T20:12:54.943Z</time>
      </trkpt>
      <trkpt lat="48.83628" lon="2.3521">
        <ele>129.7</ele>
        <time>2015-04-20T20:12:55.944Z</time>
      </trkpt>
      <trkpt lat="48.83632" lon="2.35203">
        <ele>129.3</ele>
        <time>2015-04-20T20:12:58.011Z</time>
      </trkpt>
      <trkpt lat="48.83636" lon="2.35201">
        <ele>129.5</ele>
        <time>2015-04-20T20:12:59.046Z</time>
      </trkpt>
      <trkpt lat="48.83643" lon="2.35195">
        <ele>129.3</ele>
        <time>2015-04-20T20:13:00.997Z</time>
      </trkpt>
      <trkpt lat="48.83645" lon="2.35192">
        <ele>128.9</ele>
        <time>2015-04-20T20:13:01.997Z</time>
      </trkpt>
      <trkpt lat="48.83651" lon="2.35187">
        <ele>127.9</ele>
        <time>2015-04-20T20:13:07.912Z</time>
      </trkpt>
      <trkpt lat="48.83657" lon="2.3518">
        <ele>127.1</ele>
        <time>2015-04-20T20:13:08.976Z</time>
      </trkpt>
      <trkpt lat="48.83664" lon="2.35176">
        <ele>126.7</ele>
        <time>2015-04-20T20:13:11.003Z</time>
      </trkpt>
      <trkpt lat="48.83668" lon="2.35175">
        <ele>126.8</ele>
        <time>2015-04-20T20:13:12.033Z</time>
      </trkpt>
      <trkpt lat="48.83676" lon="2.35173">
        <ele>126.3</ele>
        <time>2015-04-20T20:13:13.938Z</time>
      </trkpt>
      <trkpt lat="48.83682" lon="2.35171">
        <ele>125.9</ele>
        <time>2015-04-20T20:13:15.130Z</time>
      </trkpt>
      <trkpt lat="48.83687" lon="2.35169">
        <ele>125.9</ele>
        <time>2015-04-20T20:13:15.969Z</time>
      </trkpt>
      <trkpt lat="48.83692" lon="2.35167">
        <ele>125.8</ele>
        <time>2015-04-20T20:13:16.973Z</time>
      </trkpt>
      <trkpt lat="48.83697" lon="2.35166">
        <ele>125.8</ele>
        <time>2015-04-20T20:13:17.997Z</time>
      </trkpt>
      <trkpt lat="48.83702" lon="2.35164">
        <ele>125.7</ele>
        <time>2015-04-20T20:13:19.015Z</time>
      </trkpt>
      <trkpt lat="48.8371" lon="2.35162">
        <ele>126.3</ele>
        <time>2015-04-20T20:13:21.052Z</time>
      </trkpt>
      <trkpt lat="48.83713" lon="2.3516">
        <ele>126.6</ele>
        <time>2015-04-20T20:13:21.946Z</time>
      </trkpt>
      <trkpt lat="48.8372" lon="2.35153">
        <ele>127.2</ele>
        <time>2015-04-20T20:13:24.914Z</time>
      </trkpt>
      <trkpt lat="48.83723" lon="2.3515">
        <ele>127.4</ele>
        <time>2015-04-20T20:13:25.943Z</time>
      </trkpt>
      <trkpt lat="48.83728" lon="2.35145">
        <ele>127.8</ele>
        <time>2015-04-20T20:13:27.968Z</time>
      </trkpt>
      <trkpt lat="48.8373" lon="2.35141">
        <ele>128.1</ele>
        <time>2015-04-20T20:13:28.984Z</time>
      </trkpt>
      <trkpt lat="48.83737" lon="2.35132">
        <ele>128.3</ele>
        <time>2015-04-20T20:13:31.945Z</time>
      </trkpt>
      <trkpt lat="48.83739" lon="2.35129">
        <ele>128.5</ele>
        <time>2015-04-20T20:13:33.127Z</time>
      </trkpt>
      <trkpt lat="48.83743" lon="2.35127">
        <ele>128.5</ele>
        <time>2015-04-20T20:13:33.935Z</time>
      </trkpt>
      <trkpt lat="48.83748" lon="2.35125">
        <ele>128.7</ele>
        <time>2015-04-20T20:13:34.936Z</time>
      </trkpt>
      <trkpt lat="48.83752" lon="2.35123">
        <ele>129</ele>
        <time>2015-04-20T20:13:35.947Z</time>
      </trkpt>
      <trkpt lat="48.83758" lon="2.3512">
        <ele>129</ele>
        <time>2015-04-20T20:13:36.951Z</time>
      </trkpt>
      <trkpt lat="48.83763" lon="2.35118">
        <ele>129.4</ele>
        <time>2015-04-20T20:13:37.966Z</time>
      </trkpt>
      <trkpt lat="48.83768" lon="2.35115">
        <ele>129.7</ele>
        <time>2015-04-20T20:13:38.983Z</time>
      </trkpt>
      <trkpt lat="48.83773" lon="2.35112">
        <ele>130.1</ele>
        <time>2015-04-20T20:13:40.002Z</time>
      </trkpt>
      <trkpt lat="48.83779" lon="2.3511">
        <ele>130.5</ele>
        <time>2015-04-20T20:13:41.013Z</time>
      </trkpt>
      <trkpt lat="48.83785" lon="2.35107">
        <ele>130.8</ele>
        <time>2015-04-20T20:13:41.911Z</time>
      </trkpt>
      <trkpt lat="48.83789" lon="2.35106">
        <ele>131</ele>
        <time>2015-04-20T20:13:42.937Z</time>
      </trkpt>
      <trkpt lat="48.83793" lon="2.35103">
        <ele>131.3</ele>
        <time>2015-04-20T20:13:43.955Z</time>
      </trkpt>
      <trkpt lat="48.83797" lon="2.351">
        <ele>131.6</ele>
        <time>2015-04-20T20:13:44.991Z</time>
      </trkpt>
      <trkpt lat="48.83803" lon="2.35097">
        <ele>132</ele>
        <time>2015-04-20T20:13:46.012Z</time>
      </trkpt>
      <trkpt lat="48.83808" lon="2.35094">
        <ele>132.3</ele>
        <time>2015-04-20T20:13:46.917Z</time>
      </trkpt>
      <trkpt lat="48.83812" lon="2.3509">
        <ele>132.5</ele>
        <time>2015-04-20T20:13:47.938Z</time>
      </trkpt>
      <trkpt lat="48.83816" lon="2.35086">
        <ele>132.7</ele>
        <time>2015-04-20T20:13:48.939Z</time>
      </trkpt>
      <trkpt lat="48.83821" lon="2.35083">
        <ele>133</ele>
        <time>2015-04-20T20:13:49.953Z</time>
      </trkpt>
      <trkpt lat="48.83826" lon="2.3508">
        <ele>133</ele>
        <time>2015-04-20T20:13:50.969Z</time>
      </trkpt>
      <trkpt lat="48.83834" lon="2.35077">
        <ele>133.4</ele>
        <time>2015-04-20T20:13:51.979Z</time>
      </trkpt>
      <trkpt lat="48.83839" lon="2.35075">
        <ele>133.4</ele>
        <time>2015-04-20T20:13:52.990Z</time>
      </trkpt>
      <trkpt lat="48.83845" lon="2.35074">
        <ele>133.5</ele>
        <time>2015-04-20T20:13:53.996Z</time>
      </trkpt>
      <trkpt lat="48.83851" lon="2.35073">
        <ele>132.6</ele>
        <time>2015-04-20T20:13:55.007Z</time>
      </trkpt>
      <trkpt lat="48.83857" lon="2.35074">
        <ele>131.1</ele>
        <time>2015-04-20T20:13:56.026Z</time>
      </trkpt>
      <trkpt lat="48.83864" lon="2.35073">
        <ele>129.7</ele>
        <time>2015-04-20T20:13:57.025Z</time>
      </trkpt>
      <trkpt lat="48.83875" lon="2.35076">
        <ele>127.8</ele>
        <time>2015-04-20T20:13:57.935Z</time>
      </trkpt>
      <trkpt lat="48.83881" lon="2.35076">
        <ele>127.1</ele>
        <time>2015-04-20T20:13:59.016Z</time>
      </trkpt>
      <trkpt lat="48.83886" lon="2.35077">
        <ele>126.1</ele>
        <time>2015-04-20T20:13:59.978Z</time>
      </trkpt>
      <trkpt lat="48.8389" lon="2.35079">
        <ele>125.5</ele>
        <time>2015-04-20T20:14:00.992Z</time>
      </trkpt>
      <trkpt lat="48.83896" lon="2.35081">
        <ele>125.3</ele>
        <time>2015-04-20T20:14:02.035Z</time>
      </trkpt>
      <trkpt lat="48.83903" lon="2.35086">
        <ele>124.5</ele>
        <time>2015-04-20T20:14:03.956Z</time>
      </trkpt>
      <trkpt lat="48.83907" lon="2.35088">
        <ele>123.9</ele>
        <time>2015-04-20T20:14:04.984Z</time>
      </trkpt>
      <trkpt lat="48.83913" lon="2.35096">
        <ele>122.9</ele>
        <time>2015-04-20T20:14:06.973Z</time>
      </trkpt>
      <trkpt lat="48.83915" lon="2.35099">
        <ele>122.6</ele>
        <time>2015-04-20T20:14:07.986Z</time>
      </trkpt>
      <trkpt lat="48.83922" lon="2.35102">
        <ele>122.1</ele>
        <time>2015-04-20T20:14:09.973Z</time>
      </trkpt>
      <trkpt lat="48.83926" lon="2.35103">
        <ele>121.7</ele>
        <time>2015-04-20T20:14:10.925Z</time>
      </trkpt>
      <trkpt lat="48.8393" lon="2.35106">
        <ele>121.4</ele>
        <time>2015-04-20T20:14:12.104Z</time>
      </trkpt>
      <trkpt lat="48.83936" lon="2.35108">
        <ele>121.1</ele>
        <time>2015-04-20T20:14:12.972Z</time>
      </trkpt>
      <trkpt lat="48.83941" lon="2.3511">
        <ele>120.8</ele>
        <time>2015-04-20T20:14:13.939Z</time>
      </trkpt>
      <trkpt lat="48.83946" lon="2.35112">
        <ele>120.5</ele>
        <time>2015-04-20T20:14:15.013Z</time>
      </trkpt>
      <trkpt lat="48.83951" lon="2.35115">
        <ele>120.2</ele>
        <time>2015-04-20T20:14:15.935Z</time>
      </trkpt>
      <trkpt lat="48.83955" lon="2.35117">
        <ele>119.8</ele>
        <time>2015-04-20T20:14:16.929Z</time>
      </trkpt>
      <trkpt lat="48.83962" lon="2.35123">
        <ele>118.7</ele>
        <time>2015-04-20T20:14:18.973Z</time>
      </trkpt>
      <trkpt lat="48.83965" lon="2.35125">
        <ele>118</ele>
        <time>2015-04-20T20:14:19.949Z</time>
      </trkpt>
      <trkpt lat="48.8397" lon="2.35128">
        <ele>116.8</ele>
        <time>2015-04-20T20:14:21.967Z</time>
      </trkpt>
      <trkpt lat="48.83973" lon="2.3513">
        <ele>116.2</ele>
        <time>2015-04-20T20:14:22.903Z</time>
      </trkpt>
      <trkpt lat="48.83979" lon="2.35134">
        <ele>115.4</ele>
        <time>2015-04-20T20:14:24.963Z</time>
      </trkpt>
      <trkpt lat="48.83982" lon="2.35137">
        <ele>115.4</ele>
        <time>2015-04-20T20:14:25.902Z</time>
      </trkpt>
      <trkpt lat="48.83987" lon="2.35143">
        <ele>115.4</ele>
        <time>2015-04-20T20:14:27.943Z</time>
      </trkpt>
      <trkpt lat="48.83989" lon="2.35148">
        <ele>115.2</ele>
        <time>2015-04-20T20:14:28.960Z</time>
      </trkpt>
      <trkpt lat="48.83995" lon="2.35157">
        <ele>114.9</ele>
        <time>2015-04-20T20:14:30.922Z</time>
      </trkpt>
      <trkpt lat="48.83997" lon="2.35162">
        <ele>114.5</ele>
        <time>2015-04-20T20:14:31.979Z</time>
      </trkpt>
      <trkpt lat="48.84001" lon="2.35172">
        <ele>114</ele>
        <time>2015-04-20T20:14:33.894Z</time>
      </trkpt>
      <trkpt lat="48.84005" lon="2.35182">
        <ele>113.1</ele>
        <time>2015-04-20T20:14:34.901Z</time>
      </trkpt>
      <trkpt lat="48.84008" lon="2.35193">
        <ele>112.1</ele>
        <time>2015-04-20T20:14:36.936Z</time>
      </trkpt>
      <trkpt lat="48.8401" lon="2.35198">
        <ele>111.9</ele>
        <time>2015-04-20T20:14:37.956Z</time>
      </trkpt>
      <trkpt lat="48.84014" lon="2.35207">
        <ele>111.2</ele>
        <time>2015-04-20T20:14:39.998Z</time>
      </trkpt>
      <trkpt lat="48.84015" lon="2.35212">
        <ele>110.9</ele>
        <time>2015-04-20T20:14:41.007Z</time>
      </trkpt>
      <trkpt lat="48.84017" lon="2.3522">
        <ele>110.4</ele>
        <time>2015-04-20T20:14:42.919Z</time>
      </trkpt>
      <trkpt lat="48.84019" lon="2.35224">
        <ele>110.2</ele>
        <time>2015-04-20T20:14:43.983Z</time>
      </trkpt>
      <trkpt lat="48.84021" lon="2.35229">
        <ele>110</ele>
        <time>2015-04-20T20:14:45.011Z</time>
      </trkpt>
      <trkpt lat="48.84024" lon="2.35235">
        <ele>109.7</ele>
        <time>2015-04-20T20:14:45.973Z</time>
      </trkpt>
      <trkpt lat="48.84028" lon="2.35241">
        <ele>109.3</ele>
        <time>2015-04-20T20:14:46.988Z</time>
      </trkpt>
      <trkpt lat="48.84031" lon="2.35247">
        <ele>109</ele>
        <time>2015-04-20T20:14:48.005Z</time>
      </trkpt>
      <trkpt lat="48.84034" lon="2.35259">
        <ele>109.1</ele>
        <time>2015-04-20T20:14:49.928Z</time>
      </trkpt>
      <trkpt lat="48.84039" lon="2.35264">
        <ele>109.3</ele>
        <time>2015-04-20T20:14:50.994Z</time>
      </trkpt>
      <trkpt lat="48.8404" lon="2.35272">
        <ele>109.9</ele>
        <time>2015-04-20T20:14:51.957Z</time>
      </trkpt>
      <trkpt lat="48.84044" lon="2.35278">
        <ele>110.8</ele>
        <time>2015-04-20T20:14:53.032Z</time>
      </trkpt>
      <trkpt lat="48.84048" lon="2.35282">
        <ele>111.5</ele>
        <time>2015-04-20T20:14:53.987Z</time>
      </trkpt>
      <trkpt lat="48.84059" lon="2.35283">
        <ele>113.1</ele>
        <time>2015-04-20T20:14:54.998Z</time>
      </trkpt>
      <trkpt lat="48.84065" lon="2.3529">
        <ele>114.5</ele>
        <time>2015-04-20T20:14:57.971Z</time>
      </trkpt>
      <trkpt lat="48.84063" lon="2.35295">
        <ele>115.1</ele>
        <time>2015-04-20T20:14:58.989Z</time>
      </trkpt>
      <trkpt lat="48.84058" lon="2.35307">
        <ele>114.9</ele>
        <time>2015-04-20T20:15:02.014Z</time>
      </trkpt>
      <trkpt lat="48.84058" lon="2.35312">
        <ele>113.7</ele>
        <time>2015-04-20T20:15:02.955Z</time>
      </trkpt>
      <trkpt lat="48.84058" lon="2.35321">
        <ele>111.7</ele>
        <time>2015-04-20T20:15:03.968Z</time>
      </trkpt>
      <trkpt lat="48.84058" lon="2.35329">
        <ele>109.9</ele>
        <time>2015-04-20T20:15:05.022Z</time>
      </trkpt>
      <trkpt lat="48.84058" lon="2.35337">
        <ele>108.3</ele>
        <time>2015-04-20T20:15:05.930Z</time>
      </trkpt>
      <trkpt lat="48.84058" lon="2.35344">
        <ele>107.6</ele>
        <time>2015-04-20T20:15:06.940Z</time>
      </trkpt>
      <trkpt lat="48.84057" lon="2.35351">
        <ele>106.9</ele>
        <time>2015-04-20T20:15:07.963Z</time>
      </trkpt>
      <trkpt lat="48.84057" lon="2.35358">
        <ele>106</ele>
        <time>2015-04-20T20:15:08.965Z</time>
      </trkpt>
      <trkpt lat="48.84055" lon="2.35371">
        <ele>104.3</ele>
        <time>2015-04-20T20:15:10.996Z</time>
      </trkpt>
      <trkpt lat="48.84055" lon="2.35378">
        <ele>103.4</ele>
        <time>2015-04-20T20:15:11.948Z</time>
      </trkpt>
      <trkpt lat="48.84055" lon="2.35386">
        <ele>103</ele>
        <time>2015-04-20T20:15:12.909Z</time>
      </trkpt>
      <trkpt lat="48.84057" lon="2.35394">
        <ele>102.7</ele>
        <time>2015-04-20T20:15:13.950Z</time>
      </trkpt>
      <trkpt lat="48.8406" lon="2.35402">
        <ele>102.4</ele>
        <time>2015-04-20T20:15:14.956Z</time>
      </trkpt>
      <trkpt lat="48.84064" lon="2.3541">
        <ele>102.3</ele>
        <time>2015-04-20T20:15:15.965Z</time>
      </trkpt>
      <trkpt lat="48.84067" lon="2.35418">
        <ele>102.4</ele>
        <time>2015-04-20T20:15:16.973Z</time>
      </trkpt>
      <trkpt lat="48.84069" lon="2.35425">
        <ele>102.2</ele>
        <time>2015-04-20T20:15:17.990Z</time>
      </trkpt>
      <trkpt lat="48.84072" lon="2.35433">
        <ele>101.8</ele>
        <time>2015-04-20T20:15:18.898Z</time>
      </trkpt>
      <trkpt lat="48.84073" lon="2.3544">
        <ele>101.5</ele>
        <time>2015-04-20T20:15:19.920Z</time>
      </trkpt>
      <trkpt lat="48.84075" lon="2.35447">
        <ele>101.3</ele>
        <time>2015-04-20T20:15:20.955Z</time>
      </trkpt>
      <trkpt lat="48.84077" lon="2.35453">
        <ele>100.8</ele>
        <time>2015-04-20T20:15:21.981Z</time>
      </trkpt>
      <trkpt lat="48.8408" lon="2.35465">
        <ele>100.1</ele>
        <time>2015-04-20T20:15:23.913Z</time>
      </trkpt>
      <trkpt lat="48.84082" lon="2.35471">
        <ele>99.9</ele>
        <time>2015-04-20T20:15:24.923Z</time>
      </trkpt>
      <trkpt lat="48.84085" lon="2.35482">
        <ele>99.5</ele>
        <time>2015-04-20T20:15:27.059Z</time>
      </trkpt>
      <trkpt lat="48.84088" lon="2.35484">
        <ele>99.6</ele>
        <time>2015-04-20T20:15:27.935Z</time>
      </trkpt>
      <trkpt lat="48.84095" lon="2.35485">
        <ele>100</ele>
        <time>2015-04-20T20:15:31.009Z</time>
      </trkpt>
      <trkpt lat="48.84097" lon="2.35482">
        <ele>100.2</ele>
        <time>2015-04-20T20:15:31.949Z</time>
      </trkpt>
      <trkpt lat="48.84099" lon="2.35472">
        <ele>100.5</ele>
        <time>2015-04-20T20:15:35.008Z</time>
      </trkpt>
      <trkpt lat="48.841" lon="2.35469">
        <ele>100.6</ele>
        <time>2015-04-20T20:15:35.943Z</time>
      </trkpt>
      <trkpt lat="48.84105" lon="2.35467">
        <ele>101</ele>
        <time>2015-04-20T20:15:37.946Z</time>
      </trkpt>
      <trkpt lat="48.84109" lon="2.35465">
        <ele>101.3</ele>
        <time>2015-04-20T20:15:38.977Z</time>
      </trkpt>
      <trkpt lat="48.84114" lon="2.35463">
        <ele>101.6</ele>
        <time>2015-04-20T20:15:40.016Z</time>
      </trkpt>
      <trkpt lat="48.84119" lon="2.35463">
        <ele>101.9</ele>
        <time>2015-04-20T20:15:40.923Z</time>
      </trkpt>
      <trkpt lat="48.84126" lon="2.35463">
        <ele>101.5</ele>
        <time>2015-04-20T20:15:42.937Z</time>
      </trkpt>
      <trkpt lat="48.84129" lon="2.35464">
        <ele>100.9</ele>
        <time>2015-04-20T20:15:43.945Z</time>
      </trkpt>
      <trkpt lat="48.84135" lon="2.35466">
        <ele>100.1</ele>
        <time>2015-04-20T20:15:45.998Z</time>
      </trkpt>
      <trkpt lat="48.84139" lon="2.35466">
        <ele>99.3</ele>
        <time>2015-04-20T20:15:47.019Z</time>
      </trkpt>
      <trkpt lat="48.84149" lon="2.35464">
        <ele>98.4</ele>
        <time>2015-04-20T20:15:47.945Z</time>
      </trkpt>
      <trkpt lat="48.84157" lon="2.35461">
        <ele>98.7</ele>
        <time>2015-04-20T20:15:49.991Z</time>
      </trkpt>
      <trkpt lat="48.84162" lon="2.35461">
        <ele>99</ele>
        <time>2015-04-20T20:15:50.989Z</time>
      </trkpt>
      <trkpt lat="48.84167" lon="2.35461">
        <ele>99.1</ele>
        <time>2015-04-20T20:15:52.027Z</time>
      </trkpt>
      <trkpt lat="48.84171" lon="2.35461">
        <ele>99.3</ele>
        <time>2015-04-20T20:15:52.954Z</time>
      </trkpt>
      <trkpt lat="48.84179" lon="2.35462">
        <ele>99.5</ele>
        <time>2015-04-20T20:15:55.946Z</time>
      </trkpt>
      <trkpt lat="48.84182" lon="2.3546">
        <ele>99.9</ele>
        <time>2015-04-20T20:15:56.977Z</time>
      </trkpt>
      <trkpt lat="48.8419" lon="2.35457">
        <ele>100.2</ele>
        <time>2015-04-20T20:15:59.953Z</time>
      </trkpt>
      <trkpt lat="48.84194" lon="2.35454">
        <ele>100.5</ele>
        <time>2015-04-20T20:16:00.981Z</time>
      </trkpt>
      <trkpt lat="48.84197" lon="2.35451">
        <ele>100.5</ele>
        <time>2015-04-20T20:16:01.999Z</time>
      </trkpt>
      <trkpt lat="48.84202" lon="2.35449">
        <ele>100.5</ele>
        <time>2015-04-20T20:16:03.027Z</time>
      </trkpt>
      <trkpt lat="48.84208" lon="2.35448">
        <ele>100.4</ele>
        <time>2015-04-20T20:16:03.946Z</time>
      </trkpt>
      <trkpt lat="48.84215" lon="2.35447">
        <ele>100.6</ele>
        <time>2015-04-20T20:16:04.945Z</time>
      </trkpt>
      <trkpt lat="48.84225" lon="2.35446">
        <ele>100.8</ele>
        <time>2015-04-20T20:16:06.962Z</time>
      </trkpt>
      <trkpt lat="48.84229" lon="2.35446">
        <ele>101.1</ele>
        <time>2015-04-20T20:16:07.963Z</time>
      </trkpt>
      <trkpt lat="48.84235" lon="2.35447">
        <ele>101.5</ele>
        <time>2015-04-20T20:16:08.954Z</time>
      </trkpt>
      <trkpt lat="48.8424" lon="2.35446">
        <ele>102</ele>
        <time>2015-04-20T20:16:09.961Z</time>
      </trkpt>
      <trkpt lat="48.84245" lon="2.35445">
        <ele>102.4</ele>
        <time>2015-04-20T20:16:10.944Z</time>
      </trkpt>
      <trkpt lat="48.84249" lon="2.35442">
        <ele>103</ele>
        <time>2015-04-20T20:16:11.927Z</time>
      </trkpt>
      <trkpt lat="48.84254" lon="2.35439">
        <ele>103.5</ele>
        <time>2015-04-20T20:16:12.927Z</time>
      </trkpt>
      <trkpt lat="48.8436" lon="2.35428">
        <ele>105</ele>
        <time>2015-04-20T20:16:33.928Z</time>
      </trkpt>
      <trkpt lat="48.84366" lon="2.35436">
        <ele>102.5</ele>
        <time>2015-04-20T20:16:54.944Z</time>
      </trkpt>
      <trkpt lat="48.84368" lon="2.35438">
        <ele>102.4</ele>
        <time>2015-04-20T20:16:55.978Z</time>
      </trkpt>
      <trkpt lat="48.84369" lon="2.35449">
        <ele>102.5</ele>
        <time>2015-04-20T20:16:59.027Z</time>
      </trkpt>
      <trkpt lat="48.84369" lon="2.35454">
        <ele>102.4</ele>
        <time>2015-04-20T20:16:59.951Z</time>
      </trkpt>
      <trkpt lat="48.84372" lon="2.35462">
        <ele>102.2</ele>
        <time>2015-04-20T20:17:01.930Z</time>
      </trkpt>
      <trkpt lat="48.84374" lon="2.35466">
        <ele>102.5</ele>
        <time>2015-04-20T20:17:03.012Z</time>
      </trkpt>
      <trkpt lat="48.84378" lon="2.35475">
        <ele>103.2</ele>
        <time>2015-04-20T20:17:05.962Z</time>
      </trkpt>
      <trkpt lat="48.8438" lon="2.35479">
        <ele>103.2</ele>
        <time>2015-04-20T20:17:06.987Z</time>
      </trkpt>
      <trkpt lat="48.84386" lon="2.35485">
        <ele>103.7</ele>
        <time>2015-04-20T20:17:08.980Z</time>
      </trkpt>
      <trkpt lat="48.84388" lon="2.35488">
        <ele>103.7</ele>
        <time>2015-04-20T20:17:10.112Z</time>
      </trkpt>
      <trkpt lat="48.84418" lon="2.35507">
        <ele>104.2</ele>
        <time>2015-04-20T20:17:15.909Z</time>
      </trkpt>
      <trkpt lat="48.84419" lon="2.35519">
        <ele>104.3</ele>
        <time>2015-04-20T20:17:19.021Z</time>
      </trkpt>
      <trkpt lat="48.84417" lon="2.35522">
        <ele>104.3</ele>
        <time>2015-04-20T20:17:19.956Z</time>
      </trkpt>
      <trkpt lat="48.84413" lon="2.35528">
        <ele>104.6</ele>
        <time>2015-04-20T20:17:21.977Z</time>
      </trkpt>
      <trkpt lat="48.84409" lon="2.35536">
        <ele>104.5</ele>
        <time>2015-04-20T20:17:23.953Z</time>
      </trkpt>
      <trkpt lat="48.84411" lon="2.35542">
        <ele>104</ele>
        <time>2015-04-20T20:17:25.004Z</time>
      </trkpt>
      <trkpt lat="48.84414" lon="2.35556">
        <ele>103.7</ele>
        <time>2015-04-20T20:17:27.026Z</time>
      </trkpt>
      <trkpt lat="48.84415" lon="2.35562">
        <ele>103.7</ele>
        <time>2015-04-20T20:17:27.974Z</time>
      </trkpt>
      <trkpt lat="48.84417" lon="2.35568">
        <ele>103.6</ele>
        <time>2015-04-20T20:17:28.956Z</time>
      </trkpt>
      <trkpt lat="48.84421" lon="2.35576">
        <ele>103.5</ele>
        <time>2015-04-20T20:17:29.960Z</time>
      </trkpt>
      <trkpt lat="48.84426" lon="2.35584">
        <ele>103.6</ele>
        <time>2015-04-20T20:17:30.949Z</time>
      </trkpt>
      <trkpt lat="48.8443" lon="2.35592">
        <ele>103.6</ele>
        <time>2015-04-20T20:17:32.031Z</time>
      </trkpt>
      <trkpt lat="48.84436" lon="2.35602">
        <ele>103.5</ele>
        <time>2015-04-20T20:17:32.992Z</time>
      </trkpt>
      <trkpt lat="48.8444" lon="2.3561">
        <ele>103.3</ele>
        <time>2015-04-20T20:17:34.015Z</time>
      </trkpt>
      <trkpt lat="48.84444" lon="2.35618">
        <ele>103.1</ele>
        <time>2015-04-20T20:17:34.928Z</time>
      </trkpt>
      <trkpt lat="48.84448" lon="2.35625">
        <ele>103.1</ele>
        <time>2015-04-20T20:17:35.946Z</time>
      </trkpt>
      <trkpt lat="48.84452" lon="2.35633">
        <ele>103.4</ele>
        <time>2015-04-20T20:17:36.939Z</time>
      </trkpt>
      <trkpt lat="48.84454" lon="2.35641">
        <ele>103.6</ele>
        <time>2015-04-20T20:17:37.948Z</time>
      </trkpt>
      <trkpt lat="48.84457" lon="2.35647">
        <ele>103.5</ele>
        <time>2015-04-20T20:17:38.974Z</time>
      </trkpt>
      <trkpt lat="48.84461" lon="2.35654">
        <ele>103.5</ele>
        <time>2015-04-20T20:17:40.006Z</time>
      </trkpt>
      <trkpt lat="48.84463" lon="2.3566">
        <ele>103.4</ele>
        <time>2015-04-20T20:17:41.013Z</time>
      </trkpt>
      <trkpt lat="48.84465" lon="2.35667">
        <ele>103.4</ele>
        <time>2015-04-20T20:17:42.013Z</time>
      </trkpt>
      <trkpt lat="48.84468" lon="2.35672">
        <ele>103.6</ele>
        <time>2015-04-20T20:17:42.931Z</time>
      </trkpt>
      <trkpt lat="48.84474" lon="2.3568">
        <ele>104.3</ele>
        <time>2015-04-20T20:17:45.118Z</time>
      </trkpt>
      <trkpt lat="48.84476" lon="2.35684">
        <ele>104.7</ele>
        <time>2015-04-20T20:17:45.931Z</time>
      </trkpt>
      <trkpt lat="48.84478" lon="2.35691">
        <ele>105.2</ele>
        <time>2015-04-20T20:17:46.943Z</time>
      </trkpt>
      <trkpt lat="48.84481" lon="2.35698">
        <ele>105.3</ele>
        <time>2015-04-20T20:17:47.957Z</time>
      </trkpt>
      <trkpt lat="48.84482" lon="2.35703">
        <ele>104.8</ele>
        <time>2015-04-20T20:17:48.989Z</time>
      </trkpt>
      <trkpt lat="48.84485" lon="2.35711">
        <ele>104.7</ele>
        <time>2015-04-20T20:17:50.000Z</time>
      </trkpt>
      <trkpt lat="48.8449" lon="2.35719">
        <ele>104.3</ele>
        <time>2015-04-20T20:17:51.004Z</time>
      </trkpt>
      <trkpt lat="48.84497" lon="2.35725">
        <ele>103.8</ele>
        <time>2015-04-20T20:17:51.908Z</time>
      </trkpt>
      <trkpt lat="48.84506" lon="2.3573">
        <ele>103.6</ele>
        <time>2015-04-20T20:17:52.925Z</time>
      </trkpt>
      <trkpt lat="48.84514" lon="2.35736">
        <ele>103.4</ele>
        <time>2015-04-20T20:17:53.935Z</time>
      </trkpt>
      <trkpt lat="48.84521" lon="2.35742">
        <ele>103.2</ele>
        <time>2015-04-20T20:17:54.976Z</time>
      </trkpt>
      <trkpt lat="48.84526" lon="2.35748">
        <ele>103</ele>
        <time>2015-04-20T20:17:55.918Z</time>
      </trkpt>
      <trkpt lat="48.8453" lon="2.35754">
        <ele>102.9</ele>
        <time>2015-04-20T20:17:56.951Z</time>
      </trkpt>
      <trkpt lat="48.84534" lon="2.35762">
        <ele>102.6</ele>
        <time>2015-04-20T20:17:57.903Z</time>
      </trkpt>
      <trkpt lat="48.84537" lon="2.35769">
        <ele>102.2</ele>
        <time>2015-04-20T20:17:58.910Z</time>
      </trkpt>
      <trkpt lat="48.8454" lon="2.35775">
        <ele>101.7</ele>
        <time>2015-04-20T20:17:59.967Z</time>
      </trkpt>
      <trkpt lat="48.84543" lon="2.35782">
        <ele>101.7</ele>
        <time>2015-04-20T20:18:00.972Z</time>
      </trkpt>
      <trkpt lat="48.84545" lon="2.35789">
        <ele>101.5</ele>
        <time>2015-04-20T20:18:01.993Z</time>
      </trkpt>
      <trkpt lat="48.84547" lon="2.35798">
        <ele>101.1</ele>
        <time>2015-04-20T20:18:03.002Z</time>
      </trkpt>
      <trkpt lat="48.84548" lon="2.35809">
        <ele>100.4</ele>
        <time>2015-04-20T20:18:04.017Z</time>
      </trkpt>
      <trkpt lat="48.84552" lon="2.35817">
        <ele>98</ele>
        <time>2015-04-20T20:18:04.939Z</time>
      </trkpt>
      <trkpt lat="48.84556" lon="2.35821">
        <ele>96.6</ele>
        <time>2015-04-20T20:18:05.940Z</time>
      </trkpt>
      <trkpt lat="48.8456" lon="2.3583">
        <ele>96.2</ele>
        <time>2015-04-20T20:18:06.952Z</time>
      </trkpt>
      <trkpt lat="48.84564" lon="2.35838">
        <ele>95.4</ele>
        <time>2015-04-20T20:18:07.960Z</time>
      </trkpt>
      <trkpt lat="48.84568" lon="2.35844">
        <ele>95.1</ele>
        <time>2015-04-20T20:18:08.979Z</time>
      </trkpt>
      <trkpt lat="48.84572" lon="2.35852">
        <ele>94</ele>
        <time>2015-04-20T20:18:10.000Z</time>
      </trkpt>
      <trkpt lat="48.84575" lon="2.35859">
        <ele>93.6</ele>
        <time>2015-04-20T20:18:11.009Z</time>
      </trkpt>
      <trkpt lat="48.84579" lon="2.35866">
        <ele>93.3</ele>
        <time>2015-04-20T20:18:11.936Z</time>
      </trkpt>
      <trkpt lat="48.84581" lon="2.35873">
        <ele>93</ele>
        <time>2015-04-20T20:18:12.928Z</time>
      </trkpt>
      <trkpt lat="48.84584" lon="2.3588">
        <ele>93</ele>
        <time>2015-04-20T20:18:13.948Z</time>
      </trkpt>
      <trkpt lat="48.84587" lon="2.35886">
        <ele>93</ele>
        <time>2015-04-20T20:18:14.967Z</time>
      </trkpt>
      <trkpt lat="48.8459" lon="2.35892">
        <ele>92.6</ele>
        <time>2015-04-20T20:18:15.972Z</time>
      </trkpt>
      <trkpt lat="48.84593" lon="2.35899">
        <ele>92.3</ele>
        <time>2015-04-20T20:18:16.981Z</time>
      </trkpt>
      <trkpt lat="48.84606" lon="2.3595">
        <ele>91.9</ele>
        <time>2015-04-20T20:18:25.001Z</time>
      </trkpt>
      <trkpt lat="48.8461" lon="2.35957">
        <ele>91.6</ele>
        <time>2015-04-20T20:18:25.903Z</time>
      </trkpt>
      <trkpt lat="48.84613" lon="2.35964">
        <ele>91.7</ele>
        <time>2015-04-20T20:18:26.957Z</time>
      </trkpt>
      <trkpt lat="48.84617" lon="2.3597">
        <ele>91.7</ele>
        <time>2015-04-20T20:18:27.950Z</time>
      </trkpt>
      <trkpt lat="48.84621" lon="2.35976">
        <ele>92</ele>
        <time>2015-04-20T20:18:28.966Z</time>
      </trkpt>
      <trkpt lat="48.84626" lon="2.3598">
        <ele>92.1</ele>
        <time>2015-04-20T20:18:29.977Z</time>
      </trkpt>
      <trkpt lat="48.84629" lon="2.35985">
        <ele>92.4</ele>
        <time>2015-04-20T20:18:30.983Z</time>
      </trkpt>
      <trkpt lat="48.84633" lon="2.35996">
        <ele>92.6</ele>
        <time>2015-04-20T20:18:33.025Z</time>
      </trkpt>
      <trkpt lat="48.84634" lon="2.36002">
        <ele>92.6</ele>
        <time>2015-04-20T20:18:33.947Z</time>
      </trkpt>
      <trkpt lat="48.84637" lon="2.36007">
        <ele>92.3</ele>
        <time>2015-04-20T20:18:34.916Z</time>
      </trkpt>
      <trkpt lat="48.84641" lon="2.36012">
        <ele>92.3</ele>
        <time>2015-04-20T20:18:35.931Z</time>
      </trkpt>
      <trkpt lat="48.84644" lon="2.36019">
        <ele>91.7</ele>
        <time>2015-04-20T20:18:36.935Z</time>
      </trkpt>
      <trkpt lat="48.84647" lon="2.36026">
        <ele>91.7</ele>
        <time>2015-04-20T20:18:37.946Z</time>
      </trkpt>
      <trkpt lat="48.84652" lon="2.36033">
        <ele>91.6</ele>
        <time>2015-04-20T20:18:38.970Z</time>
      </trkpt>
      <trkpt lat="48.84655" lon="2.36037">
        <ele>91.7</ele>
        <time>2015-04-20T20:18:39.971Z</time>
      </trkpt>
      <trkpt lat="48.84659" lon="2.36046">
        <ele>92</ele>
        <time>2015-04-20T20:18:41.999Z</time>
      </trkpt>
      <trkpt lat="48.84662" lon="2.36051">
        <ele>91.9</ele>
        <time>2015-04-20T20:18:43.037Z</time>
      </trkpt>
      <trkpt lat="48.84666" lon="2.36059">
        <ele>90.2</ele>
        <time>2015-04-20T20:18:44.978Z</time>
      </trkpt>
      <trkpt lat="48.84668" lon="2.36064">
        <ele>90.6</ele>
        <time>2015-04-20T20:18:46.153Z</time>
      </trkpt>
      <trkpt lat="48.84671" lon="2.36075">
        <ele>90.2</ele>
        <time>2015-04-20T20:18:49.016Z</time>
      </trkpt>
      <trkpt lat="48.84672" lon="2.36079">
        <ele>90.1</ele>
        <time>2015-04-20T20:18:50.021Z</time>
      </trkpt>
      <trkpt lat="48.84675" lon="2.36084">
        <ele>90.1</ele>
        <time>2015-04-20T20:19:18.944Z</time>
      </trkpt>
      <trkpt lat="48.84685" lon="2.36087">
        <ele>87.4</ele>
        <time>2015-04-20T20:19:19.950Z</time>
      </trkpt>
      <trkpt lat="48.8469" lon="2.36081">
        <ele>87.5</ele>
        <time>2015-04-20T20:19:22.144Z</time>
      </trkpt>
      <trkpt lat="48.84694" lon="2.36077">
        <ele>87.6</ele>
        <time>2015-04-20T20:19:22.930Z</time>
      </trkpt>
      <trkpt lat="48.84698" lon="2.36073">
        <ele>87.9</ele>
        <time>2015-04-20T20:19:23.933Z</time>
      </trkpt>
      <trkpt lat="48.84701" lon="2.36069">
        <ele>88.3</ele>
        <time>2015-04-20T20:19:24.945Z</time>
      </trkpt>
      <trkpt lat="48.84705" lon="2.36065">
        <ele>88.4</ele>
        <time>2015-04-20T20:19:25.921Z</time>
      </trkpt>
      <trkpt lat="48.84709" lon="2.36061">
        <ele>88.6</ele>
        <time>2015-04-20T20:19:26.949Z</time>
      </trkpt>
      <trkpt lat="48.84714" lon="2.36057">
        <ele>88.8</ele>
        <time>2015-04-20T20:19:28.024Z</time>
      </trkpt>
      <trkpt lat="48.84718" lon="2.36053">
        <ele>88.8</ele>
        <time>2015-04-20T20:19:29.014Z</time>
      </trkpt>
      <trkpt lat="48.84723" lon="2.36047">
        <ele>89.2</ele>
        <time>2015-04-20T20:19:30.952Z</time>
      </trkpt>
      <trkpt lat="48.84725" lon="2.36043">
        <ele>89.2</ele>
        <time>2015-04-20T20:19:31.968Z</time>
      </trkpt>
      <trkpt lat="48.84728" lon="2.36032">
        <ele>89.6</ele>
        <time>2015-04-20T20:19:34.981Z</time>
      </trkpt>
      <trkpt lat="48.84729" lon="2.36029">
        <ele>89.7</ele>
        <time>2015-04-20T20:19:35.983Z</time>
      </trkpt>
      <trkpt lat="48.84734" lon="2.36021">
        <ele>89.8</ele>
        <time>2015-04-20T20:19:37.938Z</time>
      </trkpt>
      <trkpt lat="48.84737" lon="2.36016">
        <ele>89.9</ele>
        <time>2015-04-20T20:19:38.968Z</time>
      </trkpt>
      <trkpt lat="48.84741" lon="2.36012">
        <ele>90</ele>
        <time>2015-04-20T20:19:39.985Z</time>
      </trkpt>
      <trkpt lat="48.84745" lon="2.36006">
        <ele>90.1</ele>
        <time>2015-04-20T20:19:40.959Z</time>
      </trkpt>
      <trkpt lat="48.84749" lon="2.36002">
        <ele>90.3</ele>
        <time>2015-04-20T20:19:42.025Z</time>
      </trkpt>
      <trkpt lat="48.84753" lon="2.35997">
        <ele>90.5</ele>
        <time>2015-04-20T20:19:42.931Z</time>
      </trkpt>
      <trkpt lat="48.84757" lon="2.35993">
        <ele>90.7</ele>
        <time>2015-04-20T20:19:43.941Z</time>
      </trkpt>
      <trkpt lat="48.8476" lon="2.35987">
        <ele>90.7</ele>
        <time>2015-04-20T20:19:44.969Z</time>
      </trkpt>
      <trkpt lat="48.84764" lon="2.35982">
        <ele>90.7</ele>
        <time>2015-04-20T20:19:45.979Z</time>
      </trkpt>
      <trkpt lat="48.84767" lon="2.35977">
        <ele>90.7</ele>
        <time>2015-04-20T20:19:46.993Z</time>
      </trkpt>
      <trkpt lat="48.84771" lon="2.35972">
        <ele>90.6</ele>
        <time>2015-04-20T20:19:48.019Z</time>
      </trkpt>
      <trkpt lat="48.84774" lon="2.35967">
        <ele>90.5</ele>
        <time>2015-04-20T20:19:48.929Z</time>
      </trkpt>
      <trkpt lat="48.84778" lon="2.35958">
        <ele>90.4</ele>
        <time>2015-04-20T20:19:50.977Z</time>
      </trkpt>
      <trkpt lat="48.8478" lon="2.35953">
        <ele>90.2</ele>
        <time>2015-04-20T20:19:51.944Z</time>
      </trkpt>
      <trkpt lat="48.84782" lon="2.3594">
        <ele>90.7</ele>
        <time>2015-04-20T20:19:53.963Z</time>
      </trkpt>
      <trkpt lat="48.84784" lon="2.35933">
        <ele>90.9</ele>
        <time>2015-04-20T20:19:54.988Z</time>
      </trkpt>
      <trkpt lat="48.84786" lon="2.35925">
        <ele>91.5</ele>
        <time>2015-04-20T20:19:55.990Z</time>
      </trkpt>
      <trkpt lat="48.84787" lon="2.35916">
        <ele>91.7</ele>
        <time>2015-04-20T20:19:56.967Z</time>
      </trkpt>
      <trkpt lat="48.8479" lon="2.35909">
        <ele>91.7</ele>
        <time>2015-04-20T20:19:57.997Z</time>
      </trkpt>
      <trkpt lat="48.84793" lon="2.35901">
        <ele>92</ele>
        <time>2015-04-20T20:19:59.030Z</time>
      </trkpt>
      <trkpt lat="48.84799" lon="2.35892">
        <ele>92.5</ele>
        <time>2015-04-20T20:19:59.934Z</time>
      </trkpt>
      <trkpt lat="48.84804" lon="2.35884">
        <ele>92.6</ele>
        <time>2015-04-20T20:20:00.980Z</time>
      </trkpt>
      <trkpt lat="48.84809" lon="2.35875">
        <ele>92.6</ele>
        <time>2015-04-20T20:20:01.988Z</time>
      </trkpt>
      <trkpt lat="48.84813" lon="2.35868">
        <ele>92.8</ele>
        <time>2015-04-20T20:20:03.012Z</time>
      </trkpt>
      <trkpt lat="48.84818" lon="2.3586">
        <ele>93</ele>
        <time>2015-04-20T20:20:03.938Z</time>
      </trkpt>
      <trkpt lat="48.84824" lon="2.35852">
        <ele>93.1</ele>
        <time>2015-04-20T20:20:04.952Z</time>
      </trkpt>
      <trkpt lat="48.84829" lon="2.35843">
        <ele>93.4</ele>
        <time>2015-04-20T20:20:05.976Z</time>
      </trkpt>
      <trkpt lat="48.84835" lon="2.35834">
        <ele>93.9</ele>
        <time>2015-04-20T20:20:06.986Z</time>
      </trkpt>
      <trkpt lat="48.8484" lon="2.35824">
        <ele>94.2</ele>
        <time>2015-04-20T20:20:07.964Z</time>
      </trkpt>
      <trkpt lat="48.84845" lon="2.35814">
        <ele>94.1</ele>
        <time>2015-04-20T20:20:09.056Z</time>
      </trkpt>
      <trkpt lat="48.84852" lon="2.35804">
        <ele>94</ele>
        <time>2015-04-20T20:20:10.002Z</time>
      </trkpt>
      <trkpt lat="48.84858" lon="2.35795">
        <ele>93.9</ele>
        <time>2015-04-20T20:20:10.916Z</time>
      </trkpt>
      <trkpt lat="48.84862" lon="2.35787">
        <ele>93.9</ele>
        <time>2015-04-20T20:20:11.948Z</time>
      </trkpt>
      <trkpt lat="48.84869" lon="2.3578">
        <ele>93.4</ele>
        <time>2015-04-20T20:20:12.931Z</time>
      </trkpt>
      <trkpt lat="48.84873" lon="2.35773">
        <ele>93.6</ele>
        <time>2015-04-20T20:20:13.975Z</time>
      </trkpt>
      <trkpt lat="48.84877" lon="2.35767">
        <ele>94.1</ele>
        <time>2015-04-20T20:20:14.927Z</time>
      </trkpt>
      <trkpt lat="48.84878" lon="2.3576">
        <ele>94.2</ele>
        <time>2015-04-20T20:20:15.942Z</time>
      </trkpt>
      <trkpt lat="48.84882" lon="2.35753">
        <ele>96.3</ele>
        <time>2015-04-20T20:20:16.974Z</time>
      </trkpt>
      <trkpt lat="48.84886" lon="2.35746">
        <ele>96.9</ele>
        <time>2015-04-20T20:20:17.919Z</time>
      </trkpt>
      <trkpt lat="48.84888" lon="2.35739">
        <ele>96.9</ele>
        <time>2015-04-20T20:20:18.920Z</time>
      </trkpt>
      <trkpt lat="48.84891" lon="2.35732">
        <ele>97.1</ele>
        <time>2015-04-20T20:20:19.939Z</time>
      </trkpt>
      <trkpt lat="48.84894" lon="2.35726">
        <ele>97.1</ele>
        <time>2015-04-20T20:20:20.953Z</time>
      </trkpt>
      <trkpt lat="48.84896" lon="2.35721">
        <ele>97.5</ele>
        <time>2015-04-20T20:20:22.001Z</time>
      </trkpt>
      <trkpt lat="48.849" lon="2.35716">
        <ele>98</ele>
        <time>2015-04-20T20:20:37.025Z</time>
      </trkpt>
      <trkpt lat="48.8492" lon="2.357">
        <ele>96.5</ele>
        <time>2015-04-20T20:20:37.942Z</time>
      </trkpt>
      <trkpt lat="48.84922" lon="2.35694">
        <ele>96.5</ele>
        <time>2015-04-20T20:20:39.059Z</time>
      </trkpt>
      <trkpt lat="48.84925" lon="2.35687">
        <ele>96.5</ele>
        <time>2015-04-20T20:20:39.932Z</time>
      </trkpt>
      <trkpt lat="48.84927" lon="2.3568">
        <ele>96.5</ele>
        <time>2015-04-20T20:20:40.928Z</time>
      </trkpt>
      <trkpt lat="48.84932" lon="2.35674">
        <ele>96.9</ele>
        <time>2015-04-20T20:20:41.943Z</time>
      </trkpt>
      <trkpt lat="48.84936" lon="2.35667">
        <ele>97.1</ele>
        <time>2015-04-20T20:20:42.968Z</time>
      </trkpt>
      <trkpt lat="48.8494" lon="2.3566">
        <ele>97.2</ele>
        <time>2015-04-20T20:20:44.009Z</time>
      </trkpt>
      <trkpt lat="48.84943" lon="2.35653">
        <ele>97.2</ele>
        <time>2015-04-20T20:20:45.523Z</time>
      </trkpt>
      <trkpt lat="48.84945" lon="2.35647">
        <ele>97.3</ele>
        <time>2015-04-20T20:20:45.928Z</time>
      </trkpt>
      <trkpt lat="48.84948" lon="2.3564">
        <ele>97.6</ele>
        <time>2015-04-20T20:20:46.986Z</time>
      </trkpt>
      <trkpt lat="48.8495" lon="2.35632">
        <ele>97.7</ele>
        <time>2015-04-20T20:20:48.005Z</time>
      </trkpt>
      <trkpt lat="48.84952" lon="2.3562">
        <ele>98.2</ele>
        <time>2015-04-20T20:20:50.589Z</time>
      </trkpt>
      <trkpt lat="48.84954" lon="2.35614">
        <ele>98.4</ele>
        <time>2015-04-20T20:20:50.991Z</time>
      </trkpt>
      <trkpt lat="48.84956" lon="2.35607">
        <ele>98.6</ele>
        <time>2015-04-20T20:20:51.997Z</time>
      </trkpt>
      <trkpt lat="48.84958" lon="2.356">
        <ele>98.9</ele>
        <time>2015-04-20T20:20:53.040Z</time>
      </trkpt>
      <trkpt lat="48.8496" lon="2.35593">
        <ele>99.1</ele>
        <time>2015-04-20T20:20:53.930Z</time>
      </trkpt>
      <trkpt lat="48.84963" lon="2.35586">
        <ele>99.4</ele>
        <time>2015-04-20T20:20:54.927Z</time>
      </trkpt>
      <trkpt lat="48.84965" lon="2.3558">
        <ele>99.3</ele>
        <time>2015-04-20T20:20:55.951Z</time>
      </trkpt>
      <trkpt lat="48.84967" lon="2.35573">
        <ele>99.3</ele>
        <time>2015-04-20T20:20:56.964Z</time>
      </trkpt>
      <trkpt lat="48.84969" lon="2.35566">
        <ele>99.3</ele>
        <time>2015-04-20T20:20:57.979Z</time>
      </trkpt>
      <trkpt lat="48.84971" lon="2.3556">
        <ele>99.3</ele>
        <time>2015-04-20T20:20:59.000Z</time>
      </trkpt>
      <trkpt lat="48.84974" lon="2.35551">
        <ele>99.5</ele>
        <time>2015-04-20T20:21:00.938Z</time>
      </trkpt>
      <trkpt lat="48.84975" lon="2.35546">
        <ele>99.4</ele>
        <time>2015-04-20T20:21:01.955Z</time>
      </trkpt>
      <trkpt lat="48.84978" lon="2.35537">
        <ele>99.3</ele>
        <time>2015-04-20T20:21:03.986Z</time>
      </trkpt>
      <trkpt lat="48.84979" lon="2.35532">
        <ele>99</ele>
        <time>2015-04-20T20:21:05.020Z</time>
      </trkpt>
      <trkpt lat="48.8498" lon="2.35522">
        <ele>98.7</ele>
        <time>2015-04-20T20:21:06.931Z</time>
      </trkpt>
      <trkpt lat="48.84982" lon="2.35517">
        <ele>99</ele>
        <time>2015-04-20T20:21:07.905Z</time>
      </trkpt>
      <trkpt lat="48.84983" lon="2.3551">
        <ele>99.3</ele>
        <time>2015-04-20T20:21:08.958Z</time>
      </trkpt>
      <trkpt lat="48.84986" lon="2.35502">
        <ele>100</ele>
        <time>2015-04-20T20:21:10.008Z</time>
      </trkpt>
      <trkpt lat="48.84989" lon="2.35494">
        <ele>100.2</ele>
        <time>2015-04-20T20:21:10.903Z</time>
      </trkpt>
      <trkpt lat="48.84991" lon="2.35488">
        <ele>100.4</ele>
        <time>2015-04-20T20:21:11.912Z</time>
      </trkpt>
      <trkpt lat="48.84998" lon="2.35479">
        <ele>100.7</ele>
        <time>2015-04-20T20:21:12.925Z</time>
      </trkpt>
      <trkpt lat="48.85" lon="2.35472">
        <ele>101</ele>
        <time>2015-04-20T20:21:13.940Z</time>
      </trkpt>
      <trkpt lat="48.85002" lon="2.35465">
        <ele>101.1</ele>
        <time>2015-04-20T20:21:14.961Z</time>
      </trkpt>
      <trkpt lat="48.85003" lon="2.35459">
        <ele>101</ele>
        <time>2015-04-20T20:21:15.979Z</time>
      </trkpt>
      <trkpt lat="48.85005" lon="2.35454">
        <ele>100.8</ele>
        <time>2015-04-20T20:21:16.891Z</time>
      </trkpt>
      <trkpt lat="48.85008" lon="2.35447">
        <ele>100.7</ele>
        <time>2015-04-20T20:21:17.920Z</time>
      </trkpt>
      <trkpt lat="48.8501" lon="2.35439">
        <ele>100.5</ele>
        <time>2015-04-20T20:21:18.912Z</time>
      </trkpt>
      <trkpt lat="48.85012" lon="2.35432">
        <ele>100.3</ele>
        <time>2015-04-20T20:21:19.896Z</time>
      </trkpt>
      <trkpt lat="48.85015" lon="2.35425">
        <ele>100.1</ele>
        <time>2015-04-20T20:21:20.952Z</time>
      </trkpt>
      <trkpt lat="48.85017" lon="2.35418">
        <ele>100.3</ele>
        <time>2015-04-20T20:21:21.963Z</time>
      </trkpt>
      <trkpt lat="48.8502" lon="2.3541">
        <ele>100.2</ele>
        <time>2015-04-20T20:21:22.896Z</time>
      </trkpt>
      <trkpt lat="48.85023" lon="2.35401">
        <ele>100.1</ele>
        <time>2015-04-20T20:21:23.925Z</time>
      </trkpt>
      <trkpt lat="48.85027" lon="2.35392">
        <ele>99.8</ele>
        <time>2015-04-20T20:21:24.939Z</time>
      </trkpt>
      <trkpt lat="48.8503" lon="2.35382">
        <ele>99.7</ele>
        <time>2015-04-20T20:21:25.975Z</time>
      </trkpt>
      <trkpt lat="48.85034" lon="2.35372">
        <ele>100</ele>
        <time>2015-04-20T20:21:26.992Z</time>
      </trkpt>
      <trkpt lat="48.85037" lon="2.35361">
        <ele>100.2</ele>
        <time>2015-04-20T20:21:28.005Z</time>
      </trkpt>
      <trkpt lat="48.8504" lon="2.35351">
        <ele>100.3</ele>
        <time>2015-04-20T20:21:28.919Z</time>
      </trkpt>
      <trkpt lat="48.85043" lon="2.3534">
        <ele>100.7</ele>
        <time>2015-04-20T20:21:29.933Z</time>
      </trkpt>
      <trkpt lat="48.85045" lon="2.35329">
        <ele>100.8</ele>
        <time>2015-04-20T20:21:30.940Z</time>
      </trkpt>
      <trkpt lat="48.85048" lon="2.35316">
        <ele>100.8</ele>
        <time>2015-04-20T20:21:31.950Z</time>
      </trkpt>
      <trkpt lat="48.85065" lon="2.35265">
        <ele>100.4</ele>
        <time>2015-04-20T20:21:32.980Z</time>
      </trkpt>
      <trkpt lat="48.85068" lon="2.35256">
        <ele>100.2</ele>
        <time>2015-04-20T20:21:33.998Z</time>
      </trkpt>
      <trkpt lat="48.85072" lon="2.35246">
        <ele>99.8</ele>
        <time>2015-04-20T20:21:34.916Z</time>
      </trkpt>
      <trkpt lat="48.85075" lon="2.35236">
        <ele>99.1</ele>
        <time>2015-04-20T20:21:35.919Z</time>
      </trkpt>
      <trkpt lat="48.85081" lon="2.35225">
        <ele>98.8</ele>
        <time>2015-04-20T20:21:36.961Z</time>
      </trkpt>
      <trkpt lat="48.85086" lon="2.35215">
        <ele>98.3</ele>
        <time>2015-04-20T20:21:37.966Z</time>
      </trkpt>
      <trkpt lat="48.85093" lon="2.35205">
        <ele>98.1</ele>
        <time>2015-04-20T20:21:38.990Z</time>
      </trkpt>
      <trkpt lat="48.85099" lon="2.35196">
        <ele>97.7</ele>
        <time>2015-04-20T20:21:39.919Z</time>
      </trkpt>
      <trkpt lat="48.85103" lon="2.35187">
        <ele>97.4</ele>
        <time>2015-04-20T20:21:40.934Z</time>
      </trkpt>
      <trkpt lat="48.85105" lon="2.35179">
        <ele>97</ele>
        <time>2015-04-20T20:21:41.950Z</time>
      </trkpt>
      <trkpt lat="48.85107" lon="2.35171">
        <ele>96.5</ele>
        <time>2015-04-20T20:21:42.972Z</time>
      </trkpt>
      <trkpt lat="48.8511" lon="2.35163">
        <ele>96</ele>
        <time>2015-04-20T20:21:43.917Z</time>
      </trkpt>
      <trkpt lat="48.85109" lon="2.35157">
        <ele>95.4</ele>
        <time>2015-04-20T20:21:44.986Z</time>
      </trkpt>
      <trkpt lat="48.85107" lon="2.35147">
        <ele>94.8</ele>
        <time>2015-04-20T20:21:46.921Z</time>
      </trkpt>
      <trkpt lat="48.85111" lon="2.35139">
        <ele>94.9</ele>
        <time>2015-04-20T20:21:47.956Z</time>
      </trkpt>
      <trkpt lat="48.85116" lon="2.35132">
        <ele>94.9</ele>
        <time>2015-04-20T20:21:48.982Z</time>
      </trkpt>
      <trkpt lat="48.8512" lon="2.35129">
        <ele>94.6</ele>
        <time>2015-04-20T20:21:49.981Z</time>
      </trkpt>
      <trkpt lat="48.85126" lon="2.35129">
        <ele>94</ele>
        <time>2015-04-20T20:21:52.012Z</time>
      </trkpt>
      <trkpt lat="48.85131" lon="2.35133">
        <ele>91.5</ele>
        <time>2015-04-20T20:21:52.976Z</time>
      </trkpt>
      <trkpt lat="48.85136" lon="2.35144">
        <ele>89.1</ele>
        <time>2015-04-20T20:21:55.056Z</time>
      </trkpt>
      <trkpt lat="48.85139" lon="2.35149">
        <ele>87.7</ele>
        <time>2015-04-20T20:21:55.908Z</time>
      </trkpt>
      <trkpt lat="48.85144" lon="2.35154">
        <ele>87.6</ele>
        <time>2015-04-20T20:21:57.970Z</time>
      </trkpt>
      <trkpt lat="48.85147" lon="2.35156">
        <ele>87.6</ele>
        <time>2015-04-20T20:21:58.980Z</time>
      </trkpt>
      <trkpt lat="48.85153" lon="2.35161">
        <ele>87.2</ele>
        <time>2015-04-20T20:22:00.906Z</time>
      </trkpt>
      <trkpt lat="48.85156" lon="2.35163">
        <ele>86.8</ele>
        <time>2015-04-20T20:22:01.934Z</time>
      </trkpt>
      <trkpt lat="48.85162" lon="2.35167">
        <ele>86.7</ele>
        <time>2015-04-20T20:22:03.906Z</time>
      </trkpt>
      <trkpt lat="48.85166" lon="2.35169">
        <ele>86.5</ele>
        <time>2015-04-20T20:22:04.944Z</time>
      </trkpt>
      <trkpt lat="48.85173" lon="2.35171">
        <ele>86.2</ele>
        <time>2015-04-20T20:22:06.988Z</time>
      </trkpt>
      <trkpt lat="48.85177" lon="2.35171">
        <ele>86</ele>
        <time>2015-04-20T20:22:07.929Z</time>
      </trkpt>
      <trkpt lat="48.85183" lon="2.35177">
        <ele>85.7</ele>
        <time>2015-04-20T20:22:10.962Z</time>
      </trkpt>
      <trkpt lat="48.85185" lon="2.35179">
        <ele>86</ele>
        <time>2015-04-20T20:22:11.970Z</time>
      </trkpt>
      <trkpt lat="48.85193" lon="2.35183">
        <ele>85.4</ele>
        <time>2015-04-20T20:22:15.018Z</time>
      </trkpt>
      <trkpt lat="48.85196" lon="2.35185">
        <ele>85.2</ele>
        <time>2015-04-20T20:22:15.910Z</time>
      </trkpt>
      <trkpt lat="48.85202" lon="2.35189">
        <ele>85.4</ele>
        <time>2015-04-20T20:22:17.969Z</time>
      </trkpt>
      <trkpt lat="48.85205" lon="2.35191">
        <ele>85.1</ele>
        <time>2015-04-20T20:22:18.974Z</time>
      </trkpt>
      <trkpt lat="48.85211" lon="2.35196">
        <ele>85</ele>
        <time>2015-04-20T20:22:21.024Z</time>
      </trkpt>
      <trkpt lat="48.85215" lon="2.35198">
        <ele>85</ele>
        <time>2015-04-20T20:22:21.902Z</time>
      </trkpt>
      <trkpt lat="48.85222" lon="2.35202">
        <ele>84.9</ele>
        <time>2015-04-20T20:22:23.935Z</time>
      </trkpt>
      <trkpt lat="48.85226" lon="2.35203">
        <ele>84.6</ele>
        <time>2015-04-20T20:22:24.930Z</time>
      </trkpt>
      <trkpt lat="48.85234" lon="2.35207">
        <ele>84.2</ele>
        <time>2015-04-20T20:22:26.984Z</time>
      </trkpt>
      <trkpt lat="48.85238" lon="2.3521">
        <ele>84.4</ele>
        <time>2015-04-20T20:22:27.991Z</time>
      </trkpt>
      <trkpt lat="48.85245" lon="2.35214">
        <ele>84.5</ele>
        <time>2015-04-20T20:22:30.011Z</time>
      </trkpt>
      <trkpt lat="48.85249" lon="2.35216">
        <ele>84.7</ele>
        <time>2015-04-20T20:22:30.910Z</time>
      </trkpt>
      <trkpt lat="48.85258" lon="2.35218">
        <ele>85</ele>
        <time>2015-04-20T20:22:32.967Z</time>
      </trkpt>
      <trkpt lat="48.85262" lon="2.35219">
        <ele>85.4</ele>
        <time>2015-04-20T20:22:34.007Z</time>
      </trkpt>
      <trkpt lat="48.85269" lon="2.3522">
        <ele>86.3</ele>
        <time>2015-04-20T20:22:35.933Z</time>
      </trkpt>
      <trkpt lat="48.85272" lon="2.3522">
        <ele>86</ele>
        <time>2015-04-20T20:22:36.949Z</time>
      </trkpt>
      <trkpt lat="48.85281" lon="2.3522">
        <ele>85.6</ele>
        <time>2015-04-20T20:22:40.233Z</time>
      </trkpt>
      <trkpt lat="48.85284" lon="2.35221">
        <ele>85.4</ele>
        <time>2015-04-20T20:22:41.914Z</time>
      </trkpt>
      <trkpt lat="48.85291" lon="2.35221">
        <ele>84.6</ele>
        <time>2015-04-20T20:22:43.931Z</time>
      </trkpt>
      <trkpt lat="48.85294" lon="2.3522">
        <ele>84.3</ele>
        <time>2015-04-20T20:22:45.014Z</time>
      </trkpt>
      <trkpt lat="48.85301" lon="2.35218">
        <ele>84.1</ele>
        <time>2015-04-20T20:22:46.915Z</time>
      </trkpt>
      <trkpt lat="48.85305" lon="2.35217">
        <ele>84.2</ele>
        <time>2015-04-20T20:22:48.014Z</time>
      </trkpt>
      <trkpt lat="48.85312" lon="2.35217">
        <ele>84.2</ele>
        <time>2015-04-20T20:22:49.932Z</time>
      </trkpt>
      <trkpt lat="48.85316" lon="2.35217">
        <ele>84.1</ele>
        <time>2015-04-20T20:22:50.972Z</time>
      </trkpt>
      <trkpt lat="48.85322" lon="2.35218">
        <ele>84.1</ele>
        <time>2015-04-20T20:22:53.423Z</time>
      </trkpt>
      <trkpt lat="48.85326" lon="2.35217">
        <ele>84.1</ele>
        <time>2015-04-20T20:22:53.973Z</time>
      </trkpt>
      <trkpt lat="48.8533" lon="2.35215">
        <ele>84.2</ele>
        <time>2015-04-20T20:22:55.438Z</time>
      </trkpt>
      <trkpt lat="48.85335" lon="2.35213">
        <ele>84.4</ele>
        <time>2015-04-20T20:22:55.936Z</time>
      </trkpt>
      <trkpt lat="48.85343" lon="2.35208">
        <ele>84.4</ele>
        <time>2015-04-20T20:22:57.961Z</time>
      </trkpt>
      <trkpt lat="48.85347" lon="2.35206">
        <ele>84.3</ele>
        <time>2015-04-20T20:22:58.970Z</time>
      </trkpt>
      <trkpt lat="48.85352" lon="2.35203">
        <ele>84.2</ele>
        <time>2015-04-20T20:23:00.132Z</time>
      </trkpt>
      <trkpt lat="48.85358" lon="2.35199">
        <ele>84.5</ele>
        <time>2015-04-20T20:23:00.913Z</time>
      </trkpt>
      <trkpt lat="48.85365" lon="2.35197">
        <ele>84.2</ele>
        <time>2015-04-20T20:23:01.925Z</time>
      </trkpt>
      <trkpt lat="48.85372" lon="2.35194">
        <ele>84.1</ele>
        <time>2015-04-20T20:23:02.968Z</time>
      </trkpt>
      <trkpt lat="48.85378" lon="2.35192">
        <ele>84.1</ele>
        <time>2015-04-20T20:23:03.951Z</time>
      </trkpt>
      <trkpt lat="48.85384" lon="2.35188">
        <ele>84.2</ele>
        <time>2015-04-20T20:23:05.002Z</time>
      </trkpt>
      <trkpt lat="48.85389" lon="2.35184">
        <ele>84.4</ele>
        <time>2015-04-20T20:23:06.350Z</time>
      </trkpt>
      <trkpt lat="48.85393" lon="2.35181">
        <ele>84.7</ele>
        <time>2015-04-20T20:23:06.920Z</time>
      </trkpt>
      <trkpt lat="48.85398" lon="2.35177">
        <ele>85.2</ele>
        <time>2015-04-20T20:23:07.925Z</time>
      </trkpt>
      <trkpt lat="48.85403" lon="2.35172">
        <ele>85.4</ele>
        <time>2015-04-20T20:23:08.964Z</time>
      </trkpt>
      <trkpt lat="48.85407" lon="2.35166">
        <ele>85.5</ele>
        <time>2015-04-20T20:23:09.965Z</time>
      </trkpt>
      <trkpt lat="48.85412" lon="2.3516">
        <ele>85.7</ele>
        <time>2015-04-20T20:23:10.976Z</time>
      </trkpt>
      <trkpt lat="48.85418" lon="2.35153">
        <ele>85.7</ele>
        <time>2015-04-20T20:23:11.990Z</time>
      </trkpt>
      <trkpt lat="48.85425" lon="2.35147">
        <ele>85.8</ele>
        <time>2015-04-20T20:23:13.000Z</time>
      </trkpt>
      <trkpt lat="48.85432" lon="2.35141">
        <ele>85.9</ele>
        <time>2015-04-20T20:23:13.902Z</time>
      </trkpt>
      <trkpt lat="48.85438" lon="2.35135">
        <ele>85.9</ele>
        <time>2015-04-20T20:23:14.959Z</time>
      </trkpt>
      <trkpt lat="48.85445" lon="2.35131">
        <ele>85.9</ele>
        <time>2015-04-20T20:23:15.953Z</time>
      </trkpt>
      <trkpt lat="48.85452" lon="2.35127">
        <ele>85.8</ele>
        <time>2015-04-20T20:23:16.970Z</time>
      </trkpt>
      <trkpt lat="48.85459" lon="2.35122">
        <ele>85.8</ele>
        <time>2015-04-20T20:23:17.998Z</time>
      </trkpt>
      <trkpt lat="48.85466" lon="2.35119">
        <ele>85.7</ele>
        <time>2015-04-20T20:23:18.929Z</time>
      </trkpt>
      <trkpt lat="48.85472" lon="2.35114">
        <ele>85.7</ele>
        <time>2015-04-20T20:23:19.922Z</time>
      </trkpt>
      <trkpt lat="48.85478" lon="2.35108">
        <ele>85.8</ele>
        <time>2015-04-20T20:23:20.961Z</time>
      </trkpt>
      <trkpt lat="48.85484" lon="2.35103">
        <ele>85.8</ele>
        <time>2015-04-20T20:23:21.962Z</time>
      </trkpt>
      <trkpt lat="48.85489" lon="2.35096">
        <ele>86</ele>
        <time>2015-04-20T20:23:22.980Z</time>
      </trkpt>
      <trkpt lat="48.85494" lon="2.3509">
        <ele>85.9</ele>
        <time>2015-04-20T20:23:23.988Z</time>
      </trkpt>
      <trkpt lat="48.85498" lon="2.35083">
        <ele>85.7</ele>
        <time>2015-04-20T20:23:24.998Z</time>
      </trkpt>
      <trkpt lat="48.85501" lon="2.35074">
        <ele>85.3</ele>
        <time>2015-04-20T20:23:25.887Z</time>
      </trkpt>
      <trkpt lat="48.85502" lon="2.35064">
        <ele>84.9</ele>
        <time>2015-04-20T20:23:26.940Z</time>
      </trkpt>
      <trkpt lat="48.85501" lon="2.35053">
        <ele>83.5</ele>
        <time>2015-04-20T20:23:27.940Z</time>
      </trkpt>
      <trkpt lat="48.85506" lon="2.35041">
        <ele>84</ele>
        <time>2015-04-20T20:23:29.964Z</time>
      </trkpt>
      <trkpt lat="48.85512" lon="2.35033">
        <ele>83.6</ele>
        <time>2015-04-20T20:23:33.017Z</time>
      </trkpt>
      <trkpt lat="48.85514" lon="2.35029">
        <ele>83.4</ele>
        <time>2015-04-20T20:23:33.931Z</time>
      </trkpt>
      <trkpt lat="48.85514" lon="2.35018">
        <ele>84</ele>
        <time>2015-04-20T20:24:00.960Z</time>
      </trkpt>
      <trkpt lat="48.85517" lon="2.34992">
        <ele>89</ele>
        <time>2015-04-20T20:24:01.962Z</time>
      </trkpt>
      <trkpt lat="48.85519" lon="2.34981">
        <ele>89.6</ele>
        <time>2015-04-20T20:24:04.007Z</time>
      </trkpt>
      <trkpt lat="48.8552" lon="2.34976">
        <ele>89.8</ele>
        <time>2015-04-20T20:24:04.913Z</time>
      </trkpt>
      <trkpt lat="48.85523" lon="2.34966">
        <ele>90.5</ele>
        <time>2015-04-20T20:24:06.942Z</time>
      </trkpt>
      <trkpt lat="48.85523" lon="2.34962">
        <ele>90.5</ele>
        <time>2015-04-20T20:24:07.958Z</time>
      </trkpt>
      <trkpt lat="48.85521" lon="2.34953">
        <ele>89.9</ele>
        <time>2015-04-20T20:24:09.958Z</time>
      </trkpt>
      <trkpt lat="48.8552" lon="2.34948">
        <ele>89.7</ele>
        <time>2015-04-20T20:24:10.972Z</time>
      </trkpt>
      <trkpt lat="48.85518" lon="2.34939">
        <ele>89.5</ele>
        <time>2015-04-20T20:24:12.895Z</time>
      </trkpt>
      <trkpt lat="48.85517" lon="2.34933">
        <ele>89.4</ele>
        <time>2015-04-20T20:24:13.917Z</time>
      </trkpt>
      <trkpt lat="48.85519" lon="2.34923">
        <ele>89.8</ele>
        <time>2015-04-20T20:24:15.994Z</time>
      </trkpt>
      <trkpt lat="48.85521" lon="2.34918">
        <ele>89.8</ele>
        <time>2015-04-20T20:24:16.995Z</time>
      </trkpt>
      <trkpt lat="48.85526" lon="2.34908">
        <ele>89.8</ele>
        <time>2015-04-20T20:24:18.889Z</time>
      </trkpt>
      <trkpt lat="48.85528" lon="2.34903">
        <ele>89.6</ele>
        <time>2015-04-20T20:24:19.925Z</time>
      </trkpt>
      <trkpt lat="48.85532" lon="2.34893">
        <ele>90</ele>
        <time>2015-04-20T20:24:21.980Z</time>
      </trkpt>
      <trkpt lat="48.85533" lon="2.34889">
        <ele>90.2</ele>
        <time>2015-04-20T20:24:22.961Z</time>
      </trkpt>
      <trkpt lat="48.85535" lon="2.34886">
        <ele>90.3</ele>
        <time>2015-04-20T20:24:27.016Z</time>
      </trkpt>
      <trkpt lat="48.85541" lon="2.3487">
        <ele>90.8</ele>
        <time>2015-04-20T20:24:27.903Z</time>
      </trkpt>
      <trkpt lat="48.85545" lon="2.34861">
        <ele>90.8</ele>
        <time>2015-04-20T20:24:29.933Z</time>
      </trkpt>
      <trkpt lat="48.85546" lon="2.34857">
        <ele>90.9</ele>
        <time>2015-04-20T20:24:30.955Z</time>
      </trkpt>
      <trkpt lat="48.85547" lon="2.34851">
        <ele>91.5</ele>
        <time>2015-04-20T20:24:33.907Z</time>
      </trkpt>
      <trkpt lat="48.85553" lon="2.34843">
        <ele>91.9</ele>
        <time>2015-04-20T20:24:34.951Z</time>
      </trkpt>
      <trkpt lat="48.85557" lon="2.34834">
        <ele>91.7</ele>
        <time>2015-04-20T20:24:36.953Z</time>
      </trkpt>
      <trkpt lat="48.8556" lon="2.34829">
        <ele>91.5</ele>
        <time>2015-04-20T20:24:37.985Z</time>
      </trkpt>
      <trkpt lat="48.85562" lon="2.34823">
        <ele>91.5</ele>
        <time>2015-04-20T20:24:39.027Z</time>
      </trkpt>
      <trkpt lat="48.85565" lon="2.34818">
        <ele>91.4</ele>
        <time>2015-04-20T20:24:39.936Z</time>
      </trkpt>
      <trkpt lat="48.85569" lon="2.34812">
        <ele>91.6</ele>
        <time>2015-04-20T20:24:40.937Z</time>
      </trkpt>
      <trkpt lat="48.85571" lon="2.34805">
        <ele>91.6</ele>
        <time>2015-04-20T20:24:41.943Z</time>
      </trkpt>
      <trkpt lat="48.85575" lon="2.34796">
        <ele>92</ele>
        <time>2015-04-20T20:24:42.958Z</time>
      </trkpt>
      <trkpt lat="48.85581" lon="2.34787">
        <ele>92.6</ele>
        <time>2015-04-20T20:24:43.969Z</time>
      </trkpt>
      <trkpt lat="48.85585" lon="2.34778">
        <ele>93</ele>
        <time>2015-04-20T20:24:44.978Z</time>
      </trkpt>
      <trkpt lat="48.85587" lon="2.34769">
        <ele>93.4</ele>
        <time>2015-04-20T20:24:45.986Z</time>
      </trkpt>
      <trkpt lat="48.85591" lon="2.34759">
        <ele>93.6</ele>
        <time>2015-04-20T20:24:47.005Z</time>
      </trkpt>
      <trkpt lat="48.85593" lon="2.34749">
        <ele>93.8</ele>
        <time>2015-04-20T20:24:47.918Z</time>
      </trkpt>
      <trkpt lat="48.85595" lon="2.3474">
        <ele>93.9</ele>
        <time>2015-04-20T20:24:48.929Z</time>
      </trkpt>
      <trkpt lat="48.85597" lon="2.34731">
        <ele>94.1</ele>
        <time>2015-04-20T20:24:49.921Z</time>
      </trkpt>
      <trkpt lat="48.85599" lon="2.34722">
        <ele>94.4</ele>
        <time>2015-04-20T20:24:50.934Z</time>
      </trkpt>
      <trkpt lat="48.856" lon="2.34713">
        <ele>94.8</ele>
        <time>2015-04-20T20:24:51.971Z</time>
      </trkpt>
      <trkpt lat="48.85601" lon="2.34701">
        <ele>94.5</ele>
        <time>2015-04-20T20:24:52.999Z</time>
      </trkpt>
      <trkpt lat="48.85602" lon="2.34691">
        <ele>94.5</ele>
        <time>2015-04-20T20:24:54.004Z</time>
      </trkpt>
      <trkpt lat="48.85607" lon="2.34681">
        <ele>94.7</ele>
        <time>2015-04-20T20:24:54.922Z</time>
      </trkpt>
      <trkpt lat="48.8561" lon="2.34673">
        <ele>94.8</ele>
        <time>2015-04-20T20:24:55.923Z</time>
      </trkpt>
      <trkpt lat="48.85614" lon="2.34663">
        <ele>95</ele>
        <time>2015-04-20T20:24:57.958Z</time>
      </trkpt>
      <trkpt lat="48.8562" lon="2.34664">
        <ele>93.8</ele>
        <time>2015-04-20T20:24:58.981Z</time>
      </trkpt>
      <trkpt lat="48.85626" lon="2.34673">
        <ele>92.2</ele>
        <time>2015-04-20T20:25:01.923Z</time>
      </trkpt>
      <trkpt lat="48.85628" lon="2.34674">
        <ele>91.5</ele>
        <time>2015-04-20T20:25:02.989Z</time>
      </trkpt>
      <trkpt lat="48.85635" lon="2.34682">
        <ele>90.9</ele>
        <time>2015-04-20T20:25:06.932Z</time>
      </trkpt>
      <trkpt lat="48.85638" lon="2.34684">
        <ele>90.7</ele>
        <time>2015-04-20T20:25:07.946Z</time>
      </trkpt>
      <trkpt lat="48.85644" lon="2.34689">
        <ele>90.6</ele>
        <time>2015-04-20T20:25:09.982Z</time>
      </trkpt>
      <trkpt lat="48.85647" lon="2.3469">
        <ele>90.1</ele>
        <time>2015-04-20T20:25:10.927Z</time>
      </trkpt>
      <trkpt lat="48.85655" lon="2.34693">
        <ele>89.8</ele>
        <time>2015-04-20T20:25:12.934Z</time>
      </trkpt>
      <trkpt lat="48.85658" lon="2.34695">
        <ele>89.4</ele>
        <time>2015-04-20T20:25:13.935Z</time>
      </trkpt>
      <trkpt lat="48.85663" lon="2.34697">
        <ele>89.3</ele>
        <time>2015-04-20T20:25:14.968Z</time>
      </trkpt>
      <trkpt lat="48.85667" lon="2.34699">
        <ele>88.7</ele>
        <time>2015-04-20T20:25:15.974Z</time>
      </trkpt>
      <trkpt lat="48.85672" lon="2.34701">
        <ele>88.4</ele>
        <time>2015-04-20T20:25:17.700Z</time>
      </trkpt>
      <trkpt lat="48.85677" lon="2.34703">
        <ele>88.2</ele>
        <time>2015-04-20T20:25:18.000Z</time>
      </trkpt>
      <trkpt lat="48.85682" lon="2.34705">
        <ele>88</ele>
        <time>2015-04-20T20:25:18.903Z</time>
      </trkpt>
      <trkpt lat="48.85686" lon="2.34707">
        <ele>87.8</ele>
        <time>2015-04-20T20:25:19.931Z</time>
      </trkpt>
      <trkpt lat="48.85694" lon="2.34711">
        <ele>87.7</ele>
        <time>2015-04-20T20:25:22.721Z</time>
      </trkpt>
      <trkpt lat="48.85698" lon="2.34713">
        <ele>87.5</ele>
        <time>2015-04-20T20:25:22.955Z</time>
      </trkpt>
      <trkpt lat="48.85705" lon="2.34717">
        <ele>87</ele>
        <time>2015-04-20T20:25:24.981Z</time>
      </trkpt>
      <trkpt lat="48.85708" lon="2.3472">
        <ele>86.7</ele>
        <time>2015-04-20T20:25:25.996Z</time>
      </trkpt>
      <trkpt lat="48.85714" lon="2.34725">
        <ele>86.5</ele>
        <time>2015-04-20T20:25:27.896Z</time>
      </trkpt>
      <trkpt lat="48.85716" lon="2.34726">
        <ele>86.2</ele>
        <time>2015-04-20T20:25:28.921Z</time>
      </trkpt>
      <trkpt lat="48.85721" lon="2.34716">
        <ele>83.4</ele>
        <time>2015-04-20T20:25:35.956Z</time>
      </trkpt>
      <trkpt lat="48.85722" lon="2.34713">
        <ele>83.2</ele>
        <time>2015-04-20T20:25:36.966Z</time>
      </trkpt>
      <trkpt lat="48.85724" lon="2.34702">
        <ele>82.3</ele>
        <time>2015-04-20T20:25:41.001Z</time>
      </trkpt>
      <trkpt lat="48.85725" lon="2.347">
        <ele>82.3</ele>
        <time>2015-04-20T20:25:42.003Z</time>
      </trkpt>
      <trkpt lat="48.85728" lon="2.34688">
        <ele>81.9</ele>
        <time>2015-04-20T20:25:46.961Z</time>
      </trkpt>
      <trkpt lat="48.85729" lon="2.34687">
        <ele>81.9</ele>
        <time>2015-04-20T20:25:47.970Z</time>
      </trkpt>
      <trkpt lat="48.8573" lon="2.34686">
        <ele>81.9</ele>
        <time>2015-04-20T20:26:02.005Z</time>
      </trkpt>
      <trkpt lat="48.85738" lon="2.34672">
        <ele>84.8</ele>
        <time>2015-04-20T20:26:03.013Z</time>
      </trkpt>
      <trkpt lat="48.85746" lon="2.34678">
        <ele>84.8</ele>
        <time>2015-04-20T20:26:07.942Z</time>
      </trkpt>
      <trkpt lat="48.85747" lon="2.3468">
        <ele>84.8</ele>
        <time>2015-04-20T20:26:08.991Z</time>
      </trkpt>
      <trkpt lat="48.85755" lon="2.34685">
        <ele>84.6</ele>
        <time>2015-04-20T20:26:11.940Z</time>
      </trkpt>
      <trkpt lat="48.85758" lon="2.34687">
        <ele>84.1</ele>
        <time>2015-04-20T20:26:12.939Z</time>
      </trkpt>
      <trkpt lat="48.85763" lon="2.34693">
        <ele>83.4</ele>
        <time>2015-04-20T20:26:15.857Z</time>
      </trkpt>
      <trkpt lat="48.85765" lon="2.34696">
        <ele>83.5</ele>
        <time>2015-04-20T20:26:15.898Z</time>
      </trkpt>
      <trkpt lat="48.85772" lon="2.34702">
        <ele>84.1</ele>
        <time>2015-04-20T20:26:18.908Z</time>
      </trkpt>
      <trkpt lat="48.85774" lon="2.34706">
        <ele>84.6</ele>
        <time>2015-04-20T20:26:19.912Z</time>
      </trkpt>
      <trkpt lat="48.85779" lon="2.34712">
        <ele>85.2</ele>
        <time>2015-04-20T20:26:21.945Z</time>
      </trkpt>
      <trkpt lat="48.85781" lon="2.34715">
        <ele>85.3</ele>
        <time>2015-04-20T20:26:23.006Z</time>
      </trkpt>
      <trkpt lat="48.85789" lon="2.3472">
        <ele>85.6</ele>
        <time>2015-04-20T20:26:24.935Z</time>
      </trkpt>
      <trkpt lat="48.85793" lon="2.34723">
        <ele>85.6</ele>
        <time>2015-04-20T20:26:25.954Z</time>
      </trkpt>
      <trkpt lat="48.85797" lon="2.34727">
        <ele>85.6</ele>
        <time>2015-04-20T20:26:26.981Z</time>
      </trkpt>
      <trkpt lat="48.85802" lon="2.34732">
        <ele>85.7</ele>
        <time>2015-04-20T20:26:28.022Z</time>
      </trkpt>
      <trkpt lat="48.85808" lon="2.34736">
        <ele>85.8</ele>
        <time>2015-04-20T20:26:28.909Z</time>
      </trkpt>
      <trkpt lat="48.85814" lon="2.34739">
        <ele>85.9</ele>
        <time>2015-04-20T20:26:29.965Z</time>
      </trkpt>
      <trkpt lat="48.8582" lon="2.34739">
        <ele>86.2</ele>
        <time>2015-04-20T20:26:31.006Z</time>
      </trkpt>
      <trkpt lat="48.85825" lon="2.3474">
        <ele>86.4</ele>
        <time>2015-04-20T20:26:32.035Z</time>
      </trkpt>
      <trkpt lat="48.8583" lon="2.34743">
        <ele>86.5</ele>
        <time>2015-04-20T20:26:32.988Z</time>
      </trkpt>
      <trkpt lat="48.85834" lon="2.34743">
        <ele>87</ele>
        <time>2015-04-20T20:26:33.994Z</time>
      </trkpt>
      <trkpt lat="48.85841" lon="2.34744">
        <ele>87.6</ele>
        <time>2015-04-20T20:26:35.922Z</time>
      </trkpt>
      <trkpt lat="48.85847" lon="2.34745">
        <ele>87.8</ele>
        <time>2015-04-20T20:26:37.024Z</time>
      </trkpt>
      <trkpt lat="48.85852" lon="2.34745">
        <ele>88.1</ele>
        <time>2015-04-20T20:26:37.888Z</time>
      </trkpt>
      <trkpt lat="48.85856" lon="2.34744">
        <ele>88.5</ele>
        <time>2015-04-20T20:26:38.946Z</time>
      </trkpt>
      <trkpt lat="48.85863" lon="2.34743">
        <ele>88.7</ele>
        <time>2015-04-20T20:26:40.971Z</time>
      </trkpt>
      <trkpt lat="48.85867" lon="2.34744">
        <ele>88.7</ele>
        <time>2015-04-20T20:26:41.988Z</time>
      </trkpt>
      <trkpt lat="48.85873" lon="2.34743">
        <ele>88.7</ele>
        <time>2015-04-20T20:26:42.919Z</time>
      </trkpt>
      <trkpt lat="48.85879" lon="2.34743">
        <ele>88.9</ele>
        <time>2015-04-20T20:26:43.919Z</time>
      </trkpt>
      <trkpt lat="48.85885" lon="2.34742">
        <ele>89.4</ele>
        <time>2015-04-20T20:26:44.961Z</time>
      </trkpt>
      <trkpt lat="48.85889" lon="2.34743">
        <ele>89.6</ele>
        <time>2015-04-20T20:26:45.968Z</time>
      </trkpt>
      <trkpt lat="48.85898" lon="2.34742">
        <ele>90.1</ele>
        <time>2015-04-20T20:26:48.992Z</time>
      </trkpt>
      <trkpt lat="48.85899" lon="2.34741">
        <ele>90.2</ele>
        <time>2015-04-20T20:26:50.020Z</time>
      </trkpt>
      <trkpt lat="48.85903" lon="2.3473">
        <ele>90.2</ele>
        <time>2015-04-20T20:26:54.965Z</time>
      </trkpt>
      <trkpt lat="48.85903" lon="2.34728">
        <ele>90.5</ele>
        <time>2015-04-20T20:26:55.977Z</time>
      </trkpt>
      <trkpt lat="48.85908" lon="2.34732">
        <ele>92.8</ele>
        <time>2015-04-20T20:27:36.935Z</time>
      </trkpt>
      <trkpt lat="48.85947" lon="2.34731">
        <ele>100.1</ele>
        <time>2015-04-20T20:27:41.963Z</time>
      </trkpt>
    </trkseg>
  </trk>
</gpx>